# Wetter Temperatur Luftdruck Luftfeuchtigkeit Sichtweite Windgeschwindigkeit Windrichtung Zeit
1 Rain 19 1014 99 0 0.81 84.677 20:58 17.10.2019
2 Rain 19 1014 99 0 0.81 84.677 20:39 17.10.2019
3 Clouds 25 1015 88 10000 2.6 140 20:19 17.10.2019
4 -273 0 0 0 0 0 19:59 17.10.2019
5 Clouds 25 1015 88 10000 2.6 140 19:39 17.10.2019
6 Clouds 25 1014 88 10000 3.1 130 19:19 17.10.2019
7 Clouds 25 1014 88 10000 3.1 130 19:19 17.10.2019
8 Clouds 25 1014 88 10000 3.1 130 18:58 17.10.2019
9 Clouds 25 1014 88 10000 3.1 130 18:38 17.10.2019
10 Clouds 25 1014 88 10000 3.6 120 18:19 17.10.2019
11 Clouds 25 1014 88 10000 3.6 120 17:42 17.10.2019
12 Clouds 25 1015 88 10000 2.1 140 17:23 17.10.2019
13 Clouds 25 1015 88 10000 2.1 140 16:56 17.10.2019
14 Clouds 25 1015 88 10000 2.1 140 16:38 17.10.2019
15 Rain 22 1014 96 0 0.552 177 16:18 17.10.2019
16 -273 0 0 0 0 0 15:55 17.10.2019
17 Rain 22 1014 96 0 0.552 177 15:55 17.10.2019
18 Rain 22 1014 96 0 0.552 177 15:37 17.10.2019
19 Rain 22 1015 97 0 1.404 116 15:19 17.10.2019
20 Rain 22 1015 97 0 1.404 116 14:42 17.10.2019
21 Clouds 25 1016 88 10000 4.6 120 14:23 17.10.2019
22 Clouds 25 1016 88 10000 4.6 120 13:56 17.10.2019
23 Clouds 25 1016 88 10000 4.6 120 13:38 17.10.2019
24 Rain 25 1016 94 10000 2.1 140 13:18 17.10.2019
25 Rain 25 1016 94 10000 2.1 140 13:18 17.10.2019
26 Rain 25 1016 94 10000 2.1 140 12:41 17.10.2019
27 Rain 22 1016 97 0 2.03 110 12:20 17.10.2019
28 Rain 22 1016 97 0 2.03 110 11:59 17.10.2019
29 Rain 22 1016 97 0 2.03 110 11:40 17.10.2019
30 Rain 22 1016 97 0 2.03 110 11:19 17.10.2019
31 Rain 22 1016 97 0 2.03 110 10:55 17.10.2019
32 Rain 22 1016 97 0 2.03 110 10:36 17.10.2019
33 Rain 22 1016 97 0 2.03 110 10:18 17.10.2019
34 Rain 22 1016 97 0 2.03 110 09:42 17.10.2019
35 Rain 22 1014 98 0 1.297 121 09:22 17.10.2019
36 Rain 22 1014 98 0 1.297 121 08:58 17.10.2019
37 Rain 22 1014 98 0 1.297 121 08:39 17.10.2019
38 Clouds 26 1014 83 10000 4.1 120 08:21 17.10.2019
39 Clouds 26 1014 83 10000 4.1 120 08:21 17.10.2019
40 Clouds 26 1014 83 10000 4.1 120 07:55 17.10.2019
41 Clouds 26 1014 83 10000 4.1 120 07:55 17.10.2019
42 Clouds 26 1014 83 10000 4.1 120 07:36 17.10.2019
43 Clouds 26 1014 83 10000 3.6 130 07:18 17.10.2019
44 Clouds 26 1014 83 10000 3.6 130 06:40 17.10.2019
45 Drizzle 26 1014 88 10000 3.1 140 06:20 17.10.2019
46 Drizzle 26 1014 88 10000 3.1 140 05:51 17.10.2019
47 Clouds 26 1014 88 10000 3.6 130 05:31 17.10.2019
48 Clouds 26 1014 88 10000 3.6 130 04:52 17.10.2019
49 Rain 23 1013 98 0 0.581 110 03:55 17.10.2019
50 Rain 23 1014 98 0 0.443 160 02:36 17.10.2019
51 Clouds 27 1015 83 10000 4.1 140 00:57 17.10.2019
52 Clouds 27 1015 83 10000 4.1 140 00:38 17.10.2019
53 Rain 26 1015 88 10000 2.6 140 00:18 17.10.2019
54 Rain 26 1015 88 10000 2.6 140 23:42 16.10.2019
55 Clouds 26 1015 88 10000 2.6 130 23:21 16.10.2019
56 Clouds 26 1015 88 10000 2.6 130 23:21 16.10.2019
57 Clouds 26 1015 88 10000 2.6 130 23:21 16.10.2019
58 Clouds 26 1015 88 10000 2.6 130 22:56 16.10.2019
59 Clouds 26 1015 88 10000 2.6 130 22:37 16.10.2019
60 Rain 22 1015 97 0 0.394 187 22:18 16.10.2019
61 Rain 22 1015 97 0 0.394 187 21:56 16.10.2019
62 Rain 22 1015 98 0 0.819 50 21:37 16.10.2019
63 Rain 22 1013 97 0 0.847 111 21:18 16.10.2019
64 Rain 22 1013 97 0 0.847 111 20:57 16.10.2019
65 Rain 22 1013 97 0 0.847 111 20:38 16.10.2019
66 Clouds 25 1013 88 10000 1.5 140 20:20 16.10.2019
67 Clouds 25 1013 88 10000 1.5 140 19:57 16.10.2019
68 Clouds 25 1013 88 10000 1.5 140 19:38 16.10.2019
69 Clouds 25 1013 88 10000 1.5 140 19:38 16.10.2019
70 Clouds 24 1013 94 10000 1.5 140 19:19 16.10.2019
71 Clouds 24 1013 94 10000 1.5 140 18:39 16.10.2019
72 -273 0 0 0 0 0 18:39 16.10.2019
73 Clouds 24 1013 94 10000 1.5 140 18:19 16.10.2019
74 Clouds 24 1013 94 10000 1.5 140 17:56 16.10.2019
75 Clouds 24 1013 94 10000 1.5 140 17:38 16.10.2019
76 Rain 22 1012 97 0 0.182 307 17:20 16.10.2019
77 -273 0 0 0 0 0 16:58 16.10.2019
78 Rain 22 1012 97 0 0.182 307 16:40 16.10.2019
79 Rain 22 1012 97 0 0.182 307 16:20 16.10.2019
80 Rain 22 1012 97 0 0.182 307 15:56 16.10.2019
81 Rain 22 1012 97 0 0.182 307 15:55 16.10.2019
82 Rain 22 1012 97 0 0.182 307 15:36 16.10.2019
83 Clouds 22 1013 96 0 0.45 265 15:18 16.10.2019
84 Clouds 22 1013 96 0 0.45 265 14:55 16.10.2019
85 Rain 22 1013 97 0 0.411 260 14:36 16.10.2019
86 Clouds 24 1014 94 10000 2.1 150 14:18 16.10.2019
87 Clouds 24 1014 94 10000 2.1 150 13:42 16.10.2019
88 Clouds 24 1014 94 10000 2.1 150 13:23 16.10.2019
89 Clouds 24 1014 94 10000 2.1 160 12:57 16.10.2019
90 Clouds 24 1014 94 10000 2.1 160 12:39 16.10.2019
91 Clouds 24 1014 94 10000 2.1 160 12:18 16.10.2019
92 Rain 24 1014 94 10000 1 0 11:42 16.10.2019
93 Rain 24 1014 94 10000 1 0 11:42 16.10.2019
94 Rain 24 1014 94 10000 1 0 11:18 16.10.2019
95 Rain 24 1014 94 10000 1 0 11:18 16.10.2019
96 Clouds 25 1014 88 10000 1 0 10:38 16.10.2019
97 Clouds 25 1014 88 10000 1 0 10:20 16.10.2019
98 -273 0 0 0 0 0 09:55 16.10.2019
99 Rain 23 1014 97 0 1.929 189 09:36 16.10.2019
100 Rain 23 1012 96 0 0.711 173 09:18 16.10.2019
101 Rain 23 1012 96 0 0.711 173 08:42 16.10.2019
102 Clouds 26 1012 88 10000 1 0 08:23 16.10.2019
103 Clouds 26 1012 88 10000 1 0 07:45 16.10.2019
104 -273 0 0 0 0 0 07:25 16.10.2019
105 Clouds 27 1011 78 10000 1 0 06:58 16.10.2019
106 Clouds 27 1011 78 10000 1 0 06:39 16.10.2019
107 Clouds 28 1011 69 10000 1 0 05:44 16.10.2019
108 Clouds 27 1012 83 10000 3.1 60 02:58 16.10.2019
109 Clouds 27 1012 83 10000 3.1 60 02:38 16.10.2019
110 Clouds 27 1012 88 10000 3.6 60 01:19 16.10.2019
111 Clouds 26 1012 94 10000 3.1 60 00:47 16.10.2019
112 Clouds 26 1012 94 10000 3.1 60 00:27 16.10.2019
113 Clouds 27 1013 83 10000 2.1 40 23:40 15.10.2019
114 Clouds 27 1013 83 10000 2.1 40 23:22 15.10.2019
115 Rain 27 1012 83 10000 1 330 22:56 15.10.2019
116 Rain 27 1012 83 10000 1 330 22:38 15.10.2019
117 Rain 27 1012 83 10000 1 330 22:19 15.10.2019
118 Clouds 25 1012 88 10000 1 290 21:56 15.10.2019
119 Clouds 25 1012 88 10000 1 290 21:38 15.10.2019
120 Clouds 25 1012 88 10000 1 290 21:19 15.10.2019
121 Clouds 23 1011 94 10000 1.533 7 20:57 15.10.2019
122 Clouds 23 1011 94 10000 1.533 7 20:38 15.10.2019
123 Clouds 23 1011 94 10000 1.533 7 20:20 15.10.2019
124 Clouds 23 1011 94 10000 1.533 7 19:56 15.10.2019
125 Clouds 23 1011 94 10000 1.533 7 19:56 15.10.2019
126 Clouds 23 1011 94 10000 1.533 7 19:37 15.10.2019
127 Clouds 23 1011 94 10000 1.533 7 19:37 15.10.2019
128 Clouds 23 1011 94 10000 1.533 7 19:19 15.10.2019
129 Clouds 23 1010 94 10000 1.533 7 18:44 15.10.2019
130 Clouds 23 1010 94 10000 1.5 10 18:26 15.10.2019
131 Clouds 23 1010 94 10000 1.5 10 17:56 15.10.2019
132 Clouds 23 1010 94 10000 1.5 10 17:38 15.10.2019
133 Clouds 23 1010 94 10000 1.5 10 17:19 15.10.2019
134 Clouds 23 1010 94 10000 0.959 19 16:45 15.10.2019
135 Clouds 23 1010 94 10000 0.959 19 16:45 15.10.2019
136 Clouds 23 1010 94 10000 0.959 19 16:22 15.10.2019
137 Clouds 24 1011 94 10000 0.959 19 15:58 15.10.2019
138 Clouds 24 1011 94 10000 0.959 19 15:39 15.10.2019
139 Clouds 24 1011 94 10000 1.266 25 15:20 15.10.2019
140 Clouds 24 1012 94 10000 1.5 310 14:56 15.10.2019
141 Clouds 24 1012 94 10000 1.5 310 14:37 15.10.2019
142 Clouds 24 1012 94 10000 1.5 310 14:37 15.10.2019
143 Clouds 24 1012 94 10000 1.5 310 14:19 15.10.2019
144 Clouds 24 1012 94 10000 2.1 310 13:43 15.10.2019
145 Clouds 24 1012 94 10000 2.1 310 13:43 15.10.2019
146 Clouds 24 1012 94 10000 2.1 310 13:21 15.10.2019
147 Clouds 25 1012 88 10000 1 0 12:57 15.10.2019
148 Clouds 25 1012 88 10000 1 0 12:38 15.10.2019
149 Clouds 25 1011 94 10000 1 0 12:20 15.10.2019
150 Clouds 25 1011 94 10000 1 0 11:44 15.10.2019
151 Clouds 25 1011 94 10000 1 0 11:20 15.10.2019
152 Clouds 26 1011 88 10000 1.5 210 10:56 15.10.2019
153 Clouds 26 1011 88 10000 1.5 210 10:38 15.10.2019
154 Clouds 26 1011 88 10000 1.5 210 10:18 15.10.2019
155 Clouds 26 1010 83 10000 2.6 230 09:55 15.10.2019
156 Clouds 26 1010 83 10000 2.6 230 09:55 15.10.2019
157 Clouds 26 1010 83 10000 2.6 230 09:36 15.10.2019
158 Clouds 26 1010 83 10000 2.6 230 09:36 15.10.2019
159 Rain 22 1010 98 0 0.63 170.329 09:18 15.10.2019
160 Rain 22 1010 97 0 0.41 154.187 08:41 15.10.2019
161 Clouds 30 1009 70 10000 1 0 08:21 15.10.2019
162 Clouds 30 1009 70 10000 1 0 07:48 15.10.2019
163 Clouds 30 1009 70 10000 1 0 07:23 15.10.2019
164 Clouds 29 1009 70 10000 2.1 350 06:58 15.10.2019
165 Clouds 29 1009 70 10000 2.1 350 06:40 15.10.2019
166 Clouds 29 1009 70 10000 3.1 350 05:58 15.10.2019
167 Clouds 29 1009 70 10000 3.1 350 05:37 15.10.2019
168 Clouds 28 1010 78 10000 3.6 10 04:53 15.10.2019
169 Clouds 28 1010 78 10000 3.6 10 04:19 15.10.2019
170 Clouds 28 1011 78 10000 4.6 350 03:35 15.10.2019
171 Clouds 28 1011 78 10000 4.6 350 03:35 15.10.2019
172 Clouds 27 1011 78 10000 3.6 360 01:59 15.10.2019
173 Clouds 27 1011 78 10000 3.6 360 01:40 15.10.2019
174 Clouds 27 1012 78 10000 3.1 10 00:59 15.10.2019
175 Clouds 27 1012 78 10000 3.1 10 00:59 15.10.2019
176 Clouds 27 1012 78 10000 3.1 10 00:26 15.10.2019
177 Clouds 27 1012 78 10000 1.5 0 23:59 14.10.2019
178 Clouds 27 1012 78 10000 1.5 0 23:37 14.10.2019
179 Clouds 27 1012 78 10000 1.5 0 23:37 14.10.2019
180 Clouds 27 1012 78 10000 1.5 0 23:18 14.10.2019
181 Clouds 25 1012 88 10000 3.1 260 22:39 14.10.2019
182 Clouds 25 1012 88 10000 3.1 260 22:21 14.10.2019
183 Clouds 24 1012 94 10000 3.6 220 21:58 14.10.2019
184 Clouds 24 1012 94 10000 3.6 220 21:40 14.10.2019
185 Clouds 24 1012 94 10000 3.6 220 21:21 14.10.2019
186 Clouds 24 1012 94 10000 3.6 220 21:21 14.10.2019
187 Clouds 24 1011 94 10000 1 6.391 20:58 14.10.2019
188 Clouds 24 1011 94 10000 1 6.391 20:38 14.10.2019
189 Clouds 24 1011 94 10000 1 6.391 20:38 14.10.2019
190 Clouds 24 1011 94 10000 1 6.391 20:19 14.10.2019
191 Clouds 24 1011 94 10000 1.5 330 19:44 14.10.2019
192 Clouds 24 1011 94 10000 1.5 330 19:26 14.10.2019
193 Clouds 24 1010 94 10000 1.5 340 18:59 14.10.2019
194 Clouds 24 1010 94 10000 1.5 340 18:40 14.10.2019
195 Clouds 24 1010 94 10000 1.5 340 18:21 14.10.2019
196 Clouds 24 1010 94 10000 3.1 340 17:59 14.10.2019
197 Clouds 24 1010 94 10000 3.1 340 17:41 14.10.2019
198 Clouds 24 1010 94 10000 3.1 340 17:22 14.10.2019
199 Clouds 24 1010 94 10000 2.6 350 16:45 14.10.2019
200 Clouds 24 1010 94 10000 2.6 350 16:22 14.10.2019
201 Clouds 24 1011 94 10000 1.5 280 15:58 14.10.2019
202 Clouds 24 1011 94 10000 1.5 280 15:38 14.10.2019
203 Clouds 24 1011 94 10000 1.5 280 15:20 14.10.2019
204 Clouds 24 1011 94 10000 2.1 360 14:43 14.10.2019
205 Clouds 24 1011 94 10000 2.1 360 14:24 14.10.2019
206 Clouds 20 1011 98 0 0.98 11.447 13:57 14.10.2019
207 Clouds 20 1011 98 0 0.98 11.447 13:38 14.10.2019
208 Clouds 26 1012 83 10000 2.6 50 13:19 14.10.2019
209 Clouds 26 1012 83 10000 2.6 50 12:40 14.10.2019
210 Clouds 26 1012 83 10000 2.6 50 12:40 14.10.2019
211 Clouds 26 1012 83 10000 2.6 50 12:19 14.10.2019
212 Clouds 26 1012 83 10000 2.6 50 12:19 14.10.2019
213 Clouds 26 1012 83 10000 2.1 70 11:47 14.10.2019
214 Clouds 26 1012 83 10000 2.1 70 11:27 14.10.2019
215 Clouds 26 1012 83 10000 2.6 50 10:59 14.10.2019
216 Clouds 26 1012 83 10000 2.6 50 10:40 14.10.2019
217 Clouds 26 1012 83 10000 2.6 50 10:20 14.10.2019
218 Clouds 26 1011 83 10000 3.1 60 09:56 14.10.2019
219 Clouds 26 1011 83 10000 3.1 60 09:37 14.10.2019
220 Clouds 26 1011 83 10000 3.1 60 09:18 14.10.2019
221 Clouds 27 1011 78 10000 2.6 60 08:44 14.10.2019
222 Clouds 27 1011 78 10000 2.6 60 08:22 14.10.2019
223 Clouds 27 1010 78 10000 3.6 60 07:42 14.10.2019
224 Clouds 27 1010 78 10000 3.6 60 07:19 14.10.2019
225 Clouds 28 1010 69 10000 4.1 60 06:48 14.10.2019
226 Clouds 28 1010 69 10000 4.1 60 06:20 14.10.2019
227 Clouds 29 1011 70 10000 3.6 80 05:49 14.10.2019
228 Clouds 28 1011 74 10000 4.1 40 04:43 14.10.2019
229 Rain 26 1009 81 0 0.71 129.261 03:27 14.10.2019
230 Clouds 29 1012 56 0 1.25 57.853 02:42 14.10.2019
231 Clouds 27 1013 74 10000 5.1 80 01:23 14.10.2019
232 Clouds 27 1013 74 10000 5.1 80 00:56 14.10.2019
233 Clouds 27 1013 74 10000 6.2 80 00:19 14.10.2019
234 Clouds 27 1013 74 10000 6.2 80 23:45 13.10.2019
235 Clouds 26 1013 78 10000 5.1 80 23:20 13.10.2019
236 Clouds 26 1013 78 10000 5.1 80 22:58 13.10.2019
237 -273 0 0 0 0 0 22:40 13.10.2019
238 Clouds 26 1013 78 10000 5.1 80 22:21 13.10.2019
239 Clouds 25 1012 83 10000 3.6 80 21:58 13.10.2019
240 Clouds 25 1012 83 10000 3.6 80 21:37 13.10.2019
241 Clouds 25 1012 83 10000 3.6 80 21:19 13.10.2019
242 Clouds 24 1012 94 10000 2.6 80 20:57 13.10.2019
243 Clouds 24 1012 94 10000 2.6 80 20:57 13.10.2019
244 Clouds 24 1012 94 10000 2.6 80 20:57 13.10.2019
245 Clouds 24 1012 94 10000 2.6 80 20:57 13.10.2019
246 Clouds 24 1012 94 10000 2.6 80 20:38 13.10.2019
247 Clouds 24 1012 94 10000 2.6 80 20:20 13.10.2019
248 Clouds 24 1012 94 10000 3.1 100 19:57 13.10.2019
249 Clouds 24 1012 94 10000 3.1 100 19:39 13.10.2019
250 Clouds 24 1012 94 10000 3.1 100 19:39 13.10.2019
251 Clouds 24 1012 94 10000 3.1 100 19:21 13.10.2019
252 Clouds 24 1013 94 10000 3.6 100 18:56 13.10.2019
253 Clouds 24 1013 94 10000 3.6 100 18:36 13.10.2019
254 Clouds 24 1013 94 10000 3.6 100 18:18 13.10.2019
255 Clouds 24 1013 94 10000 2.1 100 17:55 13.10.2019
256 Clouds 24 1013 94 10000 2.1 100 17:36 13.10.2019
257 Clouds 24 1013 94 10000 2.1 100 17:18 13.10.2019
258 Clouds 24 1014 94 10000 2.6 110 16:41 13.10.2019
259 Clouds 24 1014 94 10000 2.6 110 16:18 13.10.2019
260 Clouds 25 1014 94 10000 3.1 100 15:56 13.10.2019
261 Clouds 25 1014 94 10000 3.1 100 15:37 13.10.2019
262 Clouds 25 1014 94 10000 3.1 100 15:37 13.10.2019
263 Rain 19 1014 98 0 1.19 54.704 15:18 13.10.2019
264 Rain 19 1014 98 0 1.19 54.704 14:56 13.10.2019
265 Rain 19 1014 98 0 1.19 54.704 14:38 13.10.2019
266 Clouds 25 1015 94 10000 4.1 100 14:19 13.10.2019
267 Clouds 25 1015 94 10000 4.1 100 13:41 13.10.2019
268 Clouds 25 1016 94 10000 3.6 110 13:22 13.10.2019
269 Clouds 25 1016 94 10000 3.6 110 12:59 13.10.2019
270 Clouds 25 1016 94 10000 3.6 110 12:39 13.10.2019
271 Clouds 25 1015 94 10000 3.6 90 12:20 13.10.2019
272 Clouds 25 1015 94 10000 3.6 90 11:58 13.10.2019
273 Clouds 25 1015 94 10000 3.6 90 11:39 13.10.2019
274 Clouds 25 1015 88 10000 3.6 100 11:20 13.10.2019
275 Clouds 25 1015 88 10000 3.6 100 10:43 13.10.2019
276 Clouds 26 1014 83 10000 2.6 100 10:24 13.10.2019
277 Clouds 26 1014 83 10000 2.6 100 09:59 13.10.2019
278 Clouds 26 1014 83 10000 2.6 100 09:39 13.10.2019
279 Rain 22 1013 93 0 1.85 74.807 09:20 13.10.2019
280 Rain 22 1013 92 0 1.64 82.325 08:43 13.10.2019
281 Clouds 27 1013 88 10000 5.1 90 08:25 13.10.2019
282 Clouds 27 1013 88 10000 5.1 90 08:25 13.10.2019
283 Clouds 27 1013 88 10000 5.1 90 07:51 13.10.2019
284 Rain 26 1013 88 10000 4.6 110 07:32 13.10.2019
285 Rain 26 1013 88 10000 4.6 110 06:51 13.10.2019
286 Clouds 28 1013 74 10000 5.1 90 06:23 13.10.2019
287 Clouds 29 1014 70 10000 5.7 90 04:59 13.10.2019
288 Clouds 29 1014 70 10000 5.7 90 04:33 13.10.2019
289 Clouds 29 1014 74 10000 6.2 80 02:53 13.10.2019
290 Clouds 29 1014 74 10000 6.2 80 02:27 13.10.2019
291 Clouds 28 1015 78 10000 4.6 80 01:34 13.10.2019
292 Clouds 29 1016 74 10000 6.2 90 00:53 13.10.2019
293 Clouds 29 1016 74 10000 6.2 90 00:23 13.10.2019
294 Clouds 28 1015 78 10000 5.7 110 23:59 12.10.2019
295 Clouds 28 1015 78 10000 5.7 110 23:41 12.10.2019
296 Clouds 28 1015 78 10000 5.7 110 23:22 12.10.2019
297 Clouds 27 1015 83 10000 4.6 100 22:58 12.10.2019
298 Clouds 27 1015 83 10000 4.6 100 22:40 12.10.2019
299 Clouds 26 1015 88 10000 2.6 100 22:21 12.10.2019
300 Clouds 26 1015 88 10000 2.6 100 21:57 12.10.2019
301 Clouds 26 1015 88 10000 2.6 100 21:38 12.10.2019
302 Rain 21 1014 98 0 2.09 74.543 21:20 12.10.2019
303 Rain 21 1014 98 0 1.69 72.316 20:45 12.10.2019
304 Clouds 25 1014 94 10000 2.6 80 20:27 12.10.2019
305 Clouds 25 1014 94 10000 2.6 80 19:42 12.10.2019
306 Clouds 25 1015 94 10000 3.1 80 19:23 12.10.2019
307 Clouds 25 1015 94 10000 3.1 80 18:59 12.10.2019
308 Clouds 25 1015 94 10000 3.1 80 18:41 12.10.2019
309 Clouds 25 1015 94 10000 3.1 80 18:41 12.10.2019
310 Clouds 25 1014 94 10000 3.1 80 18:23 12.10.2019
311 Clouds 25 1014 94 10000 3.1 80 17:45 12.10.2019
312 Clouds 25 1015 94 10000 2.6 80 17:21 12.10.2019
313 Clouds 25 1015 94 10000 2.6 80 16:57 12.10.2019
314 Clouds 25 1015 94 10000 2.6 80 16:38 12.10.2019
315 Clouds 25 1015 94 10000 3.1 80 16:19 12.10.2019
316 Clouds 25 1015 94 10000 3.1 80 15:44 12.10.2019
317 Rain 21 1014 99 0 1.65 62.298 15:25 12.10.2019
318 Rain 21 1014 99 0 1.65 62.298 15:25 12.10.2019
319 Rain 21 1014 99 0 1.65 62.298 15:25 12.10.2019
320 Rain 21 1014 99 0 1.65 62.298 15:25 12.10.2019
321 Rain 21 1015 99 0 1.35 61.823 14:57 12.10.2019
322 Rain 21 1015 99 0 1.35 61.823 14:38 12.10.2019
323 Clouds 26 1016 88 10000 3.1 80 14:19 12.10.2019
324 Clouds 26 1016 88 10000 3.1 80 13:44 12.10.2019
325 Clouds 26 1017 88 10000 1.5 60 13:26 12.10.2019
326 Clouds 26 1017 88 10000 1.5 60 12:40 12.10.2019
327 Clouds 26 1017 88 10000 1.5 60 12:40 12.10.2019
328 Clouds 26 1017 88 10000 1.5 60 12:22 12.10.2019
329 Clouds 25 1017 94 10000 1.5 90 11:59 12.10.2019
330 Clouds 25 1017 94 10000 1.5 90 11:40 12.10.2019
331 Clouds 25 1017 94 10000 1.5 90 11:22 12.10.2019
332 Clouds 25 1016 100 10000 2.6 100 10:56 12.10.2019
333 Clouds 25 1016 100 10000 2.6 100 10:36 12.10.2019
334 Clouds 25 1016 100 10000 2.6 100 10:18 12.10.2019
335 Clouds 26 1015 88 10000 2.6 110 09:55 12.10.2019
336 Clouds 26 1015 88 10000 2.6 110 09:54 12.10.2019
337 Clouds 26 1015 88 10000 2.6 110 09:36 12.10.2019
338 Clouds 26 1015 88 10000 2.6 110 09:18 12.10.2019
339 Clouds 26 1015 88 10000 2.6 110 09:18 12.10.2019
340 Clouds 26 1014 83 10000 4.6 100 08:40 12.10.2019
341 Clouds 26 1014 83 10000 4.6 100 08:20 12.10.2019
342 Clouds 27 1014 83 10000 4.1 110 07:35 12.10.2019
343 Clouds 27 1014 83 10000 4.1 110 07:35 12.10.2019
344 Clouds 28 1014 69 10000 4.1 80 06:57 12.10.2019
345 Clouds 30 1014 70 10000 5.7 60 05:48 12.10.2019
346 Clouds 30 1014 70 10000 5.7 60 05:23 12.10.2019
347 Clouds 29 1014 70 10000 5.1 90 04:24 12.10.2019
348 Rain 27 1013 71 0 2.36 82.33 03:33 12.10.2019
349 Clouds 29 1016 70 10000 5.1 80 01:50 12.10.2019
350 Clouds 29 1016 70 10000 5.1 90 01:21 12.10.2019
351 Clouds 29 1016 70 10000 5.1 90 00:42 12.10.2019
352 Clouds 27 1016 83 10000 4.6 110 23:59 11.10.2019
353 Clouds 27 1016 83 10000 4.6 110 23:40 11.10.2019
354 Clouds 28 1016 83 10000 4.6 90 23:20 11.10.2019
355 Clouds 28 1016 83 10000 4.6 90 22:41 11.10.2019
356 Clouds 27 1015 83 10000 1.94 74.233 22:21 11.10.2019
357 Clouds 27 1015 83 10000 1.94 74.233 21:57 11.10.2019
358 Clouds 27 1015 83 10000 1.94 74.233 21:39 11.10.2019
359 Clouds 20 1014 99 0 1.36 54.075 21:20 11.10.2019
360 Clouds 20 1014 99 0 1.57 52.991 20:44 11.10.2019
361 Clouds 25 1014 94 10000 2.1 110 20:26 11.10.2019
362 Clouds 25 1014 94 10000 2.1 110 19:58 11.10.2019
363 Clouds 25 1014 94 10000 2.1 110 19:39 11.10.2019
364 Clouds 20 1014 99 0 1.57 52.991 19:18 11.10.2019
365 Clouds 20 1014 99 0 1.57 52.991 18:58 11.10.2019
366 Clouds 20 1014 99 0 1.57 52.991 18:38 11.10.2019
367 Clouds 20 1014 99 0 1.57 52.991 18:38 11.10.2019
368 Rain 25 1013 94 10000 1.5 110 18:19 11.10.2019
369 Rain 25 1013 94 10000 1.5 110 17:58 11.10.2019
370 Rain 25 1013 94 10000 1.5 110 17:38 11.10.2019
371 Clouds 25 1013 100 10000 1.28 51.71 17:19 11.10.2019
372 Clouds 25 1013 100 10000 1.28 51.71 16:56 11.10.2019
373 Clouds 25 1013 100 10000 1.28 51.71 16:37 11.10.2019
374 Clouds 25 1014 94 10000 1.28 51.71 16:18 11.10.2019
375 Clouds 25 1014 94 10000 1.28 51.71 15:41 11.10.2019
376 Clouds 20 1013 98 0 1.43 43.158 15:20 11.10.2019
377 Clouds 20 1013 98 0 1.43 43.158 14:58 11.10.2019
378 Clouds 20 1013 98 0 1.43 43.158 14:58 11.10.2019
379 Clouds 20 1013 98 0 1.43 43.158 14:37 11.10.2019
380 Clouds 25 1014 94 10000 1 0 14:19 11.10.2019
381 Clouds 25 1014 94 10000 1 0 13:40 11.10.2019
382 Clouds 25 1014 94 10000 1 0 13:22 11.10.2019
383 Clouds 25 1014 94 10000 1 0 12:56 11.10.2019
384 Clouds 25 1014 94 10000 1 0 12:38 11.10.2019
385 Clouds 25 1014 94 10000 1 0 12:20 11.10.2019
386 Clouds 25 1014 94 10000 1 0 11:55 11.10.2019
387 Clouds 25 1014 94 10000 1 0 11:36 11.10.2019
388 Clouds 26 1013 88 10000 1 0 11:18 11.10.2019
389 Clouds 26 1013 88 10000 1 0 10:41 11.10.2019
390 Clouds 26 1013 88 10000 2.6 90 10:23 11.10.2019
391 Clouds 26 1013 88 10000 2.6 90 09:57 11.10.2019
392 Clouds 26 1013 88 10000 2.6 90 09:38 11.10.2019
393 Rain 22 1012 95 0 1.41 58.47 09:20 11.10.2019
394 Rain 22 1012 95 0 1.41 58.47 08:55 11.10.2019
395 Rain 22 1012 95 0 1.41 58.47 08:37 11.10.2019
396 Clouds 27 1012 83 10000 5.1 90 08:19 11.10.2019
397 Clouds 27 1012 83 10000 5.1 90 07:44 11.10.2019
398 Clouds 27 1012 83 10000 5.1 90 07:44 11.10.2019
399 Clouds 28 1011 74 10000 5.1 90 07:25 11.10.2019
400 Clouds 28 1011 74 10000 5.1 90 06:49 11.10.2019
401 Clouds 29 1011 70 10000 5.1 70 06:24 11.10.2019
402 Clouds 29 1011 70 10000 5.1 70 05:41 11.10.2019
403 Clouds 30 1012 70 10000 5.7 60 04:59 11.10.2019
404 Rain 27 1010 69 0 2.6 77.748 04:25 11.10.2019
405 Rain 28 1012 59 0 2.25 69.05 02:41 11.10.2019
406 Clouds 29 1013 74 10000 4.6 60 00:51 11.10.2019
407 Clouds 28 1014 74 10000 5.1 70 00:29 11.10.2019
408 Clouds 28 1014 74 10000 5.1 70 23:46 10.10.2019
409 Clouds 27 1014 78 10000 3.1 70 23:23 10.10.2019
410 Clouds 27 1014 78 10000 3.1 70 22:58 10.10.2019
411 Clouds 27 1014 78 10000 3.1 70 22:39 10.10.2019
412 Clouds 27 1014 78 10000 3.1 70 22:21 10.10.2019
413 Clouds 25 1013 94 10000 2.16 57.665 21:58 10.10.2019
414 Clouds 25 1013 94 10000 2.16 57.665 21:58 10.10.2019
415 Clouds 25 1013 94 10000 2.16 57.665 21:39 10.10.2019
416 Clouds 25 1013 94 10000 1.36 35.244 21:21 10.10.2019
417 Clouds 23 1012 100 10000 1.38 39.003 20:43 10.10.2019
418 Clouds 23 1012 100 10000 1.38 39.003 20:22 10.10.2019
419 Clouds 23 1012 94 10000 1.38 39.003 19:59 10.10.2019
420 Clouds 23 1012 94 10000 1.38 39.003 19:41 10.10.2019
421 Clouds 23 1012 94 10000 1.38 39.003 19:21 10.10.2019
422 Clouds 23 1011 94 10000 1.38 39.003 18:59 10.10.2019
423 Clouds 23 1011 94 10000 1.38 39.003 18:40 10.10.2019
424 Clouds 23 1011 94 10000 1.24 37.156 18:20 10.10.2019
425 Clouds 23 1011 100 10000 1.24 37.156 17:55 10.10.2019
426 Clouds 23 1011 100 10000 1.24 37.156 17:55 10.10.2019
427 Clouds 23 1011 100 10000 1.24 37.156 17:37 10.10.2019
428 Clouds 23 1011 100 10000 1.24 37.156 17:18 10.10.2019
429 Clouds 24 1012 94 10000 1.5 100 16:44 10.10.2019
430 -273 0 0 0 0 0 16:26 10.10.2019
431 Clouds 24 1013 94 10000 1.24 37.156 15:57 10.10.2019
432 Clouds 24 1013 94 10000 1.24 37.156 15:37 10.10.2019
433 Clouds 24 1013 94 10000 1.12 52.403 15:19 10.10.2019
434 Clouds 25 1013 88 10000 1.5 100 14:54 10.10.2019
435 Clouds 25 1013 88 10000 1.5 100 14:36 10.10.2019
436 Clouds 25 1013 88 10000 1.5 100 14:18 10.10.2019
437 Clouds 25 1013 88 10000 1.5 90 13:41 10.10.2019
438 Clouds 25 1013 88 10000 1.5 90 13:23 10.10.2019
439 Clouds 25 1013 88 10000 3.1 110 12:57 10.10.2019
440 Clouds 25 1013 88 10000 3.1 110 12:39 10.10.2019
441 Clouds 25 1013 88 10000 2.6 100 12:20 10.10.2019
442 Clouds 25 1013 88 10000 2.6 100 11:55 10.10.2019
443 Clouds 25 1013 88 10000 2.6 100 11:37 10.10.2019
444 Clouds 25 1013 88 10000 2.6 100 11:18 10.10.2019
445 Clouds 25 1013 88 10000 2.6 100 10:44 10.10.2019
446 Clouds 25 1012 88 10000 3.1 110 10:26 10.10.2019
447 Clouds 25 1012 88 10000 3.1 110 09:56 10.10.2019
448 Clouds 25 1012 88 10000 3.1 110 09:38 10.10.2019
449 Rain 21 1011 98 0 1.16 91.579 09:19 10.10.2019
450 Rain 21 1011 98 0 1.16 91.579 08:42 10.10.2019
451 Clouds 27 1011 78 10000 5.1 110 08:24 10.10.2019
452 Clouds 27 1011 78 10000 5.1 110 07:59 10.10.2019
453 Clouds 27 1011 78 10000 5.1 110 07:40 10.10.2019
454 Clouds 27 1010 78 10000 6.2 100 07:20 10.10.2019
455 Clouds 27 1010 78 10000 6.2 100 06:45 10.10.2019
456 Clouds 27 1010 78 10000 5.7 110 06:24 10.10.2019
457 Clouds 29 1011 74 10000 5.7 90 05:25 10.10.2019
458 Clouds 29 1011 74 10000 5.7 90 04:37 10.10.2019
459 Clouds 27 1011 78 10000 5.1 110 03:27 10.10.2019
460 Clouds 28 1013 74 10000 4.1 80 01:42 10.10.2019
461 Clouds 28 1013 74 10000 4.1 80 01:24 10.10.2019
462 Clouds 28 1013 74 10000 4.1 50 00:45 10.10.2019
463 Clouds 28 1013 74 10000 4.1 50 00:20 10.10.2019
464 Clouds 27 1013 83 10000 3.6 80 23:39 09.10.2019
465 Clouds 27 1013 83 10000 3.6 80 23:20 09.10.2019
466 Clouds 26 1013 88 10000 1.5 110 22:43 09.10.2019
467 Clouds 24 1013 94 10000 1.62 72.29 22:24 09.10.2019
468 Clouds 24 1013 94 10000 1.62 72.29 21:59 09.10.2019
469 Clouds 24 1013 94 10000 1.62 72.29 21:59 09.10.2019
470 Clouds 24 1013 94 10000 1.62 72.29 21:39 09.10.2019
471 Clouds 19 1012 99 0 1.05 35.462 21:20 09.10.2019
472 Clouds 19 1012 99 0 1.19 28.007 20:56 09.10.2019
473 Clouds 19 1012 99 0 1.19 28.007 20:37 09.10.2019
474 Clouds 24 1012 94 10000 1.5 120 20:18 09.10.2019
475 Clouds 24 1012 94 10000 1.5 120 20:18 09.10.2019
476 Clouds 24 1012 94 10000 1.5 120 19:45 09.10.2019
477 Clouds 24 1011 94 10000 1.5 140 19:24 09.10.2019
478 Clouds 24 1011 94 10000 1.5 140 18:58 09.10.2019
479 Clouds 24 1011 94 10000 1.5 140 18:37 09.10.2019
480 Clouds 24 1011 94 10000 2.1 100 18:18 09.10.2019
481 Clouds 24 1011 94 10000 2.1 100 17:55 09.10.2019
482 Clouds 24 1011 94 10000 2.1 100 17:36 09.10.2019
483 Clouds 24 1012 94 10000 2.6 120 17:18 09.10.2019
484 Clouds 24 1012 94 10000 2.6 120 16:41 09.10.2019
485 Rain 24 1013 100 10000 1.1 42.158 16:22 09.10.2019
486 Rain 24 1013 100 10000 1.1 42.158 15:58 09.10.2019
487 Rain 24 1013 100 10000 1.1 42.158 15:39 09.10.2019
488 Rain 24 1013 100 10000 1.1 42.158 15:39 09.10.2019
489 Clouds 19 1012 99 0 1.33 39.198 15:20 09.10.2019
490 Clouds 19 1012 99 0 1.33 39.198 14:56 09.10.2019
491 Clouds 19 1012 99 0 1.33 39.198 14:37 09.10.2019
492 Clouds 24 1013 94 10000 1.33 39.198 14:18 09.10.2019
493 Clouds 24 1013 94 10000 1.33 39.198 13:39 09.10.2019
494 Rain 24 1014 100 10000 1.2 39.726 13:21 09.10.2019
495 Rain 24 1014 100 10000 1.2 39.726 12:59 09.10.2019
496 Rain 24 1014 100 10000 1.2 39.726 12:40 09.10.2019
497 Rain 24 1014 100 10000 0.82 42.194 12:21 09.10.2019
498 Clouds 24 1014 100 10000 0.82 42.194 11:55 09.10.2019
499 Clouds 24 1014 100 10000 0.82 42.194 11:36 09.10.2019
500 Clouds 24 1014 100 10000 0.82 42.194 11:18 09.10.2019
501 Clouds 25 1013 94 10000 0.82 42.194 10:43 09.10.2019
502 Clouds 25 1013 94 10000 0.82 42.194 10:21 09.10.2019
503 Clouds 25 1012 94 10000 0.82 42.194 09:57 09.10.2019
504 Clouds 25 1012 94 10000 0.82 42.194 09:57 09.10.2019
505 Clouds 25 1012 94 10000 0.82 42.194 09:38 09.10.2019
506 Clouds 25 1012 94 10000 0.77 145.814 09:18 09.10.2019
507 Clouds 26 1012 83 10000 2.6 70 08:40 09.10.2019
508 Clouds 26 1012 83 10000 2.6 70 08:21 09.10.2019
509 Clouds 28 1011 74 10000 3.1 50 07:54 09.10.2019
510 Clouds 28 1011 74 10000 3.1 50 07:36 09.10.2019
511 Clouds 28 1011 74 10000 3.1 50 07:18 09.10.2019
512 Clouds 28 1011 78 10000 3.6 60 06:47 09.10.2019
513 Clouds 28 1011 78 10000 4.1 60 05:55 09.10.2019
514 Clouds 28 1011 78 10000 4.1 60 05:23 09.10.2019
515 Rain 26 1012 94 10000 3.6 50 04:20 09.10.2019
516 Rain 25 1012 83 0 1.19 189.121 02:45 09.10.2019
517 Rain 25 1014 94 10000 3.6 110 01:42 09.10.2019
518 Rain 25 1014 94 10000 3.1 90 01:19 09.10.2019
519 Rain 25 1014 94 10000 3.1 90 00:56 09.10.2019
520 Rain 25 1014 94 10000 3.1 90 00:37 09.10.2019
521 Rain 25 1014 94 10000 3.1 90 00:37 09.10.2019
522 Clouds 25 1014 94 10000 1.5 80 00:19 09.10.2019
523 Clouds 25 1014 94 10000 1.5 80 23:39 08.10.2019
524 Rain 24 1014 94 8000 3.1 30 23:18 08.10.2019
525 Rain 24 1014 94 8000 3.1 30 22:56 08.10.2019
526 Rain 24 1014 94 8000 3.1 30 22:37 08.10.2019
527 Rain 24 1014 94 8000 3.1 30 22:18 08.10.2019
528 Clouds 24 1013 94 10000 1 320 21:56 08.10.2019
529 Clouds 24 1013 94 10000 1 320 21:37 08.10.2019
530 Clouds 24 1013 94 10000 1 320 21:18 08.10.2019
531 Clouds 24 1013 94 10000 0.68 22.813 20:55 08.10.2019
532 Clouds 24 1013 94 10000 0.73 344.011 20:37 08.10.2019
533 Clouds 24 1013 94 10000 0.73 344.011 20:18 08.10.2019
534 Clouds 23 1012 94 10000 1 0 19:55 08.10.2019
535 Clouds 23 1012 94 10000 1 0 19:36 08.10.2019
536 Clouds 23 1012 94 10000 1 0 19:36 08.10.2019
537 Clouds 23 1012 94 10000 1 0 19:18 08.10.2019
538 Rain 24 1012 94 10000 2.6 50 18:42 08.10.2019
539 Rain 24 1012 94 10000 2.6 50 18:24 08.10.2019
540 Rain 24 1012 94 10000 2.6 50 17:57 08.10.2019
541 Rain 24 1012 94 10000 2.6 50 17:57 08.10.2019
542 Rain 24 1012 94 10000 2.6 50 17:57 08.10.2019
543 Rain 24 1012 94 10000 2.6 50 17:39 08.10.2019
544 Rain 24 1012 94 10000 2.6 50 17:19 08.10.2019
545 Rain 24 1012 94 10000 1.5 40 16:56 08.10.2019
546 Rain 24 1012 94 10000 1.5 40 16:37 08.10.2019
547 Rain 24 1012 94 10000 1.5 40 16:18 08.10.2019
548 Rain 24 1013 94 10000 3.6 80 15:38 08.10.2019
549 Rain 24 1013 94 10000 3.6 80 15:20 08.10.2019
550 Clouds 24 1013 94 10000 3.6 80 14:55 08.10.2019
551 Clouds 24 1013 94 10000 3.6 80 14:37 08.10.2019
552 Clouds 24 1013 94 10000 3.6 80 14:19 08.10.2019
553 Clouds 24 1014 94 10000 2.6 80 13:54 08.10.2019
554 -273 0 0 0 0 0 13:54 08.10.2019
555 Clouds 24 1014 94 10000 2.6 80 13:36 08.10.2019
556 Clouds 24 1014 94 10000 3.1 90 13:18 08.10.2019
557 Clouds 24 1014 94 10000 3.1 90 13:18 08.10.2019
558 Clouds 24 1014 94 10000 3.1 90 13:18 08.10.2019
559 Clouds 24 1014 94 10000 3.1 90 12:40 08.10.2019
560 Clouds 24 1013 94 10000 4.6 90 12:20 08.10.2019
561 Clouds 24 1013 94 10000 4.6 90 11:57 08.10.2019
562 Clouds 24 1013 94 10000 4.6 90 11:38 08.10.2019
563 Clouds 24 1013 94 10000 3.6 90 11:20 08.10.2019
564 Clouds 24 1013 94 10000 3.6 90 10:42 08.10.2019
565 Clouds 24 1013 94 10000 3.1 90 10:22 08.10.2019
566 Clouds 24 1013 94 10000 3.1 90 09:59 08.10.2019
567 Clouds 24 1013 94 10000 3.1 90 09:40 08.10.2019
568 Clouds 24 1013 94 10000 3.1 90 09:40 08.10.2019
569 Rain 21 1012 98 0 0.32 16.339 09:22 08.10.2019
570 Rain 21 1012 98 0 0.32 16.339 08:45 08.10.2019
571 Clouds 24 1011 94 10000 4.1 80 08:25 08.10.2019
572 Clouds 24 1011 94 10000 4.1 80 07:48 08.10.2019
573 Rain 24 1011 94 10000 3.1 80 07:23 08.10.2019
574 Rain 24 1011 94 10000 3.1 80 06:57 08.10.2019
575 Rain 24 1011 94 10000 3.1 80 06:39 08.10.2019
576 Clouds 25 1011 94 10000 4.6 80 06:21 08.10.2019
577 Clouds 25 1011 94 10000 4.6 80 05:40 08.10.2019
578 Rain 25 1011 94 10000 6.2 70 04:56 08.10.2019
579 Rain 24 1012 100 10000 6.2 70 03:30 08.10.2019
580 Rain 25 1013 94 10000 3.6 60 02:41 08.10.2019
581 Rain 24 1013 100 10000 3.6 40 01:56 08.10.2019
582 Rain 24 1013 100 10000 3.6 40 01:38 08.10.2019
583 Rain 24 1014 94 10000 3.1 10 00:55 08.10.2019
584 Rain 24 1014 94 10000 3.1 10 00:23 08.10.2019
585 Clouds 24 1014 94 10000 6.2 50 23:44 07.10.2019
586 Clouds 24 1014 94 10000 6.2 50 23:21 07.10.2019
587 Rain 23 1014 100 10000 4.6 90 22:59 07.10.2019
588 Rain 23 1014 100 10000 4.6 90 22:40 07.10.2019
589 Rain 23 1014 100 5000 3.6 110 22:21 07.10.2019
590 Rain 23 1014 94 8000 3.6 110 21:59 07.10.2019
591 Rain 23 1014 94 8000 3.6 110 21:40 07.10.2019
592 Rain 23 1014 94 8000 3.6 110 21:20 07.10.2019
593 Rain 23 1013 94 8000 4.6 110 20:58 07.10.2019
594 Rain 23 1013 94 8000 4.6 110 20:39 07.10.2019
595 Rain 23 1013 94 8000 4.6 110 20:21 07.10.2019
596 Rain 22 1013 94 8000 4.1 120 19:59 07.10.2019
597 Rain 22 1013 94 8000 4.1 120 19:59 07.10.2019
598 Rain 22 1013 94 8000 4.1 120 19:40 07.10.2019
599 Rain 22 1013 94 8000 4.1 120 19:20 07.10.2019
600 Rain 22 1013 94 8000 4.1 120 19:20 07.10.2019
601 Rain 22 1013 94 8000 5.7 110 18:58 07.10.2019
602 Rain 22 1013 94 8000 5.7 110 18:38 07.10.2019
603 Rain 22 1013 94 8000 5.7 110 18:18 07.10.2019
604 Rain 22 1013 100 5000 4.6 110 17:43 07.10.2019
605 Rain 22 1013 100 5000 4.6 110 17:23 07.10.2019
606 Rain 22 1013 100 5000 4.6 110 17:23 07.10.2019
607 Rain 22 1013 100 8000 3.6 130 16:58 07.10.2019
608 Rain 22 1013 100 8000 3.6 130 16:58 07.10.2019
609 Rain 22 1013 100 8000 3.6 130 16:39 07.10.2019
610 Rain 22 1013 100 8000 3.6 130 16:20 07.10.2019
611 Rain 22 1014 94 5000 3.1 170 15:46 07.10.2019
612 Rain 22 1014 94 5000 3.1 170 15:26 07.10.2019
613 Rain 22 1014 94 5000 3.1 170 15:26 07.10.2019
614 Rain 22 1014 94 5000 3.1 170 15:26 07.10.2019
615 Rain 22 1015 100 5000 2.6 130 14:57 07.10.2019
616 Rain 22 1015 100 5000 2.6 130 14:38 07.10.2019
617 -273 0 0 0 0 0 14:20 07.10.2019
618 Rain 23 1015 94 5000 2.1 160 13:43 07.10.2019
619 Rain 23 1015 94 5000 2.1 160 13:21 07.10.2019
620 Rain 23 1015 100 5000 4.1 90 12:57 07.10.2019
621 Rain 23 1015 100 5000 4.1 90 12:39 07.10.2019
622 Rain 23 1015 100 5000 4.1 90 12:19 07.10.2019
623 Rain 23 1015 100 5000 4.1 90 12:19 07.10.2019
624 Rain 23 1015 100 8000 4.1 60 11:57 07.10.2019
625 Rain 23 1015 100 8000 4.1 60 11:37 07.10.2019
626 Rain 23 1015 100 8000 4.1 60 11:18 07.10.2019
627 Rain 23 1014 100 8000 3.6 10 10:42 07.10.2019
628 Rain 23 1014 100 3000 6.7 40 10:20 07.10.2019
629 Rain 24 1014 94 10000 3.6 60 09:43 07.10.2019
630 Rain 24 1014 94 10000 3.6 60 09:24 07.10.2019
631 Rain 24 1013 94 5000 5.7 20 08:57 07.10.2019
632 Rain 24 1013 94 5000 5.7 20 08:39 07.10.2019
633 Clouds 24 1013 94 10000 5.1 50 08:19 07.10.2019
634 Clouds 24 1012 94 10000 4.1 60 07:41 07.10.2019
635 Clouds 24 1012 94 10000 4.1 60 07:23 07.10.2019
636 Clouds 25 1012 88 10000 5.7 40 06:54 07.10.2019
637 Clouds 25 1012 88 10000 5.7 40 06:34 07.10.2019
638 Clouds 25 1012 94 10000 6.7 40 05:49 07.10.2019
639 Clouds 25 1012 94 10000 6.7 40 05:23 07.10.2019
640 Clouds 25 1013 88 10000 6.7 50 04:28 07.10.2019
641 Clouds 25 1013 88 10000 6.7 50 03:45 07.10.2019
642 Clouds 25 1013 88 10000 6.7 50 03:45 07.10.2019
643 Rain 24 1013 86 0 2.17 70.071 03:21 07.10.2019
644 Rain 24 1013 86 0 2.17 70.071 03:21 07.10.2019
645 Rain 25 1014 94 10000 6.7 80 02:22 07.10.2019
646 Rain 25 1014 94 10000 6.7 80 02:22 07.10.2019
647 Rain 25 1014 94 10000 6.7 80 01:52 07.10.2019
648 Rain 25 1014 94 8000 6.7 170 01:21 07.10.2019
649 Clouds 26 1015 88 10000 4.6 50 00:39 07.10.2019
650 Clouds 25 1015 94 10000 4.1 60 00:20 07.10.2019
651 Clouds 25 1015 94 10000 4.1 60 23:42 06.10.2019
652 Clouds 25 1015 94 10000 4.1 60 23:42 06.10.2019
653 Rain 24 1015 94 6000 3.1 30 23:22 06.10.2019
654 Rain 24 1015 94 6000 3.1 30 22:59 06.10.2019
655 Rain 24 1015 94 6000 3.1 30 22:41 06.10.2019
656 Rain 24 1015 94 6000 3.1 30 22:22 06.10.2019
657 Rain 25 1014 94 6000 5.1 80 21:58 06.10.2019
658 Rain 25 1014 94 6000 5.1 80 21:38 06.10.2019
659 Rain 25 1014 94 6000 5.1 80 21:19 06.10.2019
660 Rain 24 1014 100 8000 3.6 70 20:58 06.10.2019
661 Rain 24 1014 100 8000 3.6 70 20:58 06.10.2019
662 Rain 24 1014 100 8000 3.6 70 20:40 06.10.2019
663 Rain 24 1014 100 8000 3.6 70 20:20 06.10.2019
664 Rain 24 1013 100 8000 3.6 20 19:57 06.10.2019
665 Rain 24 1013 100 8000 3.6 20 19:37 06.10.2019
666 Rain 24 1013 100 8000 3.6 20 19:19 06.10.2019
667 Rain 24 1013 94 8000 4.1 30 18:57 06.10.2019
668 Rain 24 1013 94 8000 4.1 30 18:38 06.10.2019
669 Rain 24 1013 94 8000 4.1 30 18:19 06.10.2019
670 Rain 24 1013 94 8000 4.1 30 18:19 06.10.2019
671 Rain 24 1012 94 8000 3.1 350 17:57 06.10.2019
672 Rain 24 1012 94 8000 3.1 350 17:38 06.10.2019
673 Rain 24 1012 94 8000 3.1 350 17:18 06.10.2019
674 Rain 24 1013 94 8000 1.5 70 16:42 06.10.2019
675 Rain 24 1013 94 8000 1.5 70 16:23 06.10.2019
676 Rain 24 1014 94 5000 3.1 60 15:54 06.10.2019
677 Rain 24 1014 94 5000 3.1 60 15:36 06.10.2019
678 Rain 24 1014 94 5000 3.1 60 15:18 06.10.2019
679 Rain 24 1014 94 4000 1.5 160 14:42 06.10.2019
680 Rain 24 1014 94 4000 1.5 160 14:24 06.10.2019
681 Rain 24 1016 94 5000 3.1 90 13:56 06.10.2019
682 Rain 24 1016 94 5000 3.1 90 13:56 06.10.2019
683 Rain 24 1016 94 5000 3.1 90 13:37 06.10.2019
684 Rain 24 1016 94 5000 3.1 90 13:19 06.10.2019
685 Rain 23 1016 94 5000 4.1 100 12:56 06.10.2019
686 Rain 23 1016 94 5000 4.1 100 12:37 06.10.2019
687 Rain 23 1016 94 5000 4.1 100 12:19 06.10.2019
688 Rain 23 1015 94 5000 2.1 90 11:43 06.10.2019
689 Rain 23 1015 94 5000 2.1 90 11:25 06.10.2019
690 Rain 23 1015 94 5000 2.1 90 11:25 06.10.2019
691 Rain 23 1015 94 5000 7.2 90 10:58 06.10.2019
692 Rain 23 1015 94 5000 7.2 90 10:39 06.10.2019
693 Rain 23 1015 94 5000 7.2 90 10:21 06.10.2019
694 Rain 23 1014 94 5000 5.7 120 09:42 06.10.2019
695 Rain 23 1014 94 5000 5.7 120 09:42 06.10.2019
696 Rain 23 1014 94 5000 5.7 120 09:21 06.10.2019
697 Rain 23 1014 94 5000 5.7 120 09:21 06.10.2019
698 Rain 23 1014 94 5000 5.7 120 08:57 06.10.2019
699 Rain 23 1014 94 5000 5.7 120 08:39 06.10.2019
700 Rain 23 1014 94 5000 5.7 120 08:19 06.10.2019
701 Rain 23 1013 94 5000 4.6 130 07:41 06.10.2019
702 Rain 23 1013 94 5000 4.1 140 06:59 06.10.2019
703 Rain 23 1014 100 5000 1 0 05:57 06.10.2019
704 Rain 24 1014 94 10000 2.6 140 04:44 06.10.2019
705 Clouds 25 1015 83 10000 4.6 110 02:56 06.10.2019
706 Clouds 25 1015 83 10000 4.6 110 02:37 06.10.2019
707 Clouds 24 1015 94 10000 4.6 120 01:50 06.10.2019
708 Clouds 24 1015 94 10000 4.6 120 01:31 06.10.2019
709 Rain 24 1016 94 10000 4.6 120 00:59 06.10.2019
710 Rain 24 1016 94 10000 4.6 120 00:59 06.10.2019
711 Rain 24 1016 94 10000 4.6 120 00:38 06.10.2019
712 Rain 24 1016 94 10000 4.6 120 00:38 06.10.2019
713 Rain 24 1016 94 10000 4.6 120 00:19 06.10.2019
714 Rain 24 1016 94 10000 2.6 110 23:42 05.10.2019
715 Rain 24 1016 94 10000 2.6 110 23:20 05.10.2019
716 Rain 24 1016 94 10000 2.1 120 22:56 05.10.2019
717 Rain 24 1016 94 10000 2.1 120 22:37 05.10.2019
718 Rain 24 1016 94 10000 2.1 120 22:19 05.10.2019
719 Clouds 23 1015 94 10000 1.39 69.978 21:42 05.10.2019
720 Clouds 23 1015 94 10000 1 75.391 21:22 05.10.2019
721 Rain 23 1015 94 10000 1.5 150 20:58 05.10.2019
722 Rain 23 1015 94 10000 1.5 150 20:39 05.10.2019
723 Rain 23 1015 94 8000 3.1 100 20:19 05.10.2019
724 Rain 23 1015 94 10000 1.09 78.897 19:56 05.10.2019
725 Rain 23 1015 94 10000 1.09 78.897 19:36 05.10.2019
726 Rain 23 1015 94 10000 1.09 78.897 19:18 05.10.2019
727 Clouds 23 1014 94 10000 1.09 78.897 18:54 05.10.2019
728 Clouds 23 1014 94 10000 1.09 78.897 18:36 05.10.2019
729 Clouds 23 1014 94 10000 1.34 70.702 18:18 05.10.2019
730 Clouds 23 1014 94 10000 1.34 70.702 18:18 05.10.2019
731 Rain 23 1014 94 10000 2.1 150 17:40 05.10.2019
732 Rain 23 1014 94 10000 2.1 150 17:21 05.10.2019
733 Rain 23 1015 94 10000 2.6 150 16:55 05.10.2019
734 Rain 23 1015 94 10000 2.6 150 16:36 05.10.2019
735 Rain 23 1015 94 10000 2.6 150 16:18 05.10.2019
736 Rain 24 1015 88 10000 1.34 70.702 15:55 05.10.2019
737 Rain 24 1015 88 10000 1.34 70.702 15:55 05.10.2019
738 Rain 24 1015 88 10000 1.34 70.702 15:36 05.10.2019
739 Rain 24 1015 88 10000 1.12 88.415 15:18 05.10.2019
740 Clouds 24 1016 94 10000 2.6 100 14:41 05.10.2019
741 Clouds 24 1016 94 10000 2.6 100 14:20 05.10.2019
742 Rain 24 1016 94 10000 2.6 90 13:43 05.10.2019
743 Rain 24 1016 94 10000 2.6 90 13:24 05.10.2019
744 Clouds 23 1017 94 10000 1.5 140 12:57 05.10.2019
745 Clouds 23 1017 94 10000 1.5 140 12:39 05.10.2019
746 Clouds 23 1017 94 10000 1.5 140 12:39 05.10.2019
747 Clouds 23 1017 94 10000 1.5 140 12:39 05.10.2019
748 Clouds 23 1017 94 10000 1.5 140 12:18 05.10.2019
749 Clouds 23 1017 94 10000 1.5 140 12:18 05.10.2019
750 Rain 24 1016 88 10000 1.09 73.687 11:39 05.10.2019
751 Rain 24 1016 88 10000 1.09 73.687 11:19 05.10.2019
752 Clouds 24 1016 83 10000 1.5 110 10:54 05.10.2019
753 Clouds 24 1016 83 10000 1.5 110 10:36 05.10.2019
754 Clouds 24 1016 83 10000 1.5 110 10:18 05.10.2019
755 Rain 24 1016 83 10000 1 140 09:39 05.10.2019
756 Rain 24 1016 83 10000 1 140 09:21 05.10.2019
757 Rain 24 1015 83 10000 1.5 130 08:41 05.10.2019
758 Rain 24 1015 83 10000 1.5 130 08:21 05.10.2019
759 Rain 24 1015 83 10000 1.5 130 08:21 05.10.2019
760 Rain 24 1015 83 10000 3.1 130 07:58 05.10.2019
761 Rain 24 1015 83 10000 3.1 130 07:37 05.10.2019
762 Rain 24 1015 83 10000 3.1 130 07:19 05.10.2019
763 Clouds 25 1014 78 10000 2.1 130 06:28 05.10.2019
764 Rain 24 1015 83 10000 3.1 140 05:52 05.10.2019
765 Clouds 25 1015 73 10000 3.6 130 04:33 05.10.2019
766 Clouds 25 1015 73 10000 3.6 130 03:29 05.10.2019
767 Clouds 25 1016 73 10000 3.1 120 01:52 05.10.2019
768 Clouds 25 1016 73 10000 3.1 120 01:23 05.10.2019
769 Clouds 25 1017 73 10000 3.6 120 00:44 05.10.2019
770 Clouds 25 1017 73 10000 3.6 120 00:25 05.10.2019
771 Clouds 24 1016 78 10000 3.1 120 23:45 04.10.2019
772 Clouds 24 1016 78 10000 3.1 120 23:26 04.10.2019
773 Clouds 24 1016 78 10000 3.1 120 23:26 04.10.2019
774 Clouds 24 1016 83 10000 2.6 120 22:59 04.10.2019
775 Clouds 24 1016 83 10000 2.6 120 22:40 04.10.2019
776 Clouds 24 1016 83 10000 2.6 120 22:22 04.10.2019
777 Clouds 23 1016 88 10000 1.5 150 21:57 04.10.2019
778 Clouds 23 1016 88 10000 1.5 150 21:39 04.10.2019
779 Rain 19 1015 99 0 1.17 88.821 21:20 04.10.2019
780 Rain 19 1015 99 0 1.17 88.821 20:57 04.10.2019
781 Rain 18 1015 99 0 1.26 92.677 20:38 04.10.2019
782 Clouds 22 1015 94 10000 2.1 120 20:20 04.10.2019
783 Clouds 22 1015 94 10000 2.1 120 19:48 04.10.2019
784 Rain 23 1015 83 10000 3.6 110 19:29 04.10.2019
785 Rain 23 1015 83 10000 3.6 110 18:59 04.10.2019
786 Rain 23 1015 83 10000 3.6 110 18:38 04.10.2019
787 Clouds 24 1014 73 10000 3.1 150 18:19 04.10.2019
788 Clouds 24 1014 73 10000 3.1 150 17:55 04.10.2019
789 Clouds 24 1014 73 10000 3.1 150 17:36 04.10.2019
790 Clouds 23 1015 83 10000 3.6 150 17:18 04.10.2019
791 Clouds 23 1015 83 10000 3.6 150 16:42 04.10.2019
792 Clouds 23 1015 83 10000 3.1 150 16:19 04.10.2019
793 Clouds 23 1015 83 10000 3.1 150 15:59 04.10.2019
794 Clouds 23 1015 83 10000 3.1 150 15:40 04.10.2019
795 Rain 19 1015 99 0 1.25 86.698 15:21 04.10.2019
796 Rain 19 1015 99 0 1.25 86.698 14:59 04.10.2019
797 Rain 19 1015 99 0 1.25 86.698 14:41 04.10.2019
798 Rain 24 1016 83 10000 3.6 180 14:21 04.10.2019
799 Rain 24 1016 83 10000 3.6 180 13:46 04.10.2019
800 Clouds 24 1016 73 10000 3.1 140 13:25 04.10.2019
801 Clouds 24 1016 73 10000 3.1 140 12:59 04.10.2019
802 Clouds 24 1016 73 10000 3.1 140 12:40 04.10.2019
803 Clouds 24 1016 73 10000 2.6 150 12:22 04.10.2019
804 Clouds 24 1016 73 10000 2.6 150 11:43 04.10.2019
805 Clouds 24 1016 73 10000 2.6 150 11:43 04.10.2019
806 Clouds 24 1016 73 10000 2.6 150 11:43 04.10.2019
807 Clouds 24 1016 73 10000 2.6 150 11:43 04.10.2019
808 Clouds 24 1015 73 10000 2.6 140 11:22 04.10.2019
809 Clouds 24 1015 73 10000 2.6 140 10:56 04.10.2019
810 Clouds 24 1015 73 10000 2.6 140 10:37 04.10.2019
811 Clouds 24 1015 73 10000 2.6 130 10:19 04.10.2019
812 Clouds 24 1015 73 10000 2.6 130 09:43 04.10.2019
813 Rain 19 1014 99 0 1.1 87.56 09:25 04.10.2019
814 Rain 19 1014 99 0 1.1 87.56 08:46 04.10.2019
815 Clouds 25 1014 69 10000 3.6 130 08:27 04.10.2019
816 Clouds 25 1014 69 10000 3.6 130 07:48 04.10.2019
817 Clouds 25 1014 73 10000 4.6 130 07:26 04.10.2019
818 Clouds 25 1014 73 10000 4.6 130 06:59 04.10.2019
819 Clouds 25 1014 73 10000 4.6 130 06:40 04.10.2019
820 Clouds 25 1014 73 10000 4.6 140 06:21 04.10.2019
821 Clouds 25 1014 73 10000 4.6 140 06:21 04.10.2019
822 Clouds 25 1014 69 10000 4.6 130 05:21 04.10.2019
823 Clouds 25 1014 69 10000 4.6 130 04:39 04.10.2019
824 Rain 21 1012 89 0 1.8 127.671 03:28 04.10.2019
825 Rain 23 1014 82 0 1.81 109.449 02:44 04.10.2019
826 Clouds 25 1015 73 10000 4.6 130 01:54 04.10.2019
827 Clouds 25 1016 73 10000 4.1 130 01:26 04.10.2019
828 Rain 23 1014 84 0 1.94 110.643 00:34 04.10.2019
829 Clouds 24 1016 78 10000 3.1 140 23:41 03.10.2019
830 Clouds 24 1016 83 10000 3.1 140 23:21 03.10.2019
831 Clouds 24 1016 83 10000 3.1 140 22:58 03.10.2019
832 Clouds 24 1016 83 10000 3.1 140 22:58 03.10.2019
833 Clouds 24 1016 83 10000 3.1 140 22:39 03.10.2019
834 Clouds 24 1016 83 10000 3.1 140 22:39 03.10.2019
835 Clouds 24 1016 83 10000 3.1 140 22:39 03.10.2019
836 Clouds 24 1016 83 10000 3.1 140 22:21 03.10.2019
837 Clouds 24 1016 83 10000 3.1 140 22:21 03.10.2019
838 Clouds 24 1016 78 10000 2.6 140 21:58 03.10.2019
839 Clouds 24 1016 78 10000 2.6 140 21:39 03.10.2019
840 Clouds 24 1016 78 10000 2.6 140 21:20 03.10.2019
841 Clouds 23 1015 88 10000 2.6 140 20:58 03.10.2019
842 Clouds 23 1015 88 10000 2.6 140 20:39 03.10.2019
843 Clouds 23 1015 88 10000 2.6 140 20:20 03.10.2019
844 Clouds 23 1015 88 10000 1.5 160 19:56 03.10.2019
845 Clouds 23 1015 88 10000 1.5 160 19:37 03.10.2019
846 Clouds 23 1015 88 10000 1.5 160 19:19 03.10.2019
847 Clouds 23 1015 88 10000 2.1 130 18:55 03.10.2019
848 Clouds 23 1015 88 10000 2.1 130 18:37 03.10.2019
849 Clouds 23 1015 88 10000 2.1 130 18:18 03.10.2019
850 Clouds 23 1015 100 10000 2.6 130 17:42 03.10.2019
851 Clouds 23 1015 100 10000 2.6 130 17:42 03.10.2019
852 Clouds 23 1015 100 10000 2.6 130 17:21 03.10.2019
853 Rain 23 1015 100 10000 3.1 150 16:55 03.10.2019
854 Rain 23 1015 100 10000 3.1 150 16:37 03.10.2019
855 Rain 23 1015 100 10000 3.1 150 16:19 03.10.2019
856 Clouds 23 1015 100 10000 3.1 130 15:43 03.10.2019
857 Clouds 23 1015 100 10000 3.1 130 15:23 03.10.2019
858 Clouds 23 1016 100 10000 2.1 130 14:57 03.10.2019
859 Clouds 23 1016 100 10000 2.1 130 14:36 03.10.2019
860 Clouds 23 1016 100 10000 2.1 130 14:36 03.10.2019
861 Clouds 23 1016 100 10000 2.1 130 14:18 03.10.2019
862 Clouds 23 1016 100 10000 3.1 140 13:43 03.10.2019
863 Clouds 23 1016 100 10000 3.1 140 13:22 03.10.2019
864 Clouds 23 1016 100 10000 3.1 140 13:22 03.10.2019
865 Clouds 23 1016 94 10000 3.1 150 12:58 03.10.2019
866 Clouds 23 1016 94 10000 3.1 150 12:39 03.10.2019
867 Clouds 23 1016 94 10000 3.1 150 12:39 03.10.2019
868 Rain 22 1016 100 10000 2.6 160 12:19 03.10.2019
869 Rain 22 1016 100 10000 2.6 160 12:19 03.10.2019
870 Rain 22 1016 100 10000 2.6 160 11:57 03.10.2019
871 Rain 22 1016 100 10000 2.6 160 11:56 03.10.2019
872 Rain 22 1016 100 10000 2.6 160 11:56 03.10.2019
873 Rain 22 1016 100 10000 2.6 160 11:37 03.10.2019
874 Clouds 23 1016 94 10000 4.1 150 11:19 03.10.2019
875 Clouds 23 1016 94 10000 4.1 150 10:42 03.10.2019
876 Rain 20 1015 99 0 1.17 102.248 10:19 03.10.2019
877 Rain 20 1015 99 0 1.17 102.248 09:59 03.10.2019
878 Rain 20 1015 99 0 1.17 102.248 09:40 03.10.2019
879 Rain 20 1013 99 0 1.15 104.205 09:22 03.10.2019
880 Rain 20 1013 99 0 1.15 104.205 08:55 03.10.2019
881 Rain 20 1013 98 0 1.26 103.572 08:36 03.10.2019
882 Rain 23 1014 94 10000 4.6 160 08:18 03.10.2019
883 Rain 23 1014 94 10000 4.6 160 07:41 03.10.2019
884 Clouds 24 1014 88 10000 4.6 170 07:19 03.10.2019
885 Clouds 24 1014 88 10000 4.6 170 06:51 03.10.2019
886 Clouds 24 1014 88 10000 3.6 150 06:25 03.10.2019
887 Clouds 24 1014 88 10000 3.6 150 05:47 03.10.2019
888 Clouds 24 1014 88 10000 3.6 150 05:20 03.10.2019
889 Rain 24 1015 88 10000 4.1 160 04:31 03.10.2019
890 Clouds 26 1015 78 10000 4.6 150 03:24 03.10.2019
891 Clouds 26 1015 78 10000 5.1 140 02:39 03.10.2019
892 Clouds 25 1016 83 10000 4.6 150 01:59 03.10.2019
893 Clouds 25 1016 83 10000 4.6 150 01:35 03.10.2019
894 Rain 24 1016 94 10000 3.6 160 00:51 03.10.2019
895 Rain 24 1016 94 10000 3.6 160 00:19 03.10.2019
896 Clouds 25 1016 83 10000 3.6 150 23:43 02.10.2019
897 Clouds 25 1016 83 10000 3.6 150 23:22 02.10.2019
898 Clouds 25 1017 78 10000 2.6 150 22:44 02.10.2019
899 Clouds 25 1017 78 10000 2.6 150 22:22 02.10.2019
900 Rain 21 1016 97 0 1.84 114.655 21:58 02.10.2019
901 Rain 21 1016 97 0 1.84 114.655 21:38 02.10.2019
902 Clouds 24 1015 83 10000 3.6 140 21:20 02.10.2019
903 Clouds 24 1015 83 10000 3.6 140 21:20 02.10.2019
904 Rain 20 1014 99 0 0.95 133.13 20:57 02.10.2019
905 Rain 20 1014 99 0 0.95 133.13 20:38 02.10.2019
906 Clouds 23 1015 88 10000 3.1 130 20:20 02.10.2019
907 Clouds 23 1015 88 10000 3.1 130 19:55 02.10.2019
908 Clouds 23 1015 88 10000 3.1 130 19:54 02.10.2019
909 -273 0 0 0 0 0 19:54 02.10.2019
910 Clouds 23 1015 88 10000 3.1 130 19:54 02.10.2019
911 -273 0 0 0 0 0 19:54 02.10.2019
912 Rain 20 1014 99 0 0.95 133.13 19:36 02.10.2019
913 Rain 20 1014 99 0 0.95 133.13 19:36 02.10.2019
914 Clouds 24 1015 83 10000 2.6 150 19:18 02.10.2019
915 Clouds 24 1015 83 10000 2.6 150 18:55 02.10.2019
916 Clouds 24 1015 83 10000 2.6 150 18:36 02.10.2019
917 Clouds 23 1015 94 10000 2.6 150 18:18 02.10.2019
918 Clouds 23 1015 94 10000 2.6 150 17:42 02.10.2019
919 Clouds 24 1016 88 10000 3.1 150 17:21 02.10.2019
920 Clouds 24 1016 88 10000 3.1 150 16:58 02.10.2019
921 Clouds 24 1016 88 10000 3.1 150 16:38 02.10.2019
922 Rain 20 1014 98 0 0.74 101.401 16:20 02.10.2019
923 Rain 20 1014 98 0 0.74 101.401 15:56 02.10.2019
924 Rain 20 1014 98 0 0.74 101.401 15:37 02.10.2019
925 Rain 20 1015 98 0 0.87 95.224 15:18 02.10.2019
926 Rain 20 1015 98 0 0.87 95.224 15:18 02.10.2019
927 Rain 20 1015 98 0 0.87 95.224 14:44 02.10.2019
928 Rain 24 1016 88 10000 3.6 150 14:25 02.10.2019
929 Rain 24 1016 88 10000 3.6 150 13:57 02.10.2019
930 Rain 24 1016 88 10000 3.6 150 13:39 02.10.2019
931 Rain 24 1016 88 10000 3.6 150 13:21 02.10.2019
932 Rain 24 1016 88 10000 3.1 140 12:40 02.10.2019
933 Rain 24 1016 88 10000 3.1 140 12:22 02.10.2019
934 Clouds 24 1016 94 10000 3.6 140 11:59 02.10.2019
935 Clouds 24 1016 94 10000 3.6 140 11:41 02.10.2019
936 Clouds 24 1016 94 10000 3.6 140 11:20 02.10.2019
937 Clouds 24 1015 94 10000 2.1 180 10:38 02.10.2019
938 Clouds 24 1015 94 10000 2.1 180 10:19 02.10.2019
939 Clouds 24 1015 94 10000 4.1 160 09:40 02.10.2019
940 Clouds 24 1015 94 10000 4.1 160 09:20 02.10.2019
941 Clouds 25 1014 83 10000 2.1 160 08:56 02.10.2019
942 Clouds 25 1014 83 10000 2.1 160 08:37 02.10.2019
943 Clouds 25 1014 83 10000 2.1 160 08:19 02.10.2019
944 Clouds 27 1014 69 10000 3.1 150 07:39 02.10.2019
945 Clouds 27 1014 69 10000 3.1 150 07:21 02.10.2019
946 Clouds 27 1014 69 10000 3.1 150 07:21 02.10.2019
947 Clouds 27 1014 74 10000 3.6 160 06:54 02.10.2019
948 Clouds 28 1014 69 10000 3.1 150 05:56 02.10.2019
949 Clouds 28 1014 69 10000 3.1 150 05:25 02.10.2019
950 Clouds 28 1014 74 10000 3.1 150 04:56 02.10.2019
951 Clouds 25 1013 68 0 2.57 132.919 03:53 02.10.2019
952 Clouds 26 1015 66 0 2.48 125.9 02:47 02.10.2019
953 Clouds 28 1016 69 10000 3.1 160 02:24 02.10.2019
954 Clouds 28 1016 69 10000 3.1 160 01:46 02.10.2019
955 Clouds 28 1016 74 10000 3.1 160 00:51 02.10.2019
956 Clouds 28 1016 74 10000 3.1 160 00:27 02.10.2019
957 Clouds 26 1016 83 10000 3.1 170 23:45 01.10.2019
958 Clouds 26 1016 83 10000 3.1 170 23:26 01.10.2019
959 Clouds 26 1017 88 10000 1.57 108.366 22:59 01.10.2019
960 Clouds 26 1017 88 10000 1.57 108.366 22:40 01.10.2019
961 Clouds 26 1017 88 10000 1.57 108.366 22:20 01.10.2019
962 Clouds 25 1016 72 0 1.57 108.366 21:58 01.10.2019
963 Clouds 25 1016 72 0 1.57 108.366 21:39 01.10.2019
964 Clouds 19 1015 99 0 0.98 65.527 21:21 01.10.2019
965 Clouds 19 1015 99 0 0.98 65.527 20:56 01.10.2019
966 Clouds 19 1015 99 0 1.04 65.283 20:38 01.10.2019
967 Clouds 24 1015 100 10000 1.04 65.283 20:19 01.10.2019
968 Clouds 24 1015 100 10000 1.04 65.283 19:56 01.10.2019
969 Clouds 24 1015 100 10000 1.04 65.283 19:38 01.10.2019
970 Clouds 24 1015 100 10000 1.04 65.283 19:18 01.10.2019
971 Clouds 24 1015 100 10000 1.04 65.283 18:40 01.10.2019
972 Clouds 24 1015 100 10000 1.01 44.879 18:22 01.10.2019
973 Clouds 24 1015 94 10000 1.01 44.879 17:58 01.10.2019
974 Clouds 24 1015 94 10000 1.01 44.879 17:39 01.10.2019
975 Clouds 24 1015 94 10000 1.01 44.879 17:19 01.10.2019
976 Clouds 23 1016 100 10000 1.01 44.879 16:57 01.10.2019
977 Clouds 23 1016 100 10000 1.01 44.879 16:39 01.10.2019
978 Clouds 23 1016 100 10000 1.01 44.879 16:21 01.10.2019
979 Clouds 23 1016 100 10000 1.01 44.879 16:21 01.10.2019
980 Clouds 19 1015 98 0 1.01 44.879 15:42 01.10.2019
981 Clouds 19 1016 98 0 1.12 33.989 15:23 01.10.2019
982 Clouds 19 1016 98 0 1.12 33.989 14:41 01.10.2019
983 Clouds 24 1017 94 10000 1.12 33.989 14:20 01.10.2019
984 Clouds 24 1017 94 10000 1.12 33.989 13:58 01.10.2019
985 Clouds 24 1017 94 10000 1.12 33.989 13:58 01.10.2019
986 Clouds 24 1017 94 10000 1.12 33.989 13:39 01.10.2019
987 Clouds 24 1017 94 10000 1.16 34.419 13:21 01.10.2019
988 Clouds 24 1018 94 10000 1 0 12:58 01.10.2019
989 Clouds 24 1018 94 10000 1 0 12:39 01.10.2019
990 Clouds 24 1018 94 10000 1 0 12:19 01.10.2019
991 Clouds 24 1017 94 10000 1 0 11:58 01.10.2019
992 Clouds 24 1017 94 10000 1 0 11:38 01.10.2019
993 Clouds 24 1017 94 10000 1 0 11:18 01.10.2019
994 Clouds 24 1017 94 10000 1 0 11:18 01.10.2019
995 Clouds 25 1017 88 10000 1 0 10:49 01.10.2019
996 Clouds 25 1017 88 10000 1 0 10:29 01.10.2019
997 Clouds 25 1016 88 10000 2.1 90 09:47 01.10.2019
998 Clouds 25 1016 88 10000 2.1 90 09:27 01.10.2019
999 Rain 22 1015 90 0 1.02 87.91 08:57 01.10.2019
1000 Rain 22 1015 90 0 1.05 84.311 08:39 01.10.2019
1001 Clouds 28 1015 74 10000 4.1 90 08:20 01.10.2019
1002 Clouds 28 1015 74 10000 4.1 90 07:42 01.10.2019
1003 Clouds 28 1015 74 10000 4.1 90 07:22 01.10.2019
1004 Clouds 29 1015 70 10000 4.6 70 06:45 01.10.2019
1005 Clouds 29 1015 66 10000 4.1 70 06:18 01.10.2019
1006 Clouds 29 1015 66 10000 4.1 70 05:45 01.10.2019
1007 Clouds 29 1016 66 10000 4.6 80 04:49 01.10.2019
1008 Clouds 29 1016 66 10000 4.6 80 04:26 01.10.2019
1009 Clouds 29 1017 66 10000 4.6 60 02:26 01.10.2019
1010 Clouds 29 1017 70 10000 4.6 60 01:57 01.10.2019
1011 Clouds 28 1018 69 10000 5.1 70 00:53 01.10.2019
1012 Clouds 28 1018 69 10000 5.1 70 00:26 01.10.2019
1013 Clouds 28 1018 74 10000 4.1 60 23:55 30.09.2019
1014 Clouds 28 1018 74 10000 4.1 60 23:37 30.09.2019
1015 Clouds 28 1018 74 10000 4.1 60 23:18 30.09.2019
1016 Clouds 27 1018 78 10000 3.6 70 22:42 30.09.2019
1017 Clouds 27 1018 78 10000 3.6 70 22:23 30.09.2019
1018 Clouds 25 1017 94 10000 1.5 50 21:56 30.09.2019
1019 Clouds 25 1017 94 10000 1.5 50 21:37 30.09.2019
1020 Clouds 25 1017 94 10000 1.5 50 21:19 30.09.2019
1021 Clouds 23 1017 100 10000 1.2 42.46 20:55 30.09.2019
1022 Clouds 23 1017 100 10000 1.2 42.46 20:55 30.09.2019
1023 Clouds 23 1017 100 10000 1.26 44.323 20:36 30.09.2019
1024 Clouds 23 1017 100 10000 1.26 44.323 20:36 30.09.2019
1025 Clouds 23 1017 100 10000 1.26 44.323 20:18 30.09.2019
1026 Clouds 23 1017 94 10000 1.26 44.323 19:54 30.09.2019
1027 Clouds 23 1017 94 10000 1.26 44.323 19:36 30.09.2019
1028 Clouds 23 1017 94 10000 1.26 44.323 19:18 30.09.2019
1029 Clouds 24 1017 94 10000 1.26 44.323 18:41 30.09.2019
1030 Clouds 24 1017 94 10000 1.33 31.038 18:21 30.09.2019
1031 Clouds 25 1017 94 10000 1.33 31.038 17:57 30.09.2019
1032 Clouds 25 1017 94 10000 1.33 31.038 17:57 30.09.2019
1033 Clouds 25 1017 94 10000 1.33 31.038 17:39 30.09.2019
1034 Clouds 25 1017 94 10000 1.33 31.038 17:19 30.09.2019
1035 Rain 25 1017 94 10000 2.6 50 16:54 30.09.2019
1036 Rain 25 1017 94 10000 2.6 50 16:36 30.09.2019
1037 Rain 25 1017 94 10000 2.6 50 16:18 30.09.2019
1038 Clouds 25 1017 94 10000 1.33 31.038 15:39 30.09.2019
1039 Clouds 25 1017 94 10000 1.33 31.038 15:39 30.09.2019
1040 Clouds 25 1017 94 10000 1.25 36.934 15:20 30.09.2019
1041 Clouds 25 1018 94 10000 1.5 70 14:58 30.09.2019
1042 Clouds 25 1018 94 10000 1.5 70 14:38 30.09.2019
1043 Clouds 25 1018 94 10000 1.5 70 14:19 30.09.2019
1044 Clouds 25 1018 94 10000 2.6 70 13:59 30.09.2019
1045 Clouds 25 1018 94 10000 2.6 70 13:41 30.09.2019
1046 Clouds 25 1018 94 10000 2.6 70 13:22 30.09.2019
1047 Clouds 26 1018 88 10000 2.6 70 12:55 30.09.2019
1048 -273 0 0 0 0 0 12:54 30.09.2019
1049 Clouds 26 1018 88 10000 2.6 70 12:36 30.09.2019
1050 Clouds 26 1018 88 10000 2.6 70 12:18 30.09.2019
1051 Clouds 26 1018 88 10000 1.18 42.319 11:43 30.09.2019
1052 Clouds 26 1018 88 10000 1.18 42.319 11:21 30.09.2019
1053 Clouds 25 1017 94 10000 1.5 80 10:57 30.09.2019
1054 Clouds 25 1017 94 10000 1.5 80 10:37 30.09.2019
1055 Clouds 25 1017 94 10000 1.5 80 10:18 30.09.2019
1056 Clouds 26 1017 88 10000 2.6 90 09:40 30.09.2019
1057 Clouds 26 1017 88 10000 2.6 90 09:22 30.09.2019
1058 Clouds 26 1016 88 10000 2.6 70 08:52 30.09.2019
1059 Clouds 26 1016 88 10000 2.6 70 08:34 30.09.2019
1060 Clouds 27 1016 83 10000 5.1 60 07:59 30.09.2019
1061 Clouds 27 1016 83 10000 5.1 60 07:40 30.09.2019
1062 Clouds 27 1016 83 10000 5.1 60 07:40 30.09.2019
1063 Clouds 28 1015 78 10000 6.2 60 07:18 30.09.2019
1064 Clouds 28 1015 78 10000 6.2 60 06:42 30.09.2019
1065 Clouds 28 1015 78 10000 6.2 60 06:23 30.09.2019
1066 Clouds 29 1015 74 10000 5.7 70 05:40 30.09.2019
1067 Clouds 29 1017 74 10000 6.2 40 02:53 30.09.2019
1068 Clouds 29 1017 74 10000 6.2 40 02:25 30.09.2019
1069 Clouds 28 1018 78 10000 5.1 50 01:24 30.09.2019
1070 Clouds 28 1018 78 10000 5.1 50 01:24 30.09.2019
1071 Clouds 28 1018 78 10000 5.1 50 01:24 30.09.2019
1072 Clouds 27 1018 88 10000 4.1 50 00:37 30.09.2019
1073 Clouds 27 1018 88 10000 4.1 50 00:19 30.09.2019
1074 Clouds 27 1019 83 10000 4.1 40 23:42 29.09.2019
1075 Clouds 27 1019 83 10000 4.1 40 23:21 29.09.2019
1076 Clouds 26 1019 94 10000 2.1 50 22:45 29.09.2019
1077 Clouds 26 1019 94 10000 2.1 50 22:25 29.09.2019
1078 Rain 24 1018 100 8000 1 330 21:59 29.09.2019
1079 Rain 24 1018 100 8000 1 330 21:39 29.09.2019
1080 Rain 24 1018 100 8000 1 330 21:20 29.09.2019
1081 Rain 24 1017 100 8000 1.51 31.192 20:59 29.09.2019
1082 Rain 24 1017 100 8000 1.51 31.192 20:41 29.09.2019
1083 Rain 24 1017 100 8000 1.49 34.02 20:19 29.09.2019
1084 Rain 24 1017 100 8000 1.49 34.02 20:19 29.09.2019
1085 Clouds 24 1017 100 10000 1.49 34.02 19:56 29.09.2019
1086 Clouds 24 1017 100 10000 1.49 34.02 19:37 29.09.2019
1087 Clouds 24 1017 100 10000 1.49 34.02 19:18 29.09.2019
1088 -273 0 0 0 0 0 18:55 29.09.2019
1089 Clouds 24 1017 100 10000 1.49 34.02 18:37 29.09.2019
1090 Rain 24 1017 94 10000 1 340 18:18 29.09.2019
1091 Clouds 24 1017 100 10000 1.35 32.181 18:18 29.09.2019
1092 -273 0 0 0 0 0 17:55 29.09.2019
1093 Rain 24 1017 94 10000 1 340 17:55 29.09.2019
1094 Rain 24 1017 94 10000 1 340 17:37 29.09.2019
1095 Rain 24 1017 94 10000 1 340 17:19 29.09.2019
1096 Clouds 24 1017 100 10000 1 120 16:55 29.09.2019
1097 Clouds 24 1017 100 10000 1 120 16:37 29.09.2019
1098 Clouds 24 1017 100 10000 1 120 16:18 29.09.2019
1099 Clouds 24 1017 100 10000 1.5 120 15:41 29.09.2019
1100 Clouds 24 1017 100 10000 1.5 120 15:19 29.09.2019
1101 Clouds 20 1017 99 0 1.18 36.53 14:59 29.09.2019
1102 Clouds 20 1017 99 0 1.18 36.53 14:38 29.09.2019
1103 Clouds 25 1019 94 10000 3.6 110 14:20 29.09.2019
1104 Clouds 25 1019 94 10000 3.6 110 13:57 29.09.2019
1105 Clouds 25 1019 94 10000 3.6 110 13:38 29.09.2019
1106 Clouds 25 1019 94 10000 3.6 110 13:18 29.09.2019
1107 Clouds 25 1019 94 10000 3.6 110 13:18 29.09.2019
1108 Clouds 25 1019 94 10000 3.6 110 13:18 29.09.2019
1109 Clouds 25 1019 88 10000 3.6 110 12:56 29.09.2019
1110 Clouds 25 1019 88 10000 3.6 110 12:38 29.09.2019
1111 Clouds 25 1019 88 10000 3.6 110 12:20 29.09.2019
1112 Clouds 25 1019 94 10000 3.6 100 11:41 29.09.2019
1113 Clouds 25 1019 94 10000 3.6 100 11:20 29.09.2019
1114 Clouds 24 1019 94 10000 3.6 110 10:59 29.09.2019
1115 Clouds 24 1019 94 10000 3.6 110 10:41 29.09.2019
1116 Clouds 24 1019 94 10000 3.6 110 10:21 29.09.2019
1117 Rain 24 1018 94 10000 4.6 100 09:59 29.09.2019
1118 Rain 24 1018 94 10000 4.6 100 09:41 29.09.2019
1119 Rain 24 1018 94 10000 4.6 100 09:20 29.09.2019
1120 Rain 24 1018 94 10000 4.6 120 08:43 29.09.2019
1121 Rain 24 1018 94 10000 4.6 120 08:22 29.09.2019
1122 Rain 24 1017 94 10000 4.6 110 07:45 29.09.2019
1123 Rain 24 1017 94 10000 4.6 110 07:27 29.09.2019
1124 Rain 25 1016 88 10000 6.2 110 06:57 29.09.2019
1125 Rain 25 1016 88 10000 6.2 110 06:34 29.09.2019
1126 Clouds 26 1017 83 10000 5.1 110 04:52 29.09.2019
1127 Clouds 26 1017 83 10000 5.1 110 04:24 29.09.2019
1128 Clouds 25 1017 88 10000 6.7 100 03:42 29.09.2019
1129 Clouds 24 1019 94 10000 7.2 110 02:25 29.09.2019
1130 Clouds 24 1019 94 10000 7.2 110 01:45 29.09.2019
1131 Clouds 24 1019 94 10000 7.2 110 01:23 29.09.2019
1132 Clouds 24 1019 94 10000 6.2 110 00:41 29.09.2019
1133 Rain 24 1019 94 10000 4.6 110 00:19 29.09.2019
1134 Rain 24 1019 94 10000 4.6 110 23:39 28.09.2019
1135 Rain 24 1019 94 10000 4.6 110 23:39 28.09.2019
1136 Rain 24 1019 94 10000 4.6 110 23:21 28.09.2019
1137 Rain 24 1019 94 10000 5.1 110 22:41 28.09.2019
1138 Rain 24 1019 94 10000 5.1 110 22:23 28.09.2019
1139 Rain 23 1018 100 10000 4.6 100 21:59 28.09.2019
1140 Rain 23 1018 100 10000 4.6 100 21:40 28.09.2019
1141 Rain 23 1018 100 10000 4.6 100 21:21 28.09.2019
1142 Rain 20 1017 99 0 0.73 67.314 20:59 28.09.2019
1143 Rain 20 1017 99 0 1.02 80.834 20:40 28.09.2019
1144 Rain 23 1017 100 5000 2.1 140 20:20 28.09.2019
1145 Rain 23 1017 100 5000 2.1 140 19:57 28.09.2019
1146 Rain 23 1017 100 5000 2.1 140 19:39 28.09.2019
1147 Rain 23 1017 100 5000 2.1 140 19:21 28.09.2019
1148 Rain 22 1017 100 8000 1.02 80.834 18:57 28.09.2019
1149 Rain 22 1017 100 8000 1.02 80.834 18:39 28.09.2019
1150 Rain 22 1017 100 8000 1.01 88.297 18:20 28.09.2019
1151 Rain 22 1017 100 8000 1.5 270 17:56 28.09.2019
1152 Rain 22 1017 100 8000 1.5 270 17:38 28.09.2019
1153 Rain 22 1017 100 8000 1.5 270 17:19 28.09.2019
1154 Rain 22 1017 100 8000 1.5 270 17:19 28.09.2019
1155 Rain 22 1018 100 10000 1 0 16:43 28.09.2019
1156 Rain 22 1018 100 10000 1 0 16:25 28.09.2019
1157 Rain 22 1018 100 10000 2.1 90 15:42 28.09.2019
1158 Rain 22 1018 100 10000 2.1 90 15:42 28.09.2019
1159 Rain 22 1018 100 10000 2.1 90 15:42 28.09.2019
1160 Rain 22 1018 100 10000 2.1 90 15:23 28.09.2019
1161 Rain 22 1018 100 10000 2.1 90 15:23 28.09.2019
1162 Rain 19 1017 99 0 1.08 82.605 14:58 28.09.2019
1163 Rain 19 1017 99 0 1.08 82.605 14:40 28.09.2019
1164 Rain 22 1019 100 10000 4.6 100 14:21 28.09.2019
1165 Rain 22 1019 100 10000 4.6 100 13:57 28.09.2019
1166 Rain 22 1019 100 10000 4.6 100 13:38 28.09.2019
1167 Rain 22 1019 100 10000 4.6 100 13:20 28.09.2019
1168 Rain 22 1019 100 10000 4.6 100 13:20 28.09.2019
1169 Rain 23 1019 94 10000 5.1 90 12:45 28.09.2019
1170 Rain 23 1019 94 10000 5.1 90 12:20 28.09.2019
1171 Clouds 23 1017 94 10000 4.1 120 11:56 28.09.2019
1172 Clouds 23 1017 94 10000 4.1 120 11:37 28.09.2019
1173 Clouds 23 1017 94 10000 4.1 120 11:18 28.09.2019
1174 Rain 23 1018 94 10000 4.6 120 10:43 28.09.2019
1175 Rain 23 1018 94 10000 4.6 120 10:20 28.09.2019
1176 Rain 23 1018 94 10000 3.1 120 09:57 28.09.2019
1177 Rain 23 1018 94 10000 3.1 120 09:39 28.09.2019
1178 Rain 23 1018 94 10000 3.1 120 09:18 28.09.2019
1179 Rain 20 1016 96 0 1.51 86.78 08:46 28.09.2019
1180 Rain 24 1017 94 10000 2.6 120 08:28 28.09.2019
1181 Rain 24 1017 94 10000 2.6 120 07:45 28.09.2019
1182 Rain 24 1017 94 10000 2.6 120 07:45 28.09.2019
1183 Rain 24 1017 94 10000 2.6 120 07:23 28.09.2019
1184 Rain 25 1016 94 10000 4.1 120 06:55 28.09.2019
1185 Rain 25 1016 94 10000 4.1 120 06:32 28.09.2019
1186 Clouds 25 1016 88 10000 5.1 110 05:55 28.09.2019
1187 Clouds 25 1016 88 10000 5.1 110 05:21 28.09.2019
1188 Rain 25 1017 88 10000 4.1 110 04:40 28.09.2019
1189 Clouds 25 1018 83 10000 5.1 110 03:58 28.09.2019
1190 Clouds 25 1018 83 10000 5.1 110 03:58 28.09.2019
1191 Clouds 25 1018 83 10000 5.1 110 03:23 28.09.2019
1192 Rain 21 1017 88 0 1.99 102.46 02:56 28.09.2019
1193 Clouds 25 1019 83 10000 4.1 120 02:32 28.09.2019
1194 Clouds 25 1019 83 10000 4.1 120 01:49 28.09.2019
1195 Clouds 25 1019 83 10000 4.1 120 01:26 28.09.2019
1196 Rain 25 1019 83 10000 3.6 110 00:58 28.09.2019
1197 Rain 25 1019 83 10000 3.6 110 00:38 28.09.2019
1198 Rain 25 1019 83 10000 3.6 110 00:18 28.09.2019
1199 Rain 25 1019 78 10000 3.6 110 23:37 27.09.2019
1200 Rain 25 1019 78 10000 3.6 110 23:19 27.09.2019
1201 Clouds 24 1019 83 10000 4.1 120 22:46 27.09.2019
1202 Clouds 24 1019 83 10000 4.1 120 22:19 27.09.2019
1203 Clouds 21 1019 94 10000 1.5 310 21:57 27.09.2019
1204 Clouds 21 1019 94 10000 1.5 310 21:37 27.09.2019
1205 Clouds 21 1019 94 10000 1.5 310 21:19 27.09.2019
1206 Clouds 16 1017 98 0 1.03 62.068 20:56 27.09.2019
1207 Clouds 17 1017 97 0 1.04 67.22 20:38 27.09.2019
1208 Clouds 17 1017 97 0 1.04 67.22 20:19 27.09.2019
1209 Clouds 17 1017 97 0 1.04 67.22 19:56 27.09.2019
1210 Clouds 17 1017 97 0 1.04 67.22 19:37 27.09.2019
1211 Clouds 20 1017 94 10000 1 0 19:18 27.09.2019
1212 Clouds 20 1017 94 10000 1 0 18:40 27.09.2019
1213 Clouds 20 1017 94 10000 1 0 18:22 27.09.2019
1214 Clouds 20 1017 94 10000 1 0 17:55 27.09.2019
1215 Clouds 20 1017 94 10000 1 0 17:37 27.09.2019
1216 Clouds 20 1017 94 10000 1 0 17:18 27.09.2019
1217 Clouds 15 1017 98 0 1.2 57.334 16:55 27.09.2019
1218 Clouds 19 1019 93 10000 1.5 310 16:36 27.09.2019
1219 Clouds 19 1019 93 10000 1.5 310 16:18 27.09.2019
1220 Clouds 19 1019 93 10000 1.5 310 15:43 27.09.2019
1221 Clouds 19 1019 93 10000 1.5 310 15:20 27.09.2019
1222 Clouds 15 1018 98 0 1.21 47.21 14:56 27.09.2019
1223 Clouds 15 1018 98 0 1.21 47.21 14:38 27.09.2019
1224 Clouds 15 1018 98 0 1.21 47.21 14:38 27.09.2019
1225 Clouds 22 1012 83 10000 1 0 14:18 27.09.2019
1226 Clouds 22 1012 83 10000 1 0 13:57 27.09.2019
1227 Clouds 22 1012 83 10000 1 0 13:38 27.09.2019
1228 Clouds 22 1012 83 10000 1 0 13:19 27.09.2019
1229 Clouds 23 1020 78 10000 3.1 100 12:44 27.09.2019
1230 Clouds 23 1020 78 10000 3.1 100 12:22 27.09.2019
1231 Clouds 22 1019 78 10000 1.5 130 11:55 27.09.2019
1232 Clouds 16 1019 94 0 1.15 66.345 11:37 27.09.2019
1233 Clouds 22 1019 78 10000 2.1 130 11:19 27.09.2019
1234 Clouds 22 1019 78 10000 2.1 130 10:41 27.09.2019
1235 Clouds 22 1019 78 10000 2.1 130 10:21 27.09.2019
1236 Clouds 23 1018 73 10000 3.1 120 09:44 27.09.2019
1237 Clouds 23 1018 73 10000 3.1 120 09:23 27.09.2019
1238 Clouds 17 1017 88 0 1.5 116.752 08:59 27.09.2019
1239 Clouds 17 1017 88 0 1.5 116.752 08:40 27.09.2019
1240 Clouds 25 1016 69 10000 3.6 150 08:20 27.09.2019
1241 Clouds 25 1016 69 10000 3.6 150 07:49 27.09.2019
1242 Clouds 25 1016 69 10000 3.6 150 07:24 27.09.2019
1243 Clouds 25 1016 61 10000 4.1 130 06:43 27.09.2019
1244 Clouds 25 1016 61 10000 4.1 130 06:25 27.09.2019
1245 Clouds 22 1015 66 0 2.47 107.57 05:52 27.09.2019
1246 Clouds 26 1017 57 10000 4.1 130 05:33 27.09.2019
1247 Clouds 25 1017 65 10000 4.6 130 03:57 27.09.2019
1248 Clouds 25 1017 65 10000 4.6 130 03:36 27.09.2019
1249 Clouds 26 1018 61 10000 5.7 120 01:53 27.09.2019
1250 Clouds 26 1018 61 10000 5.7 120 01:28 27.09.2019
1251 Clouds 25 1019 65 10000 5.1 130 00:30 27.09.2019
1252 Clouds 23 1019 83 10000 2.6 140 23:56 26.09.2019
1253 Rain 18 1019 92 0 1.95 97.527 23:38 26.09.2019
1254 Rain 18 1019 92 0 1.95 97.527 23:19 26.09.2019
1255 Rain 18 1019 92 0 1.95 97.527 22:57 26.09.2019
1256 Rain 18 1019 92 0 1.95 97.527 22:39 26.09.2019
1257 Rain 18 1019 92 0 1.95 97.527 22:18 26.09.2019
1258 Rain 18 1019 92 0 1.95 97.527 21:56 26.09.2019
1259 Rain 18 1019 92 0 1.95 97.527 21:37 26.09.2019
1260 Rain 15 1018 98 0 1.02 83.672 21:18 26.09.2019
1261 Rain 15 1018 98 0 0.86 97.233 20:57 26.09.2019
1262 Rain 15 1018 98 0 0.86 97.233 20:39 26.09.2019
1263 Clouds 23 1018 78 10000 0.86 97.233 20:21 26.09.2019
1264 Clouds 23 1018 78 10000 0.86 97.233 19:41 26.09.2019
1265 Clouds 23 1018 78 10000 0.86 97.233 19:19 26.09.2019
1266 Clouds 23 1017 73 10000 1.5 120 18:59 26.09.2019
1267 Clouds 23 1017 73 10000 1.5 120 18:40 26.09.2019
1268 Clouds 23 1017 73 10000 1.5 120 18:22 26.09.2019
1269 Clouds 23 1018 73 10000 1.5 130 17:57 26.09.2019
1270 Clouds 23 1018 73 10000 1.5 130 17:37 26.09.2019
1271 Clouds 23 1018 73 10000 1.5 130 17:18 26.09.2019
1272 Clouds 23 1018 73 10000 2.6 130 16:40 26.09.2019
1273 Clouds 23 1018 73 10000 2.6 130 16:21 26.09.2019
1274 Clouds 23 1018 73 10000 2.1 130 15:59 26.09.2019
1275 Clouds 23 1018 73 10000 2.1 130 15:38 26.09.2019
1276 Clouds 23 1018 73 10000 2.1 130 15:20 26.09.2019
1277 Rain 17 1018 99 0 1.52 99.754 14:57 26.09.2019
1278 Rain 17 1018 99 0 1.52 99.754 14:38 26.09.2019
1279 Rain 17 1018 99 0 1.52 99.754 14:38 26.09.2019
1280 Clouds 24 1019 69 10000 4.6 130 14:20 26.09.2019
1281 Clouds 24 1019 69 10000 4.6 130 13:41 26.09.2019
1282 Clouds 24 1019 69 10000 4.6 130 13:20 26.09.2019
1283 Clouds 23 1019 73 10000 3.6 130 12:59 26.09.2019
1284 Clouds 23 1019 73 10000 3.6 130 12:41 26.09.2019
1285 Clouds 23 1019 73 10000 3.6 130 12:41 26.09.2019
1286 Clouds 23 1019 73 10000 3.6 130 12:21 26.09.2019
1287 Clouds 24 1018 69 10000 4.1 140 11:42 26.09.2019
1288 Clouds 24 1018 69 10000 4.1 140 11:23 26.09.2019
1289 Clouds 24 1018 69 10000 3.1 150 10:57 26.09.2019
1290 Clouds 24 1018 69 10000 3.1 150 10:57 26.09.2019
1291 Clouds 24 1018 69 10000 3.1 150 10:39 26.09.2019
1292 Clouds 24 1018 69 10000 3.1 150 10:20 26.09.2019
1293 Clouds 24 1017 69 10000 3.1 140 09:45 26.09.2019
1294 Clouds 24 1017 69 10000 3.1 140 09:26 26.09.2019
1295 Rain 17 1017 97 0 1.16 119.69 08:58 26.09.2019
1296 Rain 18 1017 91 0 1.28 113.812 08:40 26.09.2019
1297 Clouds 25 1017 69 10000 4.1 140 08:22 26.09.2019
1298 Clouds 25 1017 69 10000 4.1 140 07:44 26.09.2019
1299 Clouds 25 1017 69 10000 4.1 140 07:22 26.09.2019
1300 Clouds 25 1017 69 10000 4.1 140 06:50 26.09.2019
1301 Clouds 25 1017 69 10000 4.1 140 06:27 26.09.2019
1302 Clouds 26 1017 65 10000 4.6 140 05:46 26.09.2019
1303 Clouds 26 1017 65 10000 4.6 140 05:25 26.09.2019
1304 Clouds 27 1018 61 10000 4.1 140 03:18 26.09.2019
1305 Clouds 27 1019 57 10000 3.6 160 01:54 26.09.2019
1306 Clouds 27 1019 57 10000 3.6 160 01:31 26.09.2019
1307 Clouds 26 1020 61 10000 3.1 140 00:56 26.09.2019
1308 Clouds 26 1020 61 10000 3.1 140 00:38 26.09.2019
1309 Clouds 26 1020 61 10000 3.1 140 00:19 26.09.2019
1310 Clouds 26 1020 65 10000 4.1 150 23:42 25.09.2019
1311 Clouds 26 1020 65 10000 4.1 150 23:18 25.09.2019
1312 Clouds 25 1020 69 10000 2.6 130 22:42 25.09.2019
1313 Clouds 25 1020 69 10000 2.6 130 22:21 25.09.2019
1314 Clouds 21 1018 94 10000 1.38 100.357 21:58 25.09.2019
1315 Clouds 21 1018 94 10000 1.38 100.357 21:39 25.09.2019
1316 Clouds 21 1018 94 10000 1.38 100.357 21:39 25.09.2019
1317 Clouds 21 1018 94 10000 0.84 36.992 21:19 25.09.2019
1318 Clouds 21 1018 94 10000 1.5 320 20:58 25.09.2019
1319 Clouds 21 1018 94 10000 1.5 320 20:40 25.09.2019
1320 Clouds 21 1018 94 10000 1.5 320 20:22 25.09.2019
1321 -273 0 0 0 0 0 19:54 25.09.2019
1322 Clouds 21 1018 94 10000 0.66 44.692 19:36 25.09.2019
1323 Clouds 20 1018 100 10000 0.66 44.692 19:18 25.09.2019
1324 Clouds 20 1018 100 10000 0.66 44.692 18:55 25.09.2019
1325 Clouds 20 1018 100 10000 0.66 44.692 18:37 25.09.2019
1326 Clouds 20 1018 100 10000 0.49 77.144 18:18 25.09.2019
1327 Clouds 20 1018 100 10000 0.49 77.144 17:38 25.09.2019
1328 Clouds 20 1018 100 10000 0.49 77.144 17:19 25.09.2019
1329 Clouds 20 1018 94 10000 0.49 77.144 16:56 25.09.2019
1330 Clouds 20 1018 94 10000 0.49 77.144 16:36 25.09.2019
1331 Clouds 20 1018 94 10000 0.49 77.144 16:18 25.09.2019
1332 Clouds 21 1019 94 10000 0.49 77.144 15:41 25.09.2019
1333 Clouds 21 1019 94 10000 0.49 77.144 15:41 25.09.2019
1334 Clouds 21 1019 94 10000 0.49 77.144 15:41 25.09.2019
1335 Clouds 21 1019 94 10000 0.65 99.448 15:23 25.09.2019
1336 Clouds 21 1020 94 10000 0.65 99.448 14:57 25.09.2019
1337 Clouds 21 1020 94 10000 0.65 99.448 14:39 25.09.2019
1338 Clouds 21 1020 94 10000 0.65 99.448 14:39 25.09.2019
1339 Clouds 21 1020 94 10000 0.65 99.448 14:21 25.09.2019
1340 Clouds 22 1020 88 10000 0.65 99.448 13:42 25.09.2019
1341 Clouds 22 1020 88 10000 0.64 96.065 13:24 25.09.2019
1342 Clouds 22 1020 88 10000 0.64 96.065 12:59 25.09.2019
1343 Clouds 22 1020 88 10000 0.64 96.065 12:39 25.09.2019
1344 Clouds 22 1020 88 10000 0.78 47.39 12:21 25.09.2019
1345 Clouds 23 1020 78 10000 0.78 47.39 11:55 25.09.2019
1346 Clouds 23 1020 78 10000 0.78 47.39 11:55 25.09.2019
1347 Clouds 23 1020 78 10000 0.78 47.39 11:36 25.09.2019
1348 Clouds 23 1020 78 10000 0.78 47.39 11:18 25.09.2019
1349 Clouds 23 1019 83 10000 1.5 100 10:43 25.09.2019
1350 Clouds 23 1019 83 10000 1.5 100 10:24 25.09.2019
1351 Clouds 24 1018 73 10000 2.1 120 09:56 25.09.2019
1352 Clouds 24 1018 73 10000 2.1 120 09:37 25.09.2019
1353 Clouds 24 1018 73 10000 2.1 120 09:19 25.09.2019
1354 Clouds 24 1018 73 10000 2.6 130 08:42 25.09.2019
1355 Clouds 24 1018 73 10000 2.6 130 08:21 25.09.2019
1356 Clouds 25 1017 65 10000 4.6 120 07:57 25.09.2019
1357 Clouds 25 1017 65 10000 4.6 120 07:38 25.09.2019
1358 Clouds 26 1017 61 10000 3.6 130 07:19 25.09.2019
1359 Clouds 26 1017 61 10000 3.6 130 06:43 25.09.2019
1360 Clouds 26 1017 61 10000 3.6 130 06:21 25.09.2019
1361 Clouds 26 1017 65 10000 4.1 120 05:27 25.09.2019
1362 Clouds 26 1017 61 10000 5.1 110 04:50 25.09.2019
1363 Rain 25 1019 73 10000 3.1 140 02:19 25.09.2019
1364 Clouds 26 1020 54 10000 4.6 110 00:45 25.09.2019
1365 -273 0 0 0 0 0 00:24 25.09.2019
1366 Clouds 24 1020 73 10000 2.1 70 23:55 24.09.2019
1367 Clouds 24 1020 73 10000 2.1 70 23:37 24.09.2019
1368 Clouds 24 1020 73 10000 2.1 70 23:18 24.09.2019
1369 Clouds 22 1020 88 10000 1.5 330 22:39 24.09.2019
1370 Clouds 22 1020 88 10000 1.5 330 22:20 24.09.2019
1371 Clouds 20 1019 94 10000 1.5 340 21:56 24.09.2019
1372 Clouds 20 1019 94 10000 1.5 340 21:37 24.09.2019
1373 Clouds 20 1019 94 10000 1.5 340 21:19 24.09.2019
1374 Clouds 20 1019 94 10000 1.5 340 21:19 24.09.2019
1375 Clouds 19 1019 93 10000 1.5 320 20:57 24.09.2019
1376 Clouds 19 1019 93 10000 1.5 320 20:39 24.09.2019
1377 Clouds 19 1019 93 10000 1.5 320 20:20 24.09.2019
1378 Clouds 19 1018 100 10000 1.5 320 19:44 24.09.2019
1379 Clouds 19 1018 100 10000 1.5 320 19:22 24.09.2019
1380 Clouds 19 1018 100 10000 2.1 320 18:59 24.09.2019
1381 Clouds 19 1018 100 10000 2.1 320 18:41 24.09.2019
1382 Clouds 19 1018 100 10000 2.1 320 18:22 24.09.2019
1383 Clouds 19 1018 100 10000 2.1 320 18:22 24.09.2019
1384 Clouds 20 1018 88 10000 1.5 320 17:58 24.09.2019
1385 Clouds 20 1018 88 10000 1.5 320 17:38 24.09.2019
1386 Clouds 20 1018 88 10000 1.5 320 17:20 24.09.2019
1387 Clouds 21 1018 88 10000 0.9 33.919 16:57 24.09.2019
1388 Clouds 21 1018 88 10000 0.9 33.919 16:38 24.09.2019
1389 Clouds 21 1018 88 10000 0.9 33.919 16:18 24.09.2019
1390 Clouds 21 1019 88 10000 0.9 33.919 15:41 24.09.2019
1391 Clouds 21 1019 88 10000 1 53.039 15:23 24.09.2019
1392 Clouds 23 1019 88 10000 3.1 130 14:43 24.09.2019
1393 Clouds 23 1019 88 10000 3.1 130 14:20 24.09.2019
1394 Clouds 23 1020 78 10000 1 150 13:56 24.09.2019
1395 Clouds 23 1020 78 10000 1 150 13:37 24.09.2019
1396 Clouds 23 1020 78 10000 2.6 120 13:19 24.09.2019
1397 Clouds 23 1020 78 10000 2.6 120 12:39 24.09.2019
1398 Clouds 24 1020 78 10000 4.1 90 12:20 24.09.2019
1399 Clouds 24 1020 78 10000 4.1 90 11:43 24.09.2019
1400 Clouds 24 1020 78 10000 4.1 90 11:22 24.09.2019
1401 Rain 24 1019 73 10000 2.6 100 10:58 24.09.2019
1402 Rain 24 1019 73 10000 2.6 100 10:39 24.09.2019
1403 Rain 24 1019 73 10000 2.6 100 10:20 24.09.2019
1404 Clouds 24 1019 78 10000 3.6 110 09:46 24.09.2019
1405 Clouds 24 1019 78 10000 3.6 110 09:46 24.09.2019
1406 Clouds 24 1019 78 10000 3.6 110 09:27 24.09.2019
1407 Clouds 24 1018 73 10000 4.1 100 08:58 24.09.2019
1408 Clouds 24 1018 73 10000 4.1 100 08:40 24.09.2019
1409 Clouds 24 1018 73 10000 4.1 100 08:21 24.09.2019
1410 Clouds 25 1017 73 10000 4.1 90 07:57 24.09.2019
1411 Clouds 25 1017 73 10000 4.1 90 07:37 24.09.2019
1412 Clouds 25 1017 78 10000 5.1 80 07:18 24.09.2019
1413 Clouds 25 1017 78 10000 5.1 80 06:37 24.09.2019
1414 Clouds 26 1017 78 10000 5.1 80 05:53 24.09.2019
1415 Clouds 26 1017 78 10000 5.1 80 05:21 24.09.2019
1416 Clouds 27 1018 61 10000 5.1 80 03:46 24.09.2019
1417 Clouds 27 1018 61 10000 5.1 80 03:20 24.09.2019
1418 Clouds 23 1018 59 0 3.13 80.228 02:43 24.09.2019
1419 Clouds 26 1019 61 10000 5.1 90 01:40 24.09.2019
1420 Clouds 27 1020 54 10000 5.7 90 00:40 24.09.2019
1421 Clouds 27 1020 54 10000 5.7 90 00:21 24.09.2019
1422 Clouds 25 1020 61 10000 6.2 90 23:41 23.09.2019
1423 Clouds 25 1020 61 10000 6.2 90 23:22 23.09.2019
1424 Clouds 23 1020 88 10000 5.1 90 22:40 23.09.2019
1425 Clouds 23 1020 88 10000 5.1 90 22:21 23.09.2019
1426 Clouds 20 1020 88 10000 2.95 74.428 21:59 23.09.2019
1427 Clouds 20 1020 88 10000 2.95 74.428 21:41 23.09.2019
1428 Clouds 20 1020 88 10000 1.58 72.117 21:20 23.09.2019
1429 Clouds 20 1020 88 10000 1.58 72.117 21:20 23.09.2019
1430 Clouds 20 1020 88 10000 1.58 72.117 21:20 23.09.2019
1431 Clouds 19 1020 82 10000 1.5 280 20:56 23.09.2019
1432 Clouds 19 1020 82 10000 1.5 280 20:37 23.09.2019
1433 Clouds 19 1020 82 10000 1.5 280 20:18 23.09.2019
1434 Clouds 18 1019 88 10000 1 0 19:40 23.09.2019
1435 Clouds 18 1019 88 10000 1 0 19:21 23.09.2019
1436 Clouds 18 1019 82 10000 1.83 70.624 18:58 23.09.2019
1437 Clouds 18 1019 82 10000 1.83 70.624 18:39 23.09.2019
1438 Clouds 20 1019 72 10000 1 0 18:18 23.09.2019
1439 Clouds 20 1019 72 10000 1 0 17:56 23.09.2019
1440 Clouds 20 1019 72 10000 1 0 17:37 23.09.2019
1441 Clouds 20 1019 72 10000 1 0 17:19 23.09.2019
1442 Clouds 21 1019 64 10000 2.1 100 16:41 23.09.2019
1443 Clouds 21 1019 64 10000 2.1 100 16:22 23.09.2019
1444 Clouds 22 1020 64 10000 4.6 100 15:59 23.09.2019
1445 Clouds 22 1020 64 10000 4.6 100 15:41 23.09.2019
1446 Clouds 22 1020 64 10000 4.6 100 15:20 23.09.2019
1447 Clouds 22 1020 64 10000 4.6 100 15:20 23.09.2019
1448 Clouds 22 1021 64 10000 3.1 110 14:59 23.09.2019
1449 Clouds 22 1021 64 10000 3.1 110 14:39 23.09.2019
1450 Clouds 22 1021 64 10000 3.1 110 14:19 23.09.2019
1451 Clouds 22 1021 68 10000 3.1 130 13:58 23.09.2019
1452 Clouds 22 1021 68 10000 3.1 130 13:37 23.09.2019
1453 Clouds 23 1021 60 10000 4.6 110 13:18 23.09.2019
1454 Clouds 23 1021 60 10000 4.6 110 12:41 23.09.2019
1455 Clouds 23 1021 60 10000 4.6 110 12:22 23.09.2019
1456 Clouds 22 1021 68 10000 3.6 130 11:55 23.09.2019
1457 Clouds 22 1021 68 10000 3.6 130 11:37 23.09.2019
1458 Clouds 22 1021 68 10000 3.6 130 11:19 23.09.2019
1459 Clouds 22 1021 68 10000 3.6 130 10:48 23.09.2019
1460 Clouds 22 1021 68 10000 3.6 130 10:20 23.09.2019
1461 Clouds 22 1020 68 10000 3.6 120 09:49 23.09.2019
1462 Clouds 22 1020 68 10000 3.6 120 09:29 23.09.2019
1463 Clouds 23 1019 64 10000 3.6 130 08:58 23.09.2019
1464 Clouds 23 1019 64 10000 3.6 130 08:39 23.09.2019
1465 Clouds 23 1019 64 10000 3.6 130 08:19 23.09.2019
1466 Clouds 23 1019 60 10000 4.6 130 07:34 23.09.2019
1467 Rain 16 1019 91 0 2.93 106.791 06:58 23.09.2019
1468 Clouds 25 1018 47 10000 4.6 140 06:20 23.09.2019
1469 Clouds 25 1018 47 10000 4.6 140 05:28 23.09.2019
1470 Clouds 24 1019 50 10000 5.7 130 04:56 23.09.2019
1471 Clouds 25 1020 57 10000 5.1 130 03:59 23.09.2019
1472 Clouds 25 1021 61 10000 5.7 120 01:25 23.09.2019
1473 Clouds 25 1021 53 10000 4.6 140 00:26 23.09.2019
1474 Clouds 24 1022 57 10000 6.7 120 23:58 22.09.2019
1475 Clouds 24 1022 57 10000 6.7 120 23:40 22.09.2019
1476 Clouds 24 1022 57 10000 6.7 120 23:21 22.09.2019
1477 Clouds 23 1022 56 10000 4.6 130 22:54 22.09.2019
1478 Clouds 23 1022 56 10000 4.6 130 22:36 22.09.2019
1479 Clouds 23 1022 56 10000 4.6 130 22:18 22.09.2019
1480 Clouds 22 1021 49 10000 3.6 120 21:42 22.09.2019
1481 Clouds 22 1021 49 10000 3.6 120 21:20 22.09.2019
1482 Clouds 22 1021 53 10000 3.6 130 20:45 22.09.2019
1483 Clouds 22 1021 53 10000 3.6 130 20:27 22.09.2019
1484 Clouds 21 1020 60 10000 3.6 140 19:57 22.09.2019
1485 Clouds 21 1020 60 10000 3.6 140 19:39 22.09.2019
1486 Clouds 21 1020 60 10000 3.6 140 19:39 22.09.2019
1487 Clouds 21 1020 60 10000 3.6 140 19:20 22.09.2019
1488 Clouds 21 1020 60 10000 3.6 140 18:57 22.09.2019
1489 Clouds 21 1020 68 10000 3.6 130 18:37 22.09.2019
1490 Clouds 21 1020 73 10000 3.1 140 18:18 22.09.2019
1491 Clouds 21 1020 73 10000 3.1 140 17:42 22.09.2019
1492 Clouds 21 1020 73 10000 3.1 140 17:24 22.09.2019
1493 Clouds 20 1020 88 10000 3.1 110 16:56 22.09.2019
1494 Clouds 20 1020 88 10000 3.1 110 16:37 22.09.2019
1495 Clouds 20 1020 88 10000 3.1 110 16:18 22.09.2019
1496 Clouds 22 1020 68 10000 2.6 140 15:43 22.09.2019
1497 Clouds 22 1020 68 10000 2.6 140 15:25 22.09.2019
1498 Clouds 22 1021 64 10000 3.1 130 14:55 22.09.2019
1499 Clouds 22 1021 64 10000 3.1 130 14:36 22.09.2019
1500 Clouds 22 1021 64 10000 3.1 130 14:18 22.09.2019
1501 Clouds 22 1021 68 10000 3.6 130 13:41 22.09.2019
1502 Clouds 22 1021 68 10000 3.6 130 13:23 22.09.2019
1503 Clouds 22 1021 64 10000 3.6 120 12:56 22.09.2019
1504 Clouds 22 1021 64 10000 3.6 120 12:38 22.09.2019
1505 Clouds 21 1021 68 10000 3.1 140 12:18 22.09.2019
1506 Clouds 21 1021 68 10000 3.1 140 11:43 22.09.2019
1507 -273 0 0 0 0 0 11:24 22.09.2019
1508 Clouds 21 1021 68 10000 3.1 140 10:56 22.09.2019
1509 Clouds 21 1021 68 10000 3.1 140 10:37 22.09.2019
1510 Clouds 21 1021 68 10000 3.1 140 10:19 22.09.2019
1511 Clouds 21 1020 77 10000 3.1 120 09:42 22.09.2019
1512 Clouds 21 1020 77 10000 3.1 120 09:21 22.09.2019
1513 Clouds 21 1020 77 10000 3.1 120 09:21 22.09.2019
1514 Rain 21 1020 77 10000 6.2 130 08:49 22.09.2019
1515 Rain 21 1020 77 10000 6.2 130 08:30 22.09.2019
1516 Clouds 23 1018 64 10000 5.1 130 07:59 22.09.2019
1517 Clouds 23 1018 64 10000 5.1 130 07:40 22.09.2019
1518 Clouds 23 1018 64 10000 5.7 130 07:21 22.09.2019
1519 Clouds 23 1018 64 10000 5.7 130 06:56 22.09.2019
1520 Clouds 23 1018 69 10000 4.6 130 05:45 22.09.2019
1521 Rain 19 1017 80 0 3.92 119.908 03:53 22.09.2019
1522 Clouds 25 1019 53 10000 6.2 130 02:43 22.09.2019
1523 Clouds 25 1019 53 10000 6.2 130 02:23 22.09.2019
1524 Clouds 25 1020 57 10000 6.7 120 01:34 22.09.2019
1525 Clouds 24 1020 60 10000 6.2 130 00:40 22.09.2019
1526 Clouds 24 1020 60 10000 6.2 130 00:21 22.09.2019
1527 Clouds 24 1020 60 10000 4.6 120 23:41 21.09.2019
1528 Clouds 24 1020 60 10000 4.6 120 23:22 21.09.2019
1529 Clouds 24 1020 64 10000 5.1 130 22:40 21.09.2019
1530 Clouds 24 1020 64 10000 5.1 130 22:21 21.09.2019
1531 Clouds 23 1019 69 10000 5.1 130 21:57 21.09.2019
1532 Clouds 23 1019 69 10000 5.1 130 21:38 21.09.2019
1533 Clouds 23 1019 69 10000 5.1 130 21:18 21.09.2019
1534 Clouds 23 1018 64 10000 5.1 130 20:40 21.09.2019
1535 Clouds 23 1018 64 10000 5.1 130 20:22 21.09.2019
1536 Clouds 22 1017 73 10000 4.6 130 19:55 21.09.2019
1537 Clouds 22 1017 73 10000 4.6 130 19:36 21.09.2019
1538 Clouds 20 1017 88 10000 5.7 120 19:18 21.09.2019
1539 Clouds 20 1017 88 10000 5.7 120 18:38 21.09.2019
1540 Clouds 20 1017 88 10000 5.7 120 18:20 21.09.2019
1541 Clouds 21 1016 83 10000 2.6 110 17:42 21.09.2019
1542 Clouds 21 1016 83 10000 2.6 110 17:42 21.09.2019
1543 Clouds 21 1016 83 10000 2.6 110 17:23 21.09.2019
1544 Clouds 22 1017 78 10000 3.6 140 16:45 21.09.2019
1545 Clouds 22 1017 78 10000 3.6 140 16:25 21.09.2019
1546 Clouds 22 1017 78 10000 3.6 140 16:25 21.09.2019
1547 Clouds 22 1017 78 10000 3.6 140 15:59 21.09.2019
1548 Clouds 22 1017 78 10000 3.6 140 15:40 21.09.2019
1549 Clouds 22 1017 78 10000 3.6 140 15:20 21.09.2019
1550 Clouds 22 1018 83 10000 4.1 130 14:44 21.09.2019
1551 Clouds 22 1018 83 10000 4.1 130 14:44 21.09.2019
1552 Clouds 22 1018 83 10000 4.1 130 14:26 21.09.2019
1553 Clouds 21 1018 88 10000 2.6 140 13:43 21.09.2019
1554 Clouds 21 1018 88 10000 2.6 140 13:25 21.09.2019
1555 Clouds 21 1018 88 10000 2.6 140 13:25 21.09.2019
1556 Clouds 22 1018 83 10000 4.1 140 12:58 21.09.2019
1557 Clouds 22 1018 83 10000 4.1 140 12:39 21.09.2019
1558 Clouds 22 1018 83 10000 4.1 140 12:39 21.09.2019
1559 Clouds 22 1018 78 10000 3.1 140 12:20 21.09.2019
1560 Clouds 22 1018 78 10000 3.1 140 11:51 21.09.2019
1561 Clouds 22 1018 78 10000 3.1 140 11:26 21.09.2019
1562 Clouds 22 1017 73 10000 1.5 150 10:57 21.09.2019
1563 Clouds 22 1017 73 10000 1.5 150 10:38 21.09.2019
1564 Clouds 22 1017 73 10000 1.5 150 10:20 21.09.2019
1565 Clouds 22 1017 78 10000 1.5 140 09:55 21.09.2019
1566 Clouds 22 1017 78 10000 1.5 140 09:37 21.09.2019
1567 Clouds 22 1017 78 10000 1.5 140 09:18 21.09.2019
1568 Rain 17 1015 94 0 1.63 114.493 08:43 21.09.2019
1569 Rain 17 1015 94 0 1.63 114.493 08:43 21.09.2019
1570 Clouds 24 1015 69 10000 3.1 140 07:58 21.09.2019
1571 Clouds 24 1015 69 10000 3.1 140 07:39 21.09.2019
1572 Clouds 24 1015 69 10000 3.6 140 07:19 21.09.2019
1573 Clouds 24 1015 69 10000 3.6 140 06:35 21.09.2019
1574 Clouds 25 1015 61 10000 4.1 170 05:51 21.09.2019
1575 Clouds 25 1016 65 10000 3.6 160 04:39 21.09.2019
1576 Clouds 26 1016 61 10000 4.1 160 03:31 21.09.2019
1577 Clouds 25 1017 65 10000 3.6 160 02:25 21.09.2019
1578 Clouds 25 1017 65 10000 2.6 170 01:48 21.09.2019
1579 Clouds 25 1017 65 10000 2.6 170 01:23 21.09.2019
1580 Clouds 25 1018 65 10000 4.1 160 00:23 21.09.2019
1581 Clouds 25 1018 65 10000 2.6 170 23:48 20.09.2019
1582 Clouds 25 1018 65 10000 2.6 170 23:48 20.09.2019
1583 Clouds 25 1018 65 10000 2.6 170 23:30 20.09.2019
1584 Clouds 23 1018 78 10000 1.92 123.756 22:46 20.09.2019
1585 Clouds 23 1018 78 10000 1.92 123.756 22:26 20.09.2019
1586 Clouds 22 1017 78 10000 2.1 120 21:57 20.09.2019
1587 Clouds 22 1017 78 10000 2.1 120 21:39 20.09.2019
1588 Clouds 22 1017 78 10000 2.1 120 21:21 20.09.2019
1589 Clouds 22 1017 78 10000 2.1 120 21:21 20.09.2019
1590 Clouds 22 1017 78 10000 0.85 98.705 20:59 20.09.2019
1591 Clouds 22 1017 78 10000 0.85 98.705 20:59 20.09.2019
1592 Clouds 22 1017 78 10000 0.88 103.736 20:41 20.09.2019
1593 Clouds 22 1017 78 10000 0.88 103.736 20:20 20.09.2019
1594 Clouds 22 1016 78 10000 1.5 140 19:55 20.09.2019
1595 Clouds 22 1016 78 10000 1.5 140 19:36 20.09.2019
1596 Clouds 22 1016 78 10000 1.5 140 19:18 20.09.2019
1597 Rain 16 1016 98 0 0.88 103.736 18:38 20.09.2019
1598 Rain 21 1016 88 10000 0.83 118.428 18:20 20.09.2019
1599 Rain 21 1016 88 10000 0.83 118.428 17:47 20.09.2019
1600 Rain 21 1016 88 10000 0.83 118.428 17:27 20.09.2019
1601 Rain 16 1015 98 0 0.83 118.428 16:57 20.09.2019
1602 Rain 16 1015 98 0 0.83 118.428 16:37 20.09.2019
1603 Rain 16 1015 98 0 0.83 118.428 16:18 20.09.2019
1604 Rain 16 1015 98 0 0.83 118.428 15:41 20.09.2019
1605 Rain 22 1017 83 10000 1.5 130 15:22 20.09.2019
1606 Rain 22 1017 83 10000 1.5 130 14:44 20.09.2019
1607 Rain 22 1017 83 10000 1.5 130 14:20 20.09.2019
1608 Rain 22 1017 83 10000 1.5 130 14:20 20.09.2019
1609 Rain 17 1016 98 0 0.99 84.255 13:59 20.09.2019
1610 Rain 17 1016 98 0 0.99 84.255 13:40 20.09.2019
1611 Rain 22 1017 94 10000 1.5 310 13:21 20.09.2019
1612 Rain 22 1017 94 10000 1.5 310 12:40 20.09.2019
1613 Clouds 23 1017 78 10000 2.6 130 12:22 20.09.2019
1614 Clouds 23 1017 78 10000 2.6 130 11:51 20.09.2019
1615 Clouds 23 1017 78 10000 2.6 130 11:25 20.09.2019
1616 Rain 22 1017 88 10000 3.6 130 10:58 20.09.2019
1617 Rain 22 1017 88 10000 3.6 130 10:58 20.09.2019
1618 Rain 22 1017 88 10000 3.6 130 10:40 20.09.2019
1619 Rain 22 1017 88 10000 3.6 130 10:21 20.09.2019
1620 Rain 23 1016 78 10000 2.6 140 09:38 20.09.2019
1621 Rain 23 1016 78 10000 2.6 140 09:19 20.09.2019
1622 Rain 23 1016 78 10000 2.6 140 09:19 20.09.2019
1623 Rain 23 1016 78 10000 4.6 120 08:47 20.09.2019
1624 Rain 23 1016 78 10000 4.6 120 08:27 20.09.2019
1625 Rain 18 1014 98 0 1.33 104.496 07:51 20.09.2019
1626 Clouds 25 1015 69 10000 3.6 150 07:29 20.09.2019
1627 Clouds 25 1015 69 10000 3.6 150 06:50 20.09.2019
1628 Clouds 25 1015 69 10000 3.6 150 06:32 20.09.2019
1629 Clouds 26 1015 65 10000 5.1 140 05:59 20.09.2019
1630 Clouds 25 1015 69 10000 6.7 130 04:29 20.09.2019
1631 Clouds 26 1016 65 10000 5.7 130 03:26 20.09.2019
1632 Clouds 25 1017 73 10000 5.1 130 01:50 20.09.2019
1633 Clouds 25 1017 73 10000 5.1 130 01:31 20.09.2019
1634 Clouds 25 1017 73 10000 5.7 130 00:32 20.09.2019
1635 Clouds 24 1017 83 10000 4.6 130 23:46 19.09.2019
1636 Clouds 24 1017 83 10000 4.6 130 23:46 19.09.2019
1637 Clouds 24 1017 83 10000 4.6 130 23:24 19.09.2019
1638 Rain 23 1017 88 10000 3.6 150 22:57 19.09.2019
1639 Rain 23 1017 88 10000 3.6 150 22:38 19.09.2019
1640 Rain 23 1017 88 10000 3.6 150 22:20 19.09.2019
1641 Clouds 23 1017 88 10000 2.1 150 21:56 19.09.2019
1642 Clouds 23 1017 88 10000 2.1 150 21:38 19.09.2019
1643 Clouds 23 1017 88 10000 2.1 150 21:18 19.09.2019
1644 Rain 18 1015 99 0 1.1 96.588 20:43 19.09.2019
1645 Clouds 22 1016 88 10000 1.04 90.386 20:23 19.09.2019
1646 Clouds 22 1016 88 10000 1.04 90.386 19:56 19.09.2019
1647 Clouds 22 1016 88 10000 1.04 90.386 19:38 19.09.2019
1648 Rain 17 1015 99 0 1.04 90.386 19:19 19.09.2019
1649 Rain 17 1015 99 0 1.04 90.386 18:55 19.09.2019
1650 Rain 17 1015 99 0 1.04 90.386 18:36 19.09.2019
1651 Clouds 23 1016 83 10000 2.6 100 18:18 19.09.2019
1652 Clouds 23 1016 83 10000 2.6 100 17:42 19.09.2019
1653 Clouds 23 1016 83 10000 2.6 100 17:23 19.09.2019
1654 Clouds 23 1016 88 10000 3.1 110 16:57 19.09.2019
1655 Clouds 23 1016 88 10000 3.1 110 16:39 19.09.2019
1656 Clouds 23 1016 88 10000 3.1 110 16:18 19.09.2019
1657 Clouds 23 1016 88 10000 3.1 100 15:39 19.09.2019
1658 Clouds 23 1016 88 10000 3.1 100 15:19 19.09.2019
1659 Rain 18 1016 98 0 1.25 73.865 14:42 19.09.2019
1660 Rain 18 1016 98 0 1.25 73.865 14:24 19.09.2019
1661 Rain 18 1016 98 0 1.25 73.865 13:59 19.09.2019
1662 Rain 18 1016 98 0 1.25 73.865 13:59 19.09.2019
1663 Rain 18 1016 98 0 1.25 73.865 13:39 19.09.2019
1664 Rain 22 1017 94 10000 2.6 130 13:19 19.09.2019
1665 Rain 22 1017 94 10000 2.6 130 12:40 19.09.2019
1666 Rain 22 1017 94 10000 2.6 130 12:20 19.09.2019
1667 Clouds 23 1017 88 10000 2.6 80 11:57 19.09.2019
1668 Clouds 23 1017 88 10000 2.6 80 11:38 19.09.2019
1669 Clouds 23 1017 88 10000 2.6 80 11:19 19.09.2019
1670 Clouds 23 1017 83 10000 2.1 130 10:41 19.09.2019
1671 Clouds 23 1017 83 10000 2.1 130 10:22 19.09.2019
1672 Clouds 23 1016 83 10000 2.1 130 09:59 19.09.2019
1673 Clouds 23 1016 83 10000 2.1 130 09:41 19.09.2019
1674 Clouds 23 1016 83 10000 2.1 130 09:21 19.09.2019
1675 Clouds 24 1016 78 10000 3.1 120 08:55 19.09.2019
1676 Clouds 24 1016 78 10000 3.1 120 08:28 19.09.2019
1677 Clouds 25 1015 73 10000 4.1 120 07:56 19.09.2019
1678 Clouds 25 1015 73 10000 4.1 120 07:38 19.09.2019
1679 Clouds 26 1015 69 10000 4.1 120 07:19 19.09.2019
1680 Clouds 26 1015 69 10000 4.1 120 06:43 19.09.2019
1681 Clouds 26 1015 69 10000 4.1 120 06:43 19.09.2019
1682 Clouds 26 1015 69 10000 4.1 120 06:25 19.09.2019
1683 Clouds 26 1015 69 10000 4.1 130 05:50 19.09.2019
1684 Clouds 26 1016 69 10000 4.6 120 04:27 19.09.2019
1685 Clouds 27 1016 61 10000 5.1 120 03:21 19.09.2019
1686 Clouds 26 1017 69 10000 5.1 110 01:50 19.09.2019
1687 Clouds 26 1017 69 10000 5.1 110 01:21 19.09.2019
1688 Clouds 27 1018 61 10000 4.1 150 00:47 19.09.2019
1689 Clouds 27 1018 61 10000 4.1 150 00:24 19.09.2019
1690 Clouds 26 1018 69 10000 4.6 110 23:39 18.09.2019
1691 Clouds 26 1018 69 10000 4.6 110 23:20 18.09.2019
1692 Clouds 26 1018 69 10000 4.6 110 23:20 18.09.2019
1693 Clouds 25 1018 78 10000 2.6 130 22:43 18.09.2019
1694 Clouds 25 1018 78 10000 2.6 130 22:20 18.09.2019
1695 Clouds 23 1017 78 10000 1.74 97.879 21:58 18.09.2019
1696 Clouds 23 1017 78 10000 1.74 97.879 21:58 18.09.2019
1697 Clouds 23 1017 78 10000 1.74 97.879 21:40 18.09.2019
1698 Clouds 23 1017 78 10000 1.74 97.879 21:40 18.09.2019
1699 Clouds 23 1017 78 10000 1.74 97.879 21:40 18.09.2019
1700 Clouds 23 1017 78 10000 1.15 71.581 21:19 18.09.2019
1701 Clouds 23 1017 78 10000 2.1 130 20:58 18.09.2019
1702 Clouds 23 1017 78 10000 2.1 130 20:40 18.09.2019
1703 Clouds 23 1016 78 10000 2.1 130 20:22 18.09.2019
1704 Clouds 23 1016 78 10000 2.1 130 19:57 18.09.2019
1705 Clouds 23 1016 78 10000 2.1 130 19:38 18.09.2019
1706 Clouds 23 1016 78 10000 2.1 130 19:19 18.09.2019
1707 Clouds 23 1016 78 10000 2.1 130 18:55 18.09.2019
1708 Clouds 23 1016 78 10000 2.1 130 18:37 18.09.2019
1709 Clouds 23 1016 78 10000 2.1 130 18:18 18.09.2019
1710 Clouds 23 1016 83 10000 1 0 17:57 18.09.2019
1711 Clouds 23 1016 83 10000 1 0 17:57 18.09.2019
1712 Clouds 23 1016 83 10000 1 0 17:38 18.09.2019
1713 Clouds 23 1016 83 10000 1 0 17:38 18.09.2019
1714 Clouds 23 1016 83 10000 1 0 17:18 18.09.2019
1715 Clouds 22 1016 88 10000 1.5 110 16:43 18.09.2019
1716 Clouds 22 1016 88 10000 1.5 110 16:23 18.09.2019
1717 Clouds 22 1016 88 10000 1.5 110 16:23 18.09.2019
1718 Clouds 22 1017 88 10000 1 320 15:59 18.09.2019
1719 Clouds 22 1017 88 10000 1 320 15:41 18.09.2019
1720 Clouds 22 1017 88 10000 1 320 15:21 18.09.2019
1721 Clouds 22 1018 88 10000 2.1 340 14:59 18.09.2019
1722 Clouds 22 1018 88 10000 2.1 340 14:40 18.09.2019
1723 Clouds 22 1018 88 10000 2.1 340 14:22 18.09.2019
1724 Clouds 23 1018 78 10000 1 250 13:59 18.09.2019
1725 Clouds 23 1018 78 10000 1 250 13:40 18.09.2019
1726 Clouds 23 1018 78 10000 1 250 13:18 18.09.2019
1727 Clouds 17 1017 99 0 1.07 62.981 12:47 18.09.2019
1728 Clouds 24 1018 73 10000 2.1 90 12:29 18.09.2019
1729 Clouds 24 1018 73 10000 2.1 90 11:55 18.09.2019
1730 Clouds 24 1018 73 10000 2.1 90 11:37 18.09.2019
1731 Clouds 24 1018 73 10000 2.1 90 11:37 18.09.2019
1732 Clouds 24 1018 73 10000 2.1 90 11:18 18.09.2019
1733 Clouds 24 1018 78 10000 1.5 140 10:40 18.09.2019
1734 Clouds 24 1018 78 10000 1.5 140 10:21 18.09.2019
1735 Clouds 24 1017 78 10000 2.1 130 09:58 18.09.2019
1736 Clouds 24 1017 78 10000 2.1 130 09:38 18.09.2019
1737 Clouds 24 1017 78 10000 2.1 130 09:19 18.09.2019
1738 Rain 19 1015 96 0 1.41 89.878 08:42 18.09.2019
1739 Clouds 25 1016 69 10000 4.1 110 08:23 18.09.2019
1740 Clouds 25 1016 69 10000 4.1 110 07:53 18.09.2019
1741 Clouds 25 1016 69 10000 4.1 110 07:35 18.09.2019
1742 Clouds 25 1016 69 10000 4.6 120 06:59 18.09.2019
1743 Clouds 25 1016 69 10000 4.6 120 06:38 18.09.2019
1744 Clouds 25 1016 69 10000 6.2 100 05:46 18.09.2019
1745 Clouds 25 1016 69 10000 3.6 130 04:43 18.09.2019
1746 Clouds 23 1018 83 10000 3.6 130 02:41 18.09.2019
1747 Rain 23 1018 88 10000 3.6 140 02:18 18.09.2019
1748 Clouds 24 1019 83 10000 3.1 130 01:20 18.09.2019
1749 Clouds 24 1019 83 10000 3.1 130 00:47 18.09.2019
1750 Clouds 24 1019 83 10000 3.1 130 00:19 18.09.2019
1751 Rain 20 1019 86 0 2.12 82.831 23:44 17.09.2019
1752 Clouds 23 1019 88 10000 2.6 120 23:22 17.09.2019
1753 Clouds 23 1019 88 10000 2.6 120 22:42 17.09.2019
1754 Clouds 23 1019 88 10000 2.6 120 22:24 17.09.2019
1755 Clouds 22 1018 88 10000 2.6 130 21:55 17.09.2019
1756 Clouds 22 1018 88 10000 2.6 130 21:37 17.09.2019
1757 Clouds 22 1018 88 10000 2.6 130 21:18 17.09.2019
1758 Rain 18 1017 98 0 1.54 92.719 20:57 17.09.2019
1759 Rain 18 1017 98 0 1.54 92.719 20:39 17.09.2019
1760 Rain 21 1017 100 10000 2.6 140 20:21 17.09.2019
1761 Rain 21 1017 100 10000 2.6 140 19:58 17.09.2019
1762 Rain 21 1017 100 10000 2.6 140 19:39 17.09.2019
1763 Rain 21 1017 94 10000 2.6 130 19:19 17.09.2019
1764 Rain 21 1017 94 10000 2.6 130 18:56 17.09.2019
1765 Rain 21 1017 94 10000 2.6 130 18:37 17.09.2019
1766 Rain 21 1017 100 10000 2.6 140 18:19 17.09.2019
1767 Rain 21 1017 100 10000 2.6 140 17:44 17.09.2019
1768 Rain 21 1017 100 10000 2.6 140 17:19 17.09.2019
1769 Rain 21 1017 100 10000 2.6 140 17:19 17.09.2019
1770 Clouds 22 1018 88 10000 3.6 120 16:56 17.09.2019
1771 Clouds 22 1018 88 10000 3.6 120 16:37 17.09.2019
1772 Clouds 22 1018 88 10000 3.6 120 16:19 17.09.2019
1773 Clouds 23 1018 83 10000 2.6 140 15:39 17.09.2019
1774 Clouds 23 1018 83 10000 2.6 140 15:20 17.09.2019
1775 Clouds 17 1018 97 0 1.38 84.182 14:56 17.09.2019
1776 Clouds 17 1018 97 0 1.38 84.182 14:37 17.09.2019
1777 Clouds 23 1019 88 10000 2.6 80 14:19 17.09.2019
1778 Clouds 23 1019 88 10000 2.6 80 13:43 17.09.2019
1779 Clouds 23 1019 88 10000 2.6 80 13:25 17.09.2019
1780 Clouds 22 1019 88 10000 1 0 12:59 17.09.2019
1781 Clouds 22 1019 88 10000 1 0 12:38 17.09.2019
1782 Clouds 23 1020 78 10000 2.1 90 12:19 17.09.2019
1783 Clouds 23 1020 78 10000 2.1 90 12:19 17.09.2019
1784 Clouds 23 1020 78 10000 2.1 90 11:44 17.09.2019
1785 Clouds 23 1020 78 10000 2.1 90 11:25 17.09.2019
1786 Clouds 24 1020 69 10000 3.1 110 10:56 17.09.2019
1787 Clouds 24 1020 69 10000 3.1 110 10:38 17.09.2019
1788 Clouds 24 1020 69 10000 3.1 110 10:20 17.09.2019
1789 Clouds 24 1019 69 10000 2.6 140 09:42 17.09.2019
1790 Clouds 24 1019 69 10000 2.6 140 09:23 17.09.2019
1791 Clouds 24 1018 69 10000 2.6 140 08:51 17.09.2019
1792 Clouds 24 1018 69 10000 2.6 140 08:33 17.09.2019
1793 Clouds 24 1018 69 10000 2.6 130 07:59 17.09.2019
1794 Clouds 24 1018 69 10000 2.6 130 07:41 17.09.2019
1795 Clouds 24 1018 69 10000 2.6 130 07:23 17.09.2019
1796 Clouds 25 1017 83 10000 3.6 140 06:47 17.09.2019
1797 Clouds 25 1017 83 10000 3.6 140 06:23 17.09.2019
1798 Clouds 25 1017 83 10000 3.6 140 05:49 17.09.2019
1799 Clouds 25 1018 61 10000 4.1 160 04:31 17.09.2019
1800 Clouds 21 1018 75 0 2.38 109.332 02:58 17.09.2019
1801 Clouds 21 1018 75 0 2.38 109.332 02:39 17.09.2019
1802 Clouds 25 1019 65 10000 5.1 150 01:26 17.09.2019
1803 Clouds 25 1019 65 10000 4.1 160 00:40 17.09.2019
1804 Clouds 24 1019 69 10000 3.1 150 23:40 16.09.2019
1805 Clouds 24 1019 69 10000 3.1 150 23:19 16.09.2019
1806 Clouds 24 1019 64 10000 3.6 150 22:56 16.09.2019
1807 Clouds 24 1019 64 10000 3.6 150 22:37 16.09.2019
1808 Clouds 24 1019 64 10000 3.6 150 22:19 16.09.2019
1809 Clouds 23 1019 69 10000 3.6 160 21:41 16.09.2019
1810 Clouds 23 1019 69 10000 3.6 160 21:22 16.09.2019
1811 Clouds 16 1017 98 0 1.39 104.287 20:59 16.09.2019
1812 Clouds 16 1017 98 0 1.33 101.909 20:40 16.09.2019
1813 Clouds 16 1017 98 0 1.33 101.909 20:40 16.09.2019
1814 Clouds 23 1017 73 10000 3.1 150 20:20 16.09.2019
1815 Clouds 23 1017 73 10000 3.1 150 19:57 16.09.2019
1816 Clouds 23 1017 73 10000 3.1 150 19:38 16.09.2019
1817 Clouds 23 1017 78 10000 3.1 150 19:19 16.09.2019
1818 Clouds 23 1017 78 10000 3.1 150 18:46 16.09.2019
1819 Clouds 23 1017 78 10000 3.1 150 18:27 16.09.2019
1820 Clouds 23 1017 73 10000 3.1 150 17:57 16.09.2019
1821 Clouds 23 1017 73 10000 3.1 150 17:57 16.09.2019
1822 Clouds 23 1017 73 10000 3.1 150 17:38 16.09.2019
1823 Clouds 23 1017 73 10000 3.1 150 17:19 16.09.2019
1824 Clouds 23 1017 73 10000 3.1 150 16:44 16.09.2019
1825 Clouds 23 1017 73 10000 3.1 150 16:22 16.09.2019
1826 Clouds 16 1016 97 0 1.23 99.317 15:58 16.09.2019
1827 Clouds 16 1016 97 0 1.23 99.317 15:58 16.09.2019
1828 Clouds 16 1016 97 0 1.23 99.317 15:39 16.09.2019
1829 Clouds 17 1017 98 0 1.58 116.695 15:21 16.09.2019
1830 Clouds 17 1017 98 0 1.58 116.695 14:58 16.09.2019
1831 Clouds 17 1017 98 0 1.58 116.695 14:40 16.09.2019
1832 Clouds 24 1019 73 10000 3.6 160 14:21 16.09.2019
1833 Clouds 24 1019 73 10000 3.6 160 13:43 16.09.2019
1834 Clouds 24 1019 73 10000 3.6 160 13:22 16.09.2019
1835 Clouds 24 1019 73 10000 4.1 160 12:59 16.09.2019
1836 Clouds 24 1019 73 10000 4.1 160 12:39 16.09.2019
1837 Clouds 24 1019 78 10000 3.1 160 12:21 16.09.2019
1838 Clouds 24 1019 78 10000 3.1 160 11:45 16.09.2019
1839 Clouds 24 1019 78 10000 3.1 160 11:23 16.09.2019
1840 Rain 23 1018 83 10000 3.1 170 10:56 16.09.2019
1841 Rain 23 1018 83 10000 3.1 170 10:37 16.09.2019
1842 Rain 23 1018 83 10000 3.1 170 10:18 16.09.2019
1843 Rain 24 1018 78 10000 4.1 170 09:42 16.09.2019
1844 Rain 24 1018 78 10000 4.1 170 09:21 16.09.2019
1845 Rain 19 1016 98 0 1.65 157.733 08:56 16.09.2019
1846 Clouds 24 1016 78 10000 4.6 170 08:38 16.09.2019
1847 Clouds 24 1016 78 10000 4.6 170 08:19 16.09.2019
1848 Clouds 24 1016 78 10000 4.6 170 07:42 16.09.2019
1849 Clouds 24 1016 78 10000 4.6 170 07:24 16.09.2019
1850 Rain 24 1016 83 10000 5.1 180 06:55 16.09.2019
1851 Rain 24 1016 83 10000 5.1 180 06:36 16.09.2019
1852 Rain 24 1016 83 10000 5.1 180 06:18 16.09.2019
1853 Clouds 25 1016 78 10000 4.6 170 05:41 16.09.2019
1854 Clouds 25 1016 78 10000 4.6 170 05:18 16.09.2019
1855 Clouds 26 1016 78 10000 5.7 170 03:36 16.09.2019
1856 Clouds 26 1017 83 10000 4.1 180 01:20 16.09.2019
1857 Clouds 26 1017 83 10000 4.1 180 00:38 16.09.2019
1858 Clouds 26 1017 83 10000 4.1 180 00:20 16.09.2019
1859 Rain 25 1017 88 10000 3.6 170 23:39 15.09.2019
1860 Rain 25 1017 88 10000 3.6 170 23:20 15.09.2019
1861 Rain 25 1016 94 10000 2.6 180 22:39 15.09.2019
1862 Rain 25 1016 94 10000 2.6 180 22:20 15.09.2019
1863 Rain 23 1016 100 10000 1.49 180.386 21:57 15.09.2019
1864 Rain 23 1016 100 10000 1.49 180.386 21:39 15.09.2019
1865 Rain 23 1016 100 10000 1.49 180.386 21:39 15.09.2019
1866 Rain 23 1016 100 10000 0.98 196.258 21:20 15.09.2019
1867 Rain 23 1015 100 8000 1.5 210 20:46 15.09.2019
1868 Rain 23 1015 100 8000 1.5 210 20:27 15.09.2019
1869 Rain 23 1014 100 10000 1.5 250 19:59 15.09.2019
1870 Rain 23 1014 100 10000 1.5 250 19:41 15.09.2019
1871 Rain 23 1014 100 10000 1.5 250 19:22 15.09.2019
1872 Clouds 23 1014 100 10000 1.08 198.217 18:42 15.09.2019
1873 Clouds 23 1014 100 10000 0.81 203.161 18:23 15.09.2019
1874 Clouds 23 1014 100 10000 0.81 203.161 17:56 15.09.2019
1875 Clouds 23 1014 100 10000 0.81 203.161 17:36 15.09.2019
1876 Clouds 23 1014 100 10000 0.81 203.161 17:18 15.09.2019
1877 Clouds 23 1014 100 10000 0.81 203.161 16:42 15.09.2019
1878 Clouds 23 1014 100 10000 0.81 203.161 16:22 15.09.2019
1879 Clouds 23 1014 100 10000 1.5 260 15:57 15.09.2019
1880 Clouds 23 1014 100 10000 1.5 260 15:38 15.09.2019
1881 Clouds 23 1014 100 10000 1.5 260 15:19 15.09.2019
1882 Clouds 23 1014 100 10000 1.5 260 15:19 15.09.2019
1883 Rain 23 1015 100 10000 2.1 240 14:55 15.09.2019
1884 Rain 23 1015 100 10000 2.1 240 14:55 15.09.2019
1885 Rain 23 1015 100 10000 2.1 240 14:55 15.09.2019
1886 Rain 23 1015 100 10000 2.1 240 14:37 15.09.2019
1887 Rain 23 1015 100 10000 2.1 240 14:19 15.09.2019
1888 Rain 24 1015 100 10000 2.1 270 13:43 15.09.2019
1889 Rain 24 1015 100 10000 2.1 270 13:22 15.09.2019
1890 Rain 24 1015 100 10000 2.1 270 13:22 15.09.2019
1891 Rain 24 1015 100 10000 0.77 210.181 12:43 15.09.2019
1892 Rain 24 1015 100 10000 0.77 210.181 12:25 15.09.2019
1893 Rain 24 1015 100 9000 0.4 254.808 11:58 15.09.2019
1894 Rain 24 1015 100 9000 0.4 254.808 11:58 15.09.2019
1895 Rain 24 1015 100 3000 2.6 200 11:40 15.09.2019
1896 Rain 24 1015 100 3000 2.6 200 11:21 15.09.2019
1897 Rain 24 1015 100 3000 1.5 240 10:46 15.09.2019
1898 Rain 24 1015 100 3000 1.5 240 10:23 15.09.2019
1899 Rain 24 1015 94 5000 3.6 220 09:58 15.09.2019
1900 Rain 24 1014 94 10000 2.1 200 09:37 15.09.2019
1901 Rain 24 1014 94 10000 2.1 200 09:19 15.09.2019
1902 Rain 22 1013 97 0 0.27 185.521 08:46 15.09.2019
1903 Rain 25 1013 94 10000 3.1 270 08:26 15.09.2019
1904 Rain 25 1013 94 10000 3.1 270 07:48 15.09.2019
1905 Rain 25 1013 94 10000 3.1 270 07:26 15.09.2019
1906 Clouds 26 1013 94 10000 3.1 220 06:42 15.09.2019
1907 Clouds 30 1013 66 10000 4.1 30 03:31 15.09.2019
1908 Clouds 30 1014 70 10000 5.1 50 02:33 15.09.2019
1909 Clouds 30 1014 70 10000 2.1 350 01:39 15.09.2019
1910 Clouds 30 1014 70 10000 2.1 350 01:39 15.09.2019
1911 Clouds 30 1015 70 10000 1.5 330 01:19 15.09.2019
1912 Clouds 30 1015 70 10000 1.5 330 00:41 15.09.2019
1913 Clouds 30 1015 70 10000 1.5 330 00:21 15.09.2019
1914 Clouds 28 1015 78 10000 1.05 18.4 23:57 14.09.2019
1915 Clouds 28 1015 78 10000 1.05 18.4 23:39 14.09.2019
1916 Clouds 28 1015 78 10000 1.05 18.4 23:21 14.09.2019
1917 Clouds 25 1015 94 10000 1.05 18.4 22:59 14.09.2019
1918 Clouds 25 1015 94 10000 1.05 18.4 22:40 14.09.2019
1919 Clouds 25 1015 94 10000 1.05 18.4 22:19 14.09.2019
1920 Rain 24 1015 94 10000 1 0 21:40 14.09.2019
1921 Rain 24 1015 94 10000 1 0 21:22 14.09.2019
1922 Rain 24 1014 100 10000 3.1 10 20:59 14.09.2019
1923 Rain 24 1014 100 10000 3.1 10 20:40 14.09.2019
1924 Rain 24 1014 100 10000 3.1 10 20:22 14.09.2019
1925 Clouds 25 1013 94 10000 1 0 19:52 14.09.2019
1926 Clouds 25 1013 94 10000 1 0 19:23 14.09.2019
1927 Rain 24 1013 100 10000 0.94 46.56 18:59 14.09.2019
1928 Rain 24 1013 100 10000 0.94 46.56 18:40 14.09.2019
1929 Clouds 24 1013 100 10000 1.5 110 18:21 14.09.2019
1930 Clouds 24 1013 100 10000 1.5 110 17:57 14.09.2019
1931 Clouds 24 1013 100 10000 1.5 110 17:39 14.09.2019
1932 Clouds 24 1013 100 10000 1.5 110 17:20 14.09.2019
1933 Clouds 25 1014 94 10000 1 100 16:43 14.09.2019
1934 Clouds 25 1014 94 10000 1 100 16:21 14.09.2019
1935 Clouds 25 1014 94 10000 1 100 15:42 14.09.2019
1936 Clouds 25 1014 94 10000 1 100 15:23 14.09.2019
1937 Clouds 25 1014 94 10000 1 100 15:23 14.09.2019
1938 Clouds 25 1015 94 10000 1.5 80 14:58 14.09.2019
1939 Clouds 25 1015 94 10000 1.5 80 14:39 14.09.2019
1940 Clouds 25 1015 94 10000 1.5 80 14:18 14.09.2019
1941 Rain 25 1015 94 10000 2.1 80 13:47 14.09.2019
1942 Rain 25 1015 94 10000 2.1 80 13:22 14.09.2019
1943 Clouds 25 1016 94 10000 1.13 61.252 12:46 14.09.2019
1944 Clouds 25 1016 94 10000 1.22 65.579 12:24 14.09.2019
1945 Clouds 25 1016 94 10000 1.22 65.579 11:42 14.09.2019
1946 Clouds 25 1016 94 10000 1.22 65.579 11:21 14.09.2019
1947 Rain 25 1015 94 10000 1.22 65.579 10:55 14.09.2019
1948 Rain 25 1015 94 10000 1.22 65.579 10:36 14.09.2019
1949 Rain 25 1015 94 10000 1.22 65.579 10:18 14.09.2019
1950 Rain 25 1015 94 10000 1.22 65.579 09:41 14.09.2019
1951 Rain 25 1015 94 10000 1.12 70.901 09:21 14.09.2019
1952 Rain 25 1014 94 8000 2.6 100 08:59 14.09.2019
1953 Rain 25 1014 94 8000 2.6 100 08:41 14.09.2019
1954 Rain 25 1014 94 8000 2.6 100 08:21 14.09.2019
1955 Rain 26 1014 88 10000 3.1 90 07:43 14.09.2019
1956 Rain 26 1014 88 10000 3.1 90 07:23 14.09.2019
1957 Rain 26 1013 88 10000 3.1 110 06:35 14.09.2019
1958 Clouds 27 1013 83 10000 3.1 90 05:55 14.09.2019
1959 Clouds 27 1014 74 10000 4.1 90 04:34 14.09.2019
1960 Clouds 27 1014 74 10000 3.6 90 03:25 14.09.2019
1961 Clouds 24 1015 72 0 2.23 58.525 02:48 14.09.2019
1962 Clouds 27 1015 69 10000 3.6 80 01:45 14.09.2019
1963 Clouds 27 1015 69 10000 3.6 80 01:19 14.09.2019
1964 Clouds 27 1016 78 10000 2.45 63.894 00:40 14.09.2019
1965 Clouds 27 1016 78 10000 2.28 63.446 00:22 14.09.2019
1966 Clouds 24 1017 88 10000 1.5 360 23:56 13.09.2019
1967 Clouds 24 1017 88 10000 1.5 360 23:37 13.09.2019
1968 Clouds 24 1017 88 10000 1.5 360 23:18 13.09.2019
1969 Clouds 22 1016 94 10000 1.5 320 22:41 13.09.2019
1970 Clouds 22 1016 94 10000 1.5 320 22:22 13.09.2019
1971 Clouds 20 1016 100 10000 1.5 310 21:59 13.09.2019
1972 Clouds 20 1016 100 10000 1.5 310 21:39 13.09.2019
1973 Clouds 20 1016 100 10000 1.5 310 21:19 13.09.2019
1974 Clouds 18 1015 99 0 1.87 54.797 20:57 13.09.2019
1975 Clouds 18 1015 99 0 1.87 54.797 20:57 13.09.2019
1976 Clouds 18 1015 99 0 1.87 54.797 20:57 13.09.2019
1977 Clouds 18 1015 99 0 1.68 56.943 20:37 13.09.2019
1978 Clouds 20 1015 94 10000 1.5 340 20:19 13.09.2019
1979 Clouds 20 1015 94 10000 1.5 340 19:44 13.09.2019
1980 Clouds 20 1015 94 10000 1.5 340 19:22 13.09.2019
1981 Clouds 20 1015 94 10000 1.5 320 18:59 13.09.2019
1982 Clouds 20 1015 94 10000 1.5 320 18:38 13.09.2019
1983 Clouds 20 1015 94 10000 1.5 320 18:38 13.09.2019
1984 Clouds 20 1015 94 10000 1.5 330 18:19 13.09.2019
1985 Clouds 20 1015 94 10000 1.5 330 17:44 13.09.2019
1986 Clouds 20 1015 94 10000 1.5 330 17:21 13.09.2019
1987 Clouds 20 1016 100 10000 1.5 340 16:59 13.09.2019
1988 Clouds 20 1016 100 10000 1.5 340 16:39 13.09.2019
1989 Clouds 20 1016 100 10000 1.5 340 16:19 13.09.2019
1990 Clouds 20 1016 100 10000 2.1 320 15:42 13.09.2019
1991 Clouds 20 1016 100 10000 2.1 320 15:23 13.09.2019
1992 Clouds 18 1015 99 0 1.78 65.511 14:55 13.09.2019
1993 Clouds 18 1015 99 0 1.78 65.511 14:37 13.09.2019
1994 Clouds 21 1017 100 10000 1.78 65.511 14:18 13.09.2019
1995 Clouds 21 1017 100 10000 1.78 65.511 13:41 13.09.2019
1996 Clouds 21 1017 100 10000 1.72 64.806 13:22 13.09.2019
1997 Clouds 22 1017 94 10000 1.72 64.806 12:45 13.09.2019
1998 Clouds 22 1017 94 10000 1.72 64.806 12:25 13.09.2019
1999 Clouds 22 1017 94 10000 1.72 64.806 12:25 13.09.2019
2000 Clouds 23 1017 83 10000 1.44 77.966 11:57 13.09.2019
2001 Clouds 23 1017 83 10000 1.44 77.966 11:20 13.09.2019
2002 Clouds 24 1017 78 10000 1.5 150 10:54 13.09.2019
2003 Clouds 24 1017 78 10000 1.5 150 10:36 13.09.2019
2004 Clouds 24 1017 78 10000 2.1 150 10:18 13.09.2019
2005 Clouds 24 1017 78 10000 2.1 150 09:42 13.09.2019
2006 Clouds 24 1017 78 10000 2.1 150 09:19 13.09.2019
2007 Rain 19 1014 96 0 1.43 90.16 08:42 13.09.2019
2008 Rain 19 1014 96 0 1.43 90.16 08:42 13.09.2019
2009 Clouds 25 1016 78 10000 3.6 160 08:21 13.09.2019
2010 Clouds 25 1016 78 10000 3.6 160 08:21 13.09.2019
2011 Clouds 25 1016 78 10000 3.6 160 08:21 13.09.2019
2012 Clouds 25 1016 78 10000 3.6 160 07:59 13.09.2019
2013 Clouds 25 1016 78 10000 3.6 160 07:40 13.09.2019
2014 Clouds 26 1016 74 10000 2.6 170 06:55 13.09.2019
2015 Clouds 26 1016 74 10000 2.6 170 06:37 13.09.2019
2016 Clouds 26 1016 74 10000 3.6 160 05:32 13.09.2019
2017 Rain 24 1013 60 0 3.23 118.571 03:48 13.09.2019
2018 Rain 25 1017 78 10000 4.1 130 03:25 13.09.2019
2019 Rain 25 1017 78 10000 4.1 130 02:19 13.09.2019
2020 Clouds 26 1017 69 10000 3.6 150 01:35 13.09.2019
2021 Rain 25 1017 83 10000 4.1 130 00:59 13.09.2019
2022 Rain 25 1017 83 10000 4.1 130 00:34 13.09.2019
2023 Clouds 25 1018 78 10000 4.1 140 23:47 12.09.2019
2024 Clouds 25 1018 78 10000 4.1 140 23:24 12.09.2019
2025 Clouds 24 1017 83 10000 2.6 140 22:56 12.09.2019
2026 Clouds 24 1017 83 10000 2.6 140 22:38 12.09.2019
2027 Clouds 24 1017 83 10000 2.6 140 22:20 12.09.2019
2028 Clouds 24 1017 83 10000 2.6 140 21:55 12.09.2019
2029 Clouds 24 1017 83 10000 2.6 140 21:36 12.09.2019
2030 Clouds 24 1017 83 10000 2.6 140 21:18 12.09.2019
2031 Rain 20 1015 99 0 0.92 125.089 20:43 12.09.2019
2032 Clouds 24 1016 88 10000 3.1 150 20:22 12.09.2019
2033 Clouds 24 1016 88 10000 3.1 150 19:57 12.09.2019
2034 Clouds 24 1016 88 10000 3.1 150 19:38 12.09.2019
2035 Clouds 24 1016 88 10000 3.1 150 19:38 12.09.2019
2036 Clouds 24 1015 88 10000 2.6 140 19:19 12.09.2019
2037 Clouds 24 1015 88 10000 2.6 140 19:19 12.09.2019
2038 Clouds 24 1015 88 10000 2.6 140 19:19 12.09.2019
2039 Clouds 24 1015 88 10000 2.6 140 18:41 12.09.2019
2040 -273 0 0 0 0 0 18:23 12.09.2019
2041 Clouds 24 1016 88 10000 2.6 150 18:00 12.09.2019
2042 Clouds 24 1016 88 10000 2.6 150 17:40 12.09.2019
2043 Clouds 24 1016 88 10000 2.6 150 17:40 12.09.2019
2044 Clouds 24 1016 88 10000 2.6 150 17:20 12.09.2019
2045 Rain 24 1016 88 10000 3.1 140 16:55 12.09.2019
2046 Rain 24 1016 88 10000 3.1 140 16:36 12.09.2019
2047 Rain 24 1016 88 10000 3.1 140 16:18 12.09.2019
2048 Rain 24 1017 88 10000 2.6 130 15:40 12.09.2019
2049 Rain 24 1017 88 10000 2.6 130 15:21 12.09.2019
2050 Rain 20 1016 99 0 0.9 95.906 14:45 12.09.2019
2051 Rain 20 1016 99 0 0.9 95.906 14:45 12.09.2019
2052 Clouds 24 1017 88 10000 4.1 130 14:21 12.09.2019
2053 Clouds 24 1017 88 10000 4.1 130 13:55 12.09.2019
2054 Clouds 24 1017 88 10000 4.1 130 13:37 12.09.2019
2055 Clouds 24 1017 88 10000 4.1 130 13:18 12.09.2019
2056 Clouds 24 1017 88 10000 3.6 130 12:43 12.09.2019
2057 Clouds 24 1017 88 10000 3.6 130 12:19 12.09.2019
2058 Clouds 24 1017 88 10000 3.6 130 11:55 12.09.2019
2059 Clouds 24 1017 88 10000 3.6 130 11:37 12.09.2019
2060 Clouds 24 1017 88 10000 3.6 130 11:19 12.09.2019
2061 Clouds 25 1016 83 10000 2.1 140 10:44 12.09.2019
2062 Clouds 25 1016 83 10000 2.1 140 10:24 12.09.2019
2063 Clouds 25 1016 83 10000 1.5 150 09:44 12.09.2019
2064 Clouds 25 1016 83 10000 1.5 150 09:21 12.09.2019
2065 Clouds 25 1015 83 10000 2.6 120 08:58 12.09.2019
2066 Clouds 25 1015 83 10000 2.6 120 08:39 12.09.2019
2067 Clouds 25 1015 83 10000 2.6 120 08:21 12.09.2019
2068 Clouds 26 1015 78 10000 2.6 130 07:39 12.09.2019
2069 Clouds 26 1015 74 10000 3.6 110 07:19 12.09.2019
2070 Clouds 26 1015 74 10000 3.6 110 06:50 12.09.2019
2071 Clouds 26 1015 74 10000 3.6 110 06:50 12.09.2019
2072 Clouds 26 1015 74 10000 3.6 110 06:50 12.09.2019
2073 Clouds 28 1014 61 10000 3.6 70 06:19 12.09.2019
2074 Clouds 28 1014 61 10000 3.6 70 05:48 12.09.2019
2075 Clouds 28 1014 61 10000 3.6 70 05:27 12.09.2019
2076 Clouds 27 1015 65 10000 3.6 120 04:35 12.09.2019
2077 Clouds 26 1017 78 10000 4.1 110 01:48 12.09.2019
2078 Clouds 26 1017 78 10000 4.1 110 01:30 12.09.2019
2079 Clouds 26 1017 78 10000 3.1 110 00:58 12.09.2019
2080 Clouds 26 1017 78 10000 3.1 110 00:40 12.09.2019
2081 Clouds 24 1017 88 10000 2.6 130 00:22 12.09.2019
2082 Clouds 24 1017 88 10000 2.6 130 23:41 11.09.2019
2083 Clouds 24 1017 88 10000 2.6 130 23:20 11.09.2019
2084 Clouds 24 1017 94 10000 1.5 130 22:56 11.09.2019
2085 Clouds 24 1017 94 10000 1.5 130 22:37 11.09.2019
2086 Clouds 24 1017 94 10000 1.5 130 22:18 11.09.2019
2087 Clouds 23 1017 94 10000 1.19 87.349 21:42 11.09.2019
2088 Clouds 23 1017 94 10000 1.05 112.004 21:24 11.09.2019
2089 Rain 19 1015 99 0 1.05 112.004 20:57 11.09.2019
2090 Rain 19 1015 99 0 1.04 114.007 20:38 11.09.2019
2091 Clouds 23 1015 94 10000 1.04 114.007 20:19 11.09.2019
2092 Clouds 23 1015 94 10000 1.04 114.007 20:19 11.09.2019
2093 Clouds 23 1015 94 10000 1.04 114.007 19:57 11.09.2019
2094 Clouds 23 1015 94 10000 1.04 114.007 19:57 11.09.2019
2095 Clouds 23 1015 94 10000 1.04 114.007 19:39 11.09.2019
2096 Clouds 23 1015 94 10000 1.04 114.007 19:39 11.09.2019
2097 Clouds 23 1015 94 10000 1.5 170 19:19 11.09.2019
2098 Clouds 23 1015 94 10000 1.5 170 18:55 11.09.2019
2099 Clouds 23 1015 94 10000 1.5 170 18:37 11.09.2019
2100 Clouds 23 1015 94 10000 0.62 143.13 18:18 11.09.2019
2101 Clouds 23 1015 94 10000 0.62 143.13 17:41 11.09.2019
2102 Clouds 23 1015 94 10000 0.62 143.13 17:22 11.09.2019
2103 Clouds 23 1016 94 10000 1.5 220 16:57 11.09.2019
2104 Clouds 23 1016 94 10000 1.5 220 16:39 11.09.2019
2105 Clouds 23 1016 94 10000 1.5 220 16:20 11.09.2019
2106 Clouds 23 1016 94 10000 0.62 143.13 15:47 11.09.2019
2107 Clouds 23 1016 94 10000 0.86 108.456 15:24 11.09.2019
2108 Rain 19 1016 99 0 0.86 108.456 14:59 11.09.2019
2109 Rain 19 1016 99 0 0.86 108.456 14:40 11.09.2019
2110 Clouds 23 1017 94 10000 1 290 14:20 11.09.2019
2111 Clouds 23 1017 94 10000 1 290 13:59 11.09.2019
2112 Clouds 23 1017 94 10000 1 290 13:37 11.09.2019
2113 Clouds 22 1017 94 10000 1.5 290 13:18 11.09.2019
2114 Clouds 22 1017 94 10000 1.5 290 12:42 11.09.2019
2115 Clouds 22 1017 94 10000 1.5 290 12:22 11.09.2019
2116 Clouds 22 1017 94 10000 2.1 320 11:58 11.09.2019
2117 Clouds 22 1017 94 10000 2.1 320 11:38 11.09.2019
2118 Clouds 22 1017 94 10000 2.1 320 11:19 11.09.2019
2119 Clouds 22 1017 94 10000 1.5 290 10:41 11.09.2019
2120 Clouds 22 1017 94 10000 1.5 290 10:22 11.09.2019
2121 Clouds 22 1016 94 10000 1 0 09:57 11.09.2019
2122 Clouds 22 1016 94 10000 1 0 09:37 11.09.2019
2123 Clouds 22 1016 94 10000 1 0 09:18 11.09.2019
2124 Rain 20 1014 99 0 1.04 146.218 08:40 11.09.2019
2125 Rain 22 1015 94 10000 2.1 170 08:21 11.09.2019
2126 Rain 22 1015 94 10000 2.1 170 07:49 11.09.2019
2127 Rain 22 1015 94 10000 2.1 170 07:24 11.09.2019
2128 Rain 23 1014 94 10000 3.1 230 06:59 11.09.2019
2129 Rain 23 1014 94 10000 3.1 230 06:36 11.09.2019
2130 Rain 26 1014 78 10000 2.1 150 05:53 11.09.2019
2131 Rain 26 1014 78 10000 2.1 150 05:33 11.09.2019
2132 Clouds 27 1014 69 10000 3.6 140 04:52 11.09.2019
2133 Clouds 28 1014 65 10000 3.1 180 03:58 11.09.2019
2134 Clouds 28 1014 65 10000 3.1 180 03:20 11.09.2019
2135 Clouds 27 1015 69 10000 2.6 180 02:28 11.09.2019
2136 Clouds 28 1016 65 10000 2.6 160 01:28 11.09.2019
2137 Clouds 27 1016 74 10000 2.6 160 00:32 11.09.2019
2138 Clouds 27 1016 83 10000 2.1 170 23:58 10.09.2019
2139 Clouds 27 1016 83 10000 2.1 170 23:39 10.09.2019
2140 Clouds 27 1016 83 10000 2.1 170 23:21 10.09.2019
2141 Clouds 25 1015 94 10000 1 0 22:42 10.09.2019
2142 Clouds 25 1015 94 10000 1 0 22:21 10.09.2019
2143 Clouds 24 1015 100 10000 0.89 184.136 21:57 10.09.2019
2144 Clouds 24 1015 100 10000 0.89 184.136 21:38 10.09.2019
2145 Clouds 24 1015 100 10000 0.48 105.086 21:20 10.09.2019
2146 Clouds 20 1014 98 0 0.48 105.086 20:59 10.09.2019
2147 Clouds 20 1014 95 0 0.25 337.398 20:40 10.09.2019
2148 Rain 24 1014 100 10000 1.5 320 20:22 10.09.2019
2149 Rain 24 1014 100 10000 1.5 320 19:58 10.09.2019
2150 Rain 24 1014 100 10000 1.5 320 19:39 10.09.2019
2151 Rain 24 1014 100 10000 1.5 320 19:20 10.09.2019
2152 Clouds 24 1013 100 10000 0.25 337.398 18:58 10.09.2019
2153 Clouds 24 1013 100 10000 0.25 337.398 18:40 10.09.2019
2154 Clouds 24 1012 100 10000 0.56 305.801 18:21 10.09.2019
2155 Clouds 24 1012 100 10000 0.56 305.801 17:55 10.09.2019
2156 Clouds 24 1012 100 10000 0.56 305.801 17:37 10.09.2019
2157 Clouds 24 1012 100 10000 0.56 305.801 17:18 10.09.2019
2158 Clouds 24 1013 100 10000 0.56 305.801 16:55 10.09.2019
2159 Clouds 24 1013 100 10000 0.56 305.801 16:55 10.09.2019
2160 Clouds 24 1013 100 10000 0.56 305.801 16:55 10.09.2019
2161 Clouds 24 1013 100 10000 0.56 305.801 16:55 10.09.2019
2162 Clouds 24 1013 100 10000 0.56 305.801 16:37 10.09.2019
2163 Clouds 24 1013 100 10000 0.56 305.801 16:18 10.09.2019
2164 Clouds 24 1013 94 10000 0.56 305.801 15:42 10.09.2019
2165 Clouds 24 1013 94 10000 0.38 298.684 15:21 10.09.2019
2166 -273 0 0 0 0 0 14:55 10.09.2019
2167 Clouds 20 1013 96 0 0.38 298.684 14:36 10.09.2019
2168 Clouds 24 1014 94 10000 0.38 298.684 14:18 10.09.2019
2169 Clouds 24 1014 94 10000 0.38 298.684 13:43 10.09.2019
2170 Clouds 24 1014 94 10000 0.38 297.582 13:22 10.09.2019
2171 Clouds 24 1014 94 10000 1.5 230 12:50 10.09.2019
2172 Clouds 24 1014 94 10000 1.5 230 12:28 10.09.2019
2173 Clouds 24 1013 94 10000 0.84 322.938 11:58 10.09.2019
2174 Clouds 24 1013 94 10000 0.84 322.938 11:39 10.09.2019
2175 Clouds 24 1013 94 10000 0.84 322.938 11:21 10.09.2019
2176 Clouds 24 1013 94 10000 2.1 340 10:42 10.09.2019
2177 Clouds 26 1012 83 10000 1 10 10:19 10.09.2019
2178 Clouds 26 1012 83 10000 1 10 09:57 10.09.2019
2179 Clouds 26 1012 83 10000 1 10 09:39 10.09.2019
2180 Rain 22 1011 99 0 0.23 119.619 09:19 10.09.2019
2181 Rain 22 1011 99 0 0.23 119.619 09:19 10.09.2019
2182 Rain 21 1011 95 0 0.72 140.593 08:45 10.09.2019
2183 Clouds 27 1011 78 10000 2.1 70 08:26 10.09.2019
2184 Clouds 27 1011 78 10000 2.1 70 07:46 10.09.2019
2185 Clouds 27 1011 78 10000 2.1 70 07:27 10.09.2019
2186 Clouds 28 1010 74 10000 3.6 80 06:53 10.09.2019
2187 Clouds 28 1010 74 10000 3.6 80 06:35 10.09.2019
2188 Clouds 28 1011 74 10000 3.6 70 05:27 10.09.2019
2189 Clouds 28 1011 69 10000 2.6 110 03:57 10.09.2019
2190 Clouds 28 1011 69 10000 2.6 110 03:57 10.09.2019
2191 Clouds 28 1012 69 10000 2.1 170 02:23 10.09.2019
2192 Clouds 27 1012 74 10000 2.1 170 02:23 10.09.2019
2193 Clouds 28 1012 69 10000 2.1 170 02:23 10.09.2019
2194 Clouds 27 1012 74 10000 2.1 170 01:58 10.09.2019
2195 Clouds 27 1012 74 10000 2.1 170 01:58 10.09.2019
2196 Clouds 27 1012 74 10000 2.1 170 01:40 10.09.2019
2197 Clouds 27 1012 74 10000 2.1 170 00:54 10.09.2019
2198 Clouds 27 1012 69 10000 1.5 0 00:25 10.09.2019
2199 Clouds 25 1012 73 10000 0.62 44.408 23:47 09.09.2019
2200 Clouds 25 1012 73 10000 0.62 44.408 23:20 09.09.2019
2201 Clouds 22 1013 88 10000 0.62 44.408 22:57 09.09.2019
2202 Clouds 22 1013 88 10000 0.62 44.408 22:39 09.09.2019
2203 Clouds 22 1013 88 10000 0.62 44.408 22:39 09.09.2019
2204 Clouds 22 1013 88 10000 0.62 44.408 22:20 09.09.2019
2205 Clouds 21 1012 94 10000 1.5 330 21:57 09.09.2019
2206 Clouds 21 1012 94 10000 1.5 330 21:39 09.09.2019
2207 Clouds 18 1011 98 0 0.98 0.587 21:20 09.09.2019
2208 Clouds 18 1011 98 0 0.98 0.587 20:56 09.09.2019
2209 Clouds 18 1010 98 0 0.84 9.271 20:37 09.09.2019
2210 Clouds 20 1011 94 10000 0.84 9.271 20:19 09.09.2019
2211 Clouds 20 1011 94 10000 0.84 9.271 20:19 09.09.2019
2212 Clouds 20 1011 94 10000 0.84 9.271 20:19 09.09.2019
2213 Clouds 20 1011 94 10000 0.84 9.271 19:58 09.09.2019
2214 Clouds 20 1011 94 10000 0.84 9.271 19:39 09.09.2019
2215 Clouds 20 1011 100 10000 2.6 330 19:19 09.09.2019
2216 Clouds 20 1011 100 10000 2.6 330 19:19 09.09.2019
2217 Clouds 20 1011 100 10000 2.6 330 18:57 09.09.2019
2218 Clouds 20 1011 100 10000 2.6 330 18:39 09.09.2019
2219 Clouds 20 1011 100 10000 1.5 340 18:21 09.09.2019
2220 Clouds 20 1011 100 10000 1.5 340 17:58 09.09.2019
2221 Clouds 20 1011 100 10000 1.5 340 17:40 09.09.2019
2222 Clouds 20 1011 100 10000 1.5 340 17:21 09.09.2019
2223 Clouds 20 1011 100 10000 2.1 330 16:56 09.09.2019
2224 Clouds 20 1011 100 10000 2.1 330 16:38 09.09.2019
2225 Clouds 20 1012 100 10000 2.1 330 16:19 09.09.2019
2226 Clouds 20 1012 100 10000 2.1 330 15:55 09.09.2019
2227 Clouds 20 1012 100 10000 2.1 330 15:55 09.09.2019
2228 Clouds 20 1012 100 10000 2.1 330 15:36 09.09.2019
2229 Clouds 17 1011 99 0 1.27 21.584 15:18 09.09.2019
2230 Clouds 17 1011 99 0 1.27 21.584 14:40 09.09.2019
2231 Clouds 21 1012 94 10000 1.27 21.584 14:22 09.09.2019
2232 Clouds 21 1012 94 10000 1.27 21.584 13:58 09.09.2019
2233 Clouds 21 1012 94 10000 1.27 21.584 13:40 09.09.2019
2234 Clouds 22 1012 94 10000 1.28 22.706 13:19 09.09.2019
2235 Clouds 22 1012 94 10000 1.28 22.706 12:57 09.09.2019
2236 Clouds 22 1012 94 10000 1.28 22.706 12:37 09.09.2019
2237 Clouds 23 1012 88 10000 0.91 25.248 12:18 09.09.2019
2238 Clouds 23 1012 88 10000 0.91 25.248 11:43 09.09.2019
2239 Clouds 23 1012 88 10000 0.91 25.248 11:20 09.09.2019
2240 Clouds 23 1012 88 10000 0.91 25.248 10:57 09.09.2019
2241 Clouds 23 1012 88 10000 0.91 25.248 10:38 09.09.2019
2242 Clouds 24 1012 83 10000 0.91 25.248 10:19 09.09.2019
2243 Clouds 24 1012 83 10000 0.91 25.248 09:48 09.09.2019
2244 Clouds 24 1012 83 10000 0.91 25.248 09:28 09.09.2019
2245 Clouds 18 1011 94 0 1.03 174.201 08:56 09.09.2019
2246 Rain 18 1011 96 0 0.83 206.101 08:38 09.09.2019
2247 Clouds 26 1010 69 10000 4.6 70 08:19 09.09.2019
2248 Clouds 26 1010 69 10000 4.6 70 07:41 09.09.2019
2249 Clouds 27 1010 61 10000 4.6 60 07:20 09.09.2019
2250 Clouds 27 1010 61 10000 4.6 60 06:53 09.09.2019
2251 Clouds 27 1010 61 10000 4.6 60 06:27 09.09.2019
2252 Clouds 27 1011 54 0 0.99 35.544 03:21 09.09.2019
2253 Clouds 27 1011 54 0 0.99 35.544 02:42 09.09.2019
2254 Clouds 26 1012 65 10000 1.5 130 01:25 09.09.2019
2255 Clouds 26 1013 61 10000 1.5 110 00:24 09.09.2019
2256 Clouds 22 1014 83 10000 2.1 300 23:56 08.09.2019
2257 Clouds 22 1014 83 10000 2.1 300 23:38 08.09.2019
2258 Clouds 20 1014 88 10000 2.6 310 23:19 08.09.2019
2259 Clouds 20 1014 88 10000 2.6 310 22:41 08.09.2019
2260 Clouds 20 1014 88 10000 2.6 310 22:22 08.09.2019
2261 Clouds 18 1013 93 10000 2.1 310 21:58 08.09.2019
2262 Clouds 18 1013 93 10000 2.1 310 21:40 08.09.2019
2263 Clouds 18 1013 93 10000 2.1 310 21:22 08.09.2019
2264 Clouds 17 1013 100 10000 2.1 320 20:54 08.09.2019
2265 Clouds 17 1013 100 10000 2.1 320 20:36 08.09.2019
2266 Clouds 17 1012 100 10000 2.1 320 20:18 08.09.2019
2267 Clouds 17 1012 100 10000 2.1 320 20:18 08.09.2019
2268 Clouds 17 1012 100 10000 2.1 320 19:39 08.09.2019
2269 Clouds 17 1012 100 10000 2.1 320 19:21 08.09.2019
2270 Clouds 17 1012 100 10000 2.1 320 19:21 08.09.2019
2271 Clouds 17 1012 100 10000 2.1 320 18:58 08.09.2019
2272 Clouds 17 1012 100 10000 1.5 310 18:39 08.09.2019
2273 Clouds 17 1012 100 10000 1.5 310 18:19 08.09.2019
2274 Clouds 17 1012 100 10000 1.5 310 17:58 08.09.2019
2275 Clouds 17 1012 100 10000 2.1 310 17:37 08.09.2019
2276 Clouds 18 1013 93 10000 2.1 320 17:18 08.09.2019
2277 Clouds 18 1013 93 10000 2.1 320 16:55 08.09.2019
2278 Clouds 18 1013 93 10000 2.1 320 16:37 08.09.2019
2279 Clouds 18 1013 93 10000 2.6 320 16:18 08.09.2019
2280 Clouds 18 1013 93 10000 2.6 320 15:41 08.09.2019
2281 Clouds 18 1013 93 10000 2.6 320 15:22 08.09.2019
2282 Clouds 19 1014 93 10000 1.5 330 14:59 08.09.2019
2283 Clouds 19 1014 93 10000 1.5 330 14:39 08.09.2019
2284 Clouds 20 1014 88 10000 1 0 14:20 08.09.2019
2285 Clouds 20 1014 88 10000 1 0 13:57 08.09.2019
2286 Clouds 20 1014 88 10000 1 0 13:38 08.09.2019
2287 Clouds 20 1014 88 10000 1 0 13:20 08.09.2019
2288 Clouds 22 1014 73 10000 2.1 100 12:44 08.09.2019
2289 Clouds 22 1014 73 10000 2.1 100 12:24 08.09.2019
2290 Clouds 22 1014 73 10000 1.5 80 11:59 08.09.2019
2291 Clouds 22 1014 73 10000 1.5 80 11:40 08.09.2019
2292 Clouds 22 1014 73 10000 1.5 80 11:20 08.09.2019
2293 Clouds 22 1014 73 10000 1.5 90 10:59 08.09.2019
2294 Clouds 22 1014 73 10000 1.5 90 10:40 08.09.2019
2295 Clouds 22 1014 73 10000 1.5 90 10:22 08.09.2019
2296 Clouds 23 1013 73 10000 2.1 130 09:40 08.09.2019
2297 Clouds 23 1013 73 10000 2.1 130 09:21 08.09.2019
2298 Clear 17 1012 88 0 1.55 84.495 08:57 08.09.2019
2299 Clear 17 1012 87 0 1.62 78.968 08:39 08.09.2019
2300 Clear 17 1012 87 0 1.62 78.968 08:39 08.09.2019
2301 Clouds 25 1013 57 10000 4.1 100 08:18 08.09.2019
2302 Clouds 25 1013 57 10000 4.1 100 07:40 08.09.2019
2303 Clouds 25 1013 57 10000 5.1 110 07:21 08.09.2019
2304 Clouds 25 1013 57 10000 5.1 110 06:53 08.09.2019
2305 Clouds 25 1013 57 10000 5.1 110 06:33 08.09.2019
2306 Clouds 25 1012 57 10000 5.1 90 05:39 08.09.2019
2307 Clouds 26 1013 50 10000 5.7 100 04:27 08.09.2019
2308 Clouds 25 1014 53 10000 5.7 110 03:19 08.09.2019
2309 Clouds 25 1014 53 10000 5.7 110 02:29 08.09.2019
2310 Clouds 25 1015 57 10000 3.6 130 01:52 08.09.2019
2311 Clouds 25 1015 57 10000 3.6 130 01:23 08.09.2019
2312 Clouds 24 1016 60 10000 4.6 110 00:46 08.09.2019
2313 Clouds 24 1016 60 10000 4.6 110 00:27 08.09.2019
2314 Clouds 25 1016 53 10000 3.6 110 23:39 07.09.2019
2315 Clouds 25 1016 53 10000 3.6 110 23:21 07.09.2019
2316 Clouds 21 1016 83 10000 1 0 22:58 07.09.2019
2317 Clouds 21 1016 83 10000 1 0 22:40 07.09.2019
2318 Clouds 21 1016 83 10000 1 0 22:22 07.09.2019
2319 Clouds 20 1016 88 10000 1 0 21:45 07.09.2019
2320 Clouds 20 1016 88 10000 1 0 21:26 07.09.2019
2321 Clouds 14 1014 90 0 1.6 70.6 20:59 07.09.2019
2322 Clouds 14 1014 91 0 1.56 69.203 20:39 07.09.2019
2323 Clouds 21 1014 68 10000 1 0 20:20 07.09.2019
2324 Clouds 21 1014 68 10000 1 0 19:55 07.09.2019
2325 Clouds 21 1014 68 10000 1 0 19:37 07.09.2019
2326 Clouds 21 1014 68 10000 2.1 130 19:19 07.09.2019
2327 Clouds 21 1014 68 10000 2.1 130 18:56 07.09.2019
2328 Clouds 21 1014 68 10000 2.1 130 18:37 07.09.2019
2329 Clouds 21 1014 68 10000 2.1 150 18:18 07.09.2019
2330 Clouds 21 1014 68 10000 2.1 150 18:18 07.09.2019
2331 Clouds 21 1014 68 10000 2.1 150 17:56 07.09.2019
2332 -273 0 0 0 0 0 17:56 07.09.2019
2333 Clouds 21 1014 68 10000 2.1 150 17:56 07.09.2019
2334 Clouds 21 1014 68 10000 2.1 150 17:37 07.09.2019
2335 Clouds 21 1015 68 10000 2.1 150 17:18 07.09.2019
2336 Clouds 21 1015 68 10000 2.1 150 17:18 07.09.2019
2337 Clouds 21 1015 68 10000 2.1 150 16:43 07.09.2019
2338 Clouds 21 1015 68 10000 2.1 150 16:21 07.09.2019
2339 Clouds 21 1015 68 10000 2.1 160 15:55 07.09.2019
2340 Clouds 21 1015 68 10000 2.1 160 15:55 07.09.2019
2341 Clouds 21 1015 68 10000 2.1 160 15:36 07.09.2019
2342 Clouds 14 1016 95 0 1.19 54.866 15:18 07.09.2019
2343 Clouds 14 1016 95 0 1.19 54.866 14:54 07.09.2019
2344 Clouds 14 1016 95 0 1.19 54.866 14:54 07.09.2019
2345 Clouds 14 1016 95 0 1.19 54.866 14:36 07.09.2019
2346 Clouds 22 1017 64 10000 2.1 140 14:18 07.09.2019
2347 Clouds 22 1017 64 10000 2.1 140 13:43 07.09.2019
2348 Clouds 22 1017 64 10000 2.1 140 13:25 07.09.2019
2349 Clouds 22 1017 68 10000 2.1 150 12:46 07.09.2019
2350 Clouds 22 1017 68 10000 2.1 150 12:26 07.09.2019
2351 Clouds 22 1017 68 10000 1 180 11:59 07.09.2019
2352 Clouds 22 1017 68 10000 1 180 11:40 07.09.2019
2353 Clouds 22 1017 68 10000 1 180 11:21 07.09.2019
2354 Clouds 23 1017 56 10000 2.6 120 10:41 07.09.2019
2355 Clouds 23 1017 56 10000 2.6 120 10:22 07.09.2019
2356 Clouds 23 1016 60 10000 1.5 120 09:58 07.09.2019
2357 Clouds 23 1016 60 10000 1.5 120 09:39 07.09.2019
2358 Clouds 23 1016 60 10000 1.5 120 09:20 07.09.2019
2359 Clouds 24 1016 57 10000 1.5 160 08:44 07.09.2019
2360 Clouds 24 1016 57 10000 1.5 160 08:26 07.09.2019
2361 Clouds 24 1016 57 10000 1.5 160 08:26 07.09.2019
2362 Clouds 24 1015 53 10000 2.6 120 07:48 07.09.2019
2363 Clouds 24 1015 53 10000 2.6 120 07:28 07.09.2019
2364 Clouds 25 1015 50 10000 3.1 150 06:53 07.09.2019
2365 Clouds 25 1015 50 10000 3.1 150 06:29 07.09.2019
2366 Clouds 25 1015 53 10000 3.6 160 05:32 07.09.2019
2367 Clouds 25 1015 53 10000 3.6 160 04:23 07.09.2019
2368 Clouds 23 1016 54 0 2.42 122.302 02:52 07.09.2019
2369 Clouds 25 1017 50 10000 3.6 130 02:20 07.09.2019
2370 Clouds 25 1017 50 10000 3.6 130 01:26 07.09.2019
2371 Clouds 25 1018 50 10000 3.1 160 00:44 07.09.2019
2372 Clouds 24 1018 57 10000 2.1 160 00:21 07.09.2019
2373 Clouds 24 1018 57 10000 2.1 160 23:43 06.09.2019
2374 Clouds 24 1018 57 10000 2.1 160 23:22 06.09.2019
2375 Clouds 20 1017 88 10000 1.5 310 22:58 06.09.2019
2376 Clouds 20 1017 88 10000 1.5 310 22:39 06.09.2019
2377 Clouds 17 1017 93 10000 2.1 320 22:19 06.09.2019
2378 Clouds 17 1017 93 10000 2.1 320 21:58 06.09.2019
2379 Clouds 17 1017 93 10000 2.1 320 21:58 06.09.2019
2380 Clouds 17 1017 93 10000 2.1 320 21:58 06.09.2019
2381 Clouds 17 1017 93 10000 2.1 320 21:39 06.09.2019
2382 Clouds 13 1016 91 0 0.62 77.582 21:21 06.09.2019
2383 Clouds 13 1016 91 0 0.62 77.582 20:58 06.09.2019
2384 Clouds 13 1016 91 0 0.64 78.865 20:39 06.09.2019
2385 Clouds 16 1016 93 10000 2.1 320 20:21 06.09.2019
2386 Clouds 16 1016 93 10000 2.1 320 19:57 06.09.2019
2387 Clouds 16 1016 93 10000 2.1 320 19:39 06.09.2019
2388 Clouds 16 1015 93 10000 2.1 320 19:20 06.09.2019
2389 Clouds 16 1015 93 10000 2.1 320 18:46 06.09.2019
2390 Clouds 16 1015 100 10000 2.1 300 18:25 06.09.2019
2391 Clouds 16 1015 100 10000 2.1 300 17:59 06.09.2019
2392 Clouds 16 1015 100 10000 2.1 300 17:38 06.09.2019
2393 Clouds 16 1015 100 10000 1.5 320 17:19 06.09.2019
2394 Clouds 16 1015 100 10000 1.5 320 16:41 06.09.2019
2395 Clouds 13 1015 90 0 0.3 112.723 16:19 06.09.2019
2396 Clouds 13 1015 90 0 0.3 112.723 16:19 06.09.2019
2397 Clouds 13 1015 90 0 0.3 112.723 15:42 06.09.2019
2398 Clouds 13 1016 89 0 0.28 129.832 15:24 06.09.2019
2399 Clouds 13 1016 89 0 0.28 129.832 14:57 06.09.2019
2400 Clouds 13 1016 89 0 0.28 129.832 14:39 06.09.2019
2401 Clouds 18 1016 88 10000 1.5 320 14:18 06.09.2019
2402 Clouds 18 1016 88 10000 1.5 320 13:42 06.09.2019
2403 Clouds 20 1016 72 10000 0.3 148.905 13:20 06.09.2019
2404 Clouds 20 1016 72 10000 0.3 148.905 12:38 06.09.2019
2405 Clouds 21 1016 73 10000 1.5 150 12:20 06.09.2019
2406 Clouds 21 1016 73 10000 1.5 150 11:55 06.09.2019
2407 Clouds 21 1016 73 10000 1.5 150 11:36 06.09.2019
2408 Clouds 21 1016 73 10000 1.5 160 11:18 06.09.2019
2409 Clouds 21 1016 73 10000 1.5 160 10:40 06.09.2019
2410 Clouds 22 1015 73 10000 1.5 150 10:22 06.09.2019
2411 Clouds 22 1015 73 10000 1.5 150 09:57 06.09.2019
2412 Clouds 22 1015 73 10000 1.5 150 09:36 06.09.2019
2413 Clear 16 1013 85 0 1.07 161.514 09:18 06.09.2019
2414 Clear 16 1013 85 0 1.07 161.514 08:43 06.09.2019
2415 Clouds 24 1014 57 10000 3.1 170 08:25 06.09.2019
2416 Clouds 24 1014 57 10000 3.1 170 07:48 06.09.2019
2417 Clouds 24 1014 57 10000 3.1 170 07:27 06.09.2019
2418 Clouds 25 1013 53 10000 4.1 190 06:58 06.09.2019
2419 Clouds 25 1013 53 10000 4.1 190 06:26 06.09.2019
2420 Clouds 25 1013 57 10000 4.1 200 05:43 06.09.2019
2421 Clouds 25 1014 53 10000 5.1 190 04:49 06.09.2019
2422 Clouds 26 1014 54 10000 5.7 200 03:53 06.09.2019
2423 Clouds 25 1015 53 10000 5.1 210 02:23 06.09.2019
2424 Clouds 25 1015 57 10000 4.1 210 00:44 06.09.2019
2425 Clouds 24 1015 57 10000 3.6 210 23:55 05.09.2019
2426 Clouds 24 1015 57 10000 3.6 210 23:37 05.09.2019
2427 Clouds 20 1015 88 10000 1 0 23:18 05.09.2019
2428 Clouds 20 1015 88 10000 1 0 22:42 05.09.2019
2429 Clouds 20 1015 88 10000 1 0 22:24 05.09.2019
2430 Clouds 17 1015 93 10000 2.1 320 21:56 05.09.2019
2431 Clouds 17 1015 93 10000 2.1 320 21:37 05.09.2019
2432 Clouds 17 1014 93 10000 1.5 340 21:19 05.09.2019
2433 Clouds 17 1014 93 10000 1.5 340 20:57 05.09.2019
2434 Clouds 17 1014 93 10000 1.5 340 20:37 05.09.2019
2435 Clouds 17 1014 93 10000 1.5 340 20:19 05.09.2019
2436 Clouds 17 1013 93 10000 1.5 330 19:42 05.09.2019
2437 Clouds 17 1013 93 10000 1.5 330 19:24 05.09.2019
2438 Clouds 17 1013 93 10000 1.5 30 18:58 05.09.2019
2439 Clouds 17 1013 93 10000 1.5 30 18:40 05.09.2019
2440 Clouds 17 1013 93 10000 1.5 30 18:20 05.09.2019
2441 Clouds 17 1013 93 10000 1.5 30 17:56 05.09.2019
2442 Clouds 17 1013 100 10000 1 0 17:37 05.09.2019
2443 Clouds 19 1013 88 10000 2.6 290 17:19 05.09.2019
2444 Clouds 19 1013 88 10000 2.6 290 16:41 05.09.2019
2445 Clouds 19 1013 88 10000 2.6 290 16:20 05.09.2019
2446 Clouds 19 1013 88 10000 1.5 310 15:58 05.09.2019
2447 Clouds 19 1013 88 10000 1.5 310 15:39 05.09.2019
2448 Clouds 19 1014 88 10000 2.1 300 15:19 05.09.2019
2449 Clouds 19 1014 88 10000 2.1 300 14:43 05.09.2019
2450 Clouds 20 1014 88 10000 1.5 300 14:22 05.09.2019
2451 Clouds 20 1014 88 10000 1.5 300 13:44 05.09.2019
2452 Clouds 20 1014 88 10000 1.5 300 13:24 05.09.2019
2453 Clouds 22 1013 68 10000 3.6 230 12:59 05.09.2019
2454 Clouds 22 1013 68 10000 3.6 230 12:41 05.09.2019
2455 Clouds 22 1013 68 10000 3.6 230 12:22 05.09.2019
2456 Clouds 22 1013 68 10000 3.6 230 11:44 05.09.2019
2457 Clouds 22 1013 68 10000 3.6 230 11:20 05.09.2019
2458 Clouds 24 1012 60 10000 6.2 240 10:57 05.09.2019
2459 Clouds 24 1012 60 10000 6.2 240 10:36 05.09.2019
2460 Clouds 24 1011 57 10000 6.7 220 10:18 05.09.2019
2461 Clouds 24 1011 57 10000 6.7 220 09:40 05.09.2019
2462 Clouds 24 1011 57 10000 6.7 220 09:21 05.09.2019
2463 Clouds 26 1010 54 10000 6.7 220 08:56 05.09.2019
2464 Clouds 26 1010 54 10000 6.7 220 08:37 05.09.2019
2465 Clouds 26 1010 54 10000 6.7 220 08:37 05.09.2019
2466 Clouds 26 1009 61 10000 7.7 230 08:19 05.09.2019
2467 Clouds 26 1009 61 10000 7.7 230 07:43 05.09.2019
2468 Clouds 26 1009 61 10000 7.7 230 07:24 05.09.2019
2469 Clouds 27 1009 57 10000 7.7 230 06:46 05.09.2019
2470 Clouds 27 1009 57 10000 7.7 230 06:26 05.09.2019
2471 Clouds 27 1008 57 10000 8.2 200 05:43 05.09.2019
2472 Clouds 27 1008 57 10000 8.2 200 05:43 05.09.2019
2473 Clouds 27 1008 57 10000 8.2 200 05:25 05.09.2019
2474 Clouds 27 1009 51 10000 7.7 200 04:30 05.09.2019
2475 Clouds 27 1009 51 10000 6.2 210 03:47 05.09.2019
2476 Clouds 27 1010 54 10000 5.1 240 02:57 05.09.2019
2477 Clouds 27 1010 54 10000 5.1 240 02:29 05.09.2019
2478 Clouds 26 1011 54 10000 5.7 230 01:57 05.09.2019
2479 Clouds 26 1011 54 10000 5.7 230 00:56 05.09.2019
2480 Clouds 26 1011 54 10000 6.7 250 00:37 05.09.2019
2481 Clouds 26 1011 54 10000 6.7 250 00:18 05.09.2019
2482 Clouds 25 1011 57 10000 4.6 230 23:40 04.09.2019
2483 Clouds 25 1011 57 10000 4.6 230 23:22 04.09.2019
2484 Clouds 23 1010 69 10000 2.6 230 22:47 04.09.2019
2485 Clouds 22 1010 83 10000 2.6 230 22:20 04.09.2019
2486 Clouds 22 1010 83 10000 2.6 230 21:56 04.09.2019
2487 Clouds 22 1010 83 10000 2.6 230 21:38 04.09.2019
2488 Clouds 22 1009 88 10000 2.6 240 21:19 04.09.2019
2489 Clouds 22 1009 88 10000 2.6 240 20:55 04.09.2019
2490 Clouds 22 1009 88 10000 2.6 240 20:36 04.09.2019
2491 Clouds 22 1009 88 10000 2.6 240 20:36 04.09.2019
2492 Clouds 22 1009 88 10000 2.6 240 20:18 04.09.2019
2493 Clouds 21 1008 94 10000 2.6 220 19:40 04.09.2019
2494 Clouds 21 1008 94 10000 2.6 220 19:21 04.09.2019
2495 Clouds 22 1008 94 10000 3.1 230 18:42 04.09.2019
2496 Clouds 22 1008 94 10000 3.1 230 18:24 04.09.2019
2497 Clouds 22 1008 94 10000 3.1 230 17:59 04.09.2019
2498 Clouds 22 1008 94 10000 1.5 250 17:40 04.09.2019
2499 Clouds 22 1008 94 10000 1.5 250 17:21 04.09.2019
2500 Clouds 22 1008 94 10000 1.5 250 17:21 04.09.2019
2501 Clouds 22 1008 94 10000 2.1 240 16:54 04.09.2019
2502 Clouds 22 1008 94 10000 2.1 240 16:36 04.09.2019
2503 Clouds 22 1008 100 10000 3.1 230 16:18 04.09.2019
2504 Clouds 22 1008 100 10000 3.1 230 15:40 04.09.2019
2505 Clouds 22 1008 100 10000 3.1 230 15:21 04.09.2019
2506 Rain 22 1009 100 10000 2.1 230 14:58 04.09.2019
2507 Rain 22 1009 100 10000 2.1 230 14:38 04.09.2019
2508 Rain 22 1009 100 10000 2.1 230 14:20 04.09.2019
2509 Clouds 23 1008 94 10000 1.28 237.168 13:57 04.09.2019
2510 Clouds 23 1008 94 10000 1.28 237.168 13:38 04.09.2019
2511 Clouds 23 1008 94 10000 1.28 237.168 13:38 04.09.2019
2512 Clouds 23 1008 94 10000 1.18 243.109 13:19 04.09.2019
2513 Drizzle 23 1009 94 10000 2.6 230 12:43 04.09.2019
2514 Drizzle 23 1009 94 10000 2.6 230 12:24 04.09.2019
2515 Drizzle 23 1009 94 10000 2.6 230 11:56 04.09.2019
2516 Clouds 24 1008 94 10000 0.57 256.551 11:37 04.09.2019
2517 Clouds 23 1008 94 10000 1.5 270 11:19 04.09.2019
2518 Clouds 23 1008 94 10000 1.5 270 10:45 04.09.2019
2519 Clouds 23 1008 94 10000 1.5 270 10:26 04.09.2019
2520 Clouds 23 1006 94 10000 1.05 251.703 09:58 04.09.2019
2521 Clouds 23 1006 94 10000 1.05 251.703 09:40 04.09.2019
2522 Clouds 24 1006 94 10000 1.35 270.806 09:19 04.09.2019
2523 Clouds 24 1006 94 10000 1.35 270.806 08:41 04.09.2019
2524 Clouds 24 1006 94 10000 1.35 270.806 08:23 04.09.2019
2525 Clouds 24 1006 94 10000 3.1 20 07:56 04.09.2019
2526 Clouds 24 1006 94 10000 3.1 20 07:33 04.09.2019
2527 Clouds 24 1006 88 10000 3.1 30 06:49 04.09.2019
2528 Rain 23 1006 94 10000 3.1 20 06:21 04.09.2019
2529 Rain 23 1007 100 10000 3.1 20 04:53 04.09.2019
2530 Rain 23 1007 100 10000 3.1 20 04:20 04.09.2019
2531 Clouds 23 1010 94 10000 2.48 311.351 01:49 04.09.2019
2532 Rain 22 1010 100 10000 2.1 360 00:55 04.09.2019
2533 Rain 22 1010 100 10000 2.1 360 00:35 04.09.2019
2534 Rain 22 1010 94 10000 2.6 30 23:56 03.09.2019
2535 Rain 22 1010 94 10000 2.6 30 23:38 03.09.2019
2536 Rain 21 1010 100 10000 1.5 340 23:19 03.09.2019
2537 Rain 21 1010 100 10000 1.5 340 22:40 03.09.2019
2538 Rain 21 1010 100 10000 1.5 340 22:22 03.09.2019
2539 Rain 21 1010 100 10000 1.5 340 22:22 03.09.2019
2540 Rain 21 1010 100 10000 1.5 340 21:56 03.09.2019
2541 Rain 21 1010 100 10000 1.5 340 21:56 03.09.2019
2542 Rain 21 1010 100 10000 1.5 340 21:56 03.09.2019
2543 Rain 21 1010 100 10000 1 0 21:37 03.09.2019
2544 Rain 21 1009 100 5000 3.1 270 21:19 03.09.2019
2545 Rain 22 1008 94 1500 4.1 200 20:43 03.09.2019
2546 Rain 22 1008 94 1500 4.1 200 20:43 03.09.2019
2547 Rain 22 1008 94 1500 4.1 200 20:24 03.09.2019
2548 Rain 22 1008 94 1500 4.1 200 19:57 03.09.2019
2549 Rain 23 1006 100 10000 3.1 20 19:38 03.09.2019
2550 Rain 23 1006 100 10000 3.1 20 19:19 03.09.2019
2551 Rain 24 1006 94 10000 5.7 40 18:56 03.09.2019
2552 Rain 24 1006 94 10000 5.7 40 18:38 03.09.2019
2553 Rain 24 1006 94 10000 5.7 40 18:18 03.09.2019
2554 Rain 24 1006 94 10000 4.1 40 17:41 03.09.2019
2555 Clouds 24 1007 100 10000 2.6 30 17:20 03.09.2019
2556 Clouds 24 1007 100 10000 2.6 30 16:59 03.09.2019
2557 Clouds 24 1007 100 10000 2.6 30 16:39 03.09.2019
2558 Clouds 24 1008 100 10000 5.1 70 16:20 03.09.2019
2559 Clouds 24 1008 100 10000 5.1 70 15:41 03.09.2019
2560 Clouds 24 1008 100 10000 5.1 70 15:21 03.09.2019
2561 Rain 20 1009 98 0 2.05 40.361 14:58 03.09.2019
2562 Rain 20 1009 98 0 2.05 40.361 14:40 03.09.2019
2563 Clouds 25 1010 88 10000 4.1 50 14:20 03.09.2019
2564 Clouds 25 1010 88 10000 4.1 50 13:57 03.09.2019
2565 Clouds 25 1010 88 10000 4.1 50 13:37 03.09.2019
2566 Clouds 25 1010 88 10000 4.1 50 13:37 03.09.2019
2567 Clouds 25 1010 88 10000 3.1 50 13:19 03.09.2019
2568 Clouds 25 1010 88 10000 3.1 50 13:19 03.09.2019
2569 Clouds 25 1010 88 10000 3.1 50 12:55 03.09.2019
2570 Clouds 25 1010 88 10000 3.1 50 12:55 03.09.2019
2571 Clouds 25 1010 88 10000 3.1 50 12:37 03.09.2019
2572 Clouds 25 1010 88 10000 3.6 60 12:19 03.09.2019
2573 Clouds 25 1010 88 10000 3.6 60 11:39 03.09.2019
2574 Clouds 25 1010 88 10000 3.6 60 11:39 03.09.2019
2575 Clouds 25 1010 88 10000 3.6 60 11:21 03.09.2019
2576 Clouds 25 1010 83 10000 3.6 50 10:56 03.09.2019
2577 Clouds 25 1010 83 10000 3.6 50 10:38 03.09.2019
2578 Clouds 26 1010 78 10000 4.1 50 10:19 03.09.2019
2579 Clouds 26 1010 78 10000 4.1 50 09:43 03.09.2019
2580 Clouds 26 1010 78 10000 4.1 50 09:25 03.09.2019
2581 Rain 21 1009 96 0 1.29 66.33 08:44 03.09.2019
2582 Clouds 26 1009 78 10000 5.1 80 08:26 03.09.2019
2583 Clouds 26 1009 78 10000 5.1 80 07:58 03.09.2019
2584 Clouds 26 1009 78 10000 5.1 80 07:39 03.09.2019
2585 Clouds 28 1009 74 10000 6.2 50 07:21 03.09.2019
2586 Clouds 28 1009 74 10000 6.2 50 06:43 03.09.2019
2587 Clouds 27 1009 74 10000 7.2 70 05:36 03.09.2019
2588 Clouds 27 1010 74 10000 7.7 60 03:34 03.09.2019
2589 Clouds 26 1011 65 0 2.28 51.372 02:43 03.09.2019
2590 Clouds 27 1012 74 10000 6.7 70 02:23 03.09.2019
2591 Clouds 27 1012 74 10000 6.7 70 01:47 03.09.2019
2592 Clouds 27 1012 74 10000 6.7 70 01:27 03.09.2019
2593 Clouds 27 1012 74 10000 6.7 80 00:37 03.09.2019
2594 Clouds 26 1013 74 10000 6.2 60 23:59 02.09.2019
2595 Clouds 26 1013 74 10000 6.2 60 23:39 02.09.2019
2596 Clouds 26 1013 78 10000 3.6 70 23:19 02.09.2019
2597 Clouds 26 1013 78 10000 3.6 70 23:19 02.09.2019
2598 Clouds 26 1013 78 10000 3.6 70 22:56 02.09.2019
2599 Clouds 26 1013 78 10000 3.6 70 22:56 02.09.2019
2600 Clouds 26 1013 78 10000 3.6 70 22:37 02.09.2019
2601 Clouds 24 1013 83 10000 1 70 22:19 02.09.2019
2602 Clouds 24 1013 83 10000 1 70 21:56 02.09.2019
2603 Clouds 24 1013 83 10000 1 70 21:37 02.09.2019
2604 Clouds 18 1011 95 0 1.72 38.155 21:19 02.09.2019
2605 Clouds 18 1011 95 0 1.72 38.155 20:42 02.09.2019
2606 Clouds 24 1012 83 10000 2.6 90 20:23 02.09.2019
2607 Clouds 24 1012 83 10000 2.6 90 19:59 02.09.2019
2608 Clouds 24 1012 83 10000 2.6 90 19:41 02.09.2019
2609 Clouds 24 1012 83 10000 2.6 90 19:41 02.09.2019
2610 Clouds 24 1012 78 10000 3.1 90 19:23 02.09.2019
2611 Clouds 24 1012 78 10000 3.1 90 18:57 02.09.2019
2612 Clouds 24 1012 78 10000 3.1 90 18:37 02.09.2019
2613 Clouds 24 1013 78 10000 3.6 80 18:19 02.09.2019
2614 Clouds 24 1013 78 10000 3.6 80 17:54 02.09.2019
2615 Clouds 24 1013 78 10000 3.6 80 17:54 02.09.2019
2616 Clouds 24 1013 78 10000 3.6 80 17:36 02.09.2019
2617 Clouds 24 1013 78 10000 3.6 70 17:18 02.09.2019
2618 Clouds 24 1013 78 10000 3.6 70 17:18 02.09.2019
2619 Clouds 24 1013 78 10000 3.6 70 16:40 02.09.2019
2620 Clouds 24 1014 78 10000 3.1 70 16:20 02.09.2019
2621 Clouds 24 1014 78 10000 3.1 70 15:52 02.09.2019
2622 Clouds 24 1014 78 10000 3.1 70 15:31 02.09.2019
2623 Clouds 18 1013 94 0 2.49 55.673 14:59 02.09.2019
2624 Clouds 18 1013 94 0 2.49 55.673 14:40 02.09.2019
2625 Clouds 24 1014 78 10000 2.6 80 14:22 02.09.2019
2626 Clouds 24 1014 78 10000 2.6 80 13:59 02.09.2019
2627 Clouds 24 1014 78 10000 2.6 80 13:40 02.09.2019
2628 Clouds 24 1014 83 10000 4.1 80 13:22 02.09.2019
2629 Clouds 24 1014 83 10000 4.1 80 12:45 02.09.2019
2630 Clouds 24 1014 83 10000 4.1 80 12:26 02.09.2019
2631 Clouds 24 1015 78 10000 5.1 90 11:59 02.09.2019
2632 Clouds 24 1015 78 10000 5.1 90 11:59 02.09.2019
2633 Clouds 24 1015 78 10000 5.1 90 11:39 02.09.2019
2634 Clouds 24 1015 78 10000 5.1 90 11:21 02.09.2019
2635 Clouds 24 1015 78 10000 2.6 100 10:57 02.09.2019
2636 Clouds 24 1015 78 10000 2.6 100 10:38 02.09.2019
2637 Clouds 25 1014 78 10000 3.6 90 10:20 02.09.2019
2638 Clouds 25 1014 78 10000 3.6 90 09:55 02.09.2019
2639 Clouds 25 1014 78 10000 3.6 90 09:37 02.09.2019
2640 Rain 19 1013 93 0 1.94 74.055 09:18 02.09.2019
2641 Rain 19 1013 93 0 1.94 74.055 08:39 02.09.2019
2642 Clouds 26 1013 74 10000 5.1 90 08:18 02.09.2019
2643 Clouds 26 1013 74 10000 5.1 90 07:41 02.09.2019
2644 Clouds 26 1013 78 10000 5.1 90 07:21 02.09.2019
2645 Clouds 26 1013 78 10000 5.1 90 06:45 02.09.2019
2646 Clouds 26 1013 78 10000 5.1 90 06:25 02.09.2019
2647 Clouds 26 1013 74 10000 5.1 90 05:48 02.09.2019
2648 Clouds 27 1014 69 10000 5.1 80 05:18 02.09.2019
2649 Clouds 27 1015 69 10000 4.1 90 04:20 02.09.2019
2650 Clouds 26 1016 69 10000 5.1 90 01:46 02.09.2019
2651 Clouds 27 1017 61 10000 4.6 80 00:49 02.09.2019
2652 Clouds 27 1017 61 10000 4.6 80 00:30 02.09.2019
2653 Clouds 26 1017 65 10000 4.6 90 23:45 01.09.2019
2654 Clouds 26 1017 65 10000 4.6 90 23:23 01.09.2019
2655 Clouds 26 1015 69 10000 5.7 80 22:59 01.09.2019
2656 Clouds 26 1015 69 10000 5.7 80 22:40 01.09.2019
2657 Clouds 24 1016 78 10000 3.6 100 22:19 01.09.2019
2658 Clouds 24 1016 78 10000 3.6 100 21:57 01.09.2019
2659 Clouds 24 1016 78 10000 3.6 100 21:38 01.09.2019
2660 Clouds 24 1016 78 10000 2.6 100 21:20 01.09.2019
2661 Clouds 24 1016 78 10000 2.6 100 20:56 01.09.2019
2662 Clouds 24 1016 78 10000 2.6 100 20:38 01.09.2019
2663 Clouds 24 1016 78 10000 2.6 100 20:18 01.09.2019
2664 Clouds 24 1016 78 10000 2.6 100 20:18 01.09.2019
2665 Clouds 24 1016 73 10000 4.1 90 19:56 01.09.2019
2666 Clouds 24 1016 73 10000 4.1 90 19:37 01.09.2019
2667 Clouds 24 1016 73 10000 3.6 100 19:18 01.09.2019
2668 Clouds 24 1016 73 10000 3.6 100 18:42 01.09.2019
2669 Clouds 24 1016 78 10000 4.1 100 18:24 01.09.2019
2670 Clouds 24 1016 78 10000 4.1 100 17:55 01.09.2019
2671 Clouds 24 1016 78 10000 4.1 100 17:37 01.09.2019
2672 Clouds 24 1016 78 10000 4.1 100 17:18 01.09.2019
2673 Clouds 24 1016 78 10000 4.1 100 16:39 01.09.2019
2674 Clouds 24 1017 78 10000 3.6 100 16:18 01.09.2019
2675 Clouds 24 1017 78 10000 3.6 100 15:47 01.09.2019
2676 Clouds 24 1017 78 10000 3.6 100 15:29 01.09.2019
2677 Rain 18 1017 98 0 1.97 70.938 14:56 01.09.2019
2678 Rain 18 1017 98 0 1.97 70.938 14:37 01.09.2019
2679 Clouds 24 1018 78 10000 4.6 100 14:19 01.09.2019
2680 Clouds 24 1018 78 10000 4.6 100 13:42 01.09.2019
2681 Clouds 24 1018 78 10000 4.6 100 13:24 01.09.2019
2682 Clouds 24 1018 78 10000 4.6 100 12:56 01.09.2019
2683 Clouds 24 1018 78 10000 4.6 100 12:37 01.09.2019
2684 Clouds 24 1018 78 10000 4.1 100 12:19 01.09.2019
2685 Clouds 24 1018 78 10000 4.1 100 11:40 01.09.2019
2686 Clouds 24 1017 78 10000 4.1 100 11:20 01.09.2019
2687 Clouds 24 1017 78 10000 4.1 100 10:57 01.09.2019
2688 Clouds 24 1017 78 10000 4.1 100 10:57 01.09.2019
2689 Clouds 24 1017 78 10000 4.1 100 10:38 01.09.2019
2690 Clouds 24 1017 78 10000 4.1 100 10:20 01.09.2019
2691 Clouds 24 1017 78 10000 5.7 110 09:42 01.09.2019
2692 Clouds 24 1017 78 10000 5.7 110 09:23 01.09.2019
2693 Rain 19 1015 96 0 1.81 81.073 08:43 01.09.2019
2694 Clouds 25 1016 78 10000 6.2 120 08:22 01.09.2019
2695 Clouds 25 1016 78 10000 6.2 120 07:48 01.09.2019
2696 Clouds 25 1016 78 10000 6.2 120 07:23 01.09.2019
2697 Rain 25 1015 78 10000 6.2 110 06:41 01.09.2019
2698 Clouds 25 1015 73 10000 6.7 110 06:18 01.09.2019
2699 Clouds 25 1015 73 10000 6.7 110 05:38 01.09.2019
2700 Clouds 26 1016 74 10000 5.7 110 04:22 01.09.2019
2701 Clouds 26 1016 74 10000 7.7 110 03:38 01.09.2019
2702 Rain 21 1016 91 0 1.98 85.859 02:52 01.09.2019
2703 Clouds 26 1017 74 10000 8.2 110 02:25 01.09.2019
2704 Clouds 26 1017 74 10000 8.2 110 02:25 01.09.2019
2705 Clouds 26 1017 74 10000 8.2 110 01:40 01.09.2019
2706 Clouds 26 1018 69 10000 6.7 110 01:21 01.09.2019
2707 Clouds 26 1018 69 10000 6.7 110 00:42 01.09.2019
2708 Clouds 25 1018 78 10000 6.2 110 00:21 01.09.2019
2709 Clouds 25 1018 78 10000 6.2 110 23:47 31.08.2019
2710 Clouds 25 1017 78 10000 4.6 120 23:21 31.08.2019
2711 Clouds 25 1017 78 10000 4.6 120 23:21 31.08.2019
2712 Clouds 25 1017 78 10000 4.6 120 22:56 31.08.2019
2713 Clouds 25 1017 78 10000 4.6 120 22:37 31.08.2019
2714 Clouds 24 1016 78 10000 6.7 110 22:19 31.08.2019
2715 Clouds 24 1016 78 10000 6.7 110 21:45 31.08.2019
2716 Clouds 24 1016 78 10000 6.7 110 21:23 31.08.2019
2717 Rain 18 1015 99 0 1.65 77.475 20:59 31.08.2019
2718 Rain 18 1015 99 0 1.65 77.475 20:41 31.08.2019
2719 Rain 18 1015 99 0 1.65 77.475 20:41 31.08.2019
2720 Clouds 24 1015 83 10000 4.1 120 20:23 31.08.2019
2721 Clouds 24 1015 83 10000 4.1 120 20:23 31.08.2019
2722 Clouds 24 1015 83 10000 4.1 120 19:43 31.08.2019
2723 Clouds 24 1015 83 10000 4.1 120 19:22 31.08.2019
2724 Clouds 24 1015 78 10000 4.1 110 18:56 31.08.2019
2725 Clouds 24 1015 78 10000 4.1 110 18:37 31.08.2019
2726 Clouds 24 1015 78 10000 4.1 110 18:37 31.08.2019
2727 Clouds 24 1016 78 10000 4.6 110 18:19 31.08.2019
2728 Clouds 24 1016 78 10000 4.6 110 17:55 31.08.2019
2729 Clouds 24 1016 78 10000 4.6 110 17:36 31.08.2019
2730 Clouds 23 1017 83 10000 4.1 110 17:18 31.08.2019
2731 Clouds 23 1017 83 10000 4.1 110 16:54 31.08.2019
2732 Clouds 23 1017 83 10000 4.1 110 16:36 31.08.2019
2733 Clouds 23 1017 83 10000 2.6 110 16:18 31.08.2019
2734 Clouds 23 1017 83 10000 2.6 110 15:41 31.08.2019
2735 Rain 18 1017 98 0 1.74 70.045 15:18 31.08.2019
2736 Rain 18 1017 98 0 1.74 70.045 14:42 31.08.2019
2737 Clouds 23 1018 88 10000 1.5 120 14:24 31.08.2019
2738 Clouds 23 1018 88 10000 1.5 120 13:59 31.08.2019
2739 Clouds 23 1018 88 10000 1.5 120 13:38 31.08.2019
2740 Clouds 23 1018 83 10000 3.1 120 13:19 31.08.2019
2741 Clouds 23 1018 83 10000 3.1 120 12:42 31.08.2019
2742 Clouds 23 1018 88 10000 3.1 130 12:21 31.08.2019
2743 Clouds 23 1018 88 10000 3.1 130 11:59 31.08.2019
2744 Clouds 23 1018 88 10000 3.1 130 11:41 31.08.2019
2745 Clouds 23 1018 88 10000 3.1 130 11:41 31.08.2019
2746 Clouds 23 1018 88 10000 3.1 130 11:23 31.08.2019
2747 Clouds 23 1018 83 10000 3.6 120 10:55 31.08.2019
2748 Clouds 23 1018 83 10000 3.6 120 10:36 31.08.2019
2749 Clouds 24 1017 78 10000 4.1 120 10:18 31.08.2019
2750 Clouds 24 1017 78 10000 4.1 120 09:40 31.08.2019
2751 Clouds 24 1017 78 10000 4.1 120 09:40 31.08.2019
2752 Clouds 24 1017 78 10000 4.1 120 09:21 31.08.2019
2753 Rain 18 1015 90 0 2.24 68.199 08:45 31.08.2019
2754 Clouds 25 1015 73 10000 5.1 120 08:27 31.08.2019
2755 Clouds 25 1015 73 10000 5.1 120 07:43 31.08.2019
2756 Clouds 25 1015 73 10000 5.1 120 07:23 31.08.2019
2757 Clouds 25 1015 69 10000 6.2 110 06:59 31.08.2019
2758 Clouds 25 1015 69 10000 6.2 110 06:26 31.08.2019
2759 Clouds 26 1015 69 10000 6.7 100 05:49 31.08.2019
2760 Clouds 26 1015 69 10000 6.7 100 05:27 31.08.2019
2761 Clouds 25 1015 69 10000 5.1 110 04:28 31.08.2019
2762 Drizzle 25 1016 73 10000 6.2 90 03:42 31.08.2019
2763 Clouds 26 1017 57 10000 5.7 120 02:20 31.08.2019
2764 Clouds 26 1017 57 10000 5.7 120 02:20 31.08.2019
2765 Clouds 26 1017 57 10000 5.7 120 01:42 31.08.2019
2766 Clouds 26 1018 61 10000 4.6 130 01:23 31.08.2019
2767 Clouds 26 1018 61 10000 4.6 130 00:44 31.08.2019
2768 Clouds 26 1018 61 10000 4.6 130 00:44 31.08.2019
2769 Clouds 26 1018 65 10000 4.6 120 00:25 31.08.2019
2770 Clouds 26 1018 65 10000 4.6 120 23:48 30.08.2019
2771 Clouds 25 1017 69 10000 3.1 120 23:19 30.08.2019
2772 Clouds 25 1017 69 10000 3.1 120 23:19 30.08.2019
2773 Clouds 25 1017 69 10000 3.1 120 22:56 30.08.2019
2774 Clouds 25 1017 69 10000 3.1 120 22:37 30.08.2019
2775 Clouds 21 1017 88 10000 2.16 88.778 22:19 30.08.2019
2776 Clouds 21 1017 88 10000 2.16 88.778 21:55 30.08.2019
2777 Clouds 21 1017 88 10000 2.23 92.053 21:36 30.08.2019
2778 Rain 17 1015 99 0 1.44 70.999 21:18 30.08.2019
2779 Rain 17 1015 99 0 1.44 70.999 20:42 30.08.2019
2780 Clouds 23 1015 73 10000 2.1 140 20:22 30.08.2019
2781 Clouds 23 1015 73 10000 2.1 140 19:59 30.08.2019
2782 Clouds 23 1015 73 10000 2.1 140 19:40 30.08.2019
2783 Clouds 23 1015 78 10000 2.6 140 19:21 30.08.2019
2784 Clouds 23 1015 78 10000 2.6 140 18:58 30.08.2019
2785 Clouds 23 1015 78 10000 2.6 140 18:39 30.08.2019
2786 Clouds 23 1015 78 10000 3.1 140 18:18 30.08.2019
2787 Clouds 23 1015 78 10000 3.1 140 17:55 30.08.2019
2788 Clouds 23 1015 78 10000 3.1 140 17:37 30.08.2019
2789 Clouds 23 1016 78 10000 2.6 130 17:18 30.08.2019
2790 Clouds 23 1016 78 10000 2.6 130 16:43 30.08.2019
2791 Clouds 23 1016 78 10000 2.6 130 16:24 30.08.2019
2792 Clouds 24 1017 73 10000 3.1 150 15:45 30.08.2019
2793 Clouds 24 1017 73 10000 3.1 150 15:25 30.08.2019
2794 Rain 18 1015 98 0 1.66 82.437 14:58 30.08.2019
2795 Rain 18 1015 98 0 1.66 82.437 14:40 30.08.2019
2796 Clouds 24 1017 73 10000 2.6 110 14:22 30.08.2019
2797 Clouds 24 1017 73 10000 2.6 110 13:43 30.08.2019
2798 Clouds 24 1017 73 10000 2.6 110 13:23 30.08.2019
2799 Clouds 24 1017 73 10000 3.1 130 12:56 30.08.2019
2800 Clouds 24 1017 73 10000 3.1 130 12:38 30.08.2019
2801 Clouds 24 1017 73 10000 3.1 120 12:20 30.08.2019
2802 Clouds 24 1017 73 10000 3.1 120 11:41 30.08.2019
2803 Clouds 24 1017 73 10000 3.1 120 11:23 30.08.2019
2804 Clouds 24 1016 73 10000 4.1 130 10:40 30.08.2019
2805 Clouds 24 1016 73 10000 4.1 130 10:22 30.08.2019
2806 Clouds 24 1015 73 10000 4.1 120 09:58 30.08.2019
2807 Clouds 24 1015 73 10000 4.1 120 09:39 30.08.2019
2808 Rain 18 1013 98 0 2.25 99.995 09:19 30.08.2019
2809 Rain 18 1013 98 0 2.25 99.995 08:44 30.08.2019
2810 Clouds 25 1013 73 10000 4.6 130 08:25 30.08.2019
2811 Clouds 25 1013 73 10000 4.6 130 07:58 30.08.2019
2812 Clouds 25 1013 73 10000 4.6 130 07:38 30.08.2019
2813 Clouds 25 1013 78 10000 5.1 120 07:20 30.08.2019
2814 Clouds 25 1013 78 10000 5.1 120 06:43 30.08.2019
2815 Clouds 25 1013 78 10000 5.1 120 06:24 30.08.2019
2816 Clouds 25 1013 69 10000 6.7 120 05:43 30.08.2019
2817 Clouds 26 1014 74 10000 6.2 120 03:58 30.08.2019
2818 Clouds 26 1014 74 10000 6.2 120 03:58 30.08.2019
2819 Clouds 26 1014 74 10000 6.2 120 03:37 30.08.2019
2820 Clouds 26 1014 74 10000 6.2 120 03:37 30.08.2019
2821 Rain 21 1014 85 0 2.55 92.627 02:45 30.08.2019
2822 Clouds 26 1015 74 10000 6.7 110 02:22 30.08.2019
2823 Clouds 26 1015 74 10000 6.7 100 00:58 30.08.2019
2824 Clouds 26 1015 74 10000 6.7 100 00:26 30.08.2019
2825 Clouds 25 1015 78 10000 6.7 100 23:56 29.08.2019
2826 Clouds 25 1015 78 10000 6.7 100 23:37 29.08.2019
2827 Clouds 24 1015 83 10000 3.6 110 23:19 29.08.2019
2828 Clouds 24 1015 83 10000 3.6 110 22:42 29.08.2019
2829 Clouds 23 1014 88 10000 3.6 120 22:23 29.08.2019
2830 Clouds 23 1014 88 10000 3.6 120 21:42 29.08.2019
2831 Clouds 23 1014 88 10000 3.6 120 21:22 29.08.2019
2832 Rain 19 1013 99 0 1.36 80.448 20:59 29.08.2019
2833 Rain 19 1013 99 0 1.36 80.448 20:41 29.08.2019
2834 Rain 19 1013 99 0 1.36 80.448 20:20 29.08.2019
2835 Rain 19 1013 99 0 1.36 80.448 19:57 29.08.2019
2836 Rain 19 1013 99 0 1.36 80.448 19:39 29.08.2019
2837 Clouds 22 1013 100 10000 2.6 150 19:21 29.08.2019
2838 Clouds 22 1013 100 10000 2.6 150 18:41 29.08.2019
2839 Clouds 22 1013 100 10000 1.5 120 18:20 29.08.2019
2840 Clouds 22 1013 100 10000 1.5 120 17:56 29.08.2019
2841 Rain 18 1012 99 0 1.08 72.956 17:37 29.08.2019
2842 Rain 22 1014 100 10000 2.1 140 17:19 29.08.2019
2843 Rain 22 1014 100 10000 2.1 140 16:43 29.08.2019
2844 Rain 23 1014 94 10000 1 0 16:24 29.08.2019
2845 Rain 23 1014 94 10000 1 0 15:58 29.08.2019
2846 Rain 23 1014 94 10000 1 0 15:38 29.08.2019
2847 Rain 19 1013 99 0 1.08 78.545 15:19 29.08.2019
2848 Rain 19 1013 99 0 1.08 78.545 14:49 29.08.2019
2849 Rain 23 1015 94 10000 2.1 290 14:22 29.08.2019
2850 Rain 23 1015 94 10000 2.1 290 13:58 29.08.2019
2851 Rain 23 1015 94 10000 2.1 290 13:39 29.08.2019
2852 Clouds 24 1014 88 10000 3.1 80 13:20 29.08.2019
2853 Clouds 24 1014 88 10000 3.1 80 12:58 29.08.2019
2854 Clouds 24 1014 88 10000 3.1 80 12:39 29.08.2019
2855 Clouds 24 1014 88 10000 3.1 140 12:20 29.08.2019
2856 Clouds 24 1014 88 10000 3.1 140 11:58 29.08.2019
2857 Clouds 24 1014 88 10000 3.1 140 11:37 29.08.2019
2858 Clouds 25 1014 83 10000 3.1 150 11:18 29.08.2019
2859 Clouds 25 1014 83 10000 3.1 150 10:42 29.08.2019
2860 Clouds 25 1014 83 10000 3.1 150 10:24 29.08.2019
2861 Clouds 25 1013 83 10000 3.1 140 09:42 29.08.2019
2862 Clouds 25 1013 83 10000 3.1 140 09:21 29.08.2019
2863 Rain 20 1012 99 0 0.95 132.257 08:59 29.08.2019
2864 Rain 20 1012 99 0 0.95 132.257 08:40 29.08.2019
2865 Clouds 26 1012 78 10000 3.6 140 08:21 29.08.2019
2866 Clouds 26 1012 78 10000 3.6 140 07:48 29.08.2019
2867 Clouds 26 1012 78 10000 3.6 140 07:26 29.08.2019
2868 Clouds 26 1012 78 10000 3.1 150 06:47 29.08.2019
2869 Clouds 26 1012 78 10000 3.1 150 06:28 29.08.2019
2870 Clouds 27 1011 74 10000 3.6 140 05:42 29.08.2019
2871 Clouds 27 1012 74 10000 4.1 140 04:51 29.08.2019
2872 Clouds 27 1012 74 10000 4.1 140 04:29 29.08.2019
2873 Clouds 27 1012 74 10000 4.1 130 03:20 29.08.2019
2874 Clouds 27 1014 74 10000 4.1 120 01:49 29.08.2019
2875 Clouds 27 1014 74 10000 4.1 120 01:30 29.08.2019
2876 Clouds 26 1015 78 10000 3.1 130 00:40 29.08.2019
2877 Clouds 26 1015 78 10000 3.1 120 00:20 29.08.2019
2878 Clouds 26 1015 78 10000 3.1 120 23:43 28.08.2019
2879 Clouds 26 1015 78 10000 3.1 120 23:24 28.08.2019
2880 Clouds 23 1014 94 10000 1.5 310 22:58 28.08.2019
2881 Clouds 23 1014 94 10000 1.5 310 22:39 28.08.2019
2882 Clouds 22 1014 100 10000 1.08 107.745 22:18 28.08.2019
2883 Clouds 22 1014 100 10000 1.08 107.745 22:18 28.08.2019
2884 Clouds 22 1014 100 10000 1.1 118.561 21:57 28.08.2019
2885 Clouds 22 1014 100 10000 1.1 118.561 21:57 28.08.2019
2886 Clouds 22 1014 100 10000 1.1 118.561 21:38 28.08.2019
2887 Clouds 19 1013 99 0 0.4 97.765 21:20 28.08.2019
2888 Clouds 19 1013 99 0 0.4 97.765 20:41 28.08.2019
2889 Clouds 22 1013 100 10000 0.4 97.765 20:22 28.08.2019
2890 Clouds 22 1013 100 10000 0.4 97.765 19:55 28.08.2019
2891 Clouds 22 1013 100 10000 0.4 97.765 19:37 28.08.2019
2892 Clouds 23 1012 94 10000 0.4 97.765 19:18 28.08.2019
2893 Clouds 23 1012 94 10000 0.4 97.765 18:42 28.08.2019
2894 Clouds 23 1013 94 10000 0.58 66.286 18:21 28.08.2019
2895 Clouds 23 1013 94 10000 0.58 66.286 17:40 28.08.2019
2896 Clouds 23 1013 94 10000 0.58 66.286 17:21 28.08.2019
2897 Clouds 23 1014 94 10000 0.58 66.286 16:59 28.08.2019
2898 Clouds 23 1014 94 10000 0.58 66.286 16:41 28.08.2019
2899 Clouds 23 1014 94 10000 0.58 66.286 16:18 28.08.2019
2900 Clouds 23 1014 94 10000 0.58 66.286 15:39 28.08.2019
2901 Clouds 23 1014 94 10000 0.58 66.286 15:39 28.08.2019
2902 Rain 19 1014 99 0 0.92 70.636 15:20 28.08.2019
2903 Rain 19 1014 99 0 0.92 70.636 14:58 28.08.2019
2904 Rain 19 1014 99 0 0.92 70.636 14:40 28.08.2019
2905 Clouds 23 1015 94 10000 0.92 70.636 14:21 28.08.2019
2906 Clouds 23 1015 94 10000 0.92 70.636 13:59 28.08.2019
2907 Clouds 23 1015 94 10000 0.92 70.636 13:39 28.08.2019
2908 Clouds 23 1015 94 10000 1 240 13:20 28.08.2019
2909 Clouds 23 1015 94 10000 1 240 12:44 28.08.2019
2910 Clouds 23 1015 94 10000 1 240 12:25 28.08.2019
2911 Clouds 23 1015 94 10000 1 240 11:59 28.08.2019
2912 Clouds 23 1015 88 10000 1 0 11:40 28.08.2019
2913 Clouds 23 1015 88 10000 1 0 11:21 28.08.2019
2914 Clouds 24 1015 83 10000 2.6 100 10:56 28.08.2019
2915 Clouds 24 1015 83 10000 2.6 100 10:37 28.08.2019
2916 Clouds 25 1014 83 10000 2.1 130 10:19 28.08.2019
2917 Clouds 25 1014 83 10000 2.1 130 09:42 28.08.2019
2918 Clouds 25 1014 83 10000 2.1 130 09:21 28.08.2019
2919 Clouds 25 1015 78 10000 3.1 120 08:56 28.08.2019
2920 Clouds 25 1015 78 10000 3.1 120 08:37 28.08.2019
2921 Clouds 26 1013 78 10000 3.1 140 08:18 28.08.2019
2922 Clouds 26 1013 78 10000 3.1 140 07:38 28.08.2019
2923 Clouds 26 1013 78 10000 3.1 140 07:19 28.08.2019
2924 Clouds 27 1013 69 10000 3.6 130 06:49 28.08.2019
2925 Clouds 27 1013 69 10000 3.6 130 05:59 28.08.2019
2926 Clouds 28 1013 65 10000 4.1 120 04:41 28.08.2019
2927 Clouds 28 1015 65 10000 3.1 130 01:58 28.08.2019
2928 Clouds 28 1015 65 10000 3.1 130 01:30 28.08.2019
2929 Clouds 27 1016 69 10000 2.6 130 00:50 28.08.2019
2930 Clouds 27 1016 69 10000 2.6 130 00:32 28.08.2019
2931 Clouds 25 1016 83 10000 1 0 23:45 27.08.2019
2932 Clouds 25 1016 83 10000 1 0 23:22 27.08.2019
2933 Clouds 22 1015 94 10000 1.5 290 22:59 27.08.2019
2934 Clouds 22 1015 94 10000 1.5 290 22:41 27.08.2019
2935 Clouds 22 1015 94 10000 1.5 290 22:21 27.08.2019
2936 Clouds 21 1015 94 10000 1 330 21:56 27.08.2019
2937 Clouds 21 1015 94 10000 1 330 21:38 27.08.2019
2938 Clouds 17 1014 98 0 0.71 60.977 21:18 27.08.2019
2939 Clouds 17 1014 98 0 0.71 60.977 20:55 27.08.2019
2940 Clouds 17 1014 98 0 0.71 60.977 20:37 27.08.2019
2941 Clouds 20 1014 100 10000 0.71 60.977 20:18 27.08.2019
2942 Clouds 20 1014 100 10000 0.71 60.977 19:42 27.08.2019
2943 Clouds 20 1014 100 10000 0.71 60.977 19:24 27.08.2019
2944 Clouds 21 1014 94 10000 1.5 310 18:55 27.08.2019
2945 Clouds 21 1014 94 10000 1.5 310 18:36 27.08.2019
2946 Clouds 21 1014 94 10000 0.93 57.798 18:18 27.08.2019
2947 Clouds 21 1014 94 10000 0.93 57.798 17:43 27.08.2019
2948 Clouds 21 1014 94 10000 0.93 57.798 17:23 27.08.2019
2949 Clouds 20 1014 100 10000 0.93 57.798 16:49 27.08.2019
2950 Clouds 20 1014 100 10000 0.93 57.798 16:28 27.08.2019
2951 Clouds 17 1014 98 0 0.93 57.798 15:58 27.08.2019
2952 Clouds 17 1014 98 0 0.93 57.798 15:40 27.08.2019
2953 Clouds 17 1015 98 0 0.98 63.173 15:22 27.08.2019
2954 Clouds 17 1015 98 0 0.98 63.173 14:58 27.08.2019
2955 Clouds 17 1015 98 0 0.98 63.173 14:40 27.08.2019
2956 Clouds 20 1016 100 10000 1.5 330 14:20 27.08.2019
2957 Clouds 20 1016 100 10000 1.5 330 14:20 27.08.2019
2958 Clouds 20 1016 100 10000 1.5 330 13:42 27.08.2019
2959 Clouds 20 1016 100 10000 1.5 330 13:23 27.08.2019
2960 Clouds 20 1016 100 10000 1.5 330 13:23 27.08.2019
2961 Clouds 21 1016 94 10000 1 290 12:55 27.08.2019
2962 Clouds 21 1016 94 10000 1 290 12:55 27.08.2019
2963 Clouds 21 1016 94 10000 1 290 12:36 27.08.2019
2964 Clouds 22 1016 88 10000 1.23 66.28 12:18 27.08.2019
2965 Clouds 22 1016 88 10000 1.23 66.28 11:43 27.08.2019
2966 Clouds 22 1016 88 10000 1.23 66.28 11:23 27.08.2019
2967 Clouds 22 1016 88 10000 1.23 66.28 10:42 27.08.2019
2968 Clouds 22 1016 88 10000 1.23 66.28 10:42 27.08.2019
2969 Clouds 22 1016 88 10000 1.23 66.28 10:20 27.08.2019
2970 Clouds 23 1015 83 10000 1.5 160 09:58 27.08.2019
2971 Clouds 23 1015 83 10000 1.5 160 09:38 27.08.2019
2972 Clouds 19 1013 93 0 1.27 98.412 09:20 27.08.2019
2973 Clouds 19 1013 93 0 1.27 98.412 08:46 27.08.2019
2974 Clouds 25 1014 69 10000 3.6 110 08:27 27.08.2019
2975 Clouds 25 1014 69 10000 3.6 110 07:59 27.08.2019
2976 Clouds 25 1014 69 10000 3.6 110 07:37 27.08.2019
2977 Clouds 25 1014 69 10000 3.6 110 07:37 27.08.2019
2978 Clouds 26 1014 65 10000 3.1 90 07:19 27.08.2019
2979 Clouds 26 1014 65 10000 3.1 90 06:50 27.08.2019
2980 Clouds 26 1014 61 10000 3.6 110 06:20 27.08.2019
2981 Clouds 26 1014 61 10000 3.6 110 05:29 27.08.2019
2982 Clouds 26 1015 61 10000 4.6 90 04:20 27.08.2019
2983 Clouds 26 1015 61 10000 4.6 90 03:31 27.08.2019
2984 Clouds 26 1016 57 10000 5.1 100 01:55 27.08.2019
2985 Clouds 26 1016 57 10000 5.1 100 01:30 27.08.2019
2986 Clouds 26 1017 61 10000 6.7 100 00:50 27.08.2019
2987 Clouds 26 1017 61 10000 6.7 100 00:29 27.08.2019
2988 Clouds 25 1017 65 10000 5.7 110 23:46 26.08.2019
2989 Clouds 25 1017 65 10000 5.7 110 23:26 26.08.2019
2990 Clouds 24 1017 69 10000 4.6 110 22:59 26.08.2019
2991 Clouds 24 1017 69 10000 4.6 110 22:37 26.08.2019
2992 Clouds 23 1016 69 10000 2.6 110 22:19 26.08.2019
2993 Clouds 23 1016 69 10000 2.6 110 21:40 26.08.2019
2994 Clear 15 1015 95 0 1.39 66.726 21:22 26.08.2019
2995 Clear 15 1015 95 0 1.39 66.726 20:59 26.08.2019
2996 Clear 15 1015 95 0 1.39 66.726 20:41 26.08.2019
2997 Clouds 23 1015 69 10000 2.6 120 20:20 26.08.2019
2998 Clouds 23 1015 69 10000 2.6 120 19:58 26.08.2019
2999 Clouds 23 1015 69 10000 2.6 120 19:58 26.08.2019
3000 Clouds 23 1015 69 10000 2.6 120 19:40 26.08.2019
3001 Clouds 23 1015 69 10000 2.6 120 19:19 26.08.2019
3002 Clear 15 1015 95 0 1.39 66.726 18:40 26.08.2019
3003 Clouds 23 1015 69 10000 4.6 100 18:21 26.08.2019
3004 Clouds 23 1015 69 10000 4.6 100 18:21 26.08.2019
3005 Clouds 23 1015 69 10000 4.6 100 17:59 26.08.2019
3006 Clear 15 1014 92 0 1.29 70.806 17:41 26.08.2019
3007 Clouds 23 1015 73 10000 4.1 110 17:19 26.08.2019
3008 Clouds 23 1015 73 10000 4.1 110 16:56 26.08.2019
3009 Clouds 23 1015 73 10000 4.1 110 16:56 26.08.2019
3010 Clear 15 1014 92 0 1.29 70.806 16:38 26.08.2019
3011 Clouds 23 1015 73 10000 4.6 110 16:18 26.08.2019
3012 Clear 15 1014 92 0 1.29 70.806 15:42 26.08.2019
3013 Clear 15 1015 91 0 1.5 71.444 15:22 26.08.2019
3014 Clear 15 1015 91 0 1.5 71.444 14:56 26.08.2019
3015 Clouds 23 1016 73 10000 4.6 110 14:37 26.08.2019
3016 Clouds 23 1016 73 10000 4.6 110 14:18 26.08.2019
3017 Clouds 23 1016 73 10000 4.6 110 13:41 26.08.2019
3018 Clouds 24 1016 64 10000 3.1 100 13:21 26.08.2019
3019 Clouds 24 1016 64 10000 3.1 100 12:45 26.08.2019
3020 Clouds 24 1017 64 10000 2.6 100 12:27 26.08.2019
3021 Clouds 24 1017 64 10000 2.6 100 11:56 26.08.2019
3022 Clouds 24 1016 64 10000 3.1 110 11:37 26.08.2019
3023 Clouds 24 1016 64 10000 3.1 110 11:18 26.08.2019
3024 Clouds 24 1016 64 10000 3.1 110 10:44 26.08.2019
3025 Clouds 24 1016 64 10000 3.1 110 10:44 26.08.2019
3026 Clouds 23 1016 69 10000 2.6 120 10:24 26.08.2019
3027 Clouds 23 1016 69 10000 2.6 120 09:59 26.08.2019
3028 Clear 15 1016 91 0 1.68 67.102 09:39 26.08.2019
3029 Clouds 16 1014 86 0 1.6 89.036 09:21 26.08.2019
3030 Clouds 16 1014 86 0 1.6 89.036 08:55 26.08.2019
3031 Clouds 16 1014 86 0 1.6 89.036 08:36 26.08.2019
3032 Clouds 24 1015 64 10000 4.6 120 08:18 26.08.2019
3033 Clouds 16 1014 86 0 1.6 89.036 07:41 26.08.2019
3034 Clouds 16 1014 86 0 1.6 89.036 07:41 26.08.2019
3035 Clouds 24 1015 64 10000 5.1 120 07:22 26.08.2019
3036 Clouds 16 1014 86 0 1.6 89.036 06:45 26.08.2019
3037 Clouds 25 1015 61 10000 5.1 120 06:24 26.08.2019
3038 Clouds 25 1015 61 10000 5.1 120 05:49 26.08.2019
3039 Clouds 25 1015 57 10000 5.1 120 04:28 26.08.2019
3040 Clouds 25 1016 53 10000 5.7 100 02:55 26.08.2019
3041 Clouds 25 1017 53 10000 6.2 100 01:39 26.08.2019
3042 Clouds 25 1017 53 10000 6.2 100 01:18 26.08.2019
3043 Clouds 25 1018 53 10000 4.1 110 00:29 26.08.2019
3044 Clouds 25 1018 53 10000 4.1 110 23:59 25.08.2019
3045 Clouds 18 1018 73 0 2.54 91.194 23:40 25.08.2019
3046 Clouds 22 1018 64 10000 2.1 90 23:18 25.08.2019
3047 Clouds 22 1018 64 10000 2.1 90 23:18 25.08.2019
3048 Clouds 22 1018 64 10000 2.1 90 22:56 25.08.2019
3049 Clouds 18 1018 73 0 2.54 91.194 22:37 25.08.2019
3050 Clouds 22 1017 56 10000 3.6 130 22:18 25.08.2019
3051 Clouds 22 1017 56 10000 3.6 130 21:55 25.08.2019
3052 Clouds 18 1018 71 0 2.29 89.45 21:37 25.08.2019
3053 Clouds 14 1016 94 0 1.51 79.404 21:18 25.08.2019
3054 Clouds 14 1016 94 0 1.51 79.404 20:39 25.08.2019
3055 Clouds 21 1016 68 10000 2.1 150 20:19 25.08.2019
3056 Clouds 21 1016 68 10000 2.1 150 19:56 25.08.2019
3057 Clouds 14 1016 94 0 1.51 79.404 19:37 25.08.2019
3058 Clouds 20 1016 64 10000 1.5 150 19:18 25.08.2019
3059 Clouds 20 1016 64 10000 1.5 150 18:55 25.08.2019
3060 Clouds 20 1016 64 10000 1.5 150 18:37 25.08.2019
3061 Clouds 20 1016 64 10000 1.5 150 18:18 25.08.2019
3062 Clouds 14 1015 93 0 1.34 80.952 17:40 25.08.2019
3063 Clouds 22 1017 64 10000 3.1 150 17:22 25.08.2019
3064 Clouds 22 1017 64 10000 3.1 150 16:45 25.08.2019
3065 Clouds 21 1017 64 10000 2.1 170 16:24 25.08.2019
3066 Clouds 21 1017 64 10000 2.1 170 15:58 25.08.2019
3067 Clouds 14 1015 93 0 1.34 80.952 15:39 25.08.2019
3068 Clouds 14 1016 92 0 1.36 95.05 15:21 25.08.2019
3069 Clouds 14 1016 92 0 1.36 95.05 14:41 25.08.2019
3070 Clouds 22 1018 64 10000 1.5 130 14:23 25.08.2019
3071 Clouds 22 1018 64 10000 1.5 130 13:46 25.08.2019
3072 Clouds 22 1018 64 10000 2.1 150 13:22 25.08.2019
3073 Clouds 22 1018 64 10000 2.1 150 12:57 25.08.2019
3074 Clouds 14 1016 91 0 1.39 93.499 12:39 25.08.2019
3075 Clouds 22 1018 64 10000 2.6 160 12:20 25.08.2019
3076 Clouds 22 1018 64 10000 2.6 160 11:57 25.08.2019
3077 Clouds 15 1017 89 0 1.29 109.979 11:37 25.08.2019
3078 Clouds 22 1017 64 10000 2.1 140 11:18 25.08.2019
3079 Clouds 22 1017 64 10000 2.1 140 11:18 25.08.2019
3080 Clouds 22 1017 64 10000 2.1 140 10:55 25.08.2019
3081 Clouds 15 1017 89 0 1.29 109.979 10:36 25.08.2019
3082 Clouds 22 1017 64 10000 2.6 150 10:18 25.08.2019
3083 Clouds 22 1017 64 10000 2.6 150 09:42 25.08.2019
3084 Clouds 16 1014 87 0 1.48 127.453 09:23 25.08.2019
3085 Clouds 16 1014 87 0 1.48 127.453 08:44 25.08.2019
3086 Clouds 23 1015 64 10000 3.1 160 08:23 25.08.2019
3087 Clouds 23 1015 64 10000 3.1 160 07:47 25.08.2019
3088 Clouds 24 1015 60 10000 3.6 160 07:27 25.08.2019
3089 Clouds 16 1014 87 0 1.48 127.453 06:37 25.08.2019
3090 Clouds 24 1015 60 10000 4.1 160 05:27 25.08.2019
3091 Clouds 25 1015 53 10000 4.6 170 03:43 25.08.2019
3092 Clouds 25 1016 53 10000 4.1 180 02:41 25.08.2019
3093 Clouds 21 1015 68 0 2.04 139.472 01:42 25.08.2019
3094 Clouds 20 1015 69 0 2.1 136.624 00:41 25.08.2019
3095 Clouds 23 1017 64 10000 2.6 180 00:21 25.08.2019
3096 Clouds 23 1017 64 10000 2.6 180 23:53 24.08.2019
3097 Clouds 22 1017 68 10000 3.1 180 23:24 24.08.2019
3098 Clouds 22 1017 68 10000 3.1 180 22:57 24.08.2019
3099 Clouds 17 1016 84 0 1.66 140.491 22:39 24.08.2019
3100 Clouds 22 1016 64 10000 3.1 180 22:19 24.08.2019
3101 Clouds 22 1016 64 10000 3.1 180 21:56 24.08.2019
3102 Clouds 17 1016 84 0 1.66 140.491 21:38 24.08.2019
3103 Clouds 15 1015 96 0 1.28 149.312 21:20 24.08.2019
3104 Clouds 15 1015 96 0 1.28 149.312 20:56 24.08.2019
3105 Clouds 15 1015 96 0 1.28 149.312 20:37 24.08.2019
3106 Clouds 15 1015 96 0 1.28 149.312 20:18 24.08.2019
3107 Clouds 15 1015 96 0 1.28 149.312 19:57 24.08.2019
3108 Clouds 15 1015 96 0 1.28 149.312 19:57 24.08.2019
3109 Clouds 15 1015 96 0 1.28 149.312 19:37 24.08.2019
3110 Clouds 15 1015 96 0 1.28 149.312 19:37 24.08.2019
3111 Clouds 22 1015 78 10000 2.1 180 19:18 24.08.2019
3112 Clouds 15 1015 96 0 1.28 149.312 18:41 24.08.2019
3113 Clouds 22 1015 78 10000 2.6 190 18:21 24.08.2019
3114 Clouds 22 1015 78 10000 2.6 190 17:45 24.08.2019
3115 Clouds 22 1015 78 10000 2.6 170 17:25 24.08.2019
3116 Clouds 22 1015 78 10000 2.6 170 16:51 24.08.2019
3117 Clouds 22 1015 78 10000 2.6 170 16:51 24.08.2019
3118 Clouds 22 1015 78 10000 3.6 180 16:21 24.08.2019
3119 Clouds 22 1015 78 10000 3.6 180 15:59 24.08.2019
3120 Clouds 22 1015 78 10000 3.6 180 15:41 24.08.2019
3121 Clouds 22 1015 78 10000 3.6 180 15:41 24.08.2019
3122 Clouds 17 1015 96 0 1.41 172.593 15:23 24.08.2019
3123 Clouds 17 1015 96 0 1.41 172.593 14:44 24.08.2019
3124 Clouds 22 1015 78 10000 1.5 210 14:23 24.08.2019
3125 Clouds 22 1015 78 10000 1.5 210 13:59 24.08.2019
3126 Clouds 22 1015 78 10000 1.5 210 13:59 24.08.2019
3127 Clouds 17 1015 96 0 1.41 172.593 13:40 24.08.2019
3128 Clouds 23 1016 78 10000 2.1 190 13:21 24.08.2019
3129 Clouds 23 1016 78 10000 2.1 190 12:58 24.08.2019
3130 Clouds 17 1015 97 0 1.46 171.37 12:39 24.08.2019
3131 Clouds 23 1015 73 10000 2.1 190 12:20 24.08.2019
3132 Clouds 23 1015 73 10000 2.1 190 11:45 24.08.2019
3133 Clouds 23 1015 78 10000 2.1 190 11:22 24.08.2019
3134 Clouds 23 1015 78 10000 2.1 190 10:52 24.08.2019
3135 Clouds 23 1014 78 10000 2.1 190 10:24 24.08.2019
3136 Clouds 23 1014 78 10000 2.1 190 09:45 24.08.2019
3137 Clouds 17 1013 96 0 1.13 193.679 09:23 24.08.2019
3138 Clouds 17 1013 96 0 1.13 193.679 08:59 24.08.2019
3139 Clouds 17 1013 96 0 1.13 193.679 08:40 24.08.2019
3140 Clouds 24 1013 73 10000 3.1 200 08:22 24.08.2019
3141 Clouds 24 1013 73 10000 3.1 200 07:49 24.08.2019
3142 Clouds 24 1013 73 10000 3.1 200 07:27 24.08.2019
3143 Clouds 24 1013 73 10000 3.1 200 07:27 24.08.2019
3144 Clouds 23 1013 94 10000 2.6 220 06:30 24.08.2019
3145 Clouds 23 1013 94 10000 2.6 220 05:42 24.08.2019
3146 Clouds 24 1013 78 10000 4.1 210 04:51 24.08.2019
3147 Rain 19 1013 97 0 1.81 194.044 03:37 24.08.2019
3148 Clouds 24 1015 88 10000 3.6 210 02:27 24.08.2019
3149 Rain 23 1015 94 10000 4.1 210 01:31 24.08.2019
3150 Rain 23 1015 94 10000 4.1 210 00:54 24.08.2019
3151 Rain 23 1015 94 8000 3.6 230 00:26 24.08.2019
3152 Rain 23 1016 94 8000 4.1 220 23:59 23.08.2019
3153 Rain 23 1015 94 8000 4.6 210 23:39 23.08.2019
3154 Rain 23 1015 94 8000 4.6 210 23:19 23.08.2019
3155 Rain 23 1015 94 8000 3.6 220 22:42 23.08.2019
3156 Rain 23 1015 94 5000 3.6 220 22:24 23.08.2019
3157 Rain 23 1014 94 10000 4.6 210 21:40 23.08.2019
3158 Rain 20 1012 99 0 0.73 239.721 21:21 23.08.2019
3159 Rain 20 1012 99 0 0.73 239.721 20:59 23.08.2019
3160 Rain 20 1012 99 0 0.73 239.721 20:40 23.08.2019
3161 Rain 23 1012 94 10000 2.1 220 20:21 23.08.2019
3162 Rain 23 1012 94 10000 2.1 220 19:44 23.08.2019
3163 Clouds 24 1012 94 10000 1.5 210 19:19 23.08.2019
3164 Clouds 24 1012 94 10000 1.5 210 18:48 23.08.2019
3165 Clouds 25 1012 88 10000 1.5 190 18:30 23.08.2019
3166 Clouds 25 1012 88 10000 1.5 190 17:56 23.08.2019
3167 Clouds 20 1012 98 0 1.06 304.578 17:38 23.08.2019
3168 Clouds 24 1013 100 10000 2.6 230 17:20 23.08.2019
3169 Clouds 24 1013 100 10000 2.6 230 16:47 23.08.2019
3170 Clouds 23 1013 100 10000 1.06 304.578 16:29 23.08.2019
3171 Clouds 23 1013 100 10000 1.06 304.578 15:56 23.08.2019
3172 Clouds 20 1012 98 0 1.06 304.578 15:37 23.08.2019
3173 Rain 21 1012 97 0 1.24 323.657 15:19 23.08.2019
3174 Rain 21 1012 97 0 1.24 323.657 14:41 23.08.2019
3175 Clouds 24 1013 100 10000 1.5 280 14:21 23.08.2019
3176 Clouds 24 1013 100 10000 1.5 280 14:21 23.08.2019
3177 Clouds 24 1013 100 10000 1.5 280 13:57 23.08.2019
3178 Rain 21 1012 97 0 1.24 323.657 13:39 23.08.2019
3179 Clouds 24 1013 100 10000 1 350 13:21 23.08.2019
3180 Clouds 24 1013 100 10000 1 350 12:57 23.08.2019
3181 Rain 20 1012 98 0 1.26 318.249 12:39 23.08.2019
3182 Clouds 25 1013 94 10000 1 280 12:20 23.08.2019
3183 Clouds 25 1013 94 10000 1 280 11:56 23.08.2019
3184 Rain 21 1013 98 0 1.43 339.444 11:37 23.08.2019
3185 Clouds 26 1012 88 10000 2.1 40 11:18 23.08.2019
3186 Rain 21 1013 98 0 1.43 339.444 10:43 23.08.2019
3187 Rain 21 1013 98 0 1.43 339.444 10:43 23.08.2019
3188 Clouds 26 1011 88 10000 3.1 40 10:22 23.08.2019
3189 Clouds 26 1011 88 10000 3.1 40 09:57 23.08.2019
3190 Rain 21 1013 98 0 1.21 321.963 09:38 23.08.2019
3191 Clouds 23 1010 89 0 0.63 20.406 09:18 23.08.2019
3192 Clouds 23 1010 89 0 0.63 20.406 08:41 23.08.2019
3193 Clouds 28 1010 83 10000 5.7 70 08:19 23.08.2019
3194 Clouds 28 1010 83 10000 5.7 70 07:43 23.08.2019
3195 Clouds 29 1010 79 10000 5.1 40 07:24 23.08.2019
3196 Clouds 29 1010 79 10000 5.1 40 06:57 23.08.2019
3197 Clouds 23 1010 89 0 0.63 20.406 06:38 23.08.2019
3198 Clouds 30 1010 74 10000 6.2 30 06:20 23.08.2019
3199 Clouds 30 1011 70 10000 5.7 20 05:34 23.08.2019
3200 Clouds 30 1011 70 10000 5.7 20 04:45 23.08.2019
3201 Rain 28 1012 64 0 2.74 11.987 02:58 23.08.2019
3202 Clouds 27 1013 88 10000 5.7 50 02:23 23.08.2019
3203 Rain 28 1012 64 0 2.74 11.987 01:39 23.08.2019
3204 Clouds 26 1014 94 10000 4.1 50 00:45 23.08.2019
3205 Rain 25 1014 94 10000 2.6 60 00:19 23.08.2019
3206 Rain 25 1014 94 10000 2.6 60 00:19 23.08.2019
3207 Rain 25 1014 94 10000 2.6 60 23:47 22.08.2019
3208 Rain 24 1014 100 10000 1 320 23:24 22.08.2019
3209 Rain 24 1014 100 10000 1 320 22:56 22.08.2019
3210 Rain 24 1013 90 0 1.43 29.159 22:38 22.08.2019
3211 Clouds 23 1014 100 10000 1.5 310 22:19 22.08.2019
3212 Clouds 23 1014 100 10000 1.5 310 21:55 22.08.2019
3213 Rain 23 1014 95 0 1.91 40.764 21:36 22.08.2019
3214 Clouds 20 1012 99 0 1.2 37.603 21:18 22.08.2019
3215 Clouds 20 1012 99 0 1.2 37.603 20:54 22.08.2019
3216 Clouds 20 1012 99 0 1.2 37.603 20:54 22.08.2019
3217 Clouds 20 1012 99 0 1.2 37.603 20:36 22.08.2019
3218 Rain 23 1013 100 10000 2.6 340 20:18 22.08.2019
3219 Clouds 20 1012 99 0 1.2 37.603 19:40 22.08.2019
3220 Rain 23 1012 100 10000 1.2 37.603 19:21 22.08.2019
3221 Rain 23 1012 100 10000 1.2 37.603 19:21 22.08.2019
3222 Rain 23 1012 100 10000 1.2 37.603 18:59 22.08.2019
3223 Clouds 20 1012 99 0 1.2 37.603 18:40 22.08.2019
3224 Rain 23 1013 100 10000 1.34 46.695 18:20 22.08.2019
3225 Rain 23 1013 100 10000 1.34 46.695 17:57 22.08.2019
3226 Rain 23 1013 100 10000 1.34 46.695 17:57 22.08.2019
3227 Rain 23 1013 100 10000 1.34 46.695 17:39 22.08.2019
3228 Rain 23 1013 100 10000 2.6 330 17:19 22.08.2019
3229 Rain 23 1013 100 10000 2.6 330 16:56 22.08.2019
3230 Clouds 20 1012 99 0 1.34 46.695 16:37 22.08.2019
3231 Rain 23 1014 100 10000 1.34 46.695 16:19 22.08.2019
3232 Rain 23 1014 100 10000 1.34 46.695 16:19 22.08.2019
3233 Rain 23 1014 100 10000 1.34 46.695 15:42 22.08.2019
3234 Rain 23 1014 100 10000 1.34 46.695 15:42 22.08.2019
3235 Clouds 19 1013 99 0 1.29 55.681 15:23 22.08.2019
3236 Clouds 19 1013 99 0 1.29 55.681 14:58 22.08.2019
3237 Clouds 19 1013 99 0 1.29 55.681 14:58 22.08.2019
3238 Clouds 19 1013 99 0 1.29 55.681 14:58 22.08.2019
3239 Clouds 19 1013 99 0 1.29 55.681 14:40 22.08.2019
3240 Clouds 23 1015 100 10000 1.5 120 14:21 22.08.2019
3241 Clouds 23 1015 100 10000 1.5 120 13:57 22.08.2019
3242 Clouds 19 1013 99 0 1.29 55.681 13:39 22.08.2019
3243 Clouds 23 1015 94 10000 1.5 80 13:19 22.08.2019
3244 Clouds 23 1015 94 10000 1.5 80 12:41 22.08.2019
3245 Clouds 23 1015 94 10000 2.1 110 12:23 22.08.2019
3246 Clouds 23 1015 94 10000 2.1 110 11:58 22.08.2019
3247 Clouds 23 1015 94 10000 2.1 110 11:58 22.08.2019
3248 Clouds 23 1014 94 10000 1.5 110 11:40 22.08.2019
3249 Clouds 23 1014 94 10000 1.5 110 11:20 22.08.2019
3250 Clouds 23 1014 94 10000 1.5 110 11:20 22.08.2019
3251 Clouds 23 1014 94 10000 1.5 110 11:20 22.08.2019
3252 Clouds 23 1014 94 10000 1.5 110 10:58 22.08.2019
3253 Rain 19 1014 97 0 1.91 56.327 10:38 22.08.2019
3254 Rain 23 1014 94 10000 2.6 110 10:19 22.08.2019
3255 Rain 23 1014 94 10000 2.6 110 09:55 22.08.2019
3256 Rain 23 1014 94 10000 2.6 110 09:36 22.08.2019
3257 Rain 23 1014 94 10000 2.6 110 09:18 22.08.2019
3258 Rain 20 1012 96 0 0.96 102.386 08:41 22.08.2019
3259 Clouds 25 1013 73 10000 2.6 110 08:21 22.08.2019
3260 Clouds 25 1013 73 10000 2.6 110 07:56 22.08.2019
3261 Clouds 25 1013 73 10000 2.6 110 07:38 22.08.2019
3262 Clouds 25 1013 73 10000 2.6 110 07:18 22.08.2019
3263 Clouds 25 1013 73 10000 3.1 110 06:45 22.08.2019
3264 Clouds 25 1013 73 10000 3.1 110 06:21 22.08.2019
3265 Clouds 26 1013 69 10000 3.1 90 05:26 22.08.2019
3266 Clouds 25 1013 68 0 1.74 67.911 03:22 22.08.2019
3267 Clouds 25 1013 68 0 1.74 67.911 02:36 22.08.2019
3268 Clouds 25 1015 73 10000 3.6 70 01:36 22.08.2019
3269 Clouds 25 1016 73 10000 3.1 110 00:52 22.08.2019
3270 Clouds 25 1016 73 10000 3.1 110 00:30 22.08.2019
3271 Clouds 24 1016 78 10000 2.07 60.286 23:59 21.08.2019
3272 Clouds 18 1015 89 0 2.07 60.286 23:40 21.08.2019
3273 Clouds 22 1016 83 10000 1 330 23:21 21.08.2019
3274 Clouds 22 1016 83 10000 1 330 22:57 21.08.2019
3275 Clouds 18 1015 89 0 2.07 60.286 22:39 21.08.2019
3276 Clouds 21 1015 94 10000 1 310 22:20 21.08.2019
3277 Clouds 21 1015 94 10000 1 310 21:55 21.08.2019
3278 Clouds 18 1015 91 0 1.34 62.785 21:37 21.08.2019
3279 Clouds 18 1015 91 0 1.34 62.785 21:37 21.08.2019
3280 Clouds 17 1013 95 0 1.09 64.774 21:18 21.08.2019
3281 Clouds 17 1013 95 0 1.09 64.774 21:18 21.08.2019
3282 Clouds 17 1013 95 0 1.09 64.774 20:43 21.08.2019
3283 Clouds 21 1014 94 10000 1.5 300 20:25 21.08.2019
3284 Clouds 21 1014 94 10000 1.5 300 19:58 21.08.2019
3285 Clouds 21 1014 94 10000 1.5 300 19:40 21.08.2019
3286 Clouds 21 1014 94 10000 1.5 300 19:21 21.08.2019
3287 Clouds 21 1014 94 10000 2.1 330 18:56 21.08.2019
3288 Clouds 21 1014 94 10000 2.1 330 18:38 21.08.2019
3289 Clouds 21 1014 94 10000 2.1 330 18:19 21.08.2019
3290 Clouds 17 1013 90 0 0.74 107.313 17:43 21.08.2019
3291 Clouds 17 1013 90 0 0.74 107.313 17:43 21.08.2019
3292 Clouds 21 1014 94 10000 1 300 17:21 21.08.2019
3293 Clouds 21 1014 94 10000 1 300 16:56 21.08.2019
3294 Clouds 17 1013 90 0 0.74 107.313 16:37 21.08.2019
3295 Clouds 17 1013 90 0 0.74 107.313 16:18 21.08.2019
3296 Clouds 17 1013 90 0 0.74 107.313 15:56 21.08.2019
3297 Clouds 17 1013 90 0 0.74 107.313 15:37 21.08.2019
3298 Clouds 17 1013 89 0 0.57 105.465 15:18 21.08.2019
3299 Clouds 17 1013 89 0 0.57 105.465 14:39 21.08.2019
3300 Clouds 17 1013 89 0 0.57 105.465 14:39 21.08.2019
3301 Clouds 22 1015 88 10000 1 0 14:21 21.08.2019
3302 Clouds 22 1015 88 10000 1 0 13:59 21.08.2019
3303 Clouds 22 1015 88 10000 1 0 13:59 21.08.2019
3304 Clouds 22 1015 88 10000 1 0 13:40 21.08.2019
3305 Clouds 23 1015 73 10000 1 180 13:19 21.08.2019
3306 Clouds 23 1015 73 10000 1 180 12:57 21.08.2019
3307 Clouds 17 1013 89 0 0.69 93.979 12:38 21.08.2019
3308 Clouds 23 1014 73 10000 1.5 180 12:19 21.08.2019
3309 Clouds 23 1014 73 10000 1.5 180 11:43 21.08.2019
3310 Clouds 23 1014 69 10000 1 160 11:23 21.08.2019
3311 Clouds 23 1014 69 10000 1 160 10:58 21.08.2019
3312 Clouds 17 1014 92 0 0.61 142.962 10:38 21.08.2019
3313 Clouds 23 1013 73 10000 1.5 190 10:20 21.08.2019
3314 Clouds 23 1013 73 10000 1.5 190 09:57 21.08.2019
3315 Clouds 17 1014 92 0 0.61 142.962 09:39 21.08.2019
3316 Clouds 18 1012 88 0 1.17 188.332 09:20 21.08.2019
3317 Clouds 18 1012 88 0 1.17 188.332 08:48 21.08.2019
3318 Clouds 24 1012 69 10000 2.1 200 08:24 21.08.2019
3319 Clouds 24 1012 69 10000 2.1 200 07:45 21.08.2019
3320 Clouds 25 1012 65 10000 3.6 200 07:25 21.08.2019
3321 Clouds 25 1012 65 10000 3.6 200 06:51 21.08.2019
3322 Clouds 25 1012 61 10000 4.6 200 06:32 21.08.2019
3323 Clouds 25 1012 61 10000 4.6 200 05:57 21.08.2019
3324 Clouds 25 1012 65 10000 4.1 200 05:28 21.08.2019
3325 Clouds 26 1012 65 10000 4.1 200 04:35 21.08.2019
3326 Clouds 25 1013 78 10000 4.1 210 01:56 21.08.2019
3327 Clouds 26 1013 74 10000 3.1 210 01:24 21.08.2019
3328 Clouds 26 1013 74 10000 3.1 210 00:39 21.08.2019
3329 Clouds 26 1013 74 10000 3.1 210 00:20 21.08.2019
3330 Clouds 24 1013 83 10000 2.1 230 23:44 20.08.2019
3331 Clouds 24 1013 83 10000 2.1 230 23:20 20.08.2019
3332 Clouds 23 1013 94 10000 1 0 22:58 20.08.2019
3333 Clouds 18 1013 98 0 1.12 202.038 22:40 20.08.2019
3334 Clouds 22 1012 94 10000 1 200 22:21 20.08.2019
3335 Clouds 22 1012 94 10000 1 200 21:58 20.08.2019
3336 Clouds 18 1013 97 0 1.21 207.882 21:39 20.08.2019
3337 Rain 18 1011 99 0 1.35 208.82 21:19 20.08.2019
3338 Rain 18 1011 99 0 1.35 208.82 20:58 20.08.2019
3339 Rain 18 1011 99 0 1.35 208.82 20:39 20.08.2019
3340 Clouds 22 1011 100 10000 2.1 240 20:21 20.08.2019
3341 Clouds 22 1011 100 10000 2.1 240 19:39 20.08.2019
3342 Clouds 22 1011 100 10000 2.1 240 19:21 20.08.2019
3343 Clouds 22 1011 100 10000 1.5 220 18:56 20.08.2019
3344 Rain 18 1011 99 0 1.35 208.82 18:38 20.08.2019
3345 Clouds 22 1011 94 10000 3.1 230 18:19 20.08.2019
3346 Clouds 22 1011 94 10000 3.1 230 17:55 20.08.2019
3347 Rain 19 1011 99 0 0.9 218.977 17:37 20.08.2019
3348 Clouds 22 1011 100 10000 1 260 17:19 20.08.2019
3349 Clouds 22 1011 100 10000 1 260 17:19 20.08.2019
3350 Clouds 22 1011 100 10000 1 260 16:43 20.08.2019
3351 Clouds 22 1011 100 10000 1 260 16:24 20.08.2019
3352 Clouds 23 1012 94 10000 1 260 15:43 20.08.2019
3353 Rain 19 1012 99 0 0.73 223.729 15:19 20.08.2019
3354 Rain 19 1012 99 0 0.73 223.729 14:58 20.08.2019
3355 Rain 19 1012 99 0 0.73 223.729 14:40 20.08.2019
3356 Clouds 24 1012 94 10000 0.73 223.729 14:21 20.08.2019
3357 Clouds 24 1012 94 10000 0.73 223.729 13:56 20.08.2019
3358 Clouds 24 1012 94 10000 0.73 223.729 13:37 20.08.2019
3359 Clouds 23 1012 94 10000 0.86 229.587 13:19 20.08.2019
3360 Clouds 23 1012 94 10000 0.86 229.587 12:50 20.08.2019
3361 Clouds 23 1012 94 10000 0.86 229.587 12:25 20.08.2019
3362 Clouds 23 1012 94 10000 0.86 229.587 12:25 20.08.2019
3363 Clouds 23 1012 94 10000 0.36 187.145 11:56 20.08.2019
3364 Clouds 23 1012 94 10000 0.36 187.145 11:38 20.08.2019
3365 Clouds 23 1012 94 10000 0.36 187.145 11:18 20.08.2019
3366 Clouds 23 1012 94 10000 0.36 187.145 10:56 20.08.2019
3367 Clouds 23 1012 94 10000 0.36 187.145 10:37 20.08.2019
3368 Clouds 23 1010 94 10000 0.36 187.145 10:19 20.08.2019
3369 Clouds 23 1010 94 10000 0.36 187.145 09:42 20.08.2019
3370 Clouds 23 1010 94 10000 0.82 160.611 09:24 20.08.2019
3371 Rain 20 1009 99 0 0.82 160.611 08:43 20.08.2019
3372 Clouds 25 1010 83 10000 2.6 100 08:25 20.08.2019
3373 Clouds 25 1010 83 10000 2.6 100 07:58 20.08.2019
3374 Clouds 25 1010 83 10000 2.6 100 07:40 20.08.2019
3375 Clouds 25 1010 83 10000 3.1 130 07:22 20.08.2019
3376 Clouds 25 1010 83 10000 3.1 130 06:55 20.08.2019
3377 Clouds 25 1010 83 10000 3.1 130 06:22 20.08.2019
3378 Clouds 26 1010 74 10000 3.1 140 05:48 20.08.2019
3379 Clouds 27 1010 65 10000 2.6 130 04:56 20.08.2019
3380 Clouds 26 1011 74 10000 3.1 160 03:28 20.08.2019
3381 Clouds 26 1012 69 10000 2.1 150 02:32 20.08.2019
3382 Clouds 26 1012 69 10000 2.1 150 01:22 20.08.2019
3383 Clouds 25 1013 73 10000 1.5 150 00:48 20.08.2019
3384 Clouds 25 1013 73 10000 1.5 150 00:48 20.08.2019
3385 Clouds 25 1013 73 10000 1.5 150 00:30 20.08.2019
3386 Clouds 25 1013 83 10000 0.82 169.255 23:52 19.08.2019
3387 Clouds 22 1013 94 10000 1.5 320 23:19 19.08.2019
3388 Clouds 22 1013 94 10000 1.5 320 22:59 19.08.2019
3389 Clouds 22 1013 94 10000 1.5 320 22:41 19.08.2019
3390 Clouds 22 1013 94 10000 1.5 320 22:21 19.08.2019
3391 Clouds 21 1013 94 10000 0.82 169.255 21:58 19.08.2019
3392 Clouds 21 1013 94 10000 1.02 178.035 21:39 19.08.2019
3393 Clouds 21 1013 94 10000 0.35 157.862 21:20 19.08.2019
3394 Rain 19 1011 99 0 0.35 157.862 20:58 19.08.2019
3395 Rain 19 1011 99 0 0.35 157.862 20:38 19.08.2019
3396 Clouds 21 1011 100 10000 0.35 157.862 20:19 19.08.2019
3397 Clouds 21 1011 100 10000 0.35 157.862 19:55 19.08.2019
3398 Clouds 21 1011 100 10000 0.35 157.862 19:55 19.08.2019
3399 Clouds 21 1011 100 10000 0.35 157.862 19:37 19.08.2019
3400 Clouds 21 1012 94 10000 0.35 157.862 19:18 19.08.2019
3401 Clouds 21 1012 94 10000 0.35 157.862 18:42 19.08.2019
3402 Clouds 21 1012 94 10000 0.34 166.711 18:24 19.08.2019
3403 Clouds 21 1012 100 10000 0.34 166.711 17:58 19.08.2019
3404 Clouds 21 1012 100 10000 0.34 166.711 17:40 19.08.2019
3405 Clouds 22 1012 94 10000 0.34 166.711 17:19 19.08.2019
3406 Clouds 22 1012 94 10000 0.34 166.711 16:56 19.08.2019
3407 Clouds 22 1012 94 10000 0.34 166.711 16:37 19.08.2019
3408 Clouds 23 1013 88 10000 0.34 166.711 16:18 19.08.2019
3409 Clouds 23 1013 88 10000 0.34 166.711 15:45 19.08.2019
3410 Rain 19 1012 99 0 0.83 180.069 15:20 19.08.2019
3411 Rain 19 1012 99 0 0.83 180.069 14:55 19.08.2019
3412 Rain 19 1012 99 0 0.83 180.069 14:36 19.08.2019
3413 Clouds 24 1013 83 10000 2.1 160 14:18 19.08.2019
3414 Clouds 24 1013 83 10000 2.1 160 13:55 19.08.2019
3415 Rain 19 1012 99 0 0.83 180.069 13:36 19.08.2019
3416 Clouds 24 1013 88 10000 2.1 160 13:18 19.08.2019
3417 Clouds 24 1013 88 10000 2.1 160 12:43 19.08.2019
3418 Clouds 24 1013 83 10000 1.5 150 12:22 19.08.2019
3419 Clouds 24 1013 83 10000 1.5 150 11:55 19.08.2019
3420 Rain 20 1013 99 0 1.17 176.622 11:36 19.08.2019
3421 Clouds 24 1013 83 10000 2.6 170 11:18 19.08.2019
3422 Rain 20 1013 99 0 1.17 176.622 10:39 19.08.2019
3423 Clouds 24 1012 83 10000 2.1 170 10:19 19.08.2019
3424 Clouds 24 1012 83 10000 2.1 170 09:55 19.08.2019
3425 Rain 20 1013 99 0 1.17 176.622 09:37 19.08.2019
3426 Rain 20 1011 99 0 1.03 173.586 09:19 19.08.2019
3427 Rain 20 1011 99 0 1.03 173.586 08:42 19.08.2019
3428 Clouds 25 1011 83 10000 3.6 180 08:22 19.08.2019
3429 Clouds 25 1011 83 10000 3.6 180 07:54 19.08.2019
3430 Clouds 25 1011 83 10000 3.6 180 07:34 19.08.2019
3431 Clouds 25 1011 83 10000 3.6 180 06:59 19.08.2019
3432 Clouds 26 1011 78 10000 3.6 180 06:36 19.08.2019
3433 Clouds 27 1011 78 10000 3.6 170 05:28 19.08.2019
3434 Clouds 28 1012 74 10000 2.6 130 04:34 19.08.2019
3435 Rain 24 1010 83 0 1.92 164.498 03:27 19.08.2019
3436 Clouds 27 1013 74 10000 2.1 90 02:30 19.08.2019
3437 Clouds 27 1013 57 0 0.95 175.251 01:37 19.08.2019
3438 Clouds 28 1014 74 10000 1 0 00:49 19.08.2019
3439 Clouds 26 1014 83 10000 1 0 00:24 19.08.2019
3440 Clouds 26 1014 83 10000 1 0 23:56 18.08.2019
3441 Clouds 23 1014 84 0 0.85 55.749 23:36 18.08.2019
3442 Clouds 22 1013 100 10000 2.1 320 23:18 18.08.2019
3443 Clouds 23 1014 84 0 0.85 55.749 22:40 18.08.2019
3444 Clouds 21 1013 94 10000 1.5 330 22:21 18.08.2019
3445 Clouds 21 1013 94 10000 1.5 330 21:57 18.08.2019
3446 Clouds 23 1014 84 0 0.85 55.749 21:38 18.08.2019
3447 Clouds 18 1012 99 0 0.73 45.111 21:20 18.08.2019
3448 Clouds 18 1012 99 0 0.73 45.111 20:45 18.08.2019
3449 Clouds 21 1012 100 10000 1.5 340 20:27 18.08.2019
3450 Clouds 21 1012 100 10000 1.5 340 19:59 18.08.2019
3451 Clouds 21 1012 100 10000 1.5 340 19:41 18.08.2019
3452 Clouds 22 1012 94 10000 0.73 45.111 19:23 18.08.2019
3453 Clouds 22 1012 94 10000 0.73 45.111 18:56 18.08.2019
3454 Clouds 18 1012 99 0 0.73 45.111 18:38 18.08.2019
3455 Clouds 22 1012 94 10000 1.5 280 18:20 18.08.2019
3456 Clouds 18 1012 99 0 0.99 50.475 17:44 18.08.2019
3457 Clouds 22 1013 94 10000 1.5 330 17:19 18.08.2019
3458 Clouds 22 1013 94 10000 1.5 330 16:59 18.08.2019
3459 Clouds 22 1013 94 10000 1.5 330 16:41 18.08.2019
3460 Clouds 22 1014 100 10000 1.5 310 16:21 18.08.2019
3461 Clouds 22 1014 100 10000 1.5 310 15:59 18.08.2019
3462 Clouds 18 1012 99 0 0.99 50.475 15:39 18.08.2019
3463 Rain 18 1014 99 0 0.78 42.66 15:20 18.08.2019
3464 Rain 18 1014 99 0 0.78 42.66 15:20 18.08.2019
3465 Rain 18 1014 99 0 0.78 42.66 14:56 18.08.2019
3466 Rain 18 1014 99 0 0.78 42.66 14:37 18.08.2019
3467 Clouds 23 1015 94 10000 0.78 42.66 14:18 18.08.2019
3468 Clouds 23 1015 94 10000 0.78 42.66 13:43 18.08.2019
3469 Clouds 23 1015 94 10000 0.78 42.66 13:24 18.08.2019
3470 Clouds 23 1015 94 10000 0.78 42.66 13:24 18.08.2019
3471 Clouds 23 1015 94 10000 0.78 42.66 12:59 18.08.2019
3472 Rain 18 1014 99 0 0.78 42.66 12:40 18.08.2019
3473 Clouds 23 1015 88 10000 1.04 60.591 12:21 18.08.2019
3474 Clouds 23 1015 88 10000 1.04 60.591 11:44 18.08.2019
3475 Clouds 24 1015 88 10000 1.5 110 11:23 18.08.2019
3476 Clouds 24 1015 88 10000 1.5 110 10:59 18.08.2019
3477 Clouds 24 1015 88 10000 1.5 110 10:40 18.08.2019
3478 Clouds 24 1015 88 10000 1.5 110 10:40 18.08.2019
3479 Clouds 24 1014 88 10000 1.5 90 10:19 18.08.2019
3480 Clouds 24 1014 88 10000 1.5 90 09:45 18.08.2019
3481 Rain 19 1013 98 0 1.18 90 09:21 18.08.2019
3482 Rain 19 1013 98 0 1.18 90 08:44 18.08.2019
3483 Clouds 25 1013 78 10000 4.1 120 08:25 18.08.2019
3484 Clouds 25 1013 78 10000 4.1 120 08:25 18.08.2019
3485 Clouds 25 1013 78 10000 4.1 120 07:59 18.08.2019
3486 Clouds 25 1013 78 10000 4.1 120 07:41 18.08.2019
3487 Clouds 24 1013 83 10000 2.6 90 07:22 18.08.2019
3488 Clouds 24 1013 88 10000 2.6 130 05:45 18.08.2019
3489 Drizzle 24 1013 88 10000 5.7 110 04:44 18.08.2019
3490 Rain 24 1015 74 0 1.82 88.744 03:20 18.08.2019
3491 Rain 24 1015 74 0 1.82 88.744 02:43 18.08.2019
3492 Clouds 25 1016 78 10000 4.1 120 02:18 18.08.2019
3493 Clouds 25 1016 78 10000 3.6 130 01:28 18.08.2019
3494 Rain 25 1014 66 0 1.93 89.554 00:43 18.08.2019
3495 Clouds 25 1016 83 10000 1 0 00:24 18.08.2019
3496 Clouds 25 1016 83 10000 1 0 23:58 17.08.2019
3497 Rain 20 1016 94 0 1.85 79.043 23:38 17.08.2019
3498 Clouds 23 1016 94 10000 1.5 270 23:20 17.08.2019
3499 Clouds 23 1016 94 10000 1.5 270 22:58 17.08.2019
3500 Rain 20 1016 94 0 1.85 79.043 22:40 17.08.2019
3501 Drizzle 22 1016 94 10000 2.1 340 22:21 17.08.2019
3502 Drizzle 22 1016 94 10000 2.1 340 21:55 17.08.2019
3503 Rain 20 1016 94 0 1.85 79.043 21:37 17.08.2019
3504 Rain 18 1014 99 0 0.9 85.797 21:18 17.08.2019
3505 Rain 18 1014 99 0 0.9 85.797 20:39 17.08.2019
3506 Clouds 23 1015 83 10000 1.5 150 20:20 17.08.2019
3507 Clouds 23 1015 83 10000 1.5 150 19:44 17.08.2019
3508 Clouds 23 1015 83 10000 1.5 150 19:44 17.08.2019
3509 Clouds 23 1015 83 10000 1.5 150 19:24 17.08.2019
3510 Clouds 23 1015 83 10000 1.5 150 18:59 17.08.2019
3511 Clouds 23 1015 83 10000 1.5 150 18:39 17.08.2019
3512 Clouds 23 1015 83 10000 1.5 150 18:18 17.08.2019
3513 Clouds 24 1015 78 10000 2.6 140 17:55 17.08.2019
3514 Rain 18 1014 99 0 1.22 110.391 17:37 17.08.2019
3515 Rain 18 1014 99 0 1.22 110.391 17:37 17.08.2019
3516 Clouds 24 1015 78 10000 1.5 140 17:18 17.08.2019
3517 Clouds 24 1015 78 10000 1.5 140 16:41 17.08.2019
3518 Clouds 24 1016 78 10000 2.1 140 16:22 17.08.2019
3519 Clouds 24 1016 78 10000 2.1 140 15:55 17.08.2019
3520 Rain 18 1014 99 0 1.22 110.391 15:37 17.08.2019
3521 Rain 19 1015 99 0 0.97 92.549 15:19 17.08.2019
3522 Rain 19 1015 99 0 0.97 92.549 14:40 17.08.2019
3523 Clouds 24 1016 78 10000 3.6 120 14:22 17.08.2019
3524 Clouds 24 1016 78 10000 3.6 120 13:46 17.08.2019
3525 Clouds 24 1016 83 10000 3.6 140 13:21 17.08.2019
3526 Clouds 24 1016 83 10000 3.6 140 12:55 17.08.2019
3527 Rain 19 1015 99 0 1.04 94.644 12:37 17.08.2019
3528 Clouds 24 1016 83 10000 4.1 140 12:18 17.08.2019
3529 Rain 19 1016 99 0 1.58 103.878 11:43 17.08.2019
3530 Rain 23 1015 100 10000 3.1 140 11:20 17.08.2019
3531 Rain 23 1015 100 10000 3.1 140 10:55 17.08.2019
3532 Rain 23 1015 100 10000 3.1 140 10:55 17.08.2019
3533 Clouds 23 1015 94 10000 3.6 140 10:37 17.08.2019
3534 Clouds 23 1015 94 10000 3.6 140 10:18 17.08.2019
3535 Clouds 23 1015 94 10000 3.6 140 09:43 17.08.2019
3536 Rain 19 1013 99 0 0.96 131.124 09:25 17.08.2019
3537 Rain 19 1013 99 0 0.96 131.124 08:53 17.08.2019
3538 Rain 23 1014 94 10000 4.6 130 08:24 17.08.2019
3539 Rain 23 1014 94 10000 4.6 130 07:45 17.08.2019
3540 Clouds 23 1013 88 10000 4.6 120 07:21 17.08.2019
3541 Rain 19 1013 99 0 0.96 131.124 06:40 17.08.2019
3542 Clouds 26 1014 78 10000 5.1 140 04:52 17.08.2019
3543 Rain 24 1015 88 10000 6.2 130 04:27 17.08.2019
3544 Rain 21 1015 98 0 1.32 138.019 02:53 17.08.2019
3545 Clouds 26 1016 74 10000 5.1 140 01:40 17.08.2019
3546 Clouds 25 1016 83 10000 4.6 150 01:22 17.08.2019
3547 Clouds 25 1016 83 10000 4.6 150 00:48 17.08.2019
3548 Clouds 24 1016 88 10000 4.6 150 00:26 17.08.2019
3549 Clouds 24 1016 88 10000 4.6 150 23:47 16.08.2019
3550 Clouds 24 1015 88 10000 4.1 140 23:25 16.08.2019
3551 Clouds 24 1015 88 10000 4.1 140 22:44 16.08.2019
3552 Clouds 23 1015 88 10000 3.6 140 22:20 16.08.2019
3553 Clouds 23 1015 88 10000 3.6 140 21:59 16.08.2019
3554 Clouds 23 1015 88 10000 3.6 140 21:39 16.08.2019
3555 Clouds 23 1015 88 10000 3.6 140 21:19 16.08.2019
3556 Rain 19 1014 99 0 0.72 132.166 20:43 16.08.2019
3557 Clouds 23 1014 88 10000 3.1 150 20:22 16.08.2019
3558 Clouds 23 1014 88 10000 3.1 150 19:59 16.08.2019
3559 Clouds 23 1014 88 10000 3.1 150 19:39 16.08.2019
3560 Clouds 23 1014 88 10000 3.1 150 19:20 16.08.2019
3561 Rain 19 1014 99 0 0.72 132.166 18:42 16.08.2019
3562 Rain 19 1014 99 0 0.72 132.166 18:42 16.08.2019
3563 Rain 19 1014 99 0 0.72 132.166 18:42 16.08.2019
3564 Clouds 23 1014 88 10000 3.6 150 18:23 16.08.2019
3565 Clouds 23 1014 88 10000 3.6 150 17:49 16.08.2019
3566 Rain 23 1014 88 10000 4.6 140 17:31 16.08.2019
3567 Rain 23 1014 88 10000 4.6 140 16:59 16.08.2019
3568 Rain 23 1014 88 10000 4.6 140 16:41 16.08.2019
3569 Clouds 23 1015 88 10000 3.6 140 16:20 16.08.2019
3570 Clouds 23 1015 88 10000 3.6 140 15:56 16.08.2019
3571 Rain 19 1014 99 0 0.79 128.91 15:38 16.08.2019
3572 Rain 20 1015 100 0 0.69 140.805 15:19 16.08.2019
3573 Rain 20 1015 100 0 0.69 140.805 14:56 16.08.2019
3574 Rain 20 1015 100 0 0.69 140.805 14:37 16.08.2019
3575 Clouds 24 1016 88 10000 3.1 150 14:18 16.08.2019
3576 Clouds 24 1016 88 10000 3.1 150 13:40 16.08.2019
3577 Clouds 24 1016 88 10000 2.6 150 13:21 16.08.2019
3578 Rain 20 1015 99 0 0.59 140.759 12:41 16.08.2019
3579 Rain 23 1016 94 10000 3.1 150 12:23 16.08.2019
3580 Rain 23 1016 94 10000 3.1 150 11:58 16.08.2019
3581 Rain 23 1016 94 10000 3.1 150 11:58 16.08.2019
3582 Rain 20 1015 99 0 0.73 125.356 11:39 16.08.2019
3583 Rain 20 1015 99 0 0.73 125.356 11:39 16.08.2019
3584 Clouds 24 1015 88 10000 3.6 160 11:21 16.08.2019
3585 Clouds 24 1015 88 10000 3.6 160 10:43 16.08.2019
3586 Clouds 24 1014 88 10000 3.6 160 10:21 16.08.2019
3587 Rain 20 1015 99 0 0.73 125.356 09:39 16.08.2019
3588 Rain 20 1013 99 0 0.93 146.447 09:20 16.08.2019
3589 Rain 20 1013 99 0 0.93 146.447 08:59 16.08.2019
3590 Rain 20 1013 99 0 0.93 146.447 08:39 16.08.2019
3591 Clouds 25 1013 83 10000 3.6 160 08:20 16.08.2019
3592 Clouds 25 1013 83 10000 3.6 160 07:49 16.08.2019
3593 Clouds 26 1013 78 10000 3.1 130 07:28 16.08.2019
3594 -273 0 0 0 0 0 06:55 16.08.2019
3595 Clouds 26 1013 78 10000 2.6 150 06:19 16.08.2019
3596 Rain 25 1013 88 10000 1.5 200 05:34 16.08.2019
3597 Drizzle 25 1014 88 10000 2.1 200 03:20 16.08.2019
3598 Clouds 26 1015 83 10000 2.1 170 01:53 16.08.2019
3599 Clouds 26 1015 83 10000 2.1 170 01:27 16.08.2019
3600 Clouds 24 1016 94 10000 1.34 111.5 00:50 16.08.2019
3601 Clouds 24 1016 94 10000 1.47 71.763 00:24 16.08.2019
3602 Clouds 24 1016 94 10000 1.47 71.763 00:24 16.08.2019
3603 Rain 23 1016 100 10000 1.47 71.763 23:59 15.08.2019
3604 Rain 23 1016 100 10000 1.47 71.763 23:41 15.08.2019
3605 Rain 23 1016 100 10000 1.47 71.763 23:19 15.08.2019
3606 Clouds 22 1016 100 10000 2.1 300 22:41 15.08.2019
3607 Clouds 22 1015 100 10000 1 290 22:23 15.08.2019
3608 Clouds 22 1015 100 10000 1 290 21:59 15.08.2019
3609 Clouds 23 1016 81 0 1.18 81.849 21:39 15.08.2019
3610 Clouds 18 1014 99 0 0.92 57.869 21:20 15.08.2019
3611 Clouds 18 1014 99 0 0.92 57.869 20:58 15.08.2019
3612 Clouds 18 1014 99 0 0.92 57.869 20:58 15.08.2019
3613 Clouds 18 1014 99 0 0.92 57.869 20:40 15.08.2019
3614 Clouds 21 1014 100 10000 1.5 330 20:21 15.08.2019
3615 Clouds 18 1014 99 0 0.92 57.869 19:40 15.08.2019
3616 Clouds 21 1014 100 10000 1 340 19:22 15.08.2019
3617 Clouds 21 1014 100 10000 1 340 18:59 15.08.2019
3618 Clouds 18 1014 99 0 0.92 57.869 18:41 15.08.2019
3619 Clouds 21 1015 100 10000 1 310 18:21 15.08.2019
3620 Clouds 21 1015 100 10000 1 310 17:54 15.08.2019
3621 Clouds 18 1014 99 0 0.89 42.761 17:36 15.08.2019
3622 Clouds 18 1014 99 0 0.89 42.761 17:36 15.08.2019
3623 Clouds 22 1015 94 10000 1 330 17:18 15.08.2019
3624 Clouds 22 1015 94 10000 1 330 16:43 15.08.2019
3625 Clouds 22 1016 94 10000 1.5 290 16:24 15.08.2019
3626 Clouds 22 1016 94 10000 1.5 290 15:56 15.08.2019
3627 Clouds 18 1014 99 0 0.89 42.761 15:37 15.08.2019
3628 Clouds 18 1015 98 0 1.03 47.914 15:18 15.08.2019
3629 Clouds 18 1015 98 0 1.03 47.914 14:42 15.08.2019
3630 Clouds 23 1016 94 10000 1.03 47.914 14:23 15.08.2019
3631 Clouds 23 1016 94 10000 1.03 47.914 13:57 15.08.2019
3632 Clouds 18 1015 98 0 1.03 47.914 13:39 15.08.2019
3633 Clouds 23 1016 94 10000 0.97 48.97 13:20 15.08.2019
3634 Clouds 23 1016 94 10000 0.97 48.97 12:55 15.08.2019
3635 Clouds 23 1016 94 10000 0.97 48.97 12:55 15.08.2019
3636 Clouds 18 1015 98 0 0.97 48.97 12:36 15.08.2019
3637 Clouds 24 1016 88 10000 2.1 150 12:18 15.08.2019
3638 Clouds 19 1016 99 0 1.04 59.15 11:40 15.08.2019
3639 Clouds 24 1016 88 10000 1.5 160 11:21 15.08.2019
3640 Clouds 24 1016 88 10000 1.5 160 10:59 15.08.2019
3641 Clouds 19 1016 99 0 1.04 59.15 10:38 15.08.2019
3642 Clouds 24 1015 88 10000 1.04 59.15 10:20 15.08.2019
3643 Clouds 24 1015 88 10000 1.04 59.15 09:45 15.08.2019
3644 Clouds 20 1014 93 0 1.13 102.683 09:23 15.08.2019
3645 Clouds 20 1014 93 0 1.13 102.683 09:23 15.08.2019
3646 Clouds 20 1014 93 0 1.13 102.683 08:56 15.08.2019
3647 Clouds 20 1014 93 0 1.13 102.683 08:55 15.08.2019
3648 Clouds 20 1014 93 0 1.13 102.683 08:36 15.08.2019
3649 Clouds 26 1015 78 10000 3.6 130 08:18 15.08.2019
3650 Clouds 26 1015 78 10000 3.6 130 07:42 15.08.2019
3651 Clouds 27 1015 69 10000 3.6 110 07:22 15.08.2019
3652 Clouds 27 1015 69 10000 3.6 110 06:53 15.08.2019
3653 Clouds 27 1015 65 10000 2.6 100 06:32 15.08.2019
3654 Clouds 27 1015 65 10000 2.6 100 05:43 15.08.2019
3655 Clouds 28 1015 65 10000 2.6 50 05:23 15.08.2019
3656 Clouds 28 1016 61 10000 4.1 80 04:30 15.08.2019
3657 Rain 24 1014 70 0 2 94.799 03:30 15.08.2019
3658 Clouds 27 1017 69 10000 3.6 60 02:35 15.08.2019
3659 Clouds 27 1017 69 10000 3.6 60 01:49 15.08.2019
3660 Clouds 27 1017 69 10000 4.1 80 01:26 15.08.2019
3661 Clouds 25 1016 67 0 2.27 103.349 00:39 15.08.2019
3662 Clouds 26 1017 74 10000 3.1 80 00:20 15.08.2019
3663 Clouds 26 1017 74 10000 3.1 80 23:57 14.08.2019
3664 Clouds 20 1017 90 0 2.58 56.039 23:37 14.08.2019
3665 Clouds 22 1017 88 10000 1.5 330 23:19 14.08.2019
3666 Clouds 20 1017 90 0 2.58 56.039 22:42 14.08.2019
3667 Clouds 20 1017 100 10000 1 0 22:23 14.08.2019
3668 Clouds 20 1017 100 10000 1 0 21:58 14.08.2019
3669 Clouds 20 1017 100 10000 1 0 21:58 14.08.2019
3670 Clouds 21 1018 89 0 2.51 58.66 21:40 14.08.2019
3671 Clouds 18 1016 99 0 1.41 58.198 21:21 14.08.2019
3672 Clouds 18 1016 99 0 1.41 58.198 20:59 14.08.2019
3673 Clouds 18 1016 99 0 1.41 58.198 20:41 14.08.2019
3674 Clouds 20 1016 100 10000 1 340 20:19 14.08.2019
3675 Clouds 20 1016 100 10000 1 340 19:55 14.08.2019
3676 Clouds 20 1016 100 10000 1 340 19:36 14.08.2019
3677 Clouds 20 1016 100 10000 1 340 19:18 14.08.2019
3678 Clouds 18 1016 99 0 1.41 58.198 18:43 14.08.2019
3679 Clouds 20 1017 100 10000 1.5 310 18:25 14.08.2019
3680 Clouds 20 1017 100 10000 1.5 310 17:59 14.08.2019
3681 Clouds 20 1017 100 10000 1.5 310 17:40 14.08.2019
3682 Clouds 20 1017 100 10000 1.12 85.181 17:22 14.08.2019
3683 Clouds 20 1017 100 10000 1.12 85.181 16:58 14.08.2019
3684 Rain 18 1016 99 0 1.12 85.181 16:39 14.08.2019
3685 Clouds 21 1018 94 10000 1.12 85.181 16:19 14.08.2019
3686 Clouds 21 1018 94 10000 1.12 85.181 15:43 14.08.2019
3687 Rain 19 1017 99 0 0.93 85.564 15:19 14.08.2019
3688 Rain 19 1017 99 0 0.93 85.564 15:19 14.08.2019
3689 Rain 19 1017 99 0 0.93 85.564 14:57 14.08.2019
3690 Rain 19 1017 99 0 0.93 85.564 14:39 14.08.2019
3691 Clouds 21 1018 100 10000 0.93 85.564 14:19 14.08.2019
3692 Clouds 21 1018 100 10000 0.93 85.564 13:44 14.08.2019
3693 Clouds 22 1018 94 10000 0.88 74.297 13:24 14.08.2019
3694 Clouds 22 1018 94 10000 0.88 74.297 12:58 14.08.2019
3695 Rain 18 1017 99 0 0.88 74.297 12:39 14.08.2019
3696 Clouds 23 1018 94 10000 0.93 88.642 12:21 14.08.2019
3697 Clouds 23 1018 94 10000 0.93 88.642 11:57 14.08.2019
3698 Rain 19 1018 99 0 0.93 88.642 11:38 14.08.2019
3699 Rain 19 1018 99 0 0.93 88.642 11:38 14.08.2019
3700 Clouds 23 1018 94 10000 1.5 150 11:20 14.08.2019
3701 Clouds 23 1018 94 10000 1.5 150 10:45 14.08.2019
3702 Clouds 24 1018 88 10000 1.5 150 10:24 14.08.2019
3703 Clouds 24 1018 88 10000 1.5 150 09:57 14.08.2019
3704 Rain 19 1018 99 0 0.93 88.642 09:38 14.08.2019
3705 Clouds 25 1017 83 10000 1.5 150 09:19 14.08.2019
3706 Rain 20 1016 97 0 1.31 116.428 08:40 14.08.2019
3707 Clouds 26 1017 78 10000 2.6 150 08:21 14.08.2019
3708 Clouds 26 1017 78 10000 2.6 150 07:51 14.08.2019
3709 Clouds 26 1017 78 10000 3.6 150 07:32 14.08.2019
3710 Clouds 26 1017 78 10000 3.6 150 06:46 14.08.2019
3711 Clouds 26 1016 83 10000 3.6 150 05:54 14.08.2019
3712 Clouds 26 1017 78 10000 3.6 160 05:24 14.08.2019
3713 Clouds 27 1018 78 10000 4.1 120 03:38 14.08.2019
3714 Clouds 28 1019 69 10000 4.6 100 02:33 14.08.2019
3715 Clouds 28 1019 69 10000 4.6 100 01:48 14.08.2019
3716 Clouds 27 1019 78 10000 3.6 130 01:18 14.08.2019
3717 Clouds 26 1019 74 10000 3.1 120 23:50 13.08.2019
3718 Clouds 23 1019 100 10000 1.07 88.443 23:25 13.08.2019
3719 Clouds 23 1019 100 10000 1.07 88.443 22:59 13.08.2019
3720 Rain 21 1019 89 0 1.07 88.443 22:39 13.08.2019
3721 Clouds 22 1019 94 10000 1 0 22:21 13.08.2019
3722 Clouds 22 1019 94 10000 1 0 21:58 13.08.2019
3723 Rain 21 1019 89 0 1.07 88.443 21:38 13.08.2019
3724 Clouds 18 1018 98 0 1.01 59.967 21:19 13.08.2019
3725 Clouds 18 1018 98 0 1.01 59.967 20:56 13.08.2019
3726 Clouds 18 1018 98 0 1.01 59.967 20:37 13.08.2019
3727 Clouds 21 1018 100 10000 1.01 59.967 20:18 13.08.2019
3728 Clouds 18 1018 98 0 1.01 59.967 19:43 13.08.2019
3729 Clouds 21 1018 100 10000 1.01 59.967 19:22 13.08.2019
3730 Clouds 21 1018 100 10000 1.01 59.967 18:57 13.08.2019
3731 Clouds 18 1018 98 0 1.01 59.967 18:38 13.08.2019
3732 Clouds 21 1018 100 10000 1 60.548 18:19 13.08.2019
3733 Clouds 21 1018 100 10000 1 60.548 17:42 13.08.2019
3734 Clouds 22 1018 100 10000 1 60.548 17:21 13.08.2019
3735 Clouds 22 1018 100 10000 1 60.548 16:57 13.08.2019
3736 Clouds 18 1017 97 0 1 60.548 16:38 13.08.2019
3737 Clouds 22 1018 100 10000 1 60.548 16:20 13.08.2019
3738 Clouds 18 1017 97 0 1 60.548 15:40 13.08.2019
3739 Clouds 18 1018 99 0 1.02 39.097 15:21 13.08.2019
3740 Clouds 18 1018 99 0 1.02 39.097 14:59 13.08.2019
3741 Clouds 18 1018 99 0 1.02 39.097 14:40 13.08.2019
3742 Clouds 22 1019 100 10000 1.02 39.097 14:19 13.08.2019
3743 Clouds 22 1019 100 10000 1.02 39.097 14:19 13.08.2019
3744 Clouds 22 1019 100 10000 1.02 39.097 13:42 13.08.2019
3745 Clouds 23 1019 94 10000 1 140 13:23 13.08.2019
3746 Clouds 23 1019 94 10000 1 140 12:59 13.08.2019
3747 Clouds 18 1018 99 0 0.95 40.106 12:41 13.08.2019
3748 Clouds 24 1018 88 10000 1 140 12:22 13.08.2019
3749 Clouds 24 1018 88 10000 1 140 11:58 13.08.2019
3750 Clouds 18 1019 99 0 1.26 40.359 11:38 13.08.2019
3751 Clouds 25 1018 88 10000 1 0 11:19 13.08.2019
3752 Clouds 25 1018 88 10000 1 0 10:56 13.08.2019
3753 Clouds 25 1018 88 10000 1 0 10:56 13.08.2019
3754 Clouds 25 1018 88 10000 1 0 10:56 13.08.2019
3755 Clouds 25 1017 88 10000 1.5 130 10:36 13.08.2019
3756 Clouds 25 1017 88 10000 1.5 130 10:18 13.08.2019
3757 Clouds 18 1019 99 0 1.26 40.359 09:42 13.08.2019
3758 Clouds 25 1016 83 10000 3.1 120 09:23 13.08.2019
3759 Clouds 25 1016 83 10000 3.1 120 08:43 13.08.2019
3760 Clouds 26 1016 78 10000 3.6 120 08:22 13.08.2019
3761 Clouds 26 1016 78 10000 3.6 120 07:57 13.08.2019
3762 Clouds 27 1015 74 10000 4.1 120 07:34 13.08.2019
3763 Clouds 27 1015 74 10000 4.1 120 06:55 13.08.2019
3764 Clouds 27 1015 74 10000 4.1 120 06:34 13.08.2019
3765 Clouds 28 1016 69 10000 5.7 100 05:35 13.08.2019
3766 Clear 26 1017 61 0 2.4 103.376 02:38 13.08.2019
3767 Clouds 27 1018 74 10000 4.1 120 01:59 13.08.2019
3768 Clouds 27 1018 78 10000 4.6 110 00:56 13.08.2019
3769 Clear 26 1017 61 0 2.4 102.275 00:37 13.08.2019
3770 Clouds 25 1018 94 10000 1 0 23:49 12.08.2019
3771 Clouds 22 1018 100 10000 1 320 23:25 12.08.2019
3772 Clouds 22 1018 100 10000 1 320 22:58 12.08.2019
3773 Clouds 22 1018 100 10000 1 320 22:39 12.08.2019
3774 Clouds 22 1018 100 10000 1 320 22:19 12.08.2019
3775 Fog 21 1017 100 300 1.5 320 21:55 12.08.2019
3776 Fog 21 1017 100 300 1.5 320 21:55 12.08.2019
3777 Fog 21 1017 100 700 1.5 330 21:37 12.08.2019
3778 Fog 21 1017 100 700 1.5 330 21:18 12.08.2019
3779 Clouds 18 1016 98 0 0.97 22.294 20:56 12.08.2019
3780 Clouds 18 1016 98 0 0.97 22.294 20:37 12.08.2019
3781 Clouds 21 1016 100 10000 1.5 320 20:19 12.08.2019
3782 Clouds 21 1016 100 10000 1.5 320 19:55 12.08.2019
3783 Clouds 18 1016 98 0 0.97 22.294 19:36 12.08.2019
3784 Clouds 22 1016 100 10000 0.97 22.294 19:18 12.08.2019
3785 Clouds 22 1016 100 10000 0.97 22.294 18:54 12.08.2019
3786 Clouds 22 1017 100 10000 0.97 22.294 18:36 12.08.2019
3787 Clouds 22 1017 100 10000 1.11 18.796 18:18 12.08.2019
3788 Clouds 22 1017 100 10000 1.11 18.796 17:46 12.08.2019
3789 Clouds 22 1017 100 10000 1.11 18.796 17:27 12.08.2019
3790 Clouds 22 1017 100 10000 1.11 18.796 16:56 12.08.2019
3791 Clouds 17 1016 97 0 1.11 18.796 16:38 12.08.2019
3792 Clouds 22 1017 100 10000 1.11 18.796 16:19 12.08.2019
3793 Clouds 22 1017 100 10000 1.11 18.796 16:19 12.08.2019
3794 Clouds 22 1017 100 10000 1.11 18.796 15:57 12.08.2019
3795 Clouds 22 1017 100 10000 1.11 18.796 15:57 12.08.2019
3796 Clouds 22 1017 100 10000 1.11 18.796 15:57 12.08.2019
3797 Clouds 17 1016 97 0 1.11 18.796 15:38 12.08.2019
3798 Clouds 23 1018 94 10000 1.21 17.521 15:20 12.08.2019
3799 Clouds 23 1018 94 10000 1.21 17.521 14:43 12.08.2019
3800 Clouds 23 1018 100 10000 1.21 17.521 14:23 12.08.2019
3801 Clouds 23 1018 100 10000 1.21 17.521 13:59 12.08.2019
3802 Clouds 23 1018 100 10000 1.21 17.521 13:41 12.08.2019
3803 Clouds 23 1018 94 10000 1.21 16.758 13:22 12.08.2019
3804 Clouds 23 1018 94 10000 1.21 16.758 12:43 12.08.2019
3805 Clouds 24 1017 94 10000 1.5 60 12:22 12.08.2019
3806 Clouds 24 1017 94 10000 1.5 60 11:47 12.08.2019
3807 Clouds 24 1017 94 10000 1.5 60 11:47 12.08.2019
3808 Clouds 24 1017 94 10000 2.1 60 11:29 12.08.2019
3809 Clouds 24 1017 94 10000 2.1 60 10:59 12.08.2019
3810 Clouds 19 1017 98 0 1.42 22.393 10:40 12.08.2019
3811 Clouds 19 1017 98 0 1.42 22.393 10:40 12.08.2019
3812 Clouds 25 1016 88 10000 1 70 10:21 12.08.2019
3813 Clouds 25 1016 88 10000 1 70 09:55 12.08.2019
3814 Clouds 19 1017 98 0 1.42 22.393 09:37 12.08.2019
3815 Clouds 21 1015 90 0 0.85 18.649 09:18 12.08.2019
3816 Clouds 21 1015 90 0 0.85 18.649 09:18 12.08.2019
3817 Clouds 21 1015 90 0 0.85 18.649 08:40 12.08.2019
3818 Clouds 27 1015 78 10000 3.6 60 08:22 12.08.2019
3819 Clouds 27 1015 78 10000 3.6 60 07:56 12.08.2019
3820 Clouds 28 1015 69 10000 4.1 50 07:35 12.08.2019
3821 Clouds 28 1015 69 10000 4.1 50 06:54 12.08.2019
3822 Clouds 28 1014 74 10000 5.1 60 06:18 12.08.2019
3823 Clouds 28 1016 69 10000 4.1 70 04:26 12.08.2019
3824 Clouds 27 1016 52 0 1.74 47.021 02:43 12.08.2019
3825 Clouds 28 1017 69 10000 4.1 70 01:42 12.08.2019
3826 Clouds 28 1018 74 10000 3.6 70 01:18 12.08.2019
3827 Clouds 28 1018 74 10000 3.6 70 00:54 12.08.2019
3828 Clouds 27 1016 52 0 1.74 47.021 00:36 12.08.2019
3829 Clouds 25 1017 88 10000 1.91 46.8 00:18 12.08.2019
3830 Clouds 22 1017 85 0 1.91 46.8 23:39 11.08.2019
3831 Clouds 22 1017 85 0 1.91 46.8 23:39 11.08.2019
3832 Clouds 22 1017 100 10000 1.5 320 23:19 11.08.2019
3833 Clouds 22 1017 100 10000 1.5 320 22:56 11.08.2019
3834 Clouds 21 1017 94 10000 1.91 46.8 22:37 11.08.2019
3835 Clouds 21 1017 94 10000 1.91 46.8 22:18 11.08.2019
3836 Clouds 21 1017 94 10000 1.91 46.8 21:55 11.08.2019
3837 Fog 21 1017 94 1000 1.91 46.8 21:36 11.08.2019
3838 Fog 21 1017 94 1000 0.94 40.409 21:18 11.08.2019
3839 Clouds 18 1015 99 0 0.94 40.409 20:42 11.08.2019
3840 Clouds 18 1015 99 0 0.94 40.409 20:42 11.08.2019
3841 Clouds 21 1016 100 10000 0.94 40.409 20:23 11.08.2019
3842 Clouds 21 1016 100 10000 0.94 40.409 19:54 11.08.2019
3843 Clouds 18 1015 99 0 0.94 40.409 19:36 11.08.2019
3844 Clouds 23 1015 100 10000 0.94 40.409 19:18 11.08.2019
3845 Clouds 18 1015 99 0 0.94 40.409 18:38 11.08.2019
3846 Clouds 23 1016 94 10000 1.38 32.548 18:19 11.08.2019
3847 Clouds 23 1016 94 10000 1.38 32.548 17:42 11.08.2019
3848 Clouds 23 1016 94 10000 1.38 32.548 17:20 11.08.2019
3849 Clouds 23 1016 94 10000 1.38 32.548 16:59 11.08.2019
3850 Clouds 23 1016 94 10000 1.38 32.548 16:40 11.08.2019
3851 Clouds 23 1017 100 10000 1.38 32.548 16:22 11.08.2019
3852 Clouds 23 1017 100 10000 1.38 32.548 15:56 11.08.2019
3853 Clouds 19 1015 99 0 1.38 32.548 15:38 11.08.2019
3854 Clouds 19 1016 99 0 1.65 34.337 15:19 11.08.2019
3855 Clouds 19 1016 99 0 1.65 34.337 14:40 11.08.2019
3856 Clouds 23 1017 94 10000 1.65 34.337 14:22 11.08.2019
3857 Clouds 23 1017 94 10000 1.65 34.337 13:46 11.08.2019
3858 Clouds 23 1017 94 10000 1.5 340 13:26 11.08.2019
3859 Clouds 23 1017 94 10000 1.5 340 12:58 11.08.2019
3860 Clouds 19 1015 99 0 1.75 36.28 12:38 11.08.2019
3861 Clouds 25 1017 88 10000 2.6 40 12:20 11.08.2019
3862 Clouds 25 1017 88 10000 2.6 40 11:40 11.08.2019
3863 Clouds 25 1017 88 10000 2.6 40 11:40 11.08.2019
3864 Clouds 25 1017 88 10000 2.6 40 11:40 11.08.2019
3865 Clouds 25 1017 88 10000 2.1 50 11:22 11.08.2019
3866 Clouds 25 1017 88 10000 2.1 50 10:56 11.08.2019
3867 Clouds 19 1017 99 0 1.68 35.795 10:38 11.08.2019
3868 Clouds 25 1016 88 10000 2.6 50 10:19 11.08.2019
3869 Clouds 25 1016 88 10000 2.6 50 09:44 11.08.2019
3870 Clouds 19 1017 99 0 1.68 35.795 09:26 11.08.2019
3871 Clouds 21 1015 91 0 2.27 56.506 08:58 11.08.2019
3872 Clouds 21 1015 91 0 2.27 56.506 08:39 11.08.2019
3873 Clouds 27 1015 78 10000 4.1 50 08:20 11.08.2019
3874 Clouds 28 1015 74 10000 4.1 70 07:32 11.08.2019
3875 Clouds 28 1015 74 10000 4.1 70 06:52 11.08.2019
3876 Clouds 29 1015 70 10000 5.1 70 06:31 11.08.2019
3877 Clouds 29 1016 70 10000 5.7 80 04:46 11.08.2019
3878 Clouds 27 1016 65 0 3.02 59.261 02:53 11.08.2019
3879 Clouds 28 1018 74 10000 5.7 100 01:58 11.08.2019
3880 Clouds 27 1018 78 10000 5.7 90 01:32 11.08.2019
3881 Clouds 27 1018 78 10000 5.7 90 00:56 11.08.2019
3882 Clouds 27 1016 66 0 3.12 58.615 00:36 11.08.2019
3883 Clouds 26 1018 83 10000 4.1 100 23:55 10.08.2019
3884 Clouds 24 1017 94 10000 2.64 67.654 23:34 10.08.2019
3885 Clouds 24 1017 94 10000 2.64 67.654 22:57 10.08.2019
3886 Clouds 22 1017 100 10000 2.64 67.654 22:38 10.08.2019
3887 Clouds 22 1017 100 10000 2.64 67.654 22:19 10.08.2019
3888 Clouds 22 1017 100 10000 2.64 67.654 21:40 10.08.2019
3889 Rain 20 1015 99 0 1.53 58.026 21:21 10.08.2019
3890 Rain 20 1015 99 0 1.55 67.068 20:58 10.08.2019
3891 Rain 20 1015 99 0 1.55 67.068 20:39 10.08.2019
3892 Clouds 23 1015 100 10000 1.55 67.068 20:20 10.08.2019
3893 Clouds 23 1015 100 10000 1.55 67.068 19:45 10.08.2019
3894 Clouds 23 1015 94 10000 1.55 67.068 19:25 10.08.2019
3895 Clouds 23 1015 94 10000 1.55 67.068 18:46 10.08.2019
3896 Clouds 23 1015 94 10000 1.55 67.068 18:26 10.08.2019
3897 Clouds 23 1015 94 10000 1.28 61.977 17:57 10.08.2019
3898 Clouds 23 1015 100 10000 1.28 61.977 17:39 10.08.2019
3899 Clouds 23 1015 100 10000 1.28 61.977 17:21 10.08.2019
3900 Clouds 23 1015 100 10000 1.28 61.977 16:43 10.08.2019
3901 Clouds 24 1016 94 10000 1.28 61.977 16:25 10.08.2019
3902 Clouds 24 1016 94 10000 1.28 61.977 15:49 10.08.2019
3903 Clouds 20 1015 99 0 1.09 57.995 15:22 10.08.2019
3904 Clouds 20 1015 99 0 1.09 57.995 14:44 10.08.2019
3905 Clouds 24 1016 94 10000 1.5 10 14:21 10.08.2019
3906 Clouds 24 1016 94 10000 1.5 10 14:21 10.08.2019
3907 Clouds 24 1016 94 10000 1.5 10 13:41 10.08.2019
3908 Clouds 24 1016 94 10000 0.95 56.727 13:20 10.08.2019
3909 Clouds 24 1016 94 10000 0.95 56.727 12:55 10.08.2019
3910 Clouds 19 1015 99 0 0.95 56.727 12:37 10.08.2019
3911 Clouds 24 1016 94 10000 1.22 43.014 12:19 10.08.2019
3912 Clouds 24 1016 94 10000 1.22 43.014 11:42 10.08.2019
3913 Clouds 24 1015 94 10000 1.22 43.014 11:22 10.08.2019
3914 Clouds 24 1015 94 10000 1.22 43.014 10:56 10.08.2019
3915 Clouds 19 1015 99 0 1.22 43.014 10:37 10.08.2019
3916 Clouds 24 1014 94 10000 1.22 43.014 10:19 10.08.2019
3917 Clouds 24 1014 94 10000 1.22 43.014 09:42 10.08.2019
3918 Clouds 21 1013 94 0 1.75 58.543 09:23 10.08.2019
3919 Clouds 21 1013 95 0 1.78 60.842 08:42 10.08.2019
3920 Clouds 27 1014 78 10000 4.1 90 08:22 10.08.2019
3921 Clouds 27 1014 78 10000 4.1 90 07:54 10.08.2019
3922 Clouds 27 1013 78 10000 3.1 120 07:29 10.08.2019
3923 Clouds 27 1013 78 10000 3.1 120 07:29 10.08.2019
3924 Clouds 27 1013 78 10000 3.1 120 06:49 10.08.2019
3925 Clouds 27 1013 78 10000 3.1 140 06:30 10.08.2019
3926 Clouds 28 1014 74 10000 3.6 120 05:28 10.08.2019
3927 Clouds 28 1014 74 10000 3.6 120 04:53 10.08.2019
3928 Clouds 27 1012 64 0 2.28 84.122 03:26 10.08.2019
3929 Clouds 27 1016 83 10000 3.1 140 02:28 10.08.2019
3930 Clouds 27 1016 83 10000 3.1 140 01:43 10.08.2019
3931 Clouds 27 1016 83 10000 2.6 140 01:23 10.08.2019
3932 Clouds 27 1016 83 10000 2.6 140 00:53 10.08.2019
3933 Clouds 26 1016 88 10000 2.1 140 00:27 10.08.2019
3934 Clouds 26 1016 88 10000 2.1 140 23:59 09.08.2019
3935 Clouds 22 1016 93 0 1.97 76.253 23:38 09.08.2019
3936 Clouds 25 1016 94 10000 1.5 150 23:19 09.08.2019
3937 Clouds 25 1016 94 10000 1.5 150 22:41 09.08.2019
3938 Clouds 25 1016 94 10000 1.5 150 22:23 09.08.2019
3939 Clouds 24 1015 94 10000 1.97 76.253 21:59 09.08.2019
3940 Clouds 24 1015 94 10000 1.97 76.253 21:39 09.08.2019
3941 Clouds 24 1015 94 10000 1.16 56.598 21:21 09.08.2019
3942 Clouds 24 1015 94 10000 1.16 56.598 21:21 09.08.2019
3943 Clouds 23 1014 100 10000 1.16 56.598 20:56 09.08.2019
3944 Clouds 19 1014 99 0 1.23 55.237 20:38 09.08.2019
3945 Clouds 23 1014 100 10000 1.23 55.237 20:18 09.08.2019
3946 Clouds 23 1014 100 10000 1.23 55.237 19:41 09.08.2019
3947 Clouds 23 1014 100 10000 1.23 55.237 19:22 09.08.2019
3948 Clouds 23 1014 100 10000 1 0 18:42 09.08.2019
3949 Clouds 23 1014 100 10000 1 0 18:23 09.08.2019
3950 Clouds 23 1014 100 10000 1 0 17:59 09.08.2019
3951 Clouds 23 1014 100 10000 1 0 17:41 09.08.2019
3952 Clouds 23 1014 100 10000 1 0 17:23 09.08.2019
3953 Clouds 23 1015 100 10000 1.5 220 16:42 09.08.2019
3954 -273 0 0 0 0 0 16:41 09.08.2019
3955 Clouds 23 1015 100 10000 1.5 220 16:41 09.08.2019
3956 Clouds 23 1015 100 10000 1.5 220 16:22 09.08.2019
3957 Clouds 23 1015 94 10000 0.74 39.109 15:57 09.08.2019
3958 Clouds 23 1015 94 10000 0.74 39.109 15:56 09.08.2019
3959 Clouds 23 1015 94 10000 0.74 39.109 15:37 09.08.2019
3960 Clouds 23 1015 94 10000 1.24 30.071 15:19 09.08.2019
3961 Clouds 24 1015 94 10000 1.5 10 14:44 09.08.2019
3962 -273 0 0 0 0 0 14:23 09.08.2019
3963 Rain 24 1015 100 10000 1.24 30.071 13:57 09.08.2019
3964 Clouds 20 1015 99 0 1.24 30.071 13:39 09.08.2019
3965 Clouds 23 1015 100 10000 1.5 330 13:19 09.08.2019
3966 Clouds 23 1015 100 10000 1.5 330 12:45 09.08.2019
3967 Clouds 20 1015 99 0 1.07 39.214 12:23 09.08.2019
3968 Clouds 20 1015 99 0 1.07 39.214 11:57 09.08.2019
3969 Clouds 20 1015 99 0 1.07 39.214 11:37 09.08.2019
3970 Clouds 25 1014 94 10000 1.07 39.214 11:18 09.08.2019
3971 Clouds 20 1015 99 0 1.07 39.214 10:40 09.08.2019
3972 Clouds 25 1013 94 10000 1.5 50 10:21 09.08.2019
3973 Clouds 25 1013 94 10000 1.5 50 09:45 09.08.2019
3974 Rain 22 1013 98 0 0.58 55.374 09:20 09.08.2019
3975 Rain 22 1013 98 0 0.58 55.374 08:56 09.08.2019
3976 Rain 22 1013 97 0 1 48.755 08:37 09.08.2019
3977 Clouds 27 1012 78 10000 4.1 80 08:18 09.08.2019
3978 Clouds 27 1012 78 10000 4.1 80 07:43 09.08.2019
3979 Clouds 27 1012 78 10000 4.1 80 07:22 09.08.2019
3980 Clouds 28 1012 78 10000 4.6 80 06:52 09.08.2019
3981 Clouds 28 1012 78 10000 4.6 80 06:27 09.08.2019
3982 Clouds 28 1012 74 10000 5.1 80 05:50 09.08.2019
3983 Clouds 28 1015 74 10000 5.7 40 02:33 09.08.2019
3984 Clouds 28 1015 74 10000 5.7 40 02:33 09.08.2019
3985 Clouds 27 1014 68 0 1.76 64.016 01:41 09.08.2019
3986 Clouds 28 1015 74 10000 2.6 40 00:44 09.08.2019
3987 Clouds 28 1015 74 10000 2.6 40 00:25 09.08.2019
3988 Clouds 25 1016 88 10000 1.5 330 23:59 08.08.2019
3989 Clouds 23 1015 85 0 1.9 54.522 23:38 08.08.2019
3990 Clouds 22 1015 100 10000 2.1 330 23:19 08.08.2019
3991 Clouds 22 1015 100 10000 2.1 330 22:57 08.08.2019
3992 Clouds 21 1015 100 10000 1.5 310 22:36 08.08.2019
3993 Clouds 21 1015 100 10000 1.5 310 22:18 08.08.2019
3994 Clouds 21 1015 100 10000 1.5 310 21:55 08.08.2019
3995 Clouds 21 1015 100 10000 1.5 310 21:55 08.08.2019
3996 Clouds 21 1015 100 10000 1.5 310 21:36 08.08.2019
3997 Clouds 21 1015 100 10000 1.5 310 21:18 08.08.2019
3998 Clouds 19 1014 99 0 1.49 43.452 20:42 08.08.2019
3999 Clouds 21 1014 100 10000 1.5 340 20:21 08.08.2019
4000 Clouds 21 1014 100 10000 1.5 340 19:56 08.08.2019
4001 Clouds 21 1014 100 10000 1.5 340 19:37 08.08.2019
4002 Clouds 21 1014 100 10000 1.5 340 19:19 08.08.2019
4003 Clouds 21 1014 100 10000 2.1 320 18:41 08.08.2019
4004 Clouds 21 1014 100 10000 2.1 320 18:20 08.08.2019
4005 Clouds 20 1015 100 10000 1.5 330 17:42 08.08.2019
4006 Clouds 21 1015 94 10000 1.5 320 17:24 08.08.2019
4007 Clouds 21 1015 94 10000 1.5 320 16:59 08.08.2019
4008 Clouds 21 1015 94 10000 1.5 320 16:59 08.08.2019
4009 Clouds 21 1015 94 10000 1.5 320 16:41 08.08.2019
4010 Clouds 21 1016 94 10000 1.5 320 16:23 08.08.2019
4011 Clouds 21 1016 94 10000 1.5 320 15:57 08.08.2019
4012 Clouds 19 1014 99 0 1.76 45.991 15:38 08.08.2019
4013 Clouds 19 1015 99 0 1.82 49.273 15:20 08.08.2019
4014 Clouds 19 1015 99 0 1.82 49.273 14:38 08.08.2019
4015 Clouds 21 1016 100 10000 1.5 320 14:19 08.08.2019
4016 Clouds 21 1016 100 10000 1.5 320 13:43 08.08.2019
4017 Clouds 21 1017 94 10000 1 320 13:24 08.08.2019
4018 Clouds 21 1017 94 10000 1 320 12:58 08.08.2019
4019 Clouds 21 1017 94 10000 1 320 12:58 08.08.2019
4020 Clouds 21 1017 94 10000 1 320 12:38 08.08.2019
4021 Clouds 21 1017 94 10000 1 320 12:18 08.08.2019
4022 Clouds 21 1017 94 10000 1 320 12:18 08.08.2019
4023 Clouds 22 1017 94 10000 1 300 11:43 08.08.2019
4024 Clouds 23 1016 88 10000 1.71 55.362 11:24 08.08.2019
4025 Clouds 23 1016 88 10000 1.71 55.362 10:42 08.08.2019
4026 Clouds 24 1016 78 10000 1.71 55.362 10:23 08.08.2019
4027 Clouds 24 1016 78 10000 1.71 55.362 09:58 08.08.2019
4028 Clouds 19 1016 99 0 1.71 55.362 09:39 08.08.2019
4029 Clouds 20 1014 93 0 1.69 66.338 09:20 08.08.2019
4030 Clouds 20 1014 91 0 1.71 64.395 08:42 08.08.2019
4031 Clouds 25 1014 83 10000 4.6 100 08:21 08.08.2019
4032 Clouds 25 1014 83 10000 4.6 100 07:56 08.08.2019
4033 Clouds 26 1014 78 10000 4.6 120 07:37 08.08.2019
4034 Clouds 26 1014 78 10000 4.6 120 07:18 08.08.2019
4035 Clouds 26 1014 78 10000 4.6 120 06:41 08.08.2019
4036 Clouds 26 1014 78 10000 4.6 120 05:57 08.08.2019
4037 Clouds 26 1014 78 10000 4.6 120 05:39 08.08.2019
4038 Clouds 27 1015 74 10000 5.1 100 03:59 08.08.2019
4039 Clouds 26 1013 61 0 2.18 65.626 03:39 08.08.2019
4040 Clouds 25 1015 68 0 2.43 65.104 01:42 08.08.2019
4041 Clouds 26 1017 74 10000 5.1 100 00:57 08.08.2019
4042 Clouds 25 1017 83 10000 4.1 110 00:21 08.08.2019
4043 Clouds 23 1017 94 10000 2.48 65.244 23:23 07.08.2019
4044 Clouds 23 1017 94 10000 2.48 65.244 23:00 07.08.2019
4045 Clouds 23 1017 94 10000 2.48 65.244 22:41 07.08.2019
4046 Clouds 22 1016 94 10000 2.48 65.244 22:21 07.08.2019
4047 Clouds 22 1016 94 10000 2.48 65.244 21:57 07.08.2019
4048 Clouds 21 1017 91 0 2.48 65.244 21:39 07.08.2019
4049 Clouds 21 1017 91 0 2.48 65.244 21:39 07.08.2019
4050 Clouds 18 1015 99 0 1.8 61.997 21:20 07.08.2019
4051 Clouds 18 1015 99 0 1.8 61.997 20:57 07.08.2019
4052 Clouds 18 1015 99 0 1.52 63.704 20:38 07.08.2019
4053 Clouds 22 1015 94 10000 1.5 290 20:20 07.08.2019
4054 Clouds 22 1015 94 10000 1.5 290 20:20 07.08.2019
4055 Clouds 22 1015 94 10000 1.5 290 20:19 07.08.2019
4056 Clouds 22 1015 94 10000 1.5 290 19:55 07.08.2019
4057 Clouds 22 1015 94 10000 1.52 63.704 19:36 07.08.2019
4058 Clouds 22 1015 94 10000 1.52 63.704 19:18 07.08.2019
4059 Clouds 18 1015 99 0 1.52 63.704 18:40 07.08.2019
4060 Clouds 22 1015 94 10000 1.24 76.187 18:19 07.08.2019
4061 Clouds 22 1015 94 10000 1.24 76.187 17:55 07.08.2019
4062 Rain 22 1016 94 10000 1.5 280 17:37 07.08.2019
4063 Rain 22 1016 94 10000 1.5 280 17:18 07.08.2019
4064 Rain 22 1016 94 10000 1.5 280 16:56 07.08.2019
4065 Rain 22 1016 94 10000 1.5 280 16:56 07.08.2019
4066 Clouds 22 1016 100 10000 2.1 330 16:37 07.08.2019
4067 Clouds 22 1016 100 10000 2.1 330 16:37 07.08.2019
4068 Clouds 22 1016 100 10000 2.1 330 16:19 07.08.2019
4069 Clouds 22 1016 100 10000 2.1 330 15:43 07.08.2019
4070 Clouds 18 1016 99 0 1.43 69.204 15:20 07.08.2019
4071 Clouds 18 1016 99 0 1.43 69.204 14:50 07.08.2019
4072 Clouds 22 1016 100 10000 2.1 290 14:30 07.08.2019
4073 Clouds 22 1016 100 10000 2.1 290 13:59 07.08.2019
4074 Clouds 18 1016 99 0 1.43 69.204 13:39 07.08.2019
4075 Clouds 22 1017 94 10000 1.21 71.714 13:19 07.08.2019
4076 Clouds 22 1017 94 10000 1.21 71.714 12:57 07.08.2019
4077 Clouds 23 1017 88 10000 1.21 71.714 12:38 07.08.2019
4078 Clouds 23 1017 88 10000 1.58 59.067 12:19 07.08.2019
4079 Clouds 23 1017 88 10000 1.58 59.067 11:55 07.08.2019
4080 Clouds 17 1016 98 0 1.58 59.067 11:37 07.08.2019
4081 Clouds 23 1017 88 10000 1 0 11:18 07.08.2019
4082 Clouds 17 1016 98 0 1.58 59.067 10:40 07.08.2019
4083 Clouds 23 1016 88 10000 1.5 110 10:20 07.08.2019
4084 Clouds 23 1016 88 10000 1.5 110 09:48 07.08.2019
4085 Clouds 24 1016 83 10000 1 0 09:24 07.08.2019
4086 Clouds 24 1016 83 10000 1 0 08:59 07.08.2019
4087 Rain 18 1014 97 0 2.04 71.485 08:41 07.08.2019
4088 Clouds 25 1015 78 10000 1 0 08:23 07.08.2019
4089 Clouds 25 1015 78 10000 1 0 07:50 07.08.2019
4090 Rain 25 1015 78 10000 2.6 100 07:29 07.08.2019
4091 Rain 18 1014 97 0 2.04 71.485 06:43 07.08.2019
4092 Rain 25 1015 78 10000 3.6 90 06:21 07.08.2019
4093 Rain 18 1014 96 0 1.98 62.125 05:40 07.08.2019
4094 Rain 18 1014 96 0 1.98 62.125 03:26 07.08.2019
4095 Rain 19 1016 96 0 2.06 60.576 02:51 07.08.2019
4096 Clouds 26 1017 69 10000 5.1 100 02:30 07.08.2019
4097 Clouds 26 1017 69 10000 5.1 100 01:48 07.08.2019
4098 Clouds 25 1018 78 10000 4.1 110 00:53 07.08.2019
4099 Clouds 25 1018 78 10000 3.1 110 00:23 07.08.2019
4100 Clouds 25 1018 78 10000 3.1 110 23:48 06.08.2019
4101 Drizzle 23 1017 94 10000 2.15 72.87 23:23 06.08.2019
4102 Drizzle 23 1017 94 10000 2.15 72.87 22:59 06.08.2019
4103 Rain 19 1018 95 0 2.15 72.87 22:40 06.08.2019
4104 Clouds 23 1017 88 10000 1.5 100 22:20 06.08.2019
4105 Clouds 23 1017 88 10000 1.5 100 21:56 06.08.2019
4106 Rain 19 1018 95 0 2.15 72.87 21:38 06.08.2019
4107 Clouds 21 1016 100 10000 1.5 77.766 21:18 06.08.2019
4108 Clouds 21 1016 100 10000 1.52 69.258 20:42 06.08.2019
4109 Clouds 21 1016 100 10000 1.52 69.258 20:23 06.08.2019
4110 Clouds 21 1016 100 10000 1.52 69.258 19:48 06.08.2019
4111 Clouds 21 1016 100 10000 1.52 69.258 19:29 06.08.2019
4112 Clouds 21 1016 100 10000 1.52 69.258 18:57 06.08.2019
4113 Clouds 18 1015 98 0 1.52 69.258 18:38 06.08.2019
4114 Clouds 22 1016 94 10000 1.61 87.219 18:19 06.08.2019
4115 Clouds 22 1016 94 10000 1.61 87.219 18:19 06.08.2019
4116 Clouds 22 1016 94 10000 1.61 87.219 17:56 06.08.2019
4117 Clouds 17 1015 98 0 1.61 87.219 17:37 06.08.2019
4118 Clouds 22 1017 94 10000 1.61 87.219 17:18 06.08.2019
4119 Clouds 22 1017 94 10000 1.61 87.219 16:42 06.08.2019
4120 Clouds 23 1017 88 10000 1.61 87.219 16:24 06.08.2019
4121 Clouds 23 1017 88 10000 1.61 87.219 15:58 06.08.2019
4122 Clouds 17 1015 98 0 1.61 87.219 15:39 06.08.2019
4123 Clouds 23 1017 83 10000 2.1 120 15:20 06.08.2019
4124 Clouds 23 1017 83 10000 2.1 120 14:45 06.08.2019
4125 Clouds 23 1018 88 10000 1.5 110 14:26 06.08.2019
4126 Clouds 23 1018 88 10000 1.5 110 13:58 06.08.2019
4127 Clouds 17 1016 95 0 2.4 59.605 13:40 06.08.2019
4128 Clouds 23 1018 88 10000 1.5 140 13:22 06.08.2019
4129 Clouds 23 1018 88 10000 1.5 140 12:58 06.08.2019
4130 Clouds 17 1016 97 0 1.61 61.971 12:39 06.08.2019
4131 Clouds 24 1018 83 10000 1.5 130 12:21 06.08.2019
4132 Clouds 24 1018 83 10000 1.5 130 11:43 06.08.2019
4133 Clouds 24 1017 78 10000 2.6 130 11:19 06.08.2019
4134 -273 0 0 0 0 0 10:56 06.08.2019
4135 Rain 18 1017 98 0 1.91 89.82 10:37 06.08.2019
4136 Clouds 23 1017 83 10000 3.1 140 10:19 06.08.2019
4137 Rain 18 1017 98 0 1.91 89.82 09:39 06.08.2019
4138 Clouds 24 1016 78 10000 3.1 130 09:20 06.08.2019
4139 Clouds 24 1016 78 10000 3.1 130 08:47 06.08.2019
4140 Clouds 24 1016 78 10000 4.6 120 08:26 06.08.2019
4141 Rain 18 1015 96 0 1.83 116.173 07:40 06.08.2019
4142 Clouds 25 1016 73 10000 4.6 120 07:22 06.08.2019
4143 Clouds 25 1016 73 10000 4.6 120 06:43 06.08.2019
4144 Rain 24 1016 78 10000 4.6 120 05:55 06.08.2019
4145 Clouds 24 1016 83 10000 4.1 120 04:32 06.08.2019
4146 Clouds 24 1018 73 10000 5.1 110 01:55 06.08.2019
4147 Clouds 24 1019 78 10000 5.7 110 01:24 06.08.2019
4148 Drizzle 22 1019 88 10000 3.1 130 00:30 06.08.2019
4149 Drizzle 22 1019 88 10000 3.1 130 23:46 05.08.2019
4150 Rain 22 1018 88 10000 3.6 150 23:19 05.08.2019
4151 Clouds 18 1018 94 0 2.59 93.945 22:41 05.08.2019
4152 Clouds 23 1017 78 10000 3.6 150 22:23 05.08.2019
4153 Clouds 23 1017 78 10000 3.6 150 21:55 05.08.2019
4154 Clouds 18 1018 94 0 2.59 93.945 21:36 05.08.2019
4155 Clouds 23 1016 78 10000 3.1 150 21:18 05.08.2019
4156 Clouds 23 1016 78 10000 3.1 150 20:55 05.08.2019
4157 Clouds 17 1016 98 0 1.91 101.375 20:37 05.08.2019
4158 Clouds 23 1016 78 10000 2.6 170 20:18 05.08.2019
4159 Clouds 17 1016 98 0 1.91 101.375 19:40 05.08.2019
4160 Clouds 23 1016 78 10000 3.1 150 19:22 05.08.2019
4161 Clouds 23 1016 78 10000 3.1 150 18:57 05.08.2019
4162 Clouds 23 1016 78 10000 3.1 150 18:57 05.08.2019
4163 Clouds 23 1016 78 10000 3.1 150 18:39 05.08.2019
4164 Clouds 23 1016 78 10000 3.1 150 18:18 05.08.2019
4165 Clouds 23 1016 78 10000 3.6 150 17:41 05.08.2019
4166 Clouds 23 1017 78 10000 3.6 140 17:22 05.08.2019
4167 Clouds 23 1017 78 10000 3.6 140 16:46 05.08.2019
4168 Clouds 23 1017 83 10000 3.6 150 16:25 05.08.2019
4169 Clouds 23 1017 83 10000 3.6 150 15:44 05.08.2019
4170 Clouds 23 1017 83 10000 3.6 140 15:21 05.08.2019
4171 Clouds 23 1017 83 10000 3.6 140 14:58 05.08.2019
4172 Clouds 22 1017 88 10000 3.6 140 14:37 05.08.2019
4173 Clouds 22 1017 88 10000 3.6 140 14:19 05.08.2019
4174 Clouds 22 1017 88 10000 3.6 140 13:40 05.08.2019
4175 Rain 22 1018 94 10000 3.6 130 13:20 05.08.2019
4176 Rain 18 1017 99 0 1.49 118.335 12:44 05.08.2019
4177 Drizzle 23 1017 88 10000 4.1 130 12:20 05.08.2019
4178 Drizzle 23 1017 88 10000 4.1 130 11:45 05.08.2019
4179 Clouds 23 1017 83 10000 3.6 140 11:26 05.08.2019
4180 Clouds 23 1017 83 10000 3.6 140 10:50 05.08.2019
4181 Clouds 22 1016 94 10000 3.1 130 10:32 05.08.2019
4182 Clouds 22 1016 94 10000 3.1 130 09:58 05.08.2019
4183 Clouds 22 1016 94 10000 3.1 130 09:40 05.08.2019
4184 Rain 18 1015 99 0 1.48 116.306 09:21 05.08.2019
4185 Rain 18 1015 99 0 1.5 115.866 08:44 05.08.2019
4186 Clouds 24 1015 78 10000 4.1 120 08:25 05.08.2019
4187 Clouds 24 1015 78 10000 4.1 120 07:49 05.08.2019
4188 Clouds 24 1015 78 10000 4.1 120 07:30 05.08.2019
4189 Clouds 24 1015 78 10000 4.1 120 06:58 05.08.2019
4190 Clouds 25 1015 78 10000 4.6 130 06:27 05.08.2019
4191 Clouds 24 1015 88 10000 3.1 150 05:33 05.08.2019
4192 Clouds 24 1015 88 10000 3.1 150 04:55 05.08.2019
4193 Clouds 24 1016 83 10000 4.1 130 03:53 05.08.2019
4194 Rain 25 1016 78 10000 5.1 110 03:20 05.08.2019
4195 Clouds 25 1017 73 10000 3.6 140 02:21 05.08.2019
4196 Clouds 25 1017 73 10000 4.6 120 01:25 05.08.2019
4197 Rain 20 1015 94 0 1.55 117.374 00:40 05.08.2019
4198 Clouds 25 1017 73 10000 4.1 120 00:20 05.08.2019
4199 Clouds 25 1017 73 10000 4.1 120 00:20 05.08.2019
4200 Clouds 25 1017 73 10000 4.1 120 23:43 04.08.2019
4201 Clouds 24 1016 83 10000 2.1 140 23:23 04.08.2019
4202 Clouds 24 1016 83 10000 2.1 140 22:57 04.08.2019
4203 Clouds 24 1016 83 10000 2.1 140 22:38 04.08.2019
4204 Clouds 24 1016 83 10000 2.1 140 22:20 04.08.2019
4205 Clouds 23 1016 83 10000 2.1 140 21:56 04.08.2019
4206 Rain 20 1016 97 0 1.51 89.129 21:37 04.08.2019
4207 Clouds 23 1015 83 10000 1.5 150 21:19 04.08.2019
4208 Clouds 23 1015 83 10000 1.5 150 20:41 04.08.2019
4209 Clouds 23 1015 83 10000 1.5 150 20:19 04.08.2019
4210 Clouds 23 1015 88 10000 1.5 150 19:49 04.08.2019
4211 Clouds 23 1015 88 10000 1.5 150 19:28 04.08.2019
4212 Clouds 22 1015 94 10000 1.5 150 18:58 04.08.2019
4213 Clouds 22 1015 94 10000 1.5 150 18:40 04.08.2019
4214 Clouds 22 1015 94 10000 1.5 150 18:20 04.08.2019
4215 Clouds 22 1015 100 10000 0.92 82.277 17:43 04.08.2019
4216 Clouds 22 1015 100 10000 0.92 82.277 17:22 04.08.2019
4217 Clouds 22 1016 94 10000 1 0 16:45 04.08.2019
4218 Clouds 22 1016 94 10000 1 0 16:27 04.08.2019
4219 Clouds 22 1016 94 10000 1.5 300 15:55 04.08.2019
4220 Clouds 22 1016 94 10000 1.5 300 15:37 04.08.2019
4221 Clouds 22 1016 94 10000 1.5 300 15:37 04.08.2019
4222 Clouds 22 1016 94 10000 1.5 300 15:18 04.08.2019
4223 Rain 21 1017 100 10000 1.5 300 14:42 04.08.2019
4224 Rain 21 1017 100 10000 1.5 300 14:21 04.08.2019
4225 Rain 22 1017 94 10000 2.1 300 13:43 04.08.2019
4226 Clouds 24 1017 78 10000 1.11 86.857 13:24 04.08.2019
4227 Clouds 24 1017 78 10000 1.11 86.857 12:55 04.08.2019
4228 Rain 18 1016 99 0 1.11 86.857 12:37 04.08.2019
4229 Clouds 24 1017 78 10000 2.6 150 12:18 04.08.2019
4230 Clouds 24 1017 78 10000 2.6 150 11:41 04.08.2019
4231 Clouds 24 1016 78 10000 2.6 140 11:22 04.08.2019
4232 Clouds 24 1016 78 10000 2.6 140 10:43 04.08.2019
4233 Clouds 23 1016 78 10000 2.6 130 10:21 04.08.2019
4234 Clouds 23 1016 78 10000 2.6 130 09:46 04.08.2019
4235 Clouds 24 1015 78 10000 5.1 140 09:25 04.08.2019
4236 Clouds 24 1015 78 10000 5.1 140 08:53 04.08.2019
4237 Clouds 24 1015 83 10000 3.6 140 08:32 04.08.2019
4238 Clouds 24 1015 83 10000 3.6 140 07:53 04.08.2019
4239 Clouds 24 1014 78 10000 3.6 140 07:22 04.08.2019
4240 Rain 23 1014 94 10000 4.1 130 06:28 04.08.2019
4241 Clouds 24 1014 73 10000 5.1 130 04:43 04.08.2019
4242 Clouds 24 1016 88 10000 5.1 140 02:47 04.08.2019
4243 Rain 23 1017 94 10000 4.6 150 01:44 04.08.2019
4244 Clouds 25 1017 78 10000 4.1 140 01:25 04.08.2019
4245 Rain 20 1015 98 0 1.36 114.514 00:41 04.08.2019
4246 Clouds 23 1017 88 10000 2.1 140 00:19 04.08.2019
4247 Clouds 23 1017 88 10000 2.1 140 23:41 03.08.2019
4248 Clouds 22 1017 94 10000 2.6 130 23:18 03.08.2019
4249 Clouds 22 1017 94 10000 2.6 130 22:45 03.08.2019
4250 Clouds 22 1017 94 10000 2.6 130 22:45 03.08.2019
4251 Rain 22 1016 94 10000 2.6 150 22:22 03.08.2019
4252 Rain 22 1016 94 10000 2.6 150 21:59 03.08.2019
4253 Rain 20 1016 99 0 1.44 111.448 21:37 03.08.2019
4254 Clouds 22 1015 94 10000 3.1 120 21:19 03.08.2019
4255 Clouds 22 1015 94 10000 3.1 120 20:42 03.08.2019
4256 Rain 22 1015 94 10000 3.1 150 20:22 03.08.2019
4257 Rain 22 1015 94 10000 3.1 150 19:43 03.08.2019
4258 Clouds 22 1015 94 10000 2.6 150 19:24 03.08.2019
4259 Clouds 22 1015 94 10000 2.6 150 19:24 03.08.2019
4260 Clouds 22 1015 94 10000 2.6 150 18:56 03.08.2019
4261 Clouds 22 1015 94 10000 3.1 140 18:27 03.08.2019
4262 Clouds 22 1015 94 10000 3.1 140 17:49 03.08.2019
4263 Rain 22 1016 94 10000 4.6 130 17:22 03.08.2019
4264 Rain 22 1016 94 10000 4.6 130 16:56 03.08.2019
4265 Clouds 23 1016 88 10000 3.1 140 16:37 03.08.2019
4266 Clouds 23 1016 88 10000 3.1 140 16:19 03.08.2019
4267 Rain 19 1014 99 0 0.69 112.466 15:43 03.08.2019
4268 Clouds 22 1016 94 10000 4.6 140 15:23 03.08.2019
4269 Clouds 22 1016 94 10000 4.6 140 14:41 03.08.2019
4270 Rain 22 1017 94 10000 2.6 160 14:21 03.08.2019
4271 Rain 22 1017 94 10000 2.6 160 14:21 03.08.2019
4272 Rain 22 1017 94 10000 2.6 160 13:52 03.08.2019
4273 Clouds 23 1016 94 10000 2.6 140 13:25 03.08.2019
4274 Clouds 23 1016 94 10000 2.6 140 12:58 03.08.2019
4275 Rain 19 1015 99 0 1.11 117.513 12:39 03.08.2019
4276 Clouds 22 1016 94 10000 3.1 140 12:21 03.08.2019
4277 Clouds 22 1016 94 10000 3.1 140 11:48 03.08.2019
4278 Rain 23 1016 94 10000 4.1 120 11:26 03.08.2019
4279 Rain 23 1016 94 10000 4.1 120 10:41 03.08.2019
4280 Clouds 24 1015 83 10000 3.6 140 10:22 03.08.2019
4281 Clouds 24 1015 83 10000 3.6 140 09:41 03.08.2019
4282 Clouds 24 1015 83 10000 4.1 140 09:21 03.08.2019
4283 Clouds 24 1015 83 10000 4.1 140 08:46 03.08.2019
4284 Clouds 24 1014 94 10000 4.1 140 07:49 03.08.2019
4285 Clouds 24 1014 83 10000 4.6 140 07:30 03.08.2019
4286 Clouds 25 1014 83 10000 4.6 130 06:23 03.08.2019
4287 Drizzle 25 1015 83 10000 5.1 120 03:58 03.08.2019
4288 Clouds 24 1016 88 10000 4.1 140 02:29 03.08.2019
4289 Rain 24 1017 94 10000 3.6 110 01:34 03.08.2019
4290 Rain 20 1015 98 0 1.08 127.996 00:38 03.08.2019
4291 Rain 23 1017 94 10000 1.5 170 23:57 02.08.2019
4292 Rain 20 1016 98 0 0.61 115.301 23:38 02.08.2019
4293 Rain 22 1016 100 10000 2.1 190 23:18 02.08.2019
4294 Rain 22 1016 100 10000 2.1 190 22:55 02.08.2019
4295 Rain 20 1016 98 0 0.61 115.301 22:36 02.08.2019
4296 Rain 22 1016 100 10000 2.1 170 22:18 02.08.2019
4297 Rain 22 1016 100 10000 2.1 170 21:41 02.08.2019
4298 Rain 22 1015 100 10000 2.6 160 21:22 02.08.2019
4299 Rain 22 1015 100 10000 2.6 160 20:45 02.08.2019
4300 Rain 22 1015 100 10000 1 120 20:27 02.08.2019
4301 Rain 22 1015 100 10000 1 120 19:56 02.08.2019
4302 Rain 22 1015 94 10000 1.5 180 19:34 02.08.2019
4303 Rain 22 1015 94 10000 1.5 180 18:57 02.08.2019
4304 Rain 19 1014 99 0 1.02 81.403 18:39 02.08.2019
4305 Rain 22 1015 94 10000 1 310 18:20 02.08.2019
4306 Rain 22 1015 94 10000 1 310 17:42 02.08.2019
4307 Clouds 22 1016 94 10000 1 160 17:22 02.08.2019
4308 Rain 19 1014 99 0 0.79 79.559 16:40 02.08.2019
4309 Rain 19 1014 99 0 0.79 79.559 16:40 02.08.2019
4310 Rain 22 1016 94 10000 1 140 16:21 02.08.2019
4311 Rain 22 1016 94 10000 1 140 15:58 02.08.2019
4312 Rain 19 1014 99 0 0.79 79.559 15:38 02.08.2019
4313 Clouds 23 1016 88 10000 2.6 130 15:18 02.08.2019
4314 Clouds 23 1016 88 10000 2.6 130 14:45 02.08.2019
4315 Rain 24 1016 83 10000 2.6 130 14:18 02.08.2019
4316 Rain 24 1016 83 10000 2.6 130 13:47 02.08.2019
4317 Clouds 24 1016 78 10000 2.6 120 13:23 02.08.2019
4318 Rain 19 1015 99 0 1.01 83.872 12:44 02.08.2019
4319 Rain 23 1016 88 10000 2.6 140 12:21 02.08.2019
4320 Rain 23 1016 88 10000 2.6 140 11:46 02.08.2019
4321 Clouds 24 1016 78 10000 2.6 120 11:26 02.08.2019
4322 Clouds 24 1016 78 10000 2.6 120 10:55 02.08.2019
4323 Rain 19 1016 99 0 1.14 84.104 10:37 02.08.2019
4324 Clouds 24 1015 78 10000 2.6 130 10:18 02.08.2019
4325 Clouds 24 1015 78 10000 2.6 130 09:44 02.08.2019
4326 Clouds 24 1015 78 10000 3.1 130 09:24 02.08.2019
4327 Clouds 24 1015 78 10000 3.1 130 08:44 02.08.2019
4328 Clouds 24 1014 78 10000 2.6 130 08:21 02.08.2019
4329 Clouds 24 1014 78 10000 2.6 130 07:48 02.08.2019
4330 Clouds 24 1014 78 10000 4.1 140 07:28 02.08.2019
4331 Clouds 24 1014 78 10000 4.1 140 06:42 02.08.2019
4332 Clouds 24 1014 83 10000 3.1 140 05:50 02.08.2019
4333 Clouds 24 1015 78 10000 3.6 150 03:54 02.08.2019
4334 Clouds 25 1016 83 10000 4.1 150 03:24 02.08.2019
4335 Rain 20 1014 96 0 1.84 121.561 01:44 02.08.2019
4336 Rain 19 1014 98 0 1.68 116.748 00:35 02.08.2019
4337 Rain 20 1017 98 0 1.55 126.301 23:46 01.08.2019
4338 Clouds 23 1016 83 10000 2.6 170 23:27 01.08.2019
4339 Clouds 23 1016 83 10000 2.6 170 22:46 01.08.2019
4340 Clouds 23 1016 83 10000 2.6 170 22:26 01.08.2019
4341 Clouds 23 1016 83 10000 2.1 160 21:59 01.08.2019
4342 Clouds 23 1016 83 10000 2.1 160 21:41 01.08.2019
4343 Clouds 23 1016 83 10000 2.1 160 21:23 01.08.2019
4344 Clouds 22 1016 88 10000 2.1 180 20:47 01.08.2019
4345 Clouds 22 1016 88 10000 2.1 180 20:23 01.08.2019
4346 Rain 22 1015 94 10000 3.1 160 19:59 01.08.2019
4347 Rain 22 1015 94 10000 3.1 160 19:38 01.08.2019
4348 Rain 22 1015 94 10000 3.1 160 19:18 01.08.2019
4349 Rain 22 1015 94 10000 3.1 170 18:43 01.08.2019
4350 Rain 22 1015 94 10000 3.1 170 18:24 01.08.2019
4351 Rain 22 1015 94 10000 3.1 170 18:24 01.08.2019
4352 Rain 22 1015 100 10000 3.1 160 17:49 01.08.2019
4353 Rain 22 1015 100 10000 3.1 160 17:30 01.08.2019
4354 Rain 22 1016 100 10000 2.1 160 16:45 01.08.2019
4355 Rain 22 1016 100 10000 2.1 160 16:23 01.08.2019
4356 Rain 22 1016 100 10000 1.5 160 15:56 01.08.2019
4357 Rain 22 1016 100 10000 1.5 160 15:38 01.08.2019
4358 Rain 22 1016 100 10000 1.5 160 15:18 01.08.2019
4359 Clouds 22 1016 100 10000 1.5 180 14:42 01.08.2019
4360 Clouds 22 1016 100 10000 1.5 180 14:19 01.08.2019
4361 Rain 22 1017 100 10000 1.5 190 13:57 01.08.2019
4362 Rain 22 1017 100 10000 1.5 190 13:57 01.08.2019
4363 Rain 22 1017 100 10000 1.5 190 13:57 01.08.2019
4364 Rain 22 1017 100 10000 1.5 190 13:38 01.08.2019
4365 Rain 22 1017 100 10000 1.5 190 13:20 01.08.2019
4366 Rain 22 1017 100 8000 1.5 210 12:42 01.08.2019
4367 Rain 22 1017 100 8000 1.5 210 12:23 01.08.2019
4368 Rain 22 1016 100 8000 2.1 190 11:43 01.08.2019
4369 Rain 22 1016 100 8000 2.1 190 11:24 01.08.2019
4370 Rain 22 1016 100 8000 2.6 190 10:46 01.08.2019
4371 Rain 22 1016 100 8000 2.6 190 10:28 01.08.2019
4372 Rain 22 1015 100 8000 2.1 200 09:59 01.08.2019
4373 Rain 22 1015 100 8000 2.1 200 09:41 01.08.2019
4374 Rain 22 1015 100 8000 2.1 200 09:41 01.08.2019
4375 Rain 22 1015 100 8000 2.1 200 09:22 01.08.2019
4376 Rain 22 1014 100 6000 3.1 200 08:45 01.08.2019
4377 Rain 22 1014 100 6000 3.1 200 08:20 01.08.2019
4378 Rain 23 1014 94 6000 2.1 180 07:50 01.08.2019
4379 Rain 23 1014 94 6000 2.1 180 07:25 01.08.2019
4380 Rain 23 1013 94 6000 2.6 190 06:49 01.08.2019
4381 Rain 23 1013 94 6000 3.1 200 05:51 01.08.2019
4382 Rain 24 1014 94 10000 3.1 170 04:24 01.08.2019
4383 Rain 23 1015 100 8000 4.1 170 02:33 01.08.2019
4384 Rain 23 1015 100 8000 3.6 190 00:43 01.08.2019
4385 Rain 23 1015 100 8000 3.6 190 00:24 01.08.2019
4386 Rain 23 1015 94 8000 3.1 190 23:43 31.07.2019
4387 Drizzle 23 1015 100 10000 3.1 190 23:21 31.07.2019
4388 Drizzle 23 1015 100 10000 3.1 190 23:21 31.07.2019
4389 Drizzle 23 1015 100 10000 3.1 190 22:48 31.07.2019
4390 Rain 23 1014 94 8000 2.6 180 22:30 31.07.2019
4391 Rain 23 1014 94 8000 2.6 180 21:57 31.07.2019
4392 Rain 23 1014 94 8000 2.6 180 21:37 31.07.2019
4393 Rain 23 1014 94 8000 2.6 180 21:18 31.07.2019
4394 Rain 23 1014 94 8000 2.6 180 21:18 31.07.2019
4395 Rain 20 1013 99 0 0.49 120.418 20:41 31.07.2019
4396 Rain 23 1013 100 10000 2.6 160 20:21 31.07.2019
4397 Rain 23 1013 100 10000 2.6 160 19:41 31.07.2019
4398 Rain 23 1013 100 10000 2.6 160 19:23 31.07.2019
4399 Clouds 24 1012 94 10000 0.49 120.418 18:53 31.07.2019
4400 Drizzle 24 1013 94 10000 0.46 105.637 18:25 31.07.2019
4401 Drizzle 24 1013 94 10000 0.46 105.637 17:57 31.07.2019
4402 Rain 20 1013 99 0 0.46 105.637 17:39 31.07.2019
4403 Clouds 24 1013 94 10000 0.46 105.637 17:19 31.07.2019
4404 Clouds 24 1013 94 10000 0.46 105.637 16:43 31.07.2019
4405 Drizzle 24 1014 94 10000 1 170 16:20 31.07.2019
4406 Drizzle 24 1014 94 10000 1 170 15:44 31.07.2019
4407 Clouds 24 1014 100 10000 1 360 15:24 31.07.2019
4408 Clouds 24 1014 100 10000 1 360 14:43 31.07.2019
4409 Clouds 24 1014 100 10000 1.5 330 14:21 31.07.2019
4410 Clouds 24 1014 100 10000 1.5 330 13:57 31.07.2019
4411 Clouds 24 1014 100 10000 1.5 330 13:57 31.07.2019
4412 Rain 20 1013 98 0 0.6 107.89 13:38 31.07.2019
4413 Drizzle 24 1014 100 10000 0.59 125.143 13:19 31.07.2019
4414 Clouds 20 1014 98 0 0.59 125.143 12:44 31.07.2019
4415 Clouds 24 1014 94 10000 2.1 110 12:26 31.07.2019
4416 Clouds 24 1014 94 10000 2.1 110 11:54 31.07.2019
4417 Clouds 24 1013 94 10000 0.72 90.16 11:36 31.07.2019
4418 Clouds 24 1013 94 10000 0.72 90.16 11:18 31.07.2019
4419 Clouds 24 1013 94 10000 0.72 90.16 10:40 31.07.2019
4420 Clouds 24 1013 94 10000 0.72 90.16 10:20 31.07.2019
4421 Clouds 24 1013 94 10000 0.72 90.16 09:43 31.07.2019
4422 Clouds 25 1012 88 10000 2.6 90 09:24 31.07.2019
4423 Clouds 25 1012 88 10000 2.6 90 08:44 31.07.2019
4424 Clouds 26 1012 78 10000 4.1 100 08:25 31.07.2019
4425 Clouds 26 1012 78 10000 4.1 100 07:56 31.07.2019
4426 Clouds 27 1012 78 10000 3.6 90 07:33 31.07.2019
4427 Clouds 28 1011 69 10000 4.6 90 05:54 31.07.2019
4428 Clouds 27 1012 69 10000 4.1 90 04:41 31.07.2019
4429 Clouds 26 1014 83 10000 2.6 130 00:57 31.07.2019
4430 Rain 24 1014 94 10000 1.5 80 23:51 30.07.2019
4431 Clouds 25 1014 88 10000 1 0 23:30 30.07.2019
4432 Clouds 25 1014 88 10000 1 0 22:59 30.07.2019
4433 Rain 21 1014 97 0 0.84 111.296 22:41 30.07.2019
4434 Clouds 24 1013 94 10000 1 0 22:21 30.07.2019
4435 Rain 21 1014 97 0 0.84 111.296 21:38 30.07.2019
4436 Clouds 24 1012 94 10000 1 0 21:19 30.07.2019
4437 Clouds 24 1012 94 10000 1 0 20:57 30.07.2019
4438 Clouds 20 1012 99 0 0.73 107.64 20:38 30.07.2019
4439 Clouds 24 1012 94 10000 1 90 20:19 30.07.2019
4440 Clouds 24 1012 94 10000 1 90 19:47 30.07.2019
4441 Drizzle 24 1012 94 10000 0.73 107.64 19:29 30.07.2019
4442 Drizzle 24 1012 94 10000 0.73 107.64 18:48 30.07.2019
4443 Clouds 24 1012 94 10000 0.73 107.64 18:26 30.07.2019
4444 Clouds 24 1012 94 10000 0.6 114.215 17:58 30.07.2019
4445 Rain 21 1012 99 0 0.6 114.215 17:40 30.07.2019
4446 Clouds 24 1013 94 10000 0.6 114.215 17:18 30.07.2019
4447 Clouds 24 1013 94 10000 0.6 114.215 16:46 30.07.2019
4448 Clouds 24 1013 94 10000 0.6 114.215 16:46 30.07.2019
4449 Clouds 24 1013 94 10000 0.6 114.215 16:19 30.07.2019
4450 Rain 21 1012 99 0 0.6 114.215 15:41 30.07.2019
4451 Clouds 24 1014 94 10000 2.1 180 15:22 30.07.2019
4452 Clouds 24 1014 94 10000 2.1 180 14:46 30.07.2019
4453 Clouds 24 1014 94 10000 2.1 150 14:26 30.07.2019
4454 Clouds 24 1014 94 10000 2.1 150 13:56 30.07.2019
4455 Rain 20 1013 100 0 0.33 123.111 13:37 30.07.2019
4456 Clouds 24 1014 94 10000 2.1 170 13:19 30.07.2019
4457 Clouds 24 1014 94 10000 2.1 170 12:46 30.07.2019
4458 Clouds 25 1014 88 10000 1.5 150 12:27 30.07.2019
4459 Clouds 25 1014 88 10000 1.5 150 11:47 30.07.2019
4460 Clouds 25 1013 88 10000 1.5 140 11:29 30.07.2019
4461 Clouds 25 1013 88 10000 1.5 140 10:59 30.07.2019
4462 Rain 21 1013 99 0 0.4 154.722 10:39 30.07.2019
4463 Clouds 25 1012 88 10000 1.5 160 10:20 30.07.2019
4464 Clouds 25 1012 88 10000 1.5 160 09:48 30.07.2019
4465 Clouds 25 1012 83 10000 1.5 160 09:28 30.07.2019
4466 Clouds 25 1012 83 10000 1.5 160 08:42 30.07.2019
4467 Clouds 26 1011 83 10000 2.1 160 08:19 30.07.2019
4468 Clouds 26 1011 83 10000 2.1 160 07:43 30.07.2019
4469 Clouds 26 1011 83 10000 2.6 170 07:23 30.07.2019
4470 Clouds 26 1011 83 10000 2.6 170 06:44 30.07.2019
4471 Clouds 28 1011 74 10000 2.6 170 05:36 30.07.2019
4472 Rain 24 1010 92 0 0.66 169.305 04:42 30.07.2019
4473 Clouds 26 1014 83 10000 2.1 170 01:23 30.07.2019
4474 Clouds 24 1014 94 10000 1.5 270 00:28 30.07.2019
4475 Clouds 24 1014 94 10000 1.5 270 23:59 29.07.2019
4476 Clouds 23 1013 100 10000 1.5 310 23:40 29.07.2019
4477 Clouds 23 1013 100 10000 1.5 310 23:21 29.07.2019
4478 Clouds 23 1013 100 10000 1.5 310 22:55 29.07.2019
4479 Clear 23 1014 90 0 0.68 138.025 22:37 29.07.2019
4480 Clouds 22 1013 100 10000 1.5 310 22:18 29.07.2019
4481 Clear 23 1014 90 0 0.68 138.025 21:41 29.07.2019
4482 Clouds 22 1012 100 10000 1 340 21:23 29.07.2019
4483 Clouds 22 1012 100 10000 1 340 20:57 29.07.2019
4484 Clouds 22 1012 100 10000 1 340 20:57 29.07.2019
4485 Clouds 18 1012 98 0 0.27 41.285 20:38 29.07.2019
4486 Clouds 22 1011 100 10000 1 320 20:19 29.07.2019
4487 Clouds 18 1012 98 0 0.27 41.285 19:45 29.07.2019
4488 Clouds 22 1011 100 10000 2.1 280 19:23 29.07.2019
4489 Clouds 22 1011 100 10000 2.1 280 18:57 29.07.2019
4490 Clouds 22 1012 100 10000 1.5 310 18:38 29.07.2019
4491 Clouds 22 1012 100 10000 1.5 310 18:19 29.07.2019
4492 Clouds 22 1012 100 10000 1.5 310 17:47 29.07.2019
4493 Clouds 23 1012 94 10000 1 260 17:27 29.07.2019
4494 Clouds 23 1012 94 10000 1 260 16:47 29.07.2019
4495 Clouds 23 1013 100 10000 0.2 15.631 16:29 29.07.2019
4496 Clouds 23 1013 100 10000 0.2 15.631 15:54 29.07.2019
4497 Clouds 19 1011 98 0 0.2 15.631 15:36 29.07.2019
4498 Clouds 23 1013 100 10000 0.06 168.69 14:59 29.07.2019
4499 Clouds 23 1013 100 10000 0.06 168.69 14:40 29.07.2019
4500 Clouds 23 1013 94 10000 1 330 14:21 29.07.2019
4501 Clouds 23 1013 94 10000 1 330 13:45 29.07.2019
4502 Clouds 23 1013 94 10000 1 330 13:45 29.07.2019
4503 Clouds 23 1013 100 10000 1 0 13:23 29.07.2019
4504 Clouds 23 1013 100 10000 1 0 12:45 29.07.2019
4505 Clouds 24 1013 94 10000 0.14 340.514 12:26 29.07.2019
4506 Clouds 24 1013 94 10000 0.14 340.514 12:26 29.07.2019
4507 Clouds 24 1013 94 10000 0.47 18.086 11:45 29.07.2019
4508 Clouds 24 1013 94 10000 0.47 18.086 11:24 29.07.2019
4509 Clouds 24 1013 94 10000 0.47 18.086 10:59 29.07.2019
4510 Clouds 19 1013 98 0 0.47 18.086 10:40 29.07.2019
4511 Rain 24 1012 94 10000 1.5 230 10:21 29.07.2019
4512 Rain 24 1012 94 10000 1.5 230 09:41 29.07.2019
4513 Rain 25 1011 94 10000 1.5 270 09:21 29.07.2019
4514 Rain 25 1011 94 10000 1.5 270 08:42 29.07.2019
4515 Rain 26 1011 88 10000 2.1 210 08:22 29.07.2019
4516 Rain 26 1011 88 10000 2.1 210 07:45 29.07.2019
4517 Clouds 26 1011 88 10000 1.5 190 07:24 29.07.2019
4518 Clouds 27 1010 78 10000 2.6 170 05:52 29.07.2019
4519 Clouds 28 1011 78 10000 2.6 160 05:31 29.07.2019
4520 Rain 26 1012 75 0 1.06 206.058 02:43 29.07.2019
4521 Clouds 28 1013 78 10000 1.5 270 01:47 29.07.2019
4522 Clouds 27 1014 83 10000 1 0 01:26 29.07.2019
4523 Clouds 27 1014 83 10000 1 0 00:52 29.07.2019
4524 Clouds 25 1014 88 10000 1 0 00:23 29.07.2019
4525 Clouds 25 1014 88 10000 1 0 23:41 28.07.2019
4526 Clouds 23 1014 100 10000 1.5 310 23:19 28.07.2019
4527 Clouds 23 1014 100 10000 1.5 310 22:42 28.07.2019
4528 Clouds 23 1014 100 10000 1.5 310 22:42 28.07.2019
4529 Clouds 22 1013 100 10000 0.56 198.338 22:23 28.07.2019
4530 Clouds 22 1013 100 10000 0.56 198.338 21:50 28.07.2019
4531 Clouds 21 1012 100 10000 1 310 21:20 28.07.2019
4532 Clouds 21 1012 100 10000 1 310 20:49 28.07.2019
4533 Clouds 22 1012 100 10000 0.5 3.319 20:30 28.07.2019
4534 Clouds 22 1012 100 10000 0.5 3.319 19:57 28.07.2019
4535 Clear 19 1012 98 0 0.5 3.319 19:38 28.07.2019
4536 Clouds 22 1012 100 10000 0.5 3.319 19:19 28.07.2019
4537 Clear 19 1012 98 0 0.5 3.319 18:43 28.07.2019
4538 Clouds 23 1012 100 10000 0.72 3.74 18:24 28.07.2019
4539 Clouds 23 1012 100 10000 0.72 3.74 17:43 28.07.2019
4540 Clouds 23 1012 100 10000 0.72 3.74 17:22 28.07.2019
4541 Clouds 23 1012 100 10000 0.72 3.74 16:58 28.07.2019
4542 Clouds 23 1012 100 10000 0.72 3.74 16:58 28.07.2019
4543 Clear 19 1011 98 0 0.72 3.74 16:39 28.07.2019
4544 Clouds 23 1013 100 10000 1.5 320 16:21 28.07.2019
4545 Clear 19 1011 98 0 0.72 3.74 15:43 28.07.2019
4546 Clouds 24 1013 94 10000 1.06 23.864 15:21 28.07.2019
4547 Clouds 20 1013 99 0 1.06 23.864 14:38 28.07.2019
4548 Rain 24 1013 94 10000 3.1 310 14:19 28.07.2019
4549 Rain 24 1013 94 10000 3.1 310 13:45 28.07.2019
4550 Clouds 24 1014 100 10000 4.6 50 13:25 28.07.2019
4551 Clouds 24 1014 100 10000 4.6 50 12:59 28.07.2019
4552 Clouds 19 1013 98 0 1.2 27.376 12:40 28.07.2019
4553 Clouds 24 1014 100 10000 4.6 70 12:22 28.07.2019
4554 Clouds 24 1014 100 10000 4.6 70 11:47 28.07.2019
4555 Rain 24 1013 100 10000 3.1 70 11:27 28.07.2019
4556 Rain 24 1013 100 10000 3.1 70 10:41 28.07.2019
4557 Clouds 24 1013 100 10000 3.1 50 10:22 28.07.2019
4558 Clouds 24 1013 100 10000 3.1 50 09:47 28.07.2019
4559 Clouds 24 1012 94 10000 4.1 60 09:29 28.07.2019
4560 Clouds 24 1012 94 10000 4.1 60 08:52 28.07.2019
4561 Rain 20 1012 99 0 1.45 59.408 08:29 28.07.2019
4562 Rain 20 1012 99 0 1.45 59.408 07:59 28.07.2019
4563 Rain 20 1012 99 0 1.45 59.408 07:37 28.07.2019
4564 Rain 24 1012 94 5000 4.6 80 06:45 28.07.2019
4565 Rain 24 1012 94 5000 4.6 80 05:44 28.07.2019
4566 Rain 21 1011 98 0 1.37 74.855 03:31 28.07.2019
4567 Rain 23 1013 89 0 1.44 79.791 02:24 28.07.2019
4568 Rain 24 1016 94 9000 4.6 100 01:19 28.07.2019
4569 Rain 24 1016 94 9000 4.6 100 00:45 28.07.2019
4570 Rain 24 1016 94 10000 2.6 90 00:18 28.07.2019
4571 Rain 24 1016 94 10000 2.6 90 23:46 27.07.2019
4572 Clouds 22 1016 94 10000 1.09 98.473 23:20 27.07.2019
4573 Clouds 22 1016 94 10000 1.09 98.473 22:41 27.07.2019
4574 Clouds 22 1015 94 10000 1.09 98.473 22:20 27.07.2019
4575 Clouds 22 1015 94 10000 1.09 98.473 21:41 27.07.2019
4576 Clouds 21 1014 100 10000 0.9 78.603 21:20 27.07.2019
4577 Clouds 21 1014 100 10000 0.98 69.451 20:51 27.07.2019
4578 Clouds 22 1014 94 10000 0.98 69.451 20:25 27.07.2019
4579 Clouds 22 1014 94 10000 0.98 69.451 19:46 27.07.2019
4580 Clouds 22 1014 94 10000 0.98 69.451 19:27 27.07.2019
4581 Clouds 22 1014 94 10000 0.98 69.451 18:54 27.07.2019
4582 Clouds 18 1014 99 0 0.98 69.451 18:36 27.07.2019
4583 Clouds 22 1014 94 10000 1.1 76.644 17:57 27.07.2019
4584 Clouds 17 1013 99 0 1.1 76.644 17:36 27.07.2019
4585 Clouds 22 1015 94 10000 1.1 76.644 17:18 27.07.2019
4586 Clouds 22 1015 94 10000 1.1 76.644 16:42 27.07.2019
4587 Clouds 22 1015 100 10000 1.1 76.644 16:23 27.07.2019
4588 Clouds 22 1015 100 10000 1.1 76.644 15:52 27.07.2019
4589 Clouds 22 1015 100 10000 1.31 62.479 15:21 27.07.2019
4590 Clouds 22 1015 100 10000 1.31 62.479 15:21 27.07.2019
4591 Clouds 22 1015 100 10000 1.31 62.479 14:51 27.07.2019
4592 Clouds 22 1015 100 10000 1.31 62.479 14:31 27.07.2019
4593 Clouds 22 1015 100 10000 1.31 62.479 13:56 27.07.2019
4594 Clouds 18 1014 99 0 1.31 62.479 13:37 27.07.2019
4595 Clouds 22 1015 100 10000 1.22 60.991 13:18 27.07.2019
4596 Clouds 22 1015 100 10000 1.22 60.991 12:41 27.07.2019
4597 Rain 22 1015 100 10000 1.5 270 12:21 27.07.2019
4598 Rain 22 1015 100 10000 1.5 270 11:42 27.07.2019
4599 Rain 23 1015 100 10000 0.87 107.767 11:24 27.07.2019
4600 Rain 19 1014 99 0 0.87 107.767 10:42 27.07.2019
4601 Rain 23 1014 100 10000 2.6 110 10:23 27.07.2019
4602 Rain 19 1014 99 0 0.87 107.767 09:43 27.07.2019
4603 Rain 23 1014 94 10000 2.1 180 09:24 27.07.2019
4604 Rain 23 1014 94 10000 2.1 180 08:53 27.07.2019
4605 Rain 23 1014 94 10000 2.1 180 08:53 27.07.2019
4606 Rain 23 1014 94 9000 2.6 190 08:34 27.07.2019
4607 Rain 23 1014 94 9000 2.6 190 07:58 27.07.2019
4608 Rain 18 1013 99 0 1.12 141.324 07:40 27.07.2019
4609 Rain 23 1013 94 9000 3.6 190 07:20 27.07.2019
4610 Rain 23 1013 94 9000 3.6 190 06:49 27.07.2019
4611 Rain 23 1013 94 9000 3.6 190 06:49 27.07.2019
4612 Rain 24 1013 94 10000 3.1 190 06:21 27.07.2019
4613 Clouds 23 1013 94 10000 4.6 200 05:35 27.07.2019
4614 Clouds 23 1013 94 10000 4.6 200 04:41 27.07.2019
4615 Rain 23 1013 94 10000 5.7 180 03:40 27.07.2019
4616 Rain 23 1014 94 10000 4.1 180 02:43 27.07.2019
4617 Rain 23 1014 94 8000 5.7 180 01:57 27.07.2019
4618 Rain 23 1014 94 8000 5.7 180 01:32 27.07.2019
4619 Rain 23 1015 94 5000 4.6 180 00:38 27.07.2019
4620 Rain 23 1015 94 5000 4.6 180 00:18 27.07.2019
4621 Rain 23 1015 94 5000 3.6 190 23:41 26.07.2019
4622 Rain 23 1015 94 5000 3.6 190 23:23 26.07.2019
4623 Rain 22 1014 100 5000 2.6 180 22:42 26.07.2019
4624 Rain 22 1014 100 5000 2.6 180 22:24 26.07.2019
4625 Rain 22 1013 100 10000 2.6 190 21:51 26.07.2019
4626 Rain 22 1013 100 10000 3.6 160 21:20 26.07.2019
4627 Rain 22 1013 100 10000 3.6 160 20:51 26.07.2019
4628 Rain 22 1013 100 10000 3.6 170 20:32 26.07.2019
4629 Rain 22 1013 100 10000 3.6 170 19:45 26.07.2019
4630 Rain 22 1013 100 10000 2.1 160 19:26 26.07.2019
4631 Rain 22 1013 100 10000 2.1 160 18:59 26.07.2019
4632 Rain 20 1013 99 0 0.75 205.303 18:41 26.07.2019
4633 Rain 22 1013 100 10000 2.1 160 18:20 26.07.2019
4634 Rain 22 1013 100 10000 2.1 160 17:48 26.07.2019
4635 Rain 22 1014 100 10000 2.1 160 17:20 26.07.2019
4636 Rain 22 1014 100 10000 2.1 160 16:59 26.07.2019
4637 Rain 22 1014 100 10000 2.1 160 16:41 26.07.2019
4638 Rain 22 1014 100 10000 1.5 180 16:21 26.07.2019
4639 Rain 22 1014 100 10000 1.5 180 15:59 26.07.2019
4640 Rain 19 1013 99 0 0.21 130.156 15:40 26.07.2019
4641 Rain 22 1015 94 10000 2.1 110 15:20 26.07.2019
4642 Rain 22 1015 94 10000 2.1 110 14:44 26.07.2019
4643 Rain 22 1015 94 10000 1.5 140 14:23 26.07.2019
4644 Rain 22 1015 94 10000 1.5 140 13:47 26.07.2019
4645 Rain 22 1015 94 10000 1 0 13:27 26.07.2019
4646 Rain 22 1015 94 10000 1 0 12:49 26.07.2019
4647 Clouds 22 1016 94 10000 0.97 64.997 12:23 26.07.2019
4648 Clouds 22 1016 94 10000 0.97 64.997 11:56 26.07.2019
4649 Rain 19 1015 99 0 0.97 64.997 11:36 26.07.2019
4650 Clouds 22 1015 94 10000 2.6 110 11:18 26.07.2019
4651 Rain 19 1015 99 0 0.97 64.997 10:39 26.07.2019
4652 Rain 22 1015 94 10000 0.97 64.997 10:19 26.07.2019
4653 Rain 22 1015 94 10000 0.97 64.997 09:50 26.07.2019
4654 Clouds 22 1015 94 10000 0.97 64.997 09:27 26.07.2019
4655 Clouds 22 1015 94 10000 1.65 57.319 08:41 26.07.2019
4656 Rain 22 1014 94 8000 1.5 140 08:21 26.07.2019
4657 Rain 22 1014 94 8000 1.5 140 07:40 26.07.2019
4658 Rain 22 1014 94 8000 1.5 140 07:21 26.07.2019
4659 Clouds 23 1014 88 10000 3.1 140 06:21 26.07.2019
4660 Rain 22 1015 94 10000 2.6 120 04:30 26.07.2019
4661 Rain 22 1015 94 10000 2.6 120 03:53 26.07.2019
4662 Clouds 25 1016 73 10000 4.1 90 01:49 26.07.2019
4663 Clouds 24 1017 83 10000 1.97 81.487 01:19 26.07.2019
4664 Clouds 22 1017 88 10000 1.97 81.487 00:29 26.07.2019
4665 Clouds 22 1017 88 10000 2.08 76.424 23:46 25.07.2019
4666 Clouds 21 1017 94 10000 1 0 23:20 25.07.2019
4667 Clouds 21 1017 94 10000 1 0 23:20 25.07.2019
4668 Clouds 21 1017 94 10000 1 0 22:41 25.07.2019
4669 Clouds 21 1017 94 10000 1 0 22:41 25.07.2019
4670 Clouds 21 1016 94 10000 1 0 22:22 25.07.2019
4671 Clouds 21 1016 94 10000 1 0 21:48 25.07.2019
4672 Clouds 21 1016 88 10000 1 0 21:23 25.07.2019
4673 Clouds 21 1016 88 10000 1 0 20:58 25.07.2019
4674 Clouds 17 1015 95 0 1.2 74.363 20:38 25.07.2019
4675 Rain 22 1016 83 10000 1.2 74.363 20:18 25.07.2019
4676 Clouds 17 1015 95 0 1.2 74.363 19:40 25.07.2019
4677 Rain 22 1015 88 10000 1.5 120 19:22 25.07.2019
4678 Clouds 17 1015 95 0 1.2 74.363 18:42 25.07.2019
4679 Rain 22 1015 88 10000 1 200 18:23 25.07.2019
4680 Rain 22 1015 88 10000 1 200 17:50 25.07.2019
4681 Clouds 22 1016 88 10000 1 0 17:32 25.07.2019
4682 Clouds 22 1016 88 10000 1 0 16:57 25.07.2019
4683 Clouds 22 1016 88 10000 1 0 16:57 25.07.2019
4684 Clouds 17 1015 94 0 1.17 70.126 16:38 25.07.2019
4685 Clouds 22 1016 88 10000 1 130 16:19 25.07.2019
4686 Clouds 22 1016 88 10000 1 130 15:44 25.07.2019
4687 Clouds 23 1017 83 10000 1.5 150 15:19 25.07.2019
4688 Clouds 23 1017 83 10000 1.5 150 14:43 25.07.2019
4689 Clouds 23 1017 78 10000 2.1 120 14:23 25.07.2019
4690 Clouds 23 1017 78 10000 2.1 120 13:55 25.07.2019
4691 Clouds 23 1017 83 10000 2.6 120 13:36 25.07.2019
4692 Clouds 23 1017 83 10000 2.6 120 13:18 25.07.2019
4693 Clouds 23 1017 83 10000 2.6 120 13:18 25.07.2019
4694 Rain 23 1017 83 10000 2.6 140 12:30 25.07.2019
4695 Rain 23 1017 83 10000 2.6 140 11:47 25.07.2019
4696 Clouds 23 1016 73 10000 1.5 140 11:26 25.07.2019
4697 Clouds 23 1016 73 10000 1.5 140 10:59 25.07.2019
4698 Clouds 17 1017 93 0 1.28 71.282 10:40 25.07.2019
4699 Clouds 23 1016 78 10000 1.5 140 10:22 25.07.2019
4700 Clouds 23 1016 78 10000 1.5 140 09:44 25.07.2019
4701 Clouds 23 1015 78 10000 1.5 110 09:25 25.07.2019
4702 Clouds 23 1015 78 10000 1.5 110 08:44 25.07.2019
4703 Clouds 24 1015 69 10000 1.5 150 08:19 25.07.2019
4704 Rain 17 1014 95 0 0.98 105.138 07:36 25.07.2019
4705 Clouds 25 1015 61 10000 3.6 140 06:43 25.07.2019
4706 Clouds 25 1015 57 10000 3.6 140 05:48 25.07.2019
4707 Clouds 25 1015 57 10000 3.6 150 05:28 25.07.2019
4708 Clouds 19 1014 85 0 1.65 108.227 04:37 25.07.2019
4709 Clouds 25 1017 57 10000 3.1 150 01:46 25.07.2019
4710 Clouds 25 1017 57 10000 3.6 140 01:18 25.07.2019
4711 Clouds 24 1017 64 10000 2.1 140 00:20 25.07.2019
4712 Clouds 24 1017 64 10000 2.1 140 23:47 24.07.2019
4713 Clouds 21 1017 88 10000 1.5 310 23:29 24.07.2019
4714 Clouds 21 1017 88 10000 1.5 310 22:56 24.07.2019
4715 Clouds 21 1017 88 10000 1.5 310 22:56 24.07.2019
4716 Clouds 21 1017 88 10000 1.5 310 22:36 24.07.2019
4717 Clouds 21 1017 88 10000 1.5 310 22:18 24.07.2019
4718 Clouds 20 1016 94 10000 1.31 106.241 21:43 24.07.2019
4719 Clouds 22 1016 73 10000 1 0 21:21 24.07.2019
4720 Clouds 22 1016 73 10000 1 0 21:21 24.07.2019
4721 Clouds 22 1016 73 10000 1 0 20:55 24.07.2019
4722 Clouds 16 1015 94 0 0.78 122.193 20:37 24.07.2019
4723 Clouds 21 1015 77 10000 0.78 122.193 20:19 24.07.2019
4724 Clouds 21 1015 77 10000 0.78 122.193 19:42 24.07.2019
4725 Clouds 21 1015 83 10000 1 0 19:22 24.07.2019
4726 Clouds 16 1015 94 0 0.78 122.193 18:45 24.07.2019
4727 Clouds 16 1014 95 0 0.71 139.821 18:25 24.07.2019
4728 Clouds 16 1014 95 0 0.71 139.821 17:56 24.07.2019
4729 Clouds 21 1015 77 10000 1 0 17:37 24.07.2019
4730 Clouds 21 1015 77 10000 1 0 17:18 24.07.2019
4731 Clouds 16 1014 95 0 0.71 139.821 16:40 24.07.2019
4732 Clouds 22 1016 73 10000 2.1 170 16:21 24.07.2019
4733 Clouds 16 1014 95 0 0.71 139.821 15:39 24.07.2019
4734 Clouds 21 1016 83 10000 2.6 240 15:21 24.07.2019
4735 Clouds 21 1016 83 10000 2.6 240 14:47 24.07.2019
4736 Clouds 22 1016 78 10000 2.6 190 14:23 24.07.2019
4737 Clouds 22 1016 78 10000 2.6 190 13:58 24.07.2019
4738 Clouds 21 1016 83 10000 1.5 190 13:36 24.07.2019
4739 Clouds 21 1016 83 10000 1.5 190 13:18 24.07.2019
4740 Clouds 21 1016 83 10000 1.5 190 12:45 24.07.2019
4741 Clouds 21 1016 88 10000 1.5 200 12:22 24.07.2019
4742 Clouds 17 1015 91 0 0.45 147.082 11:37 24.07.2019
4743 Clouds 20 1016 94 10000 0.45 147.082 11:19 24.07.2019
4744 Clouds 20 1016 94 10000 0.45 147.082 10:43 24.07.2019
4745 Clouds 21 1015 83 10000 2.1 180 10:24 24.07.2019
4746 Clouds 21 1015 83 10000 2.1 180 09:44 24.07.2019
4747 Clouds 21 1015 83 10000 2.1 180 09:44 24.07.2019
4748 Clouds 21 1015 88 10000 1.5 160 09:23 24.07.2019
4749 Clouds 21 1015 88 10000 1.5 160 08:53 24.07.2019
4750 Clouds 22 1014 78 10000 3.1 170 08:27 24.07.2019
4751 Clouds 22 1014 78 10000 3.1 170 07:50 24.07.2019
4752 Clouds 23 1013 73 10000 1.5 160 07:23 24.07.2019
4753 Clouds 24 1013 69 10000 2.1 140 06:28 24.07.2019
4754 Clouds 24 1013 69 10000 2.1 150 05:26 24.07.2019
4755 Clouds 23 1015 78 10000 2.6 160 01:57 24.07.2019
4756 Clouds 23 1015 78 10000 1.5 200 01:28 24.07.2019
4757 Clouds 23 1015 78 10000 1.5 200 00:52 24.07.2019
4758 Clouds 22 1015 83 10000 1 330 00:21 24.07.2019
4759 Clouds 19 1015 82 0 1.09 116.236 23:38 23.07.2019
4760 Clouds 20 1015 82 10000 1.09 116.236 23:19 23.07.2019
4761 Clouds 19 1015 82 0 1.09 116.236 22:39 23.07.2019
4762 Clouds 18 1014 93 10000 2.1 320 22:19 23.07.2019
4763 Clouds 18 1014 93 10000 2.1 320 21:46 23.07.2019
4764 Clouds 19 1014 93 10000 2.1 310 21:28 23.07.2019
4765 Clouds 19 1014 93 10000 2.1 310 20:57 23.07.2019
4766 Clouds 16 1013 89 0 0.46 79.673 20:39 23.07.2019
4767 Clouds 19 1013 93 10000 1.5 320 20:19 23.07.2019
4768 Clouds 19 1013 93 10000 2.1 310 19:37 23.07.2019
4769 Clouds 19 1013 93 10000 2.1 310 19:18 23.07.2019
4770 Clouds 16 1013 89 0 0.46 79.673 18:42 23.07.2019
4771 Clouds 19 1013 93 10000 2.1 320 18:22 23.07.2019
4772 Clouds 19 1013 93 10000 2.1 320 17:44 23.07.2019
4773 Clouds 19 1013 88 10000 1.5 290 17:23 23.07.2019
4774 Clouds 19 1013 88 10000 1.5 290 16:49 23.07.2019
4775 Clouds 19 1014 93 10000 1.5 300 16:27 23.07.2019
4776 Clouds 19 1014 93 10000 1.5 300 15:57 23.07.2019
4777 Clouds 16 1013 85 0 0.45 170.496 15:38 23.07.2019
4778 Clouds 19 1014 88 10000 2.6 320 15:20 23.07.2019
4779 Clouds 20 1014 88 10000 1 330 14:37 23.07.2019
4780 Clouds 20 1014 88 10000 1 330 14:18 23.07.2019
4781 Clouds 20 1014 88 10000 1 330 13:56 23.07.2019
4782 Clouds 19 1014 93 10000 2.1 320 13:37 23.07.2019
4783 Clouds 19 1014 93 10000 2.1 320 13:19 23.07.2019
4784 Clouds 19 1014 93 10000 2.1 320 12:42 23.07.2019
4785 Clouds 20 1014 88 10000 1 0 12:22 23.07.2019
4786 Clouds 20 1014 88 10000 1 0 11:41 23.07.2019
4787 Clouds 19 1014 88 10000 1.5 330 11:22 23.07.2019
4788 Clouds 19 1014 88 10000 1.5 330 10:51 23.07.2019
4789 Clouds 20 1013 77 10000 0.22 38.66 10:25 23.07.2019
4790 Clouds 20 1013 77 10000 0.22 38.66 09:43 23.07.2019
4791 Clouds 22 1012 64 10000 1 150 09:22 23.07.2019
4792 Clouds 22 1012 64 10000 1 150 08:56 23.07.2019
4793 Clouds 15 1012 89 0 0.86 136.645 08:38 23.07.2019
4794 Clouds 24 1012 50 10000 2.1 160 08:18 23.07.2019
4795 Clouds 15 1012 89 0 0.86 136.645 07:39 23.07.2019
4796 Clouds 24 1011 50 10000 2.1 170 06:58 23.07.2019
4797 Clouds 24 1011 50 10000 2.1 170 06:36 23.07.2019
4798 Clouds 25 1012 47 10000 2.6 150 04:45 23.07.2019
4799 Clouds 24 1014 53 10000 2.6 190 01:46 23.07.2019
4800 Clouds 25 1014 53 10000 2.1 90 00:47 23.07.2019
4801 Clouds 21 1014 83 10000 1.5 310 00:20 23.07.2019
4802 Clouds 18 1015 65 0 1.25 110.238 23:39 22.07.2019
4803 Clouds 18 1014 93 10000 2.1 310 23:20 22.07.2019
4804 Clouds 18 1014 93 10000 2.1 310 22:46 22.07.2019
4805 Clouds 17 1013 93 10000 2.1 330 22:24 22.07.2019
4806 Clouds 17 1013 93 10000 2.1 330 21:56 22.07.2019
4807 Clouds 18 1015 65 0 1.25 110.238 21:36 22.07.2019
4808 Clouds 17 1012 100 10000 2.1 300 21:18 22.07.2019
4809 Clouds 17 1012 100 10000 2.1 300 21:18 22.07.2019
4810 Clouds 17 1012 100 10000 2.1 300 20:41 22.07.2019
4811 Clouds 18 1012 93 10000 2.1 320 20:22 22.07.2019
4812 Clouds 18 1012 93 10000 2.1 320 19:42 22.07.2019
4813 Clouds 18 1012 93 10000 2.1 320 19:23 22.07.2019
4814 Clouds 18 1012 93 10000 2.1 320 18:48 22.07.2019
4815 Clouds 18 1012 100 10000 2.1 320 18:28 22.07.2019
4816 Clouds 18 1012 100 10000 2.1 320 17:59 22.07.2019
4817 Clouds 13 1012 92 0 0.2 33.372 17:38 22.07.2019
4818 Clouds 19 1012 93 10000 2.1 320 17:20 22.07.2019
4819 Clouds 13 1012 92 0 0.2 33.372 16:41 22.07.2019
4820 Clouds 13 1012 92 0 0.2 33.372 16:41 22.07.2019
4821 Clouds 19 1013 100 10000 2.1 320 16:21 22.07.2019
4822 Clouds 19 1013 100 10000 2.1 320 15:46 22.07.2019
4823 Clouds 19 1013 93 10000 2.1 320 15:21 22.07.2019
4824 Clouds 19 1013 93 10000 2.1 320 14:59 22.07.2019
4825 Clouds 14 1013 90 0 0.72 158.7 14:40 22.07.2019
4826 Clouds 19 1013 93 10000 2.1 330 14:18 22.07.2019
4827 Clouds 14 1013 90 0 0.72 158.7 13:40 22.07.2019
4828 Clouds 20 1013 88 10000 1 340 13:22 22.07.2019
4829 Clouds 14 1013 90 0 0.72 158.7 12:36 22.07.2019
4830 Clouds 22 1012 78 10000 1 170 11:59 22.07.2019
4831 Clouds 16 1013 88 0 1.14 164.838 11:41 22.07.2019
4832 Clouds 22 1012 73 10000 1.5 190 11:20 22.07.2019
4833 Clouds 22 1012 73 10000 1.5 190 10:41 22.07.2019
4834 Clouds 21 1012 77 10000 2.1 180 10:23 22.07.2019
4835 Clouds 21 1012 77 10000 2.1 180 09:42 22.07.2019
4836 Clouds 22 1011 73 10000 2.6 180 09:22 22.07.2019
4837 Clear 15 1011 94 0 0.85 165.801 08:43 22.07.2019
4838 Clouds 23 1011 69 10000 3.6 170 08:23 22.07.2019
4839 Clouds 23 1011 69 10000 3.6 170 07:54 22.07.2019
4840 Clouds 24 1011 60 10000 3.6 180 07:31 22.07.2019
4841 Clouds 25 1011 57 10000 4.1 200 06:33 22.07.2019
4842 Clouds 25 1012 47 10000 4.1 200 03:46 22.07.2019
4843 Clouds 25 1013 57 10000 3.6 210 01:49 22.07.2019
4844 Clouds 24 1013 50 10000 4.6 210 00:50 22.07.2019
4845 Clouds 24 1013 50 10000 4.6 210 00:22 22.07.2019
4846 Clouds 24 1013 60 10000 3.6 210 23:51 21.07.2019
4847 Clouds 24 1013 60 10000 3.6 210 23:26 21.07.2019
4848 Clouds 22 1013 64 10000 1.5 190 22:41 21.07.2019
4849 Clouds 22 1013 64 10000 1.5 190 22:21 21.07.2019
4850 Clouds 20 1012 68 10000 1.33 183.914 21:56 21.07.2019
4851 Clouds 20 1012 68 10000 1.33 183.914 21:36 21.07.2019
4852 Clouds 20 1012 68 10000 0.52 252.777 21:18 21.07.2019
4853 Clouds 21 1012 68 10000 2.6 200 20:41 21.07.2019
4854 Clouds 21 1012 68 10000 2.6 200 20:23 21.07.2019
4855 Clouds 21 1011 77 10000 2.6 200 19:53 21.07.2019
4856 Clouds 21 1011 77 10000 2.6 200 19:29 21.07.2019
4857 Clouds 22 1011 68 10000 2.6 200 18:56 21.07.2019
4858 Clouds 22 1011 68 10000 2.6 200 18:37 21.07.2019
4859 Clouds 22 1011 68 10000 2.6 200 18:37 21.07.2019
4860 Clouds 22 1011 68 10000 2.6 200 18:19 21.07.2019
4861 Clouds 22 1012 68 10000 3.1 220 17:40 21.07.2019
4862 Clouds 22 1012 68 10000 3.1 220 17:19 21.07.2019
4863 Clouds 22 1012 78 10000 3.6 220 16:42 21.07.2019
4864 Clouds 22 1012 78 10000 3.6 220 16:24 21.07.2019
4865 Clouds 22 1012 88 10000 2.1 230 15:45 21.07.2019
4866 Clouds 22 1012 88 10000 2.1 230 15:24 21.07.2019
4867 Clouds 22 1012 88 10000 2.1 260 14:56 21.07.2019
4868 Clouds 22 1012 88 10000 2.1 260 14:26 21.07.2019
4869 Clouds 22 1012 88 10000 1.5 270 13:59 21.07.2019
4870 Clouds 22 1012 88 10000 1.5 270 13:40 21.07.2019
4871 Clouds 22 1012 88 10000 1.5 270 13:20 21.07.2019
4872 Clouds 22 1012 88 10000 1.45 209.158 12:41 21.07.2019
4873 Clouds 22 1012 88 10000 1.17 216.154 12:22 21.07.2019
4874 Clouds 22 1012 88 10000 1.17 216.154 11:46 21.07.2019
4875 Clouds 22 1012 88 10000 1.17 216.154 11:27 21.07.2019
4876 Clouds 22 1012 88 10000 1.17 216.154 10:47 21.07.2019
4877 Clouds 22 1012 88 10000 1.17 216.154 10:25 21.07.2019
4878 Clouds 22 1011 88 10000 1.17 216.154 09:55 21.07.2019
4879 Clouds 22 1011 88 10000 1.17 216.154 09:36 21.07.2019
4880 Clouds 23 1011 78 10000 3.1 240 08:49 21.07.2019
4881 Clouds 23 1011 78 10000 3.1 240 08:30 21.07.2019
4882 Clouds 23 1010 78 10000 2.6 240 07:56 21.07.2019
4883 Clouds 23 1010 78 10000 2.6 240 07:19 21.07.2019
4884 Clouds 24 1010 73 10000 3.6 190 06:34 21.07.2019
4885 Clouds 25 1011 73 10000 4.1 190 03:51 21.07.2019
4886 Clouds 23 1013 88 10000 4.1 190 01:53 21.07.2019
4887 Rain 22 1013 94 8000 4.1 220 00:46 21.07.2019
4888 Rain 22 1013 94 8000 4.1 220 00:20 21.07.2019
4889 Rain 22 1013 94 10000 4.1 220 23:44 20.07.2019
4890 Clouds 23 1012 94 10000 2.6 190 23:23 20.07.2019
4891 Clouds 23 1012 94 10000 2.6 190 22:50 20.07.2019
4892 Clouds 23 1012 94 10000 2.6 190 22:23 20.07.2019
4893 Clouds 23 1012 94 10000 3.1 190 21:59 20.07.2019
4894 Clouds 23 1012 94 10000 3.1 190 21:39 20.07.2019
4895 Clouds 23 1012 94 10000 3.1 190 21:21 20.07.2019
4896 Rain 22 1011 100 10000 4.1 200 20:42 20.07.2019
4897 Rain 22 1011 100 10000 4.1 200 20:21 20.07.2019
4898 Rain 23 1010 94 10000 3.6 190 19:48 20.07.2019
4899 Rain 23 1010 94 10000 3.6 190 19:25 20.07.2019
4900 Rain 23 1010 100 5000 2.6 250 18:45 20.07.2019
4901 Rain 23 1010 100 5000 2.6 250 18:24 20.07.2019
4902 Rain 24 1010 94 8000 1 0 17:55 20.07.2019
4903 Clouds 24 1010 94 10000 1 0 17:26 20.07.2019
4904 Clouds 24 1010 94 10000 1 0 16:46 20.07.2019
4905 Clouds 24 1010 94 10000 1 0 16:46 20.07.2019
4906 Rain 24 1011 94 10000 2.1 190 16:28 20.07.2019
4907 Rain 24 1011 94 10000 2.1 190 15:58 20.07.2019
4908 Rain 20 1010 98 0 0.94 290.884 15:40 20.07.2019
4909 Clouds 24 1011 100 10000 2.1 220 15:20 20.07.2019
4910 Clouds 24 1011 100 10000 2.1 220 14:49 20.07.2019
4911 Rain 24 1011 100 10000 1.5 220 14:29 20.07.2019
4912 Rain 24 1011 100 10000 1.5 220 13:56 20.07.2019
4913 Rain 20 1010 98 0 1.02 323.444 13:37 20.07.2019
4914 Rain 24 1011 100 10000 2.6 230 13:18 20.07.2019
4915 Rain 20 1010 98 0 0.95 317.512 12:40 20.07.2019
4916 Rain 24 1011 100 10000 3.1 240 12:18 20.07.2019
4917 Rain 24 1011 100 10000 3.1 240 11:41 20.07.2019
4918 Rain 25 1010 94 10000 2.6 220 11:20 20.07.2019
4919 Rain 25 1010 94 10000 2.6 220 10:37 20.07.2019
4920 Rain 25 1010 94 10000 2.6 220 10:19 20.07.2019
4921 Rain 25 1010 94 8000 2.6 110 09:46 20.07.2019
4922 Rain 25 1010 94 8000 2.6 110 09:24 20.07.2019
4923 Rain 25 1010 94 6000 2.1 160 08:48 20.07.2019
4924 Rain 25 1010 94 6000 2.1 160 08:21 20.07.2019
4925 Rain 25 1010 94 10000 1.5 200 07:28 20.07.2019
4926 Rain 25 1010 94 10000 1.5 200 06:43 20.07.2019
4927 Rain 25 1010 100 8000 3.1 110 05:21 20.07.2019
4928 Clouds 29 1011 79 10000 2.6 250 04:30 20.07.2019
4929 Clouds 27 1012 83 10000 1 0 01:23 20.07.2019
4930 Clouds 27 1012 83 10000 1 0 00:49 20.07.2019
4931 Clouds 25 1013 83 10000 1.5 290 00:26 20.07.2019
4932 Clouds 25 1013 83 10000 1.5 290 23:50 19.07.2019
4933 Clouds 24 1012 94 10000 1 290 23:29 19.07.2019
4934 Clouds 24 1012 94 10000 1 290 22:59 19.07.2019
4935 Rain 24 1012 89 0 0.61 28.446 22:40 19.07.2019
4936 Clouds 23 1012 100 10000 1 290 22:19 19.07.2019
4937 Clouds 23 1012 100 10000 1 290 21:43 19.07.2019
4938 Clouds 24 1011 100 10000 1.5 310 21:24 19.07.2019
4939 Clouds 24 1011 100 10000 1.5 310 20:43 19.07.2019
4940 Clouds 24 1011 100 10000 1.5 310 20:25 19.07.2019
4941 Rain 20 1011 98 0 0.9 16.27 19:39 19.07.2019
4942 Clouds 24 1011 100 10000 1.5 20 19:18 19.07.2019
4943 Rain 20 1011 98 0 0.9 16.27 18:40 19.07.2019
4944 Clouds 24 1011 100 10000 1 0 18:19 19.07.2019
4945 Clouds 24 1011 100 10000 1 0 17:45 19.07.2019
4946 Clouds 25 1012 94 10000 3.1 40 17:25 19.07.2019
4947 Clouds 25 1012 94 10000 3.1 40 16:47 19.07.2019
4948 Rain 25 1012 94 10000 2.6 40 16:25 19.07.2019
4949 Rain 25 1012 94 10000 2.6 40 15:47 19.07.2019
4950 Clouds 25 1012 94 10000 1 40 15:29 19.07.2019
4951 Clouds 25 1012 94 10000 1 40 14:55 19.07.2019
4952 Clouds 20 1011 99 0 0.9 22.571 14:37 19.07.2019
4953 Clouds 25 1012 94 10000 2.6 40 14:19 19.07.2019
4954 Clouds 20 1011 99 0 0.9 22.571 13:43 19.07.2019
4955 Clouds 25 1012 94 10000 0.91 34.707 13:22 19.07.2019
4956 Clouds 25 1012 94 10000 0.91 34.707 12:49 19.07.2019
4957 Clouds 25 1012 94 10000 1 50 12:29 19.07.2019
4958 Clouds 25 1012 94 10000 1 50 11:47 19.07.2019
4959 Clouds 25 1012 94 10000 1 0 11:20 19.07.2019
4960 Clouds 25 1012 94 10000 1 0 10:58 19.07.2019
4961 Clouds 25 1011 94 10000 1.5 110 10:39 19.07.2019
4962 Clouds 25 1011 94 10000 1.5 110 10:18 19.07.2019
4963 Clouds 25 1011 94 10000 1.5 110 09:43 19.07.2019
4964 Clouds 26 1011 88 10000 2.6 60 09:22 19.07.2019
4965 Clouds 26 1011 88 10000 2.6 60 08:50 19.07.2019
4966 Clouds 26 1011 83 10000 3.1 80 08:28 19.07.2019
4967 Clouds 27 1010 83 10000 4.1 70 07:33 19.07.2019
4968 Rain 21 1010 99 0 0.48 260.933 06:37 19.07.2019
4969 Rain 21 1010 99 0 0.48 260.933 06:37 19.07.2019
4970 Clouds 28 1010 74 10000 4.6 40 05:26 19.07.2019
4971 Clouds 26 1013 94 10000 5.1 50 01:44 19.07.2019
4972 Clouds 26 1014 88 10000 4.1 60 00:54 19.07.2019
4973 Clouds 25 1014 94 10000 1.5 50 23:59 18.07.2019
4974 Rain 22 1014 96 0 1.44 63.417 23:40 18.07.2019
4975 Rain 22 1014 96 0 1.44 63.417 23:40 18.07.2019
4976 Rain 24 1014 100 10000 1.5 340 23:22 18.07.2019
4977 Rain 24 1014 100 10000 1.5 340 22:44 18.07.2019
4978 Rain 23 1013 100 10000 1.5 330 22:20 18.07.2019
4979 Rain 23 1013 100 10000 1.5 330 21:57 18.07.2019
4980 Rain 22 1014 96 0 1.44 63.417 21:38 18.07.2019
4981 Clouds 23 1012 100 10000 1.3 48.374 21:18 18.07.2019
4982 Clouds 23 1012 100 10000 1.42 47.281 20:45 18.07.2019
4983 Rain 23 1012 100 10000 1.5 10 20:23 18.07.2019
4984 Rain 23 1012 100 10000 1.5 10 19:49 18.07.2019
4985 Clouds 23 1012 100 10000 1.42 47.281 19:27 18.07.2019
4986 Clouds 23 1012 100 10000 1.42 47.281 18:51 18.07.2019
4987 Clouds 23 1012 100 10000 1.24 66.169 18:22 18.07.2019
4988 Clouds 23 1012 100 10000 1.24 66.169 17:57 18.07.2019
4989 Clouds 23 1013 100 10000 1.5 70 17:37 18.07.2019
4990 Clouds 23 1013 100 10000 1.5 70 17:19 18.07.2019
4991 Clouds 23 1013 100 10000 1.5 70 16:49 18.07.2019
4992 Clouds 23 1013 100 10000 1.5 70 16:49 18.07.2019
4993 Clouds 23 1013 100 10000 1.24 66.169 16:25 18.07.2019
4994 Clouds 23 1013 100 10000 1.24 66.169 15:55 18.07.2019
4995 Rain 23 1013 100 10000 1.5 20 15:36 18.07.2019
4996 Rain 23 1013 100 10000 1.5 20 14:56 18.07.2019
4997 Rain 23 1013 100 10000 1.5 20 14:37 18.07.2019
4998 Rain 23 1013 100 10000 1.5 20 14:37 18.07.2019
4999 Rain 23 1014 94 10000 0.93 80.538 13:59 18.07.2019
5000 Rain 23 1014 94 10000 0.93 80.538 13:37 18.07.2019
5001 Rain 23 1014 94 10000 1 0 13:18 18.07.2019
5002 Rain 23 1014 94 10000 1 0 12:44 18.07.2019
5003 Clouds 23 1014 94 10000 1 0 12:20 18.07.2019
5004 Clouds 23 1014 94 10000 1 0 11:50 18.07.2019
5005 Clouds 23 1013 94 10000 1 0 11:32 18.07.2019
5006 Clouds 23 1013 94 10000 1 0 10:52 18.07.2019
5007 Rain 23 1013 94 10000 1 0 10:23 18.07.2019
5008 Rain 23 1013 94 10000 1 0 09:44 18.07.2019
5009 Rain 23 1013 94 10000 1 0 09:23 18.07.2019
5010 Clouds 23 1012 94 10000 1.5 140 08:46 18.07.2019
5011 Clouds 23 1012 94 10000 3.6 110 08:19 18.07.2019
5012 Clouds 23 1012 94 10000 3.6 110 07:37 18.07.2019
5013 Clouds 24 1012 88 10000 1.5 140 07:19 18.07.2019
5014 Clouds 24 1012 88 10000 1.5 140 06:35 18.07.2019
5015 Rain 24 1013 88 10000 2.1 150 04:20 18.07.2019
5016 Clouds 25 1013 83 10000 3.1 140 02:52 18.07.2019
5017 Clouds 25 1014 83 10000 3.6 140 01:37 18.07.2019
5018 Rain 23 1014 94 10000 2.6 180 00:26 18.07.2019
5019 Rain 23 1014 94 10000 2.6 180 23:49 17.07.2019
5020 Rain 23 1014 94 10000 1.5 170 23:18 17.07.2019
5021 Rain 23 1014 94 10000 1.5 170 22:43 17.07.2019
5022 Rain 23 1014 94 10000 1.5 170 22:23 17.07.2019
5023 Rain 23 1013 94 10000 4.1 110 21:58 17.07.2019
5024 Rain 23 1013 94 10000 4.1 110 21:39 17.07.2019
5025 Rain 23 1013 94 10000 4.1 110 21:20 17.07.2019
5026 Clouds 23 1012 94 10000 1 0 20:56 17.07.2019
5027 Clouds 23 1012 94 10000 1 0 20:38 17.07.2019
5028 Rain 23 1012 94 10000 2.1 90 20:19 17.07.2019
5029 Rain 23 1012 94 10000 2.1 90 19:42 17.07.2019
5030 Rain 23 1012 94 10000 1 0 19:20 17.07.2019
5031 Rain 23 1012 94 10000 1 0 18:46 17.07.2019
5032 Rain 23 1012 94 10000 1 0 18:46 17.07.2019
5033 Clouds 23 1012 94 10000 1 0 18:21 17.07.2019
5034 Clouds 23 1012 94 10000 1 0 18:21 17.07.2019
5035 Clouds 23 1012 94 10000 1 0 18:21 17.07.2019
5036 Clouds 23 1012 94 10000 1 0 17:59 17.07.2019
5037 Clouds 23 1012 94 10000 1 0 17:41 17.07.2019
5038 Clouds 23 1012 94 10000 1 0 17:22 17.07.2019
5039 Clouds 23 1013 94 10000 1.5 60 16:41 17.07.2019
5040 Clouds 23 1013 94 10000 1.5 60 16:22 17.07.2019
5041 Rain 23 1013 94 10000 1 0 15:51 17.07.2019
5042 Rain 23 1013 94 10000 1 0 15:31 17.07.2019
5043 Rain 23 1013 100 10000 1 0 14:57 17.07.2019
5044 Rain 23 1013 100 10000 1 0 14:38 17.07.2019
5045 Rain 23 1013 100 10000 2.6 90 14:20 17.07.2019
5046 Rain 23 1013 100 10000 2.6 90 13:49 17.07.2019
5047 Rain 23 1013 100 10000 2.6 90 13:31 17.07.2019
5048 Rain 24 1013 88 10000 2.1 150 12:56 17.07.2019
5049 Rain 24 1013 88 10000 2.1 150 12:38 17.07.2019
5050 Clouds 24 1012 88 10000 0.6 97.607 12:19 17.07.2019
5051 Clouds 24 1012 88 10000 0.6 97.607 11:40 17.07.2019
5052 Clouds 25 1012 83 10000 1 160 11:19 17.07.2019
5053 Clouds 25 1012 83 10000 1 160 10:45 17.07.2019
5054 Clouds 25 1012 83 10000 1 160 10:21 17.07.2019
5055 Clouds 23 1012 94 10000 1.5 150 09:45 17.07.2019
5056 Clouds 23 1012 94 10000 1.5 150 09:27 17.07.2019
5057 Clouds 23 1012 94 10000 1.5 150 09:27 17.07.2019
5058 Clouds 25 1011 83 10000 2.1 140 08:45 17.07.2019
5059 Clouds 25 1011 83 10000 2.1 140 08:24 17.07.2019
5060 Clouds 26 1010 78 10000 3.1 150 07:55 17.07.2019
5061 Clouds 26 1010 78 10000 3.1 150 07:36 17.07.2019
5062 Clouds 27 1010 69 10000 3.1 160 07:18 17.07.2019
5063 Clouds 27 1010 69 10000 3.1 160 06:41 17.07.2019
5064 Clouds 27 1010 69 10000 3.1 160 06:22 17.07.2019
5065 Clouds 28 1010 69 10000 3.6 160 05:33 17.07.2019
5066 Clouds 27 1010 74 10000 2.6 180 04:56 17.07.2019
5067 Clouds 27 1011 69 10000 3.1 190 03:50 17.07.2019
5068 Clouds 28 1012 65 10000 2.1 170 02:32 17.07.2019
5069 Clouds 28 1013 69 10000 2.6 180 01:41 17.07.2019
5070 Clouds 28 1013 69 10000 2.6 180 01:20 17.07.2019
5071 Clouds 26 1013 74 10000 1 0 00:38 17.07.2019
5072 Clouds 23 1013 83 10000 2.6 320 00:20 17.07.2019
5073 Clouds 23 1013 83 10000 2.6 320 23:42 16.07.2019
5074 Clouds 20 1013 100 10000 2.1 330 23:22 16.07.2019
5075 Clouds 20 1013 100 10000 2.1 330 22:43 16.07.2019
5076 Clouds 20 1013 100 10000 2.1 330 22:24 16.07.2019
5077 Clouds 19 1012 100 10000 2.1 330 21:56 16.07.2019
5078 Clouds 19 1012 100 10000 2.1 330 21:36 16.07.2019
5079 Clouds 19 1011 100 10000 2.1 330 21:18 16.07.2019
5080 Clouds 19 1011 100 10000 2.1 330 20:41 16.07.2019
5081 Clouds 19 1011 100 10000 2.1 330 20:22 16.07.2019
5082 Clouds 19 1011 100 10000 1.5 330 19:54 16.07.2019
5083 Clouds 19 1011 100 10000 1.5 330 19:30 16.07.2019
5084 Clouds 19 1010 100 10000 2.1 330 18:59 16.07.2019
5085 Clouds 19 1010 100 10000 2.1 330 18:40 16.07.2019
5086 Clouds 19 1011 100 10000 2.1 330 18:20 16.07.2019
5087 Clouds 19 1011 100 10000 2.1 330 17:44 16.07.2019
5088 Clouds 19 1011 100 10000 2.1 330 17:26 16.07.2019
5089 Clouds 20 1011 100 10000 0.62 352.528 16:49 16.07.2019
5090 Clouds 20 1011 100 10000 0.62 352.528 16:25 16.07.2019
5091 Clouds 20 1011 100 10000 0.62 352.528 15:57 16.07.2019
5092 Clouds 20 1011 100 10000 0.62 352.528 15:38 16.07.2019
5093 Clouds 21 1011 94 10000 0.62 353.069 15:19 16.07.2019
5094 Clouds 21 1011 94 10000 0.62 353.069 14:46 16.07.2019
5095 Clouds 21 1011 94 10000 0.62 353.069 14:28 16.07.2019
5096 Clouds 21 1012 100 10000 0.62 353.069 13:57 16.07.2019
5097 Clouds 21 1012 100 10000 0.62 353.069 13:57 16.07.2019
5098 Clouds 21 1012 100 10000 0.62 353.069 13:37 16.07.2019
5099 Clouds 23 1012 88 10000 0.58 352.997 13:18 16.07.2019
5100 Clouds 23 1012 88 10000 0.58 352.997 12:42 16.07.2019
5101 Clouds 24 1012 83 10000 0.81 16.374 12:19 16.07.2019
5102 Clouds 24 1012 83 10000 0.81 16.374 11:45 16.07.2019
5103 Clouds 24 1012 83 10000 0.81 16.374 11:25 16.07.2019
5104 Clouds 24 1011 83 10000 2.1 200 10:59 16.07.2019
5105 Clouds 24 1011 83 10000 2.1 200 10:41 16.07.2019
5106 Clouds 24 1011 83 10000 0.81 16.374 10:19 16.07.2019
5107 Clouds 24 1011 83 10000 0.81 16.374 09:43 16.07.2019
5108 Clouds 25 1010 78 10000 0.87 136.637 09:20 16.07.2019
5109 Clouds 25 1010 78 10000 0.81 150.856 08:46 16.07.2019
5110 Clouds 25 1010 78 10000 0.81 150.856 08:27 16.07.2019
5111 Clouds 26 1010 65 10000 2.1 90 07:51 16.07.2019
5112 Clouds 26 1010 65 10000 2.1 90 07:32 16.07.2019
5113 Clouds 28 1009 61 10000 4.1 70 06:58 16.07.2019
5114 Clouds 28 1009 61 10000 4.1 70 06:35 16.07.2019
5115 Clouds 27 1009 65 10000 4.1 90 05:48 16.07.2019
5116 Clouds 27 1009 65 10000 4.1 90 05:25 16.07.2019
5117 Clouds 28 1010 65 10000 3.6 40 04:32 16.07.2019
5118 Clouds 28 1011 61 10000 4.1 50 03:34 16.07.2019
5119 Clouds 29 1011 54 10000 3.1 30 02:42 16.07.2019
5120 Clouds 29 1011 54 10000 3.1 30 02:19 16.07.2019
5121 Clouds 27 1012 65 10000 2.6 360 01:23 16.07.2019
5122 Clouds 23 1013 88 10000 3.1 340 00:22 16.07.2019
5123 Clouds 23 1013 88 10000 3.1 340 23:58 15.07.2019
5124 Clouds 23 1013 88 10000 3.1 340 23:37 15.07.2019
5125 Clouds 20 1012 94 10000 1 0 22:59 15.07.2019
5126 Clouds 20 1012 94 10000 1 0 22:38 15.07.2019
5127 Clouds 19 1012 100 10000 2.1 310 22:19 15.07.2019
5128 Clouds 19 1012 100 10000 2.1 310 21:42 15.07.2019
5129 Clouds 19 1012 100 10000 2.1 310 21:21 15.07.2019
5130 Clouds 19 1011 93 10000 2.6 330 20:58 15.07.2019
5131 Clouds 19 1011 93 10000 2.6 330 20:39 15.07.2019
5132 Clouds 19 1011 93 10000 2.6 330 20:21 15.07.2019
5133 Clouds 19 1011 100 10000 2.6 310 19:45 15.07.2019
5134 Clouds 19 1011 100 10000 2.6 310 19:24 15.07.2019
5135 Clouds 19 1011 100 10000 2.6 330 18:57 15.07.2019
5136 Clouds 19 1011 100 10000 2.6 330 18:38 15.07.2019
5137 Clouds 19 1011 100 10000 2.1 330 18:19 15.07.2019
5138 Clouds 19 1011 100 10000 2.1 330 17:55 15.07.2019
5139 Clouds 19 1011 100 10000 2.1 330 17:37 15.07.2019
5140 Clouds 19 1012 100 10000 1.5 360 17:18 15.07.2019
5141 Clouds 19 1012 100 10000 1.5 360 16:39 15.07.2019
5142 Clouds 19 1012 100 10000 2.1 320 16:20 15.07.2019
5143 Clouds 19 1012 100 10000 2.1 320 15:57 15.07.2019
5144 Clouds 19 1012 100 10000 2.1 320 15:37 15.07.2019
5145 Clouds 19 1012 100 10000 2.1 320 15:37 15.07.2019
5146 Clouds 19 1012 100 10000 1.5 330 15:19 15.07.2019
5147 Clouds 19 1012 100 10000 1.5 330 14:44 15.07.2019
5148 Clouds 19 1012 100 10000 1.5 330 14:25 15.07.2019
5149 Clouds 20 1013 94 10000 1 320 13:51 15.07.2019
5150 Clouds 20 1013 94 10000 1 320 13:25 15.07.2019
5151 Clouds 20 1013 94 10000 1.29 353.122 12:59 15.07.2019
5152 Clouds 20 1013 94 10000 1.29 353.122 12:41 15.07.2019
5153 Clouds 20 1013 100 10000 0.96 15.543 12:20 15.07.2019
5154 Clouds 20 1013 100 10000 0.96 15.543 11:42 15.07.2019
5155 Clouds 20 1013 100 10000 0.96 15.543 11:24 15.07.2019
5156 Clouds 21 1012 94 10000 0.96 15.543 10:45 15.07.2019
5157 Clouds 21 1012 94 10000 0.96 15.543 10:27 15.07.2019
5158 Clouds 22 1012 83 10000 0.96 15.543 09:48 15.07.2019
5159 Clouds 22 1012 83 10000 0.96 15.543 09:26 15.07.2019
5160 Clouds 24 1011 73 10000 0.52 180.664 08:58 15.07.2019
5161 Clouds 24 1011 73 10000 0.52 180.664 08:40 15.07.2019
5162 Clouds 24 1011 73 10000 0.52 180.664 08:22 15.07.2019
5163 Clouds 26 1010 65 10000 2.6 130 07:37 15.07.2019
5164 Clouds 27 1010 61 10000 2.6 130 06:55 15.07.2019
5165 Clouds 27 1010 61 10000 2.6 130 06:33 15.07.2019
5166 Clouds 27 1010 61 10000 2.6 140 05:44 15.07.2019
5167 Clouds 27 1010 61 10000 2.6 140 05:19 15.07.2019
5168 Clouds 27 1010 61 10000 2.1 150 04:41 15.07.2019
5169 Clouds 27 1011 61 10000 2.6 160 03:33 15.07.2019
5170 Clouds 28 1012 58 10000 1.5 120 02:30 15.07.2019
5171 Clouds 26 1013 69 10000 1.5 90 01:39 15.07.2019
5172 Clouds 24 1013 83 10000 2.1 290 01:20 15.07.2019
5173 Clouds 24 1013 83 10000 2.1 290 00:46 15.07.2019
5174 Clouds 22 1013 88 10000 2.6 310 00:19 15.07.2019
5175 Clouds 22 1013 88 10000 2.6 310 23:41 14.07.2019
5176 Clouds 19 1012 100 10000 2.1 320 23:21 14.07.2019
5177 Clouds 19 1012 100 10000 2.1 320 22:58 14.07.2019
5178 Clouds 19 1012 100 10000 2.1 320 22:39 14.07.2019
5179 Clouds 18 1012 93 10000 2.1 320 22:21 14.07.2019
5180 Clouds 18 1012 93 10000 2.1 320 21:46 14.07.2019
5181 Clouds 18 1011 100 10000 2.1 320 21:19 14.07.2019
5182 Clouds 18 1011 100 10000 2.1 320 20:59 14.07.2019
5183 Clouds 18 1011 100 10000 2.1 320 20:38 14.07.2019
5184 Clouds 18 1011 100 10000 2.1 320 20:38 14.07.2019
5185 Clouds 18 1011 100 10000 1.5 310 20:20 14.07.2019
5186 Clouds 18 1011 100 10000 1.5 310 19:55 14.07.2019
5187 Clouds 18 1011 100 10000 1.5 310 19:36 14.07.2019
5188 Clouds 18 1012 100 10000 1.5 320 19:18 14.07.2019
5189 Clouds 18 1012 100 10000 1.5 320 18:40 14.07.2019
5190 Clouds 18 1012 100 10000 1.5 320 18:22 14.07.2019
5191 Clouds 19 1012 93 10000 2.1 320 17:57 14.07.2019
5192 Clouds 19 1012 93 10000 2.1 320 17:23 14.07.2019
5193 Clouds 19 1012 100 10000 2.6 320 16:53 14.07.2019
5194 Clouds 19 1012 100 10000 2.6 320 16:26 14.07.2019
5195 Clouds 19 1013 100 10000 3.1 320 15:57 14.07.2019
5196 Clouds 19 1013 100 10000 3.1 320 15:37 14.07.2019
5197 Clouds 19 1013 100 10000 2.6 320 14:58 14.07.2019
5198 Clouds 19 1013 100 10000 2.6 320 14:37 14.07.2019
5199 Clouds 19 1013 100 10000 2.6 320 14:19 14.07.2019
5200 Clouds 19 1013 100 10000 2.6 320 13:45 14.07.2019
5201 Clouds 20 1013 94 10000 1.5 330 13:22 14.07.2019
5202 Clouds 20 1013 94 10000 1.5 330 12:55 14.07.2019
5203 Clouds 20 1013 94 10000 1.5 330 12:36 14.07.2019
5204 Clouds 20 1013 94 10000 2.1 320 12:18 14.07.2019
5205 Clouds 20 1013 94 10000 2.1 320 11:43 14.07.2019
5206 Clouds 20 1013 94 10000 2.1 320 11:20 14.07.2019
5207 Clouds 21 1012 94 10000 1.1 41.91 10:42 14.07.2019
5208 Clouds 22 1012 88 10000 1.1 41.91 10:20 14.07.2019
5209 Clouds 22 1012 88 10000 1.1 41.91 09:44 14.07.2019
5210 Clouds 22 1012 88 10000 1.22 75.223 09:25 14.07.2019
5211 Clouds 23 1012 83 10000 1.5 320 08:45 14.07.2019
5212 Clouds 23 1012 83 10000 1.5 320 08:22 14.07.2019
5213 Clouds 25 1011 69 10000 2.6 110 07:41 14.07.2019
5214 Clouds 25 1011 78 10000 3.6 100 06:59 14.07.2019
5215 Rain 26 1011 78 10000 6.2 90 05:45 14.07.2019
5216 Clouds 26 1012 65 10000 5.7 120 03:50 14.07.2019
5217 Clouds 26 1012 65 10000 5.7 120 03:32 14.07.2019
5218 Clouds 27 1013 61 10000 4.1 120 02:50 14.07.2019
5219 Clouds 26 1014 61 10000 5.1 110 02:22 14.07.2019
5220 Clouds 26 1014 61 10000 5.1 110 01:34 14.07.2019
5221 Clouds 26 1015 65 10000 5.1 100 00:58 14.07.2019
5222 Clouds 26 1015 65 10000 5.1 100 00:39 14.07.2019
5223 Clouds 25 1015 65 10000 4.6 110 00:20 14.07.2019
5224 Clouds 25 1015 65 10000 4.6 110 23:45 13.07.2019
5225 Clouds 25 1015 65 10000 4.6 110 23:25 13.07.2019
5226 Clouds 22 1015 88 10000 1 320 22:56 13.07.2019
5227 Clouds 22 1015 88 10000 1 320 22:37 13.07.2019
5228 Clouds 22 1015 88 10000 1 320 22:37 13.07.2019
5229 Clouds 21 1014 88 10000 2.16 88.034 22:19 13.07.2019
5230 Clouds 21 1014 88 10000 2.16 88.034 21:42 13.07.2019
5231 Clouds 22 1014 83 10000 1 110 21:19 13.07.2019
5232 Clouds 22 1014 83 10000 1 110 21:19 13.07.2019
5233 Clouds 22 1014 83 10000 1 110 20:45 13.07.2019
5234 Clouds 22 1014 83 10000 1 110 20:26 13.07.2019
5235 Clouds 23 1014 78 10000 1.43 66.348 19:46 13.07.2019
5236 Clouds 23 1014 78 10000 1.43 66.348 19:27 13.07.2019
5237 Clouds 23 1013 73 10000 1 130 18:44 13.07.2019
5238 Clouds 23 1014 78 10000 1 140 18:21 13.07.2019
5239 Clouds 23 1014 78 10000 1 140 17:39 13.07.2019
5240 Clouds 23 1014 78 10000 1 140 17:20 13.07.2019
5241 Clouds 24 1014 69 10000 2.6 130 16:56 13.07.2019
5242 Clouds 24 1014 69 10000 2.6 130 16:37 13.07.2019
5243 Clouds 24 1015 69 10000 3.1 140 16:19 13.07.2019
5244 Clouds 24 1015 69 10000 3.1 140 15:42 13.07.2019
5245 Clouds 24 1015 69 10000 3.1 140 15:20 13.07.2019
5246 Clouds 24 1015 69 10000 3.1 140 14:42 13.07.2019
5247 Clouds 24 1015 69 10000 3.1 140 14:22 13.07.2019
5248 Clouds 24 1016 69 10000 2.6 140 13:46 13.07.2019
5249 Clouds 24 1016 69 10000 2.6 140 13:24 13.07.2019
5250 Clouds 24 1016 73 10000 3.1 130 12:56 13.07.2019
5251 Clouds 24 1016 73 10000 3.1 130 12:36 13.07.2019
5252 Clouds 23 1016 78 10000 2.1 140 12:18 13.07.2019
5253 Clouds 23 1016 78 10000 2.1 140 11:39 13.07.2019
5254 Clouds 23 1015 73 10000 2.1 140 11:19 13.07.2019
5255 Clouds 23 1015 73 10000 2.1 140 10:42 13.07.2019
5256 Clouds 23 1015 73 10000 2.1 140 10:23 13.07.2019
5257 Clouds 23 1015 78 10000 2.6 140 09:52 13.07.2019
5258 Clouds 23 1015 78 10000 2.6 140 09:30 13.07.2019
5259 Clouds 24 1015 73 10000 3.1 140 08:57 13.07.2019
5260 Clouds 24 1015 73 10000 3.1 140 08:28 13.07.2019
5261 Clouds 25 1014 69 10000 4.6 140 07:55 13.07.2019
5262 Clouds 25 1014 69 10000 4.6 140 07:29 13.07.2019
5263 Clouds 26 1014 69 10000 4.6 130 06:37 13.07.2019
5264 Clouds 26 1014 69 10000 4.6 140 05:51 13.07.2019
5265 Clouds 26 1014 69 10000 5.1 130 04:42 13.07.2019
5266 Clouds 26 1014 69 10000 5.1 130 04:21 13.07.2019
5267 Clouds 27 1015 65 10000 5.7 120 03:43 13.07.2019
5268 Clouds 27 1015 65 10000 5.7 120 03:25 13.07.2019
5269 Clouds 27 1016 69 10000 6.2 130 01:54 13.07.2019
5270 Clouds 27 1016 69 10000 6.2 130 01:36 13.07.2019
5271 Clouds 26 1017 74 10000 6.2 120 01:18 13.07.2019
5272 Clouds 26 1017 74 10000 6.2 120 00:42 13.07.2019
5273 Clouds 25 1017 78 10000 4.6 130 00:18 13.07.2019
5274 Clouds 25 1017 78 10000 4.6 130 23:37 12.07.2019
5275 Clouds 25 1016 78 10000 3.1 130 22:59 12.07.2019
5276 Clouds 25 1016 78 10000 3.1 130 22:41 12.07.2019
5277 Clouds 25 1016 78 10000 3.1 130 22:22 12.07.2019
5278 Clouds 24 1016 88 10000 4.1 130 21:42 12.07.2019
5279 Clouds 24 1015 88 10000 1.1 107.891 21:21 12.07.2019
5280 Clouds 24 1015 88 10000 1.1 107.891 20:53 12.07.2019
5281 Clouds 24 1015 88 10000 1.1 107.891 20:24 12.07.2019
5282 Clouds 24 1015 88 10000 1.1 107.891 19:45 12.07.2019
5283 Clouds 24 1015 88 10000 1.1 107.891 19:26 12.07.2019
5284 Clouds 23 1015 94 10000 1.1 107.891 18:58 12.07.2019
5285 Clouds 23 1015 94 10000 1.1 107.891 18:37 12.07.2019
5286 Rain 23 1015 100 10000 0.8 79.81 18:19 12.07.2019
5287 Rain 23 1015 100 10000 0.8 79.81 17:46 12.07.2019
5288 Rain 23 1015 100 10000 0.8 79.81 17:27 12.07.2019
5289 Clouds 23 1015 100 10000 0.8 79.81 16:40 12.07.2019
5290 Clouds 23 1015 100 10000 0.8 79.81 16:20 12.07.2019
5291 Clouds 24 1015 94 10000 0.8 79.81 15:41 12.07.2019
5292 Clouds 24 1015 94 10000 0.8 79.81 15:41 12.07.2019
5293 Clouds 24 1015 94 10000 1.12 75.964 15:21 12.07.2019
5294 Rain 23 1016 94 10000 4.1 100 14:55 12.07.2019
5295 Rain 23 1016 94 10000 4.1 100 14:37 12.07.2019
5296 Rain 24 1016 94 10000 1 150 14:19 12.07.2019
5297 Rain 24 1016 94 10000 1 150 13:38 12.07.2019
5298 Rain 24 1016 94 10000 1.5 140 12:57 12.07.2019
5299 Rain 24 1016 94 10000 1.5 140 12:57 12.07.2019
5300 Rain 24 1016 94 10000 1.5 140 12:38 12.07.2019
5301 Clouds 24 1016 94 10000 1 160 12:19 12.07.2019
5302 Clouds 24 1016 94 10000 1 160 11:44 12.07.2019
5303 Clouds 25 1016 88 10000 1.05 92.63 11:20 12.07.2019
5304 Clouds 25 1016 88 10000 1.05 92.63 10:44 12.07.2019
5305 Clouds 25 1016 88 10000 1.05 92.63 10:24 12.07.2019
5306 Clouds 25 1015 88 10000 1.5 130 09:54 12.07.2019
5307 Clouds 25 1015 88 10000 1.5 130 09:30 12.07.2019
5308 Clouds 26 1015 83 10000 2.1 110 08:58 12.07.2019
5309 Clouds 26 1015 83 10000 2.1 110 08:39 12.07.2019
5310 Clouds 26 1014 83 10000 3.6 120 08:18 12.07.2019
5311 Clouds 26 1014 83 10000 3.6 120 07:40 12.07.2019
5312 Clouds 26 1014 83 10000 3.6 120 07:22 12.07.2019
5313 Clouds 26 1014 83 10000 6.2 110 06:29 12.07.2019
5314 Clouds 27 1014 78 10000 5.1 110 05:46 12.07.2019
5315 Clouds 27 1015 83 10000 5.7 110 03:22 12.07.2019
5316 Clouds 26 1016 88 10000 6.2 100 01:41 12.07.2019
5317 Clouds 25 1017 94 10000 4.6 120 00:58 12.07.2019
5318 Clouds 26 1017 83 10000 5.1 100 00:20 12.07.2019
5319 Clouds 26 1017 83 10000 5.1 100 00:20 12.07.2019
5320 Clouds 26 1017 83 10000 5.1 100 23:49 11.07.2019
5321 Clouds 26 1017 83 10000 5.1 100 23:26 11.07.2019
5322 Clouds 25 1016 88 10000 3.6 100 22:55 11.07.2019
5323 Clouds 25 1016 88 10000 3.6 100 22:37 11.07.2019
5324 Clouds 24 1016 94 10000 3.1 110 22:19 11.07.2019
5325 Clouds 24 1016 94 10000 3.1 110 21:40 11.07.2019
5326 Clouds 24 1015 94 10000 3.1 120 21:18 11.07.2019
5327 Clouds 24 1015 94 10000 3.1 120 20:43 11.07.2019
5328 Clouds 24 1015 94 10000 3.1 120 20:24 11.07.2019
5329 Clouds 24 1015 94 10000 3.1 110 19:59 11.07.2019
5330 Clouds 24 1015 94 10000 3.1 110 19:40 11.07.2019
5331 Clouds 24 1015 94 10000 3.1 110 19:22 11.07.2019
5332 Clouds 24 1015 94 10000 2.6 110 18:43 11.07.2019
5333 Clouds 24 1015 94 10000 2.6 110 18:43 11.07.2019
5334 Clouds 24 1015 94 10000 2.6 110 18:24 11.07.2019
5335 Clouds 24 1015 94 10000 3.1 130 17:50 11.07.2019
5336 Clouds 24 1015 94 10000 3.1 130 17:31 11.07.2019
5337 Clouds 24 1016 94 10000 4.1 100 16:56 11.07.2019
5338 Clouds 24 1016 94 10000 4.1 100 16:37 11.07.2019
5339 Clouds 25 1016 88 10000 3.1 120 16:18 11.07.2019
5340 Clouds 25 1016 88 10000 3.1 120 15:40 11.07.2019
5341 Clouds 25 1016 88 10000 3.1 120 15:21 11.07.2019
5342 Rain 24 1016 94 10000 3.6 90 14:45 11.07.2019
5343 Rain 24 1016 94 10000 3.6 90 14:25 11.07.2019
5344 Clouds 25 1016 88 10000 5.1 100 13:59 11.07.2019
5345 Clouds 25 1016 88 10000 5.1 100 13:40 11.07.2019
5346 Clouds 25 1016 88 10000 5.1 100 13:22 11.07.2019
5347 Clouds 25 1017 88 10000 3.6 120 12:38 11.07.2019
5348 Drizzle 25 1017 88 10000 4.6 120 12:19 11.07.2019
5349 Drizzle 25 1017 88 10000 4.6 120 11:45 11.07.2019
5350 Drizzle 25 1017 88 10000 4.6 120 11:27 11.07.2019
5351 Clouds 25 1016 88 10000 4.1 120 10:52 11.07.2019
5352 Clouds 25 1016 88 10000 4.1 120 10:20 11.07.2019
5353 Clouds 25 1015 83 10000 2.6 110 09:52 11.07.2019
5354 Clouds 25 1015 83 10000 2.6 110 09:32 11.07.2019
5355 Clouds 25 1015 83 10000 4.6 110 08:59 11.07.2019
5356 Clouds 25 1015 83 10000 4.6 110 08:39 11.07.2019
5357 Drizzle 25 1015 88 10000 4.6 100 08:19 11.07.2019
5358 Drizzle 25 1015 88 10000 4.6 100 07:43 11.07.2019
5359 Clouds 26 1014 83 10000 6.7 100 06:55 11.07.2019
5360 Clouds 27 1014 78 10000 5.1 120 06:18 11.07.2019
5361 Clouds 27 1014 78 10000 5.1 120 05:31 11.07.2019
5362 Clouds 27 1014 78 10000 5.1 100 04:56 11.07.2019
5363 Clouds 27 1016 78 10000 4.1 110 03:19 11.07.2019
5364 Clouds 26 1016 83 10000 4.1 90 02:18 11.07.2019
5365 Clouds 27 1017 78 10000 4.1 140 00:32 11.07.2019
5366 Clouds 22 1016 92 0 1.99 81.102 23:50 10.07.2019
5367 Clouds 25 1016 83 10000 2.6 130 23:24 10.07.2019
5368 Clouds 25 1016 83 10000 2.6 130 22:54 10.07.2019
5369 Clouds 25 1016 83 10000 2.6 130 22:22 10.07.2019
5370 Clouds 24 1015 94 10000 2.1 130 21:55 10.07.2019
5371 Clouds 24 1015 94 10000 2.1 130 21:37 10.07.2019
5372 Clouds 24 1015 94 10000 2.6 140 21:19 10.07.2019
5373 Clouds 24 1015 94 10000 2.6 140 20:41 10.07.2019
5374 Clouds 24 1015 94 10000 2.6 140 20:21 10.07.2019
5375 Clouds 24 1015 94 10000 1.5 140 19:55 10.07.2019
5376 Clouds 24 1015 94 10000 1.5 140 19:36 10.07.2019
5377 Clouds 24 1014 88 10000 2.1 140 19:18 10.07.2019
5378 Clouds 24 1014 88 10000 2.1 140 18:42 10.07.2019
5379 Clouds 24 1014 88 10000 2.1 140 18:22 10.07.2019
5380 Rain 24 1014 94 10000 2.1 150 17:43 10.07.2019
5381 Rain 24 1014 94 10000 2.1 150 17:23 10.07.2019
5382 Clouds 25 1015 83 10000 2.1 140 16:39 10.07.2019
5383 Clouds 24 1015 88 10000 2.1 140 16:19 10.07.2019
5384 Clouds 24 1015 88 10000 2.1 140 15:47 10.07.2019
5385 Clouds 24 1015 88 10000 2.1 140 15:23 10.07.2019
5386 Clouds 24 1016 88 10000 2.1 130 14:46 10.07.2019
5387 Clouds 24 1016 88 10000 2.1 130 14:25 10.07.2019
5388 Clouds 24 1016 94 10000 2.1 140 13:53 10.07.2019
5389 Clouds 24 1016 94 10000 1.4 74.759 13:19 10.07.2019
5390 Clouds 24 1016 94 10000 1.4 74.759 12:58 10.07.2019
5391 Clouds 24 1016 94 10000 1.4 74.759 12:39 10.07.2019
5392 Clouds 25 1016 83 10000 2.1 120 12:19 10.07.2019
5393 Clouds 25 1016 83 10000 2.1 120 11:47 10.07.2019
5394 Clouds 25 1016 83 10000 2.1 120 11:21 10.07.2019
5395 Clouds 25 1015 83 10000 2.1 160 10:52 10.07.2019
5396 Clouds 25 1015 83 10000 2.1 160 10:23 10.07.2019
5397 Clouds 25 1015 83 10000 2.1 130 09:45 10.07.2019
5398 Clouds 25 1015 83 10000 2.1 130 09:21 10.07.2019
5399 Clouds 25 1014 88 10000 2.6 130 08:55 10.07.2019
5400 Clouds 25 1014 88 10000 2.6 130 08:37 10.07.2019
5401 Clouds 26 1013 83 10000 3.6 130 08:18 10.07.2019
5402 Clouds 26 1013 83 10000 3.6 130 07:42 10.07.2019
5403 Clouds 27 1012 74 10000 4.6 130 07:21 10.07.2019
5404 Clouds 27 1012 74 10000 4.6 130 06:21 10.07.2019
5405 Clouds 28 1012 69 10000 4.6 100 05:39 10.07.2019
5406 Clouds 27 1012 74 10000 4.1 120 04:29 10.07.2019
5407 Clouds 27 1015 78 10000 4.1 100 00:49 10.07.2019
5408 Clouds 27 1015 78 10000 4.1 100 00:29 10.07.2019
5409 Clouds 27 1015 83 10000 2.6 100 23:42 09.07.2019
5410 Clouds 27 1015 83 10000 2.6 100 23:22 09.07.2019
5411 Clouds 24 1015 94 10000 1 330 22:43 09.07.2019
5412 Clouds 24 1015 94 10000 1 330 22:24 09.07.2019
5413 Clouds 23 1014 100 10000 1.26 77.169 21:59 09.07.2019
5414 Clouds 23 1014 100 10000 1.26 77.169 21:40 09.07.2019
5415 Clouds 23 1014 100 10000 0.87 44.533 21:22 09.07.2019
5416 Clouds 23 1013 94 10000 2.1 310 20:43 09.07.2019
5417 Clouds 23 1013 94 10000 2.1 310 20:24 09.07.2019
5418 Clouds 23 1012 94 10000 1 0 19:42 09.07.2019
5419 Clouds 23 1012 94 10000 1 0 19:24 09.07.2019
5420 Clouds 22 1012 100 10000 0.73 43.449 18:47 09.07.2019
5421 Clouds 22 1012 100 10000 0.82 44.605 18:25 09.07.2019
5422 Clouds 22 1012 100 10000 1 330 17:57 09.07.2019
5423 Clouds 22 1012 100 10000 1 330 17:37 09.07.2019
5424 Clouds 23 1012 100 10000 1 0 17:19 09.07.2019
5425 Clouds 23 1012 100 10000 1 0 16:47 09.07.2019
5426 Clouds 23 1012 100 10000 1 0 16:24 09.07.2019
5427 Clouds 23 1013 100 10000 0.82 44.605 15:50 09.07.2019
5428 Clouds 23 1013 100 10000 0.82 44.605 15:31 09.07.2019
5429 Clouds 23 1013 94 10000 1 0 14:57 09.07.2019
5430 Clouds 23 1013 94 10000 1 0 14:39 09.07.2019
5431 Clouds 23 1013 94 10000 1 45.081 14:18 09.07.2019
5432 Clouds 23 1013 94 10000 1 45.081 13:43 09.07.2019
5433 Clouds 23 1013 94 10000 1.07 40.352 13:22 09.07.2019
5434 Clouds 24 1013 88 10000 1.07 40.352 12:40 09.07.2019
5435 Clouds 24 1013 88 10000 1.07 40.352 12:40 09.07.2019
5436 Clouds 24 1013 88 10000 1.02 54.985 12:22 09.07.2019
5437 Clouds 24 1013 94 10000 2.1 80 11:58 09.07.2019
5438 Clouds 24 1013 94 10000 2.1 80 11:38 09.07.2019
5439 Clouds 24 1013 88 10000 2.6 100 11:20 09.07.2019
5440 Clouds 24 1013 88 10000 2.6 100 10:49 09.07.2019
5441 Clouds 24 1013 88 10000 2.6 100 10:30 09.07.2019
5442 Clouds 24 1012 94 10000 1.5 70 09:41 09.07.2019
5443 Clouds 24 1012 94 10000 1.5 70 09:22 09.07.2019
5444 Clouds 25 1012 83 10000 2.6 110 08:45 09.07.2019
5445 Rain 24 1011 94 10000 5.1 120 08:23 09.07.2019
5446 Clouds 28 1015 78 10000 6.2 60 03:57 05.07.2019
5447 Clouds 28 1015 78 10000 6.2 60 03:37 05.07.2019
5448 Clouds 29 1016 70 10000 7.7 60 03:18 05.07.2019
5449 Clouds 29 1016 70 10000 7.7 60 02:37 05.07.2019
5450 Clouds 29 1016 74 10000 7.7 70 01:38 05.07.2019
5451 Clouds 28 1016 78 10000 7.2 70 01:18 05.07.2019
5452 Clouds 28 1016 78 10000 7.2 70 00:40 05.07.2019
5453 Clouds 27 1016 78 10000 5.1 90 23:51 04.07.2019
5454 Clouds 27 1016 78 10000 5.1 90 23:21 04.07.2019
5455 Clouds 26 1015 83 10000 3.6 80 22:44 04.07.2019
5456 Clouds 26 1015 83 10000 3.6 80 22:24 04.07.2019
5457 Clouds 25 1015 88 10000 4.1 80 21:57 04.07.2019
5458 Clouds 25 1015 88 10000 4.1 80 21:39 04.07.2019
5459 Clouds 25 1015 88 10000 4.1 80 21:20 04.07.2019
5460 Clouds 25 1014 94 10000 3.6 80 20:40 04.07.2019
5461 Clouds 25 1014 94 10000 3.6 80 20:22 04.07.2019
5462 Clouds 25 1014 94 10000 4.1 90 19:56 04.07.2019
5463 Clouds 25 1014 94 10000 4.1 90 19:38 04.07.2019
5464 Clouds 25 1013 94 10000 4.6 80 19:19 04.07.2019
5465 Clouds 25 1013 94 10000 4.6 80 18:42 04.07.2019
5466 Clouds 25 1013 94 10000 4.6 80 18:24 04.07.2019
5467 Clouds 25 1013 94 10000 3.6 80 17:46 04.07.2019
5468 Clouds 25 1014 94 10000 4.1 80 17:19 04.07.2019
5469 Clouds 25 1014 94 10000 4.1 80 15:58 04.07.2019
5470 Clouds 25 1014 94 10000 4.1 80 15:40 04.07.2019
5471 Clouds 25 1014 94 10000 4.1 80 15:22 04.07.2019
5472 Rain 25 1014 94 10000 1 0 14:55 04.07.2019
5473 Rain 25 1014 94 10000 1 0 14:37 04.07.2019
5474 Rain 24 1015 100 10000 1 0 14:18 04.07.2019
5475 Rain 24 1015 100 10000 1 0 14:18 04.07.2019
5476 Rain 24 1015 100 10000 1 0 13:42 04.07.2019
5477 Rain 24 1015 100 10000 1 0 13:23 04.07.2019
5478 Rain 24 1015 100 10000 1 0 12:55 04.07.2019
5479 Rain 24 1015 100 10000 1 0 12:36 04.07.2019
5480 Rain 24 1015 100 10000 1 200 12:18 04.07.2019
5481 Rain 24 1015 100 10000 1 200 11:39 04.07.2019
5482 Rain 24 1015 100 10000 1 200 11:39 04.07.2019
5483 Clouds 25 1014 94 10000 1 0 11:19 04.07.2019
5484 Clouds 25 1014 94 10000 1 0 10:40 04.07.2019
5485 Clouds 25 1014 88 10000 1 0 10:20 04.07.2019
5486 Clouds 25 1014 88 10000 1 0 09:44 04.07.2019
5487 Clouds 25 1014 88 10000 1 0 09:25 04.07.2019
5488 Clouds 26 1014 78 10000 1.5 160 08:56 04.07.2019
5489 Clouds 26 1014 78 10000 1.5 160 08:23 04.07.2019
5490 Clear 20 1013 97 0 1 99.868 07:45 04.07.2019
5491 Clouds 27 1013 74 10000 2.6 160 07:22 04.07.2019
5492 Clouds 27 1013 74 10000 2.6 160 06:51 04.07.2019
5493 Clouds 28 1013 69 10000 2.1 140 05:52 04.07.2019
5494 Clouds 28 1013 69 10000 2.1 140 05:33 04.07.2019
5495 Clouds 27 1015 69 10000 3.6 120 02:43 04.07.2019
5496 Clouds 27 1015 69 10000 3.1 120 01:41 04.07.2019
5497 Clouds 27 1015 69 10000 3.1 120 01:21 04.07.2019
5498 Clouds 24 1016 88 10000 1 0 23:56 03.07.2019
5499 Clouds 24 1016 88 10000 1 0 23:37 03.07.2019
5500 Clouds 21 1016 100 10000 1.5 320 23:18 03.07.2019
5501 Clouds 21 1016 100 10000 1.5 320 22:42 03.07.2019
5502 Clouds 21 1016 100 10000 1.5 320 22:24 03.07.2019
5503 Clouds 21 1015 100 10000 1 330 21:59 03.07.2019
5504 Clouds 21 1015 100 10000 1 330 21:39 03.07.2019
5505 Clouds 21 1015 94 10000 1.5 330 21:20 03.07.2019
5506 Clouds 21 1015 94 10000 1.5 330 20:43 03.07.2019
5507 Clouds 22 1014 94 10000 1 320 20:23 03.07.2019
5508 Clouds 22 1014 94 10000 1 320 19:50 03.07.2019
5509 Clouds 22 1014 94 10000 1 320 19:50 03.07.2019
5510 Clouds 22 1014 94 10000 1 320 19:32 03.07.2019
5511 Clouds 22 1014 94 10000 1 310 18:48 03.07.2019
5512 Clouds 22 1014 94 10000 1 310 18:29 03.07.2019
5513 Clouds 22 1014 94 10000 1 260 17:57 03.07.2019
5514 Clouds 22 1014 94 10000 1 260 17:37 03.07.2019
5515 Clouds 23 1015 88 10000 2.1 150 17:18 03.07.2019
5516 Clouds 23 1015 88 10000 2.1 150 16:43 03.07.2019
5517 Clouds 22 1016 94 10000 3.1 80 16:21 03.07.2019
5518 Clouds 22 1016 94 10000 3.1 80 15:49 03.07.2019
5519 Clouds 22 1016 94 10000 3.1 80 15:31 03.07.2019
5520 Rain 22 1016 94 10000 1.5 350 14:56 03.07.2019
5521 Rain 22 1016 94 10000 1.5 350 14:37 03.07.2019
5522 Clouds 22 1016 94 10000 1.5 300 14:18 03.07.2019
5523 Clouds 22 1016 94 10000 1.5 300 13:35 03.07.2019
5524 Clouds 21 1016 100 10000 1.5 330 12:54 03.07.2019
5525 Clouds 23 1016 88 10000 1 150 12:21 03.07.2019
5526 Clouds 23 1016 88 10000 1 150 11:58 03.07.2019
5527 Clouds 23 1016 88 10000 1 150 11:40 03.07.2019
5528 Clouds 23 1015 88 10000 2.1 140 11:21 03.07.2019
5529 Clouds 23 1015 88 10000 2.1 140 10:42 03.07.2019
5530 Clouds 23 1015 88 10000 2.1 140 10:23 03.07.2019
5531 Clouds 23 1015 94 10000 1 220 09:43 03.07.2019
5532 Clouds 24 1014 83 10000 1 140 09:21 03.07.2019
5533 Clouds 24 1014 83 10000 1 140 08:54 03.07.2019
5534 Clouds 24 1014 83 10000 1 140 08:33 03.07.2019
5535 Clouds 26 1014 74 10000 3.1 120 07:57 03.07.2019
5536 Clouds 26 1014 74 10000 3.1 120 07:37 03.07.2019
5537 Clouds 26 1014 74 10000 3.1 130 06:55 03.07.2019
5538 Clouds 27 1014 69 10000 3.1 130 05:56 03.07.2019
5539 Clouds 27 1014 69 10000 3.1 130 05:24 03.07.2019
5540 Clouds 28 1015 69 10000 3.1 130 03:55 03.07.2019
5541 Clouds 28 1015 69 10000 3.6 120 02:47 03.07.2019
5542 Clouds 27 1016 74 10000 0.7 150.58 01:37 03.07.2019
5543 Clouds 25 1016 83 10000 2.1 320 01:19 03.07.2019
5544 Clear 27 1015 46 0 0.7 150.58 00:40 03.07.2019
5545 Clouds 23 1016 94 10000 2.6 310 23:54 02.07.2019
5546 Clouds 23 1016 94 10000 2.6 310 23:36 02.07.2019
5547 Clouds 20 1016 100 10000 1.5 330 23:18 02.07.2019
5548 Clouds 20 1016 100 10000 1.5 330 22:41 02.07.2019
5549 Clouds 19 1016 93 10000 2.1 320 22:22 02.07.2019
5550 Clouds 19 1016 93 10000 2.1 320 21:57 02.07.2019
5551 Clouds 19 1016 93 10000 2.1 320 21:38 02.07.2019
5552 Clouds 19 1015 100 10000 2.1 320 21:19 02.07.2019
5553 Clouds 19 1015 100 10000 2.1 320 20:42 02.07.2019
5554 Clouds 19 1015 100 10000 1.06 20.025 20:24 02.07.2019
5555 Clouds 19 1015 100 10000 1.06 20.025 19:59 02.07.2019
5556 Clouds 19 1015 100 10000 1.06 20.025 19:40 02.07.2019
5557 Clouds 19 1015 100 10000 1.06 20.025 19:20 02.07.2019
5558 Clouds 19 1014 100 10000 2.1 320 18:45 02.07.2019
5559 Clouds 19 1014 100 10000 2.1 320 18:18 02.07.2019
5560 Clouds 19 1014 100 10000 2.1 320 17:41 02.07.2019
5561 Clouds 20 1015 94 10000 2.1 320 17:21 02.07.2019
5562 Clouds 20 1015 94 10000 2.1 320 16:47 02.07.2019
5563 Clouds 20 1015 94 10000 2.1 320 16:29 02.07.2019
5564 Clouds 20 1015 100 10000 0.84 31.559 15:44 02.07.2019
5565 Clouds 20 1015 100 10000 0.71 34.296 15:25 02.07.2019
5566 Clouds 20 1016 100 10000 0.71 34.296 14:51 02.07.2019
5567 Clouds 20 1016 100 10000 0.71 34.296 14:33 02.07.2019
5568 Clouds 21 1016 94 10000 2.1 320 13:47 02.07.2019
5569 Clouds 23 1016 94 10000 1.5 320 13:23 02.07.2019
5570 Clouds 23 1016 94 10000 1.5 320 12:59 02.07.2019
5571 Clouds 23 1016 94 10000 1.5 320 12:41 02.07.2019
5572 Clouds 23 1015 94 10000 1.5 40 12:18 02.07.2019
5573 Clouds 23 1015 94 10000 1.5 40 11:42 02.07.2019
5574 Clouds 22 1015 94 10000 0.48 24.974 11:21 02.07.2019
5575 Clouds 22 1015 94 10000 0.48 24.974 10:46 02.07.2019
5576 Clouds 23 1014 88 10000 1.5 70 10:24 02.07.2019
5577 Clouds 23 1014 88 10000 1.5 70 09:45 02.07.2019
5578 Clouds 25 1013 78 10000 1.5 100 09:22 02.07.2019
5579 Clouds 25 1013 78 10000 1.5 100 08:42 02.07.2019
5580 Clouds 25 1013 78 10000 1.5 100 08:42 02.07.2019
5581 Clouds 25 1013 78 10000 1.5 100 08:42 02.07.2019
5582 Clouds 26 1013 65 10000 2.1 140 08:21 02.07.2019
5583 Clouds 26 1013 65 10000 2.1 140 07:53 02.07.2019
5584 Clouds 27 1012 69 10000 2.1 150 07:21 02.07.2019
5585 Clouds 27 1012 69 10000 2.1 150 06:50 02.07.2019
5586 Clouds 28 1012 48 10000 2.6 190 06:26 02.07.2019
5587 Clouds 28 1013 65 10000 2.6 150 04:57 02.07.2019
5588 Clouds 28 1015 65 10000 1.41 237.333 02:19 02.07.2019
5589 Clouds 24 1015 83 10000 0.3 244.123 23:50 01.07.2019
5590 Clouds 24 1015 83 10000 0.3 244.123 23:22 01.07.2019
5591 Clouds 22 1014 88 10000 2.1 330 22:46 01.07.2019
5592 Clouds 22 1014 88 10000 2.1 330 22:27 01.07.2019
5593 Clouds 20 1014 100 10000 2.1 280 21:48 01.07.2019
5594 Clouds 20 1014 100 10000 2.1 280 21:48 01.07.2019
5595 Clouds 20 1014 100 10000 2.1 280 21:26 01.07.2019
5596 Clouds 20 1013 100 10000 2.1 300 20:52 01.07.2019
5597 Clouds 21 1013 94 10000 1.5 330 20:22 01.07.2019
5598 Clouds 21 1013 94 10000 1.5 330 19:59 01.07.2019
5599 Clouds 21 1013 94 10000 1.5 330 19:40 01.07.2019
5600 Clouds 21 1012 94 10000 0.67 326.998 19:22 01.07.2019
5601 Clouds 21 1012 94 10000 0.67 326.998 18:53 01.07.2019
5602 Clouds 21 1012 94 10000 0.67 326.998 18:31 01.07.2019
5603 Clouds 21 1012 94 10000 0.67 327.958 17:59 01.07.2019
5604 Clouds 17 1012 94 0 0.67 327.958 17:41 01.07.2019
5605 Clouds 21 1013 94 10000 1.5 300 17:21 01.07.2019
5606 Clouds 21 1013 94 10000 1.5 300 16:47 01.07.2019
5607 Clouds 21 1013 94 10000 1.5 300 16:25 01.07.2019
5608 Clouds 21 1013 100 10000 0.67 327.958 15:54 01.07.2019
5609 Clouds 21 1013 100 10000 0.67 327.958 15:36 01.07.2019
5610 Clouds 21 1013 100 10000 0.37 328.822 15:18 01.07.2019
5611 Clouds 22 1013 94 10000 1.5 270 14:42 01.07.2019
5612 Clouds 22 1013 94 10000 1.5 270 14:19 01.07.2019
5613 Clouds 22 1013 94 10000 0.37 328.822 13:40 01.07.2019
5614 Clouds 22 1013 94 10000 0.42 320.807 13:22 01.07.2019
5615 Clouds 23 1013 94 10000 0.42 320.807 12:44 01.07.2019
5616 Clouds 23 1013 94 10000 0.17 298.21 12:23 01.07.2019
5617 Clouds 23 1012 94 10000 0.17 298.21 11:58 01.07.2019
5618 Clouds 23 1012 94 10000 0.17 298.21 11:38 01.07.2019
5619 Clouds 23 1012 94 10000 0.17 298.21 11:18 01.07.2019
5620 Clouds 23 1012 100 10000 0.17 298.21 10:45 01.07.2019
5621 Clouds 23 1012 100 10000 0.17 298.21 10:21 01.07.2019
5622 Clouds 24 1011 94 10000 0.17 298.21 09:45 01.07.2019
5623 Clouds 24 1011 94 10000 0.87 203.25 09:26 01.07.2019
5624 -273 0 0 0 0 0 09:26 01.07.2019
5625 Clouds 26 1010 83 10000 0.87 203.25 08:58 01.07.2019
5626 Clouds 26 1010 83 10000 0.91 161.386 08:35 01.07.2019
5627 Clouds 27 1010 78 10000 0.91 161.386 07:35 01.07.2019
5628 Clouds 28 1009 65 10000 3.1 190 06:51 01.07.2019
5629 Clouds 29 1010 66 10000 2.6 190 04:45 01.07.2019
5630 Clouds 28 1012 74 10000 2.6 240 01:20 01.07.2019
5631 Clouds 27 1012 74 10000 0.87 201.285 00:42 01.07.2019
5632 Clouds 27 1012 74 10000 0.22 191.004 00:21 01.07.2019
5633 Clouds 25 1012 83 10000 2.1 300 23:26 30.06.2019
5634 Clouds 27 1012 65 10000 2.1 320 22:58 30.06.2019
5635 Clouds 27 1012 65 10000 2.1 320 22:37 30.06.2019
5636 Clouds 27 1012 65 10000 2.1 320 22:18 30.06.2019
5637 Clouds 23 1011 88 10000 1.5 350 21:41 30.06.2019
5638 Clouds 23 1011 88 10000 1.5 350 21:18 30.06.2019
5639 Clouds 22 1010 94 10000 2.1 290 20:42 30.06.2019
5640 Clouds 22 1010 94 10000 2.1 290 20:23 30.06.2019
5641 Clouds 22 1010 94 10000 1.5 250 19:52 30.06.2019
5642 Clouds 22 1010 94 10000 1.5 250 19:26 30.06.2019
5643 Clouds 22 1010 100 10000 0.51 309.634 18:55 30.06.2019
5644 Clouds 22 1010 100 10000 0.75 261.643 18:25 30.06.2019
5645 Clouds 22 1010 94 10000 1.5 260 17:55 30.06.2019
5646 Clouds 22 1010 94 10000 1.5 260 17:36 30.06.2019
5647 Clouds 22 1010 94 10000 1.5 260 17:18 30.06.2019
5648 Clouds 23 1010 88 10000 2.6 300 16:43 30.06.2019
5649 Clouds 23 1010 88 10000 2.6 300 16:25 30.06.2019
5650 Clouds 21 1010 100 10000 1.5 320 15:37 30.06.2019
5651 Clouds 21 1010 100 10000 1.5 320 15:18 30.06.2019
5652 Clouds 22 1010 94 10000 1.5 320 14:49 30.06.2019
5653 Clouds 22 1010 94 10000 1.5 320 14:29 30.06.2019
5654 Clouds 22 1010 94 10000 1 30 13:46 30.06.2019
5655 Clouds 22 1010 94 10000 1 30 13:24 30.06.2019
5656 Clouds 23 1010 94 10000 1.14 351.077 12:50 30.06.2019
5657 Clouds 23 1010 94 10000 1.14 353.704 12:25 30.06.2019
5658 Clouds 23 1010 94 10000 2.6 230 11:55 30.06.2019
5659 Clouds 23 1010 94 10000 2.6 230 11:37 30.06.2019
5660 Clouds 23 1010 94 10000 2.6 230 11:18 30.06.2019
5661 Thunderstorm 24 1009 100 8000 2.6 260 10:40 30.06.2019
5662 Thunderstorm 24 1009 100 8000 2.6 260 10:19 30.06.2019
5663 Thunderstorm 25 1009 94 10000 2.1 10 09:44 30.06.2019
5664 Thunderstorm 25 1009 94 10000 2.1 10 09:23 30.06.2019
5665 Clouds 25 1007 94 10000 3.1 20 08:59 30.06.2019
5666 Clouds 25 1007 94 10000 3.1 20 08:32 30.06.2019
5667 Clouds 25 1008 94 10000 9.8 949 07:59 30.06.2019
5668 Clouds 25 1008 94 10000 9.8 949 07:29 30.06.2019
5669 Clouds 25 1007 88 10000 6.7 40 06:51 30.06.2019
5670 Clouds 26 1007 88 10000 6.7 40 05:34 30.06.2019
5671 Clouds 27 1011 83 10000 8.7 50 02:59 30.06.2019
5672 Rain 25 1012 94 10000 5.1 30 01:30 30.06.2019
5673 Rain 25 1012 88 8000 4.1 30 00:38 30.06.2019
5674 Clouds 26 1012 83 10000 5.7 50 23:56 29.06.2019
5675 Clouds 26 1012 83 10000 5.7 50 23:25 29.06.2019
5676 Rain 24 1012 94 10000 6.7 50 22:58 29.06.2019
5677 Rain 24 1012 94 10000 6.7 50 22:40 29.06.2019
5678 Rain 24 1012 94 10000 6.7 50 22:21 29.06.2019
5679 Clouds 25 1011 88 10000 6.2 60 21:49 29.06.2019
5680 Clouds 25 1011 88 10000 6.2 60 21:23 29.06.2019
5681 Clouds 25 1011 88 10000 6.2 60 20:42 29.06.2019
5682 Clouds 25 1011 88 10000 6.2 60 20:24 29.06.2019
5683 Clouds 25 1011 83 10000 7.7 70 19:48 29.06.2019
5684 Clouds 25 1011 83 10000 7.7 70 19:24 29.06.2019
5685 Clouds 24 1011 88 10000 4.6 70 18:51 29.06.2019
5686 Clouds 24 1011 88 10000 4.6 70 18:26 29.06.2019
5687 Clouds 24 1011 88 10000 5.1 70 17:43 29.06.2019
5688 Clouds 24 1011 88 10000 5.1 70 17:23 29.06.2019
5689 Clouds 24 1011 88 10000 5.1 70 17:23 29.06.2019
5690 Clouds 24 1012 88 10000 4.1 80 16:58 29.06.2019
5691 Clouds 24 1012 88 10000 4.1 80 16:39 29.06.2019
5692 Clouds 23 1012 94 10000 2.6 70 15:53 29.06.2019
5693 Clouds 23 1012 94 10000 2.6 70 15:30 29.06.2019
5694 Clouds 23 1013 94 10000 2.6 50 14:44 29.06.2019
5695 Clouds 23 1013 94 10000 2.6 50 14:26 29.06.2019
5696 Clouds 22 1013 94 10000 2.6 50 13:47 29.06.2019
5697 Clouds 22 1013 94 10000 2.6 50 13:27 29.06.2019
5698 Rain 21 1013 100 10000 1.5 130 12:53 29.06.2019
5699 Rain 21 1013 100 10000 1.5 130 12:34 29.06.2019
5700 Rain 21 1015 100 5000 2.1 200 11:55 29.06.2019
5701 Rain 21 1015 100 5000 2.1 200 11:37 29.06.2019
5702 Rain 21 1015 100 5000 2.1 200 11:19 29.06.2019
5703 Rain 23 1013 94 10000 3.1 140 10:39 29.06.2019
5704 Rain 23 1013 94 10000 3.1 140 10:20 29.06.2019
5705 Rain 23 1013 88 10000 4.1 80 09:45 29.06.2019
5706 Rain 23 1013 94 10000 3.6 60 08:51 29.06.2019
5707 Rain 23 1013 94 10000 3.6 60 08:22 29.06.2019
5708 Clouds 24 1013 94 10000 5.7 60 07:44 29.06.2019
5709 Rain 24 1012 94 10000 5.7 90 06:47 29.06.2019
5710 Rain 24 1012 94 10000 5.7 90 06:24 29.06.2019
5711 Rain 24 1014 94 10000 3.1 110 02:51 29.06.2019
5712 Rain 24 1015 94 10000 2.6 110 01:22 29.06.2019
5713 Clouds 25 1015 83 10000 2.6 80 00:29 29.06.2019
5714 Clouds 24 1014 88 10000 3.6 90 23:36 28.06.2019
5715 Clouds 24 1014 88 10000 3.6 90 23:18 28.06.2019
5716 Clouds 24 1014 88 10000 3.6 100 22:44 28.06.2019
5717 Clouds 24 1013 83 10000 4.6 100 21:53 28.06.2019
5718 Clouds 24 1013 83 10000 4.6 100 21:26 28.06.2019
5719 Clouds 24 1012 88 10000 4.1 100 20:49 28.06.2019
5720 Clouds 24 1012 88 10000 4.1 100 20:29 28.06.2019
5721 Clouds 24 1012 83 10000 5.1 100 19:57 28.06.2019
5722 Clouds 24 1012 83 10000 5.1 100 19:37 28.06.2019
5723 Clouds 24 1012 83 10000 5.1 100 19:18 28.06.2019
5724 Clouds 24 1013 88 10000 3.6 100 18:40 28.06.2019
5725 Clouds 24 1013 88 10000 3.6 100 18:20 28.06.2019
5726 Clouds 24 1013 83 10000 5.1 100 17:33 28.06.2019
5727 Clouds 23 1013 94 10000 3.6 100 16:54 28.06.2019
5728 Clouds 23 1013 94 10000 3.6 100 16:29 28.06.2019
5729 Clouds 23 1014 94 10000 4.1 90 15:49 28.06.2019
5730 Clouds 23 1014 94 10000 4.1 90 15:26 28.06.2019
5731 Rain 23 1015 94 10000 4.1 60 14:57 28.06.2019
5732 Rain 23 1015 94 10000 4.1 60 14:38 28.06.2019
5733 Rain 23 1015 94 10000 4.1 60 14:20 28.06.2019
5734 Rain 24 1015 94 10000 5.7 80 13:44 28.06.2019
5735 Rain 24 1015 94 10000 5.7 80 13:22 28.06.2019
5736 Rain 23 1015 100 10000 5.7 90 12:49 28.06.2019
5737 Rain 23 1015 100 10000 5.7 90 12:24 28.06.2019
5738 Rain 23 1015 100 10000 5.7 100 11:27 28.06.2019
5739 Rain 23 1015 94 10000 6.2 100 10:47 28.06.2019
5740 Rain 20 1014 98 0 1.75 83.049 10:23 28.06.2019
5741 Rain 20 1014 98 0 1.75 83.049 10:23 28.06.2019
5742 Clouds 25 1014 83 10000 6.2 110 09:49 28.06.2019
5743 Clouds 25 1014 83 10000 6.2 110 09:30 28.06.2019
5744 Clouds 24 1014 88 10000 5.7 110 08:49 28.06.2019
5745 Clouds 24 1014 88 10000 5.7 110 08:27 28.06.2019
5746 Clouds 25 1013 83 10000 6.2 120 07:53 28.06.2019
5747 Clouds 25 1013 83 10000 6.2 120 07:35 28.06.2019
5748 Clouds 26 1013 78 10000 8.2 110 06:33 28.06.2019
5749 Clouds 26 1015 83 10000 7.7 110 02:26 28.06.2019
5750 Clouds 25 1015 83 10000 4.6 110 00:44 28.06.2019
5751 Clouds 24 1015 88 10000 5.7 130 23:57 27.06.2019
5752 Clouds 24 1015 88 10000 5.7 130 23:39 27.06.2019
5753 Clouds 24 1015 88 10000 5.7 130 23:20 27.06.2019
5754 Clouds 24 1015 88 10000 4.6 100 22:41 27.06.2019
5755 Clouds 24 1015 88 10000 4.6 100 22:23 27.06.2019
5756 Clouds 23 1015 94 10000 3.1 110 21:49 27.06.2019
5757 Clouds 23 1015 94 10000 3.1 110 21:31 27.06.2019
5758 Clouds 23 1015 94 10000 3.1 110 21:31 27.06.2019
5759 Clouds 23 1014 94 10000 4.1 100 20:58 27.06.2019
5760 Clouds 23 1014 94 10000 4.1 100 20:40 27.06.2019
5761 Clouds 23 1014 94 10000 4.1 100 20:21 27.06.2019
5762 Clouds 23 1014 94 10000 2.6 120 19:44 27.06.2019
5763 Clouds 23 1014 94 10000 2.6 120 19:25 27.06.2019
5764 Clouds 24 1014 88 10000 3.1 120 18:43 27.06.2019
5765 Clouds 24 1014 88 10000 3.1 120 18:21 27.06.2019
5766 Clouds 24 1015 88 10000 3.1 110 17:45 27.06.2019
5767 Clouds 24 1015 88 10000 3.1 110 17:22 27.06.2019
5768 Clouds 23 1015 88 10000 1.5 120 16:41 27.06.2019
5769 Clouds 23 1015 88 10000 1.5 120 16:20 27.06.2019
5770 Clouds 23 1016 94 10000 2.1 100 15:58 27.06.2019
5771 Clouds 23 1016 94 10000 2.1 100 15:40 27.06.2019
5772 Rain 24 1016 88 10000 3.1 110 14:59 27.06.2019
5773 Rain 24 1016 88 10000 3.1 110 14:39 27.06.2019
5774 Rain 24 1016 88 10000 3.1 110 14:21 27.06.2019
5775 Clouds 24 1017 88 10000 3.1 120 13:43 27.06.2019
5776 Clouds 24 1017 88 10000 3.1 120 13:25 27.06.2019
5777 Clouds 25 1017 83 10000 4.1 100 12:49 27.06.2019
5778 Clouds 25 1017 83 10000 4.1 100 12:31 27.06.2019
5779 Clouds 25 1016 78 10000 3.1 110 11:48 27.06.2019
5780 Clouds 25 1016 78 10000 3.1 110 11:24 27.06.2019
5781 Clouds 24 1016 88 10000 2.6 120 10:58 27.06.2019
5782 Clouds 24 1016 88 10000 2.6 120 10:40 27.06.2019
5783 Clouds 24 1016 88 10000 2.6 120 10:19 27.06.2019
5784 Clouds 25 1015 83 10000 3.1 110 09:41 27.06.2019
5785 Clouds 25 1015 83 10000 3.1 110 09:20 27.06.2019
5786 Clouds 25 1015 83 10000 4.1 110 08:50 27.06.2019
5787 Clouds 25 1015 83 10000 4.1 110 08:28 27.06.2019
5788 Clouds 25 1014 83 10000 3.6 110 07:46 27.06.2019
5789 Clouds 25 1014 88 10000 2.1 120 06:58 27.06.2019
5790 Clouds 25 1014 88 10000 2.1 120 06:32 27.06.2019
5791 Clouds 27 1015 65 10000 5.1 120 03:51 27.06.2019
5792 Clouds 27 1015 74 10000 6.2 110 02:42 27.06.2019
5793 Clouds 27 1016 69 10000 4.6 120 01:29 27.06.2019
5794 Clouds 27 1017 69 10000 5.1 100 00:50 27.06.2019
5795 Clouds 27 1017 69 10000 5.1 100 00:26 27.06.2019
5796 Clouds 26 1017 74 10000 4.6 120 23:50 26.06.2019
5797 Clouds 26 1017 74 10000 4.6 120 23:23 26.06.2019
5798 Clouds 26 1017 74 10000 4.6 120 23:23 26.06.2019
5799 Clouds 25 1016 83 10000 2.6 130 22:58 26.06.2019
5800 Clouds 25 1016 83 10000 2.6 130 22:39 26.06.2019
5801 Clouds 25 1016 83 10000 2.6 130 22:19 26.06.2019
5802 Clouds 25 1016 83 10000 2.6 130 22:19 26.06.2019
5803 Clouds 24 1016 83 10000 2.1 140 21:42 26.06.2019
5804 Clouds 24 1016 83 10000 2.1 140 21:21 26.06.2019
5805 Clouds 24 1016 83 10000 2.6 130 20:57 26.06.2019
5806 Clouds 24 1016 83 10000 2.6 130 20:37 26.06.2019
5807 Clouds 24 1016 83 10000 2.6 130 20:19 26.06.2019
5808 Clouds 23 1015 88 10000 1.5 130 19:42 26.06.2019
5809 Clouds 23 1015 88 10000 1.5 130 19:23 26.06.2019
5810 Clouds 23 1015 88 10000 2.1 140 18:45 26.06.2019
5811 Clouds 23 1015 88 10000 2.1 140 18:22 26.06.2019
5812 Clouds 24 1015 83 10000 2.1 110 17:57 26.06.2019
5813 Clouds 24 1015 83 10000 2.1 110 17:37 26.06.2019
5814 Clouds 24 1015 83 10000 2.1 110 17:18 26.06.2019
5815 Clouds 24 1016 83 10000 2.1 130 16:46 26.06.2019
5816 Clouds 24 1016 83 10000 2.1 130 16:22 26.06.2019
5817 Clouds 24 1016 83 10000 3.1 120 15:37 26.06.2019
5818 Clouds 24 1016 83 10000 3.1 120 15:19 26.06.2019
5819 Clouds 24 1017 88 10000 3.1 130 14:38 26.06.2019
5820 Clouds 24 1017 88 10000 3.1 130 14:19 26.06.2019
5821 Clouds 25 1017 83 10000 2.6 120 13:41 26.06.2019
5822 Clouds 25 1017 83 10000 2.6 120 13:19 26.06.2019
5823 Clouds 25 1017 83 10000 3.1 120 12:41 26.06.2019
5824 Clouds 25 1017 83 10000 3.1 120 12:22 26.06.2019
5825 Clouds 25 1017 78 10000 3.1 110 11:44 26.06.2019
5826 Clouds 25 1017 78 10000 3.1 110 11:19 26.06.2019
5827 Clouds 25 1017 83 10000 2.6 110 10:41 26.06.2019
5828 Clouds 25 1017 83 10000 2.6 110 10:21 26.06.2019
5829 Clouds 25 1016 83 10000 2.1 120 09:41 26.06.2019
5830 Clouds 25 1016 83 10000 2.1 120 09:18 26.06.2019
5831 Clouds 25 1016 83 10000 3.1 120 08:39 26.06.2019
5832 Clouds 25 1016 83 10000 3.1 120 08:19 26.06.2019
5833 Clouds 26 1015 78 10000 4.1 120 07:45 26.06.2019
5834 Clouds 27 1015 74 10000 4.6 120 06:34 26.06.2019
5835 Clouds 28 1015 69 10000 5.1 120 05:55 26.06.2019
5836 Clouds 27 1017 74 10000 4.6 140 00:59 26.06.2019
5837 Clouds 27 1017 74 10000 4.6 140 00:20 26.06.2019
5838 Clouds 27 1017 78 10000 3.6 100 23:43 25.06.2019
5839 Clouds 27 1017 78 10000 3.6 100 23:24 25.06.2019
5840 Clouds 25 1017 94 10000 1.5 130 22:56 25.06.2019
5841 Clouds 25 1017 94 10000 1.5 130 22:37 25.06.2019
5842 Clouds 25 1017 94 10000 1.5 130 22:19 25.06.2019
5843 Clouds 23 1017 94 10000 1.5 140 21:40 25.06.2019
5844 Clouds 23 1017 94 10000 1.5 140 21:21 25.06.2019
5845 Clouds 23 1016 94 10000 1.18 70.133 20:43 25.06.2019
5846 Clouds 23 1016 94 10000 1.18 70.133 20:43 25.06.2019
5847 Clouds 23 1016 94 10000 1.18 70.133 20:20 25.06.2019
5848 Clouds 23 1016 94 10000 1.18 70.133 20:20 25.06.2019
5849 Clouds 23 1016 94 10000 1.18 70.133 19:45 25.06.2019
5850 Clouds 23 1016 94 10000 1.18 70.133 19:23 25.06.2019
5851 Clouds 22 1015 100 10000 1.18 70.133 18:44 25.06.2019
5852 Clouds 22 1015 100 10000 1.25 62.699 18:26 25.06.2019
5853 -273 0 0 0 0 0 17:56 25.06.2019
5854 -273 0 0 0 0 0 17:29 25.06.2019
5855 -273 0 0 0 0 0 17:29 25.06.2019
5856 Clouds 22 1016 100 10000 1.25 62.699 17:29 25.06.2019
5857 -273 0 0 0 0 0 17:29 25.06.2019
5858 Clouds 22 1016 100 10000 1.25 62.699 16:57 25.06.2019
5859 Clouds 22 1016 100 10000 1.25 62.699 16:38 25.06.2019
5860 Clouds 22 1016 100 10000 1.25 62.699 16:19 25.06.2019
5861 Clouds 23 1017 94 10000 1 230 15:40 25.06.2019
5862 Clouds 23 1017 94 10000 1 230 15:21 25.06.2019
5863 Clouds 22 1017 100 10000 1.34 62.196 14:53 25.06.2019
5864 Clouds 22 1017 100 10000 1.34 62.196 14:53 25.06.2019
5865 Clouds 22 1017 100 10000 1.34 62.196 14:33 25.06.2019
5866 Clouds 23 1017 94 10000 1.34 62.196 13:45 25.06.2019
5867 Clouds 23 1017 94 10000 1.4 60.529 13:26 25.06.2019
5868 Clouds 23 1017 94 10000 1.5 330 12:43 25.06.2019
5869 Clouds 23 1017 94 10000 1.5 330 12:24 25.06.2019
5870 Clouds 19 1017 99 0 1.25 72.362 11:47 25.06.2019
5871 Clouds 19 1017 99 0 1.25 72.362 11:26 25.06.2019
5872 Clouds 24 1018 94 10000 1.25 72.362 10:59 25.06.2019
5873 Clouds 24 1018 94 10000 1.25 72.362 10:58 25.06.2019
5874 Clouds 24 1018 94 10000 1.25 72.362 10:37 25.06.2019
5875 Clouds 24 1018 94 10000 1.25 72.362 10:37 25.06.2019
5876 Clouds 24 1018 94 10000 1.25 72.362 10:19 25.06.2019
5877 Clouds 25 1017 94 10000 1.25 72.362 09:39 25.06.2019
5878 Clouds 25 1017 94 10000 1.22 56.781 09:21 25.06.2019
5879 Clouds 26 1016 88 10000 1.5 120 08:54 25.06.2019
5880 Clouds 26 1016 88 10000 1.5 120 08:31 25.06.2019
5881 Clouds 27 1016 83 10000 3.1 100 07:45 25.06.2019
5882 Clouds 27 1016 83 10000 3.1 100 07:26 25.06.2019
5883 Clouds 28 1015 78 10000 3.6 100 06:47 25.06.2019
5884 Clouds 27 1015 83 10000 4.1 90 05:58 25.06.2019
5885 Clouds 28 1016 78 10000 4.6 90 02:43 25.06.2019
5886 Clouds 26 1017 88 10000 3.6 90 00:57 25.06.2019
5887 Clouds 26 1017 88 10000 3.6 90 00:20 25.06.2019
5888 Clouds 25 1017 94 10000 2.54 53.121 23:51 24.06.2019
5889 Clouds 25 1017 94 10000 2.54 53.121 23:32 24.06.2019
5890 Clouds 24 1017 100 10000 1 0 22:48 24.06.2019
5891 Clouds 24 1017 100 10000 1 0 22:21 24.06.2019
5892 Clouds 23 1016 100 10000 1 0 21:57 24.06.2019
5893 Clouds 23 1016 100 10000 1 0 21:37 24.06.2019
5894 Clouds 23 1016 100 10000 1 0 21:18 24.06.2019
5895 Clouds 23 1016 100 10000 1 0 20:43 24.06.2019
5896 Clouds 23 1016 100 10000 1 0 20:23 24.06.2019
5897 Clouds 23 1016 100 10000 1.05 69.099 19:49 24.06.2019
5898 Clouds 23 1016 100 10000 1.05 69.099 19:30 24.06.2019
5899 Clouds 23 1016 100 10000 1.05 69.099 18:58 24.06.2019
5900 Clouds 23 1016 100 10000 1.05 69.099 18:38 24.06.2019
5901 Clouds 23 1016 100 10000 0.7 42.005 18:20 24.06.2019
5902 Clouds 23 1016 100 10000 0.7 42.005 17:37 24.06.2019
5903 Clouds 23 1016 100 10000 0.7 42.005 17:18 24.06.2019
5904 Clouds 24 1017 94 10000 0.7 42.005 16:40 24.06.2019
5905 Clouds 24 1017 94 10000 0.7 42.005 16:19 24.06.2019
5906 Clouds 24 1018 94 10000 0.7 42.005 15:41 24.06.2019
5907 Clouds 24 1018 94 10000 1.34 39.301 15:22 24.06.2019
5908 Clouds 24 1018 94 10000 1 0 14:35 24.06.2019
5909 Clouds 24 1018 94 10000 1.34 39.301 13:59 24.06.2019
5910 Clouds 24 1018 94 10000 1.17 40.125 13:32 24.06.2019
5911 Clouds 24 1018 94 10000 1.17 40.125 12:54 24.06.2019
5912 Clouds 24 1018 94 10000 1.17 40.125 12:36 24.06.2019
5913 Clouds 24 1018 94 10000 1.48 32.67 12:18 24.06.2019
5914 Clouds 24 1017 94 10000 1.48 32.67 11:43 24.06.2019
5915 Clouds 24 1017 94 10000 1.48 32.67 11:23 24.06.2019
5916 Clouds 24 1017 94 10000 1.48 32.67 10:51 24.06.2019
5917 Clouds 24 1017 94 10000 1.48 32.67 10:28 24.06.2019
5918 Clouds 24 1016 94 10000 1.48 32.67 09:49 24.06.2019
5919 Clouds 24 1016 94 10000 1.92 44.366 09:23 24.06.2019
5920 Clouds 25 1016 88 10000 2.6 110 08:53 24.06.2019
5921 Clouds 25 1016 88 10000 2.6 110 08:32 24.06.2019
5922 Clouds 26 1015 83 10000 2.6 110 07:47 24.06.2019
5923 Clouds 26 1015 83 10000 2.6 110 07:26 24.06.2019
5924 Clouds 27 1014 78 10000 4.1 110 06:49 24.06.2019
5925 Clouds 27 1014 78 10000 4.1 110 06:21 24.06.2019
5926 Clouds 28 1014 69 10000 3.6 90 05:27 24.06.2019
5927 Clouds 29 1014 66 10000 2.6 70 04:28 24.06.2019
5928 Clouds 29 1014 62 10000 3.1 70 03:30 24.06.2019
5929 Clouds 29 1015 62 10000 4.1 60 02:33 24.06.2019
5930 Clouds 27 1016 74 10000 3.6 90 01:54 24.06.2019
5931 Clouds 27 1016 74 10000 3.6 90 01:26 24.06.2019
5932 Clouds 27 1016 78 10000 2.1 80 00:41 24.06.2019
5933 Clouds 27 1016 78 10000 2.1 80 00:19 24.06.2019
5934 Clouds 24 1016 88 10000 1 0 23:45 23.06.2019
5935 Clouds 24 1016 88 10000 1 0 23:23 23.06.2019
5936 Clouds 21 1016 100 10000 1.5 320 22:43 23.06.2019
5937 Clouds 21 1016 100 10000 1.5 320 22:21 23.06.2019
5938 Clouds 20 1015 100 10000 1.5 340 21:56 23.06.2019
5939 Clouds 20 1015 100 10000 1.5 340 21:37 23.06.2019
5940 Clouds 20 1015 100 10000 1.5 340 21:18 23.06.2019
5941 Clouds 20 1015 100 10000 1.5 340 20:41 23.06.2019
5942 Clouds 20 1015 100 10000 1.5 340 20:22 23.06.2019
5943 Clouds 20 1014 100 10000 1.53 39.815 19:44 23.06.2019
5944 Clouds 20 1014 100 10000 1.53 39.815 19:21 23.06.2019
5945 Clouds 21 1014 100 10000 2.1 310 18:54 23.06.2019
5946 Clouds 21 1014 100 10000 2.1 310 18:24 23.06.2019
5947 Clouds 22 1014 100 10000 1 310 17:51 23.06.2019
5948 Clouds 22 1014 100 10000 1 310 17:26 23.06.2019
5949 Clouds 22 1014 100 10000 2.1 310 16:55 23.06.2019
5950 Clouds 22 1014 100 10000 2.1 310 16:37 23.06.2019
5951 Clouds 22 1014 100 10000 2.1 310 16:18 23.06.2019
5952 Clouds 22 1015 100 10000 1 320 15:40 23.06.2019
5953 Clouds 22 1015 100 10000 1 320 15:21 23.06.2019
5954 Clouds 21 1015 100 10000 1.5 330 14:41 23.06.2019
5955 Clouds 21 1015 100 10000 1.5 330 14:22 23.06.2019
5956 Clouds 22 1015 100 10000 1.5 320 13:58 23.06.2019
5957 Clouds 22 1015 100 10000 1.5 320 13:39 23.06.2019
5958 Clouds 22 1015 100 10000 1.5 320 13:19 23.06.2019
5959 Clouds 22 1015 94 10000 1.61 37.825 12:43 23.06.2019
5960 Clouds 22 1015 94 10000 1.74 45.187 12:22 23.06.2019
5961 Clouds 22 1015 94 10000 1.74 45.187 12:22 23.06.2019
5962 Clouds 22 1015 94 10000 1 0 11:55 23.06.2019
5963 Clouds 22 1015 94 10000 1 0 11:36 23.06.2019
5964 Clouds 22 1015 94 10000 1 0 11:18 23.06.2019
5965 Clouds 18 1015 99 0 1.74 45.187 10:41 23.06.2019
5966 Clouds 24 1014 88 10000 1.5 50 10:18 23.06.2019
5967 Clouds 24 1014 88 10000 1.5 50 09:39 23.06.2019
5968 Clouds 25 1014 83 10000 2.1 70 09:20 23.06.2019
5969 Clouds 20 1013 92 0 1.91 51.331 08:42 23.06.2019
5970 Clouds 27 1013 69 10000 3.6 80 08:24 23.06.2019
5971 Clouds 27 1013 69 10000 3.6 80 07:52 23.06.2019
5972 Clouds 27 1013 69 10000 4.6 80 07:20 23.06.2019
5973 Clouds 27 1013 69 10000 4.6 80 06:54 23.06.2019
5974 Clouds 25 1012 68 0 2.26 66.818 05:54 23.06.2019
5975 Clouds 29 1013 62 10000 4.6 80 03:41 23.06.2019
5976 Clouds 27 1015 69 10000 4.6 60 01:52 23.06.2019
5977 Clouds 27 1015 69 10000 4.6 60 01:33 23.06.2019
5978 Clouds 27 1015 69 10000 4.6 80 00:34 23.06.2019
5979 Clouds 25 1015 88 10000 1.5 320 23:53 22.06.2019
5980 Clouds 25 1015 88 10000 1.5 320 23:27 22.06.2019
5981 Clouds 22 1015 100 10000 2.41 58.707 22:49 22.06.2019
5982 Clouds 20 1014 100 10000 2.1 350 22:29 22.06.2019
5983 Clouds 20 1014 100 10000 2.1 350 21:59 22.06.2019
5984 Clouds 20 1014 100 10000 2.1 350 21:37 22.06.2019
5985 Clouds 20 1014 100 10000 2.1 350 21:18 22.06.2019
5986 Clouds 20 1014 100 10000 1.5 330 20:48 22.06.2019
5987 Clouds 20 1014 100 10000 1.5 330 20:25 22.06.2019
5988 Clouds 20 1013 100 10000 1.45 51.365 19:46 22.06.2019
5989 Clouds 20 1013 100 10000 1.45 51.365 19:22 22.06.2019
5990 Clouds 20 1013 100 10000 1.45 51.365 18:48 22.06.2019
5991 Clouds 20 1013 100 10000 1.45 51.365 18:30 22.06.2019
5992 Clouds 21 1013 94 10000 1.5 330 17:56 22.06.2019
5993 Clouds 21 1013 94 10000 1.5 330 17:34 22.06.2019
5994 Clouds 21 1013 94 10000 1.5 330 16:50 22.06.2019
5995 Clouds 21 1013 94 10000 1.5 330 16:24 22.06.2019
5996 Clouds 21 1014 100 10000 1.5 330 15:56 22.06.2019
5997 Clouds 21 1014 100 10000 1.5 330 15:37 22.06.2019
5998 Clouds 21 1014 100 10000 1.5 330 15:19 22.06.2019
5999 Clouds 22 1013 94 10000 1.39 54.846 14:35 22.06.2019
6000 Clouds 21 1014 100 10000 1.39 54.846 13:59 22.06.2019
6001 Clouds 21 1014 100 10000 1.39 54.846 13:40 22.06.2019
6002 Clouds 21 1014 100 10000 1.35 55.804 13:19 22.06.2019
6003 Clouds 22 1013 100 10000 1 330 12:50 22.06.2019
6004 Clouds 22 1013 100 10000 1 330 12:31 22.06.2019
6005 Clouds 22 1013 100 10000 1 330 11:57 22.06.2019
6006 Clouds 22 1013 100 10000 1 330 11:31 22.06.2019
6007 Clouds 23 1013 94 10000 1.43 58.516 10:48 22.06.2019
6008 Clouds 23 1013 94 10000 1.43 58.516 10:19 22.06.2019
6009 Clouds 24 1012 88 10000 1 100 09:46 22.06.2019
6010 Clouds 24 1012 88 10000 1 100 09:18 22.06.2019
6011 Clouds 25 1012 83 10000 2.6 100 08:41 22.06.2019
6012 Clouds 25 1012 83 10000 2.6 100 08:19 22.06.2019
6013 Clouds 26 1012 78 10000 4.1 80 07:30 22.06.2019
6014 Clouds 27 1012 69 10000 4.6 70 06:46 22.06.2019
6015 Clouds 28 1011 69 10000 4.6 70 04:38 22.06.2019
6016 Clouds 27 1013 69 10000 4.6 70 02:31 22.06.2019
6017 Clouds 25 1014 83 10000 1 0 00:57 22.06.2019
6018 Clouds 25 1014 83 10000 1 0 00:35 22.06.2019
6019 Clouds 23 1014 94 10000 1 0 23:51 21.06.2019
6020 Clouds 23 1014 94 10000 1 0 23:25 21.06.2019
6021 Clouds 20 1014 100 10000 1.5 330 22:58 21.06.2019
6022 Clouds 20 1014 100 10000 1.5 330 22:40 21.06.2019
6023 Clouds 20 1014 100 10000 1.5 330 22:20 21.06.2019
6024 Clouds 20 1014 100 10000 2.1 330 21:40 21.06.2019
6025 Clouds 20 1014 100 10000 2.1 330 21:21 21.06.2019
6026 Clouds 20 1013 94 10000 1.31 52.552 20:49 21.06.2019
6027 Clouds 20 1013 94 10000 1.31 52.552 20:27 21.06.2019
6028 Clouds 21 1013 94 10000 1.5 330 19:54 21.06.2019
6029 Clouds 21 1013 94 10000 1.5 330 19:23 21.06.2019
6030 Clouds 21 1013 100 10000 1.5 330 18:43 21.06.2019
6031 Clouds 21 1013 100 10000 1.5 330 18:24 21.06.2019
6032 Rain 20 1013 100 10000 1.31 59.898 17:36 21.06.2019
6033 Clouds 20 1013 94 10000 1.31 59.898 16:59 21.06.2019
6034 Clouds 20 1013 94 10000 1.31 59.898 16:37 21.06.2019
6035 Clouds 20 1013 94 10000 1.31 59.898 16:19 21.06.2019
6036 -273 0 0 0 0 0 15:38 21.06.2019
6037 Clouds 20 1014 94 10000 1.19 47.584 15:18 21.06.2019
6038 Clouds 20 1014 100 10000 1.19 47.584 14:40 21.06.2019
6039 Clouds 20 1014 100 10000 1.19 47.584 14:21 21.06.2019
6040 Clouds 20 1014 100 10000 1.19 47.584 13:40 21.06.2019
6041 Clouds 20 1014 100 10000 1.19 51.22 13:22 21.06.2019
6042 Clouds 21 1014 100 10000 1.19 51.22 12:51 21.06.2019
6043 Clouds 21 1014 100 10000 1.19 54.182 12:23 21.06.2019
6044 Clouds 22 1014 94 10000 1.19 54.182 11:56 21.06.2019
6045 Clouds 22 1014 94 10000 1.19 54.182 11:37 21.06.2019
6046 Clouds 22 1014 94 10000 1.19 54.182 11:19 21.06.2019
6047 Clouds 22 1014 94 10000 1.19 54.182 11:19 21.06.2019
6048 Clouds 22 1014 94 10000 1.19 54.182 10:44 21.06.2019
6049 Clouds 22 1014 94 10000 1.19 54.182 10:20 21.06.2019
6050 Clouds 23 1013 88 10000 1.19 54.182 09:43 21.06.2019
6051 Clouds 23 1013 88 10000 1.13 65.754 09:23 21.06.2019
6052 Clouds 25 1013 83 10000 1.13 65.754 08:56 21.06.2019
6053 Clouds 25 1013 83 10000 1.13 65.754 08:56 21.06.2019
6054 Clouds 25 1013 83 10000 1.26 67.573 08:37 21.06.2019
6055 Clouds 25 1013 83 10000 1.26 67.573 08:19 21.06.2019
6056 Clouds 25 1012 78 10000 2.6 120 07:44 21.06.2019
6057 Clouds 25 1012 78 10000 2.6 120 07:19 21.06.2019
6058 Clouds 27 1012 69 10000 3.6 120 06:28 21.06.2019
6059 Clouds 28 1012 61 10000 3.1 130 05:35 21.06.2019
6060 Clouds 28 1012 61 10000 4.1 110 04:40 21.06.2019
6061 Rain 23 1012 76 0 2 90.23 03:47 21.06.2019
6062 Clouds 28 1013 69 10000 3.6 110 03:24 21.06.2019
6063 Clouds 28 1013 69 10000 3.6 110 02:26 21.06.2019
6064 Clouds 28 1014 65 10000 4.6 80 01:30 21.06.2019
6065 Clouds 28 1015 65 10000 3.1 110 00:35 21.06.2019
6066 Clouds 26 1015 78 10000 1.43 76.168 23:55 20.06.2019
6067 Clouds 26 1015 78 10000 1.43 76.168 23:37 20.06.2019
6068 Clouds 26 1015 78 10000 1.43 76.168 23:37 20.06.2019
6069 Clouds 26 1015 78 10000 1.43 76.168 23:18 20.06.2019
6070 Clouds 23 1015 94 10000 1 0 22:41 20.06.2019
6071 Clouds 23 1015 94 10000 1 0 22:22 20.06.2019
6072 Clouds 21 1014 100 10000 1.5 330 21:54 20.06.2019
6073 Clouds 21 1014 100 10000 1.5 330 21:36 20.06.2019
6074 Clouds 21 1014 100 10000 1.5 330 21:18 20.06.2019
6075 Clouds 21 1014 100 10000 1.04 49.255 20:41 20.06.2019
6076 Clouds 21 1014 100 10000 1.04 49.255 20:21 20.06.2019
6077 Clouds 21 1013 100 10000 1.04 49.255 19:43 20.06.2019
6078 Clouds 21 1013 100 10000 1.04 49.255 19:19 20.06.2019
6079 Clouds 21 1013 100 10000 1.04 49.255 18:56 20.06.2019
6080 Clouds 21 1013 100 10000 1.04 49.255 18:38 20.06.2019
6081 Clouds 21 1013 100 10000 1.19 60.819 18:20 20.06.2019
6082 Clouds 22 1014 94 10000 1.19 60.819 17:45 20.06.2019
6083 Clouds 22 1014 94 10000 1.19 60.819 17:22 20.06.2019
6084 Clouds 22 1014 94 10000 1 0 16:42 20.06.2019
6085 Clouds 22 1014 94 10000 1 0 16:19 20.06.2019
6086 Clouds 23 1014 94 10000 1.19 60.819 15:43 20.06.2019
6087 Clouds 23 1014 94 10000 1.3 64.128 15:23 20.06.2019
6088 Clouds 24 1015 83 10000 1.5 140 14:57 20.06.2019
6089 Clouds 24 1015 83 10000 1.5 140 14:38 20.06.2019
6090 Clouds 24 1015 83 10000 1.5 140 14:19 20.06.2019
6091 Clouds 24 1015 83 10000 2.1 150 13:39 20.06.2019
6092 Clouds 24 1015 83 10000 2.1 150 13:18 20.06.2019
6093 Clouds 24 1015 88 10000 2.1 150 12:42 20.06.2019
6094 Clouds 24 1015 88 10000 2.1 150 12:21 20.06.2019
6095 Clouds 24 1014 88 10000 2.6 130 11:41 20.06.2019
6096 Clouds 24 1014 88 10000 2.6 130 11:22 20.06.2019
6097 Clouds 24 1014 88 10000 2.6 130 11:22 20.06.2019
6098 Clouds 24 1014 88 10000 2.1 130 10:44 20.06.2019
6099 Clouds 24 1014 88 10000 2.1 130 10:24 20.06.2019
6100 Clouds 24 1014 88 10000 2.1 130 09:55 20.06.2019
6101 Clouds 24 1014 88 10000 2.1 130 09:37 20.06.2019
6102 Clouds 24 1014 88 10000 2.1 130 09:37 20.06.2019
6103 Clouds 24 1014 88 10000 2.1 130 09:18 20.06.2019
6104 Clouds 25 1013 83 10000 2.1 130 08:43 20.06.2019
6105 Clouds 25 1013 83 10000 2.1 130 08:22 20.06.2019
6106 Clouds 26 1013 78 10000 3.1 130 07:44 20.06.2019
6107 Clouds 26 1013 78 10000 3.1 130 07:25 20.06.2019
6108 Clouds 26 1013 78 10000 3.6 130 06:19 20.06.2019
6109 Clouds 27 1013 74 10000 1.97 114.785 03:40 20.06.2019
6110 Rain 27 1015 78 10000 5.7 130 01:56 20.06.2019
6111 Clouds 27 1015 83 10000 4.1 130 00:33 20.06.2019
6112 Clouds 24 1015 94 10000 2.6 110 23:45 19.06.2019
6113 Clouds 24 1015 94 10000 2.6 110 23:27 19.06.2019
6114 Clouds 24 1015 94 10000 3.6 130 22:49 19.06.2019
6115 Clouds 24 1015 94 10000 3.6 130 22:24 19.06.2019
6116 Clouds 24 1014 94 10000 2.6 140 21:58 19.06.2019
6117 Clouds 24 1014 94 10000 2.6 140 21:37 19.06.2019
6118 Clouds 24 1014 94 10000 2.6 140 21:19 19.06.2019
6119 Clouds 24 1014 94 10000 2.6 110 20:40 19.06.2019
6120 Clouds 24 1014 94 10000 2.6 110 20:21 19.06.2019
6121 Rain 24 1013 94 10000 2.6 120 19:45 19.06.2019
6122 Rain 24 1013 94 10000 2.6 120 19:26 19.06.2019
6123 Rain 24 1013 94 10000 2.1 110 18:56 19.06.2019
6124 Rain 24 1013 94 10000 2.1 110 18:24 19.06.2019
6125 Rain 23 1014 100 10000 3.1 140 17:44 19.06.2019
6126 Rain 23 1014 100 10000 3.1 140 17:25 19.06.2019
6127 Drizzle 24 1014 94 10000 2.1 150 16:56 19.06.2019
6128 Drizzle 24 1014 94 10000 2.1 150 16:36 19.06.2019
6129 Drizzle 24 1014 94 10000 2.1 150 16:18 19.06.2019
6130 Clouds 24 1015 94 10000 1 0 15:42 19.06.2019
6131 Clouds 24 1015 94 10000 1 0 15:20 19.06.2019
6132 Clouds 25 1015 94 10000 1.5 130 14:43 19.06.2019
6133 Clouds 25 1015 94 10000 1.5 130 14:23 19.06.2019
6134 Clouds 25 1015 88 10000 2.1 120 13:44 19.06.2019
6135 Clouds 25 1015 88 10000 2.1 120 13:25 19.06.2019
6136 Clouds 25 1015 88 10000 2.1 120 13:25 19.06.2019
6137 Drizzle 25 1015 94 10000 1.11 82.524 12:48 19.06.2019
6138 Drizzle 25 1015 94 10000 1.29 72.675 12:22 19.06.2019
6139 Clouds 25 1015 88 10000 2.6 130 11:58 19.06.2019
6140 Clouds 25 1015 88 10000 2.6 130 11:39 19.06.2019
6141 Clouds 25 1015 88 10000 2.6 130 11:20 19.06.2019
6142 Clouds 25 1014 88 10000 2.6 120 10:46 19.06.2019
6143 Clouds 25 1014 88 10000 2.6 120 10:28 19.06.2019
6144 Clouds 25 1014 94 10000 1.29 72.675 09:51 19.06.2019
6145 Clouds 25 1014 94 10000 1.16 87.78 09:23 19.06.2019
6146 Clouds 25 1013 94 10000 3.6 140 08:58 19.06.2019
6147 Clouds 25 1013 94 10000 3.6 140 08:38 19.06.2019
6148 Clouds 25 1013 94 10000 3.6 140 08:19 19.06.2019
6149 Clouds 26 1013 83 10000 3.1 130 07:43 19.06.2019
6150 Clouds 26 1013 83 10000 3.1 130 07:21 19.06.2019
6151 Clouds 26 1013 88 10000 3.1 130 06:36 19.06.2019
6152 Drizzle 25 1013 94 10000 3.6 130 05:58 19.06.2019
6153 Drizzle 25 1013 94 10000 3.6 130 05:20 19.06.2019
6154 Clouds 27 1013 78 10000 5.7 120 03:51 19.06.2019
6155 Clouds 27 1014 78 10000 4.6 120 02:35 19.06.2019
6156 Clouds 27 1015 78 10000 5.1 110 01:36 19.06.2019
6157 Clouds 27 1015 78 10000 4.6 110 00:53 19.06.2019
6158 Clouds 27 1015 78 10000 4.6 110 00:35 19.06.2019
6159 Clouds 26 1015 83 10000 4.1 120 23:58 18.06.2019
6160 Clouds 26 1015 83 10000 4.1 120 23:30 18.06.2019
6161 Clouds 26 1015 83 10000 3.1 100 22:55 18.06.2019
6162 Clouds 26 1015 83 10000 3.1 100 22:37 18.06.2019
6163 Clouds 26 1015 83 10000 3.1 100 22:19 18.06.2019
6164 Clouds 25 1014 88 10000 2.6 120 21:44 18.06.2019
6165 Clouds 25 1014 88 10000 2.6 120 21:21 18.06.2019
6166 Rain 25 1014 88 10000 2.6 120 20:55 18.06.2019
6167 Rain 25 1014 88 10000 2.6 120 20:37 18.06.2019
6168 Clouds 25 1013 88 10000 1.5 130 20:18 18.06.2019
6169 Rain 25 1014 88 10000 2.6 120 20:18 18.06.2019
6170 Clouds 25 1013 88 10000 1.5 130 19:39 18.06.2019
6171 Clouds 25 1013 88 10000 1.5 130 19:20 18.06.2019
6172 Clouds 25 1013 88 10000 2.6 130 18:46 18.06.2019
6173 Clouds 25 1013 88 10000 2.6 130 18:25 18.06.2019
6174 Clouds 25 1013 88 10000 2.6 110 17:46 18.06.2019
6175 Clouds 25 1013 88 10000 2.6 110 17:21 18.06.2019
6176 Clouds 25 1014 88 10000 1.5 110 16:57 18.06.2019
6177 Clouds 25 1014 88 10000 1.5 110 16:38 18.06.2019
6178 Clouds 25 1014 88 10000 1.5 110 16:20 18.06.2019
6179 Clouds 25 1014 88 10000 2.6 120 15:38 18.06.2019
6180 Clouds 25 1014 88 10000 2.6 120 15:19 18.06.2019
6181 Clouds 25 1014 88 10000 2.1 110 14:45 18.06.2019
6182 Clouds 25 1014 88 10000 2.1 110 14:22 18.06.2019
6183 Clouds 24 1014 94 10000 1.5 100 13:58 18.06.2019
6184 Clouds 24 1014 94 10000 1.5 100 13:38 18.06.2019
6185 Clouds 24 1014 94 10000 1.5 100 13:20 18.06.2019
6186 Clouds 25 1015 88 10000 2.1 100 12:43 18.06.2019
6187 Clouds 25 1015 88 10000 2.1 100 12:25 18.06.2019
6188 Clouds 25 1014 88 10000 3.1 120 11:45 18.06.2019
6189 Clouds 25 1014 88 10000 3.1 120 11:23 18.06.2019
6190 Clouds 25 1014 88 10000 2.6 100 10:57 18.06.2019
6191 Clouds 25 1014 88 10000 2.6 100 10:37 18.06.2019
6192 Clouds 25 1014 88 10000 2.6 100 10:18 18.06.2019
6193 Drizzle 25 1014 88 10000 2.6 110 09:48 18.06.2019
6194 Drizzle 25 1014 88 10000 2.6 110 09:24 18.06.2019
6195 Clouds 26 1013 78 10000 3.1 120 08:43 18.06.2019
6196 Clouds 26 1013 78 10000 3.1 120 08:21 18.06.2019
6197 Clouds 26 1013 78 10000 4.1 120 07:41 18.06.2019
6198 Clouds 26 1013 78 10000 4.1 120 07:21 18.06.2019
6199 Clouds 26 1013 78 10000 5.1 110 06:43 18.06.2019
6200 Clouds 27 1012 74 10000 5.7 110 05:20 18.06.2019
6201 Clouds 27 1015 74 10000 4.6 110 02:53 18.06.2019
6202 Clouds 27 1015 74 10000 4.6 120 01:55 18.06.2019
6203 Clouds 27 1015 74 10000 4.6 120 01:25 18.06.2019
6204 Clouds 28 1016 69 10000 5.1 90 00:55 18.06.2019
6205 Clouds 28 1016 69 10000 5.1 90 00:27 18.06.2019
6206 Clouds 27 1016 74 10000 4.6 100 23:41 17.06.2019
6207 Clouds 27 1016 74 10000 4.6 100 23:20 17.06.2019
6208 Clouds 25 1015 83 10000 4.1 90 22:56 17.06.2019
6209 Clouds 25 1015 83 10000 4.1 90 22:37 17.06.2019
6210 Clouds 25 1015 83 10000 4.1 90 22:19 17.06.2019
6211 Clouds 25 1015 83 10000 2.6 120 21:42 17.06.2019
6212 Clouds 25 1015 83 10000 2.6 120 21:21 17.06.2019
6213 Clouds 24 1014 88 10000 3.1 110 20:37 17.06.2019
6214 Clouds 24 1014 88 10000 3.1 110 20:37 17.06.2019
6215 Clouds 24 1014 88 10000 3.1 110 20:19 17.06.2019
6216 Drizzle 24 1014 88 10000 3.6 100 19:42 17.06.2019
6217 Drizzle 24 1014 88 10000 3.6 100 19:24 17.06.2019
6218 Clouds 25 1014 83 10000 3.1 110 18:58 17.06.2019
6219 Clouds 25 1014 83 10000 3.1 110 18:38 17.06.2019
6220 Clouds 25 1014 83 10000 3.1 110 18:18 17.06.2019
6221 Clouds 25 1014 83 10000 3.1 110 17:47 17.06.2019
6222 Clouds 25 1014 83 10000 3.1 110 17:28 17.06.2019
6223 Clouds 25 1014 83 10000 3.6 110 16:49 17.06.2019
6224 Clouds 25 1014 83 10000 3.6 110 16:31 17.06.2019
6225 Clouds 25 1015 83 10000 3.1 120 15:58 17.06.2019
6226 Clouds 25 1015 83 10000 3.1 120 15:39 17.06.2019
6227 Clouds 25 1015 83 10000 3.1 110 15:19 17.06.2019
6228 Clouds 25 1015 83 10000 3.1 110 14:53 17.06.2019
6229 Clouds 25 1015 83 10000 3.1 110 14:34 17.06.2019
6230 Clouds 24 1015 88 10000 3.1 110 13:56 17.06.2019
6231 Clouds 24 1015 88 10000 3.1 110 13:38 17.06.2019
6232 Clouds 25 1015 83 10000 2.6 110 13:19 17.06.2019
6233 Clouds 25 1015 83 10000 2.6 110 12:33 17.06.2019
6234 Clouds 26 1015 78 10000 3.6 110 11:58 17.06.2019
6235 Clouds 26 1015 78 10000 3.6 110 11:38 17.06.2019
6236 Clouds 25 1015 83 10000 3.1 110 11:18 17.06.2019
6237 Clouds 25 1015 83 10000 3.1 110 10:44 17.06.2019
6238 Clouds 25 1015 83 10000 3.1 110 10:25 17.06.2019
6239 Clouds 25 1014 83 10000 4.1 110 09:55 17.06.2019
6240 Clouds 25 1014 83 10000 4.1 110 09:31 17.06.2019
6241 Clouds 25 1014 83 10000 4.6 110 08:44 17.06.2019
6242 Clouds 25 1014 83 10000 4.6 110 08:24 17.06.2019
6243 Rain 25 1013 88 10000 3.1 120 07:51 17.06.2019
6244 Rain 25 1013 88 10000 3.1 120 07:32 17.06.2019
6245 Rain 26 1013 78 10000 4.6 120 06:48 17.06.2019
6246 Clouds 26 1013 74 10000 5.1 130 05:53 17.06.2019
6247 Clouds 27 1013 74 10000 5.1 120 04:52 17.06.2019
6248 Clouds 26 1014 78 10000 4.6 120 03:52 17.06.2019
6249 Clouds 26 1014 78 10000 4.6 120 03:25 17.06.2019
6250 Clouds 26 1015 78 10000 5.7 110 02:42 17.06.2019
6251 Clouds 26 1015 78 10000 5.7 120 02:19 17.06.2019
6252 Clouds 26 1015 78 10000 5.7 120 01:35 17.06.2019
6253 Clouds 26 1016 78 10000 3.6 120 00:47 17.06.2019
6254 Clouds 26 1016 78 10000 3.6 120 00:24 17.06.2019
6255 Clouds 26 1016 74 10000 3.6 130 23:56 16.06.2019
6256 Clouds 26 1016 74 10000 3.6 130 23:36 16.06.2019
6257 Clouds 25 1016 78 10000 3.1 140 23:18 16.06.2019
6258 Clouds 25 1016 78 10000 3.1 140 22:39 16.06.2019
6259 Clouds 24 1015 83 10000 2.6 150 22:19 16.06.2019
6260 Clouds 24 1015 83 10000 2.6 150 21:56 16.06.2019
6261 Clouds 24 1015 83 10000 2.6 150 21:38 16.06.2019
6262 Clouds 24 1015 88 10000 2.1 140 21:19 16.06.2019
6263 Clouds 24 1015 88 10000 2.1 140 20:37 16.06.2019
6264 Clouds 21 1015 100 10000 1.5 150 20:19 16.06.2019
6265 Clouds 21 1015 100 10000 1.5 150 20:19 16.06.2019
6266 Clouds 21 1015 100 10000 1.5 150 19:55 16.06.2019
6267 Clouds 21 1015 100 10000 1.5 150 19:37 16.06.2019
6268 Clouds 21 1015 100 10000 1.5 150 19:37 16.06.2019
6269 Clouds 22 1015 94 10000 0.98 82.219 19:19 16.06.2019
6270 Clouds 22 1015 94 10000 0.98 82.219 19:19 16.06.2019
6271 Clouds 22 1015 94 10000 0.98 82.219 18:41 16.06.2019
6272 Clouds 21 1015 100 10000 1.5 330 18:21 16.06.2019
6273 Clouds 21 1015 100 10000 1.5 330 18:21 16.06.2019
6274 Clouds 21 1015 100 10000 1.5 330 17:48 16.06.2019
6275 Clouds 21 1015 100 10000 1.5 330 17:24 16.06.2019
6276 Clouds 21 1015 100 10000 1.5 240 16:57 16.06.2019
6277 Clouds 21 1015 100 10000 1.5 240 16:57 16.06.2019
6278 Clouds 21 1015 100 10000 1.5 240 16:39 16.06.2019
6279 Clouds 22 1016 94 10000 1.5 180 16:21 16.06.2019
6280 Clouds 22 1016 94 10000 1.5 180 15:45 16.06.2019
6281 Clouds 22 1016 94 10000 1.5 180 15:26 16.06.2019
6282 Clouds 22 1016 94 10000 0.86 83.771 14:45 16.06.2019
6283 Clouds 22 1016 94 10000 0.86 83.771 14:25 16.06.2019
6284 Clouds 22 1016 94 10000 2.1 200 13:57 16.06.2019
6285 Clouds 22 1016 94 10000 2.1 200 13:38 16.06.2019
6286 Clouds 23 1016 88 10000 1 0 13:20 16.06.2019
6287 Clouds 23 1016 88 10000 1 0 12:42 16.06.2019
6288 Clouds 23 1016 88 10000 2.1 170 12:20 16.06.2019
6289 Clouds 23 1016 88 10000 2.1 170 11:48 16.06.2019
6290 Clouds 24 1016 78 10000 1.5 130 11:21 16.06.2019
6291 Clouds 24 1016 78 10000 1.5 130 10:56 16.06.2019
6292 Clouds 24 1016 78 10000 1.5 130 10:38 16.06.2019
6293 Clouds 25 1015 73 10000 1.5 140 10:18 16.06.2019
6294 Clouds 25 1015 73 10000 1.5 140 09:39 16.06.2019
6295 Clouds 25 1014 73 10000 2.6 150 09:21 16.06.2019
6296 Clouds 25 1014 73 10000 2.6 150 08:42 16.06.2019
6297 Clouds 26 1014 69 10000 2.6 140 08:19 16.06.2019
6298 Clouds 26 1014 69 10000 2.6 140 08:19 16.06.2019
6299 Clouds 26 1014 69 10000 2.6 140 07:44 16.06.2019
6300 Clouds 26 1014 65 10000 3.6 130 07:20 16.06.2019
6301 Clouds 26 1014 65 10000 3.6 130 06:49 16.06.2019
6302 Clouds 27 1014 61 10000 4.1 120 05:52 16.06.2019
6303 Clouds 28 1014 58 10000 3.6 110 05:18 16.06.2019
6304 Clouds 27 1014 57 0 3.6 100 03:58 16.06.2019
6305 Clouds 27 1014 57 0 3.6 100 03:33 16.06.2019
6306 Clouds 27 1015 61 10000 4.1 110 02:36 16.06.2019
6307 Clouds 26 1016 65 10000 4.1 110 01:47 16.06.2019
6308 Clouds 26 1016 65 10000 4.1 110 01:27 16.06.2019
6309 Clouds 27 1016 65 10000 2.26 105.268 00:41 16.06.2019
6310 Clouds 27 1016 65 10000 1.69 91.253 00:22 16.06.2019
6311 Clouds 26 1016 69 10000 3.6 130 23:46 15.06.2019
6312 Clouds 26 1016 69 10000 3.6 130 23:25 15.06.2019
6313 Clouds 26 1016 69 10000 3.1 120 22:50 15.06.2019
6314 Clouds 26 1016 69 10000 3.1 120 22:28 15.06.2019
6315 Clouds 24 1015 88 10000 2.6 130 21:58 15.06.2019
6316 Clouds 24 1015 88 10000 2.6 130 21:40 15.06.2019
6317 Clouds 23 1014 88 10000 1 120 21:20 15.06.2019
6318 Clouds 23 1014 88 10000 1 120 20:43 15.06.2019
6319 Clouds 23 1014 88 10000 1 120 20:22 15.06.2019
6320 Clouds 23 1014 88 10000 1 120 20:22 15.06.2019
6321 Clouds 22 1014 100 10000 1 240 19:43 15.06.2019
6322 Clouds 22 1014 100 10000 1 240 19:24 15.06.2019
6323 Clouds 23 1014 88 10000 1 0 18:41 15.06.2019
6324 Clouds 23 1015 88 10000 2.6 160 18:21 15.06.2019
6325 Clouds 23 1015 88 10000 2.6 160 17:43 15.06.2019
6326 Clouds 23 1015 88 10000 2.6 160 17:25 15.06.2019
6327 Clouds 22 1015 94 10000 1 0 16:48 15.06.2019
6328 Clouds 23 1015 88 10000 1.5 140 16:20 15.06.2019
6329 Clouds 23 1015 88 10000 1.5 140 15:44 15.06.2019
6330 Clouds 23 1015 88 10000 1.5 140 15:44 15.06.2019
6331 Rain 23 1015 94 10000 2.1 200 15:24 15.06.2019
6332 Rain 23 1015 94 10000 2.1 200 14:44 15.06.2019
6333 Clouds 24 1016 78 10000 1.5 160 14:19 15.06.2019
6334 Clouds 24 1016 78 10000 1.5 160 13:58 15.06.2019
6335 Clouds 24 1016 78 10000 1.5 160 13:58 15.06.2019
6336 Clouds 24 1016 78 10000 1.5 160 13:40 15.06.2019
6337 Clouds 24 1016 78 10000 2.6 150 13:19 15.06.2019
6338 Clouds 24 1016 78 10000 2.6 150 12:51 15.06.2019
6339 Clouds 24 1016 78 10000 2.6 150 12:26 15.06.2019
6340 -273 0 0 0 0 0 11:53 15.06.2019
6341 Clouds 24 1015 78 10000 2.6 150 11:53 15.06.2019
6342 Clouds 24 1015 78 10000 2.6 150 11:33 15.06.2019
6343 Clouds 24 1015 78 10000 2.6 150 10:54 15.06.2019
6344 Clouds 24 1015 78 10000 2.6 150 10:36 15.06.2019
6345 Clouds 24 1015 78 10000 2.1 150 10:18 15.06.2019
6346 Clouds 24 1015 78 10000 2.1 150 09:42 15.06.2019
6347 Clouds 24 1014 78 10000 2.6 140 09:21 15.06.2019
6348 Clouds 24 1014 78 10000 2.6 140 08:46 15.06.2019
6349 Clouds 24 1014 78 10000 2.6 140 08:27 15.06.2019
6350 Clouds 25 1014 73 10000 3.1 150 07:42 15.06.2019
6351 Clouds 25 1013 73 10000 3.6 150 07:21 15.06.2019
6352 Clouds 25 1013 73 10000 3.6 150 06:38 15.06.2019
6353 Clouds 26 1013 69 10000 3.1 130 05:48 15.06.2019
6354 Clouds 25 1013 73 10000 3.6 170 05:20 15.06.2019
6355 Clouds 25 1013 73 10000 3.6 170 04:37 15.06.2019
6356 -273 0 0 0 0 0 03:38 15.06.2019
6357 Clouds 26 1015 69 10000 3.6 150 02:48 15.06.2019
6358 Clouds 26 1015 69 10000 4.1 150 01:59 15.06.2019
6359 Clouds 26 1015 69 10000 4.1 150 01:40 15.06.2019
6360 Clouds 25 1016 73 10000 2.1 140 00:44 15.06.2019
6361 Clouds 25 1016 73 10000 2.1 140 00:44 15.06.2019
6362 Clouds 25 1016 73 10000 2.1 140 00:26 15.06.2019
6363 Clouds 25 1016 73 10000 3.1 160 23:52 14.06.2019
6364 Clouds 25 1016 73 10000 3.1 160 23:25 14.06.2019
6365 Clouds 22 1015 94 10000 1.5 310 22:43 14.06.2019
6366 Clouds 22 1015 94 10000 1.5 310 22:22 14.06.2019
6367 Clouds 21 1014 94 10000 2.1 360 21:49 14.06.2019
6368 Clouds 21 1014 94 10000 2.1 360 21:30 14.06.2019
6369 Clouds 20 1014 100 10000 1.15 84.319 20:58 14.06.2019
6370 Clouds 20 1014 100 10000 1.15 84.319 20:39 14.06.2019
6371 Clouds 20 1014 100 10000 1.15 84.319 20:18 14.06.2019
6372 Clouds 20 1014 100 10000 1.15 84.319 19:43 14.06.2019
6373 Clouds 21 1014 94 10000 1.15 84.319 19:23 14.06.2019
6374 Clouds 21 1014 94 10000 1.15 84.319 18:56 14.06.2019
6375 Clouds 21 1014 94 10000 1.15 84.319 18:37 14.06.2019
6376 Clouds 20 1014 94 10000 0.83 68.893 18:19 14.06.2019
6377 Clouds 20 1014 94 10000 0.83 68.893 17:46 14.06.2019
6378 Clouds 20 1014 94 10000 0.83 68.893 17:24 14.06.2019
6379 Clouds 20 1014 94 10000 0.83 68.893 16:54 14.06.2019
6380 Clouds 20 1014 94 10000 0.83 68.893 16:28 14.06.2019
6381 Clouds 21 1015 88 10000 0.83 68.893 15:59 14.06.2019
6382 Clouds 21 1015 88 10000 0.83 68.893 15:39 14.06.2019
6383 Clouds 21 1015 94 10000 0.83 81.782 15:20 14.06.2019
6384 Clouds 21 1015 94 10000 0.83 81.782 15:20 14.06.2019
6385 Clouds 21 1015 94 10000 0.83 81.782 15:20 14.06.2019
6386 Clouds 21 1015 94 10000 0.83 81.782 15:20 14.06.2019
6387 Clouds 21 1015 94 10000 0.83 81.782 14:48 14.06.2019
6388 Clouds 21 1015 94 10000 0.83 81.782 14:48 14.06.2019
6389 Clouds 21 1015 94 10000 0.83 81.782 14:29 14.06.2019
6390 Clouds 22 1015 94 10000 0.83 81.782 13:49 14.06.2019
6391 Clouds 22 1015 94 10000 0.93 87.774 13:30 14.06.2019
6392 -273 0 0 0 0 0 12:59 14.06.2019
6393 Clouds 22 1015 88 10000 1 180 12:39 14.06.2019
6394 Clouds 22 1015 88 10000 1 0 12:21 14.06.2019
6395 Clouds 22 1015 88 10000 1 0 11:43 14.06.2019
6396 Clouds 22 1015 88 10000 1 0 11:23 14.06.2019
6397 Clouds 22 1014 88 10000 1 200 10:49 14.06.2019
6398 Clouds 22 1014 88 10000 1 200 10:22 14.06.2019
6399 Clouds 22 1014 88 10000 1 200 09:55 14.06.2019
6400 Clouds 22 1014 88 10000 1 200 09:34 14.06.2019
6401 Clouds 23 1013 69 10000 1.5 180 08:49 14.06.2019
6402 Clouds 25 1013 65 10000 2.6 170 08:21 14.06.2019
6403 Clouds 25 1013 65 10000 2.6 170 07:58 14.06.2019
6404 Clouds 25 1013 65 10000 2.6 170 07:39 14.06.2019
6405 Clouds 25 1012 65 10000 3.1 170 07:18 14.06.2019
6406 Clouds 25 1012 65 10000 3.1 170 06:27 14.06.2019
6407 Clouds 25 1012 65 10000 3.6 130 05:49 14.06.2019
6408 Clouds 27 1013 61 10000 3.1 170 04:55 14.06.2019
6409 Clouds 27 1013 61 10000 3.1 170 04:27 14.06.2019
6410 Clouds 26 1013 65 10000 3.1 170 03:41 14.06.2019
6411 Clouds 27 1014 61 10000 3.1 160 03:21 14.06.2019
6412 Clouds 27 1014 61 10000 3.1 160 02:36 14.06.2019
6413 Clouds 26 1015 61 10000 3.6 180 01:51 14.06.2019
6414 Clouds 26 1015 65 10000 4.1 180 00:40 14.06.2019
6415 Clouds 24 1015 83 10000 1.62 123.053 00:21 14.06.2019
6416 Clouds 24 1015 83 10000 1.62 123.053 23:50 13.06.2019
6417 Clouds 24 1015 83 10000 1.62 123.053 23:50 13.06.2019
6418 Clouds 24 1015 83 10000 1.62 123.053 23:25 13.06.2019
6419 Clouds 22 1015 94 10000 1 0 22:41 13.06.2019
6420 Clouds 21 1014 94 10000 1 0 22:22 13.06.2019
6421 Clouds 21 1014 94 10000 1 0 21:59 13.06.2019
6422 Clouds 21 1014 94 10000 1 0 21:37 13.06.2019
6423 Clouds 21 1013 94 10000 1 0 21:18 13.06.2019
6424 Clouds 21 1013 94 10000 1 0 20:45 13.06.2019
6425 Rain 20 1013 100 10000 1 0 20:20 13.06.2019
6426 Rain 20 1013 100 10000 1 0 19:43 13.06.2019
6427 Rain 20 1013 100 10000 1 0 19:25 13.06.2019
6428 Clouds 19 1013 100 10000 1 0 18:59 13.06.2019
6429 Clouds 19 1013 100 10000 1 0 18:41 13.06.2019
6430 Clouds 19 1013 100 10000 1 0 18:22 13.06.2019
6431 Clouds 19 1013 100 10000 1 0 17:45 13.06.2019
6432 Clouds 19 1013 100 10000 1 0 17:22 13.06.2019
6433 Clouds 20 1013 94 10000 1 0 16:59 13.06.2019
6434 Clouds 20 1013 94 10000 1 0 16:40 13.06.2019
6435 Clouds 21 1013 94 10000 1 0 16:20 13.06.2019
6436 Clouds 21 1013 94 10000 1 0 15:41 13.06.2019
6437 Clouds 21 1013 94 10000 1 0 15:22 13.06.2019
6438 Clouds 23 1013 88 10000 1 0 14:50 13.06.2019
6439 Clouds 23 1013 88 10000 1 0 14:31 13.06.2019
6440 Clouds 23 1014 88 10000 1 0 13:55 13.06.2019
6441 Clouds 23 1014 88 10000 1 0 13:37 13.06.2019
6442 Clouds 23 1014 94 10000 2.6 170 13:19 13.06.2019
6443 Clouds 23 1014 94 10000 2.6 170 12:40 13.06.2019
6444 Clouds 24 1014 83 10000 1.5 150 12:21 13.06.2019
6445 Clouds 24 1014 83 10000 1.5 150 11:44 13.06.2019
6446 Clouds 24 1014 83 10000 1.5 150 11:25 13.06.2019
6447 Clouds 24 1013 83 10000 1 180 10:49 13.06.2019
6448 Clouds 24 1013 83 10000 1 180 10:30 13.06.2019
6449 Clouds 24 1013 83 10000 2.1 160 09:53 13.06.2019
6450 Clouds 24 1013 83 10000 2.1 160 09:33 13.06.2019
6451 Clouds 24 1012 83 10000 3.1 190 08:57 13.06.2019
6452 Clouds 24 1012 83 10000 3.1 190 08:56 13.06.2019
6453 Clouds 24 1012 83 10000 3.1 190 08:56 13.06.2019
6454 Clouds 24 1012 83 10000 3.1 190 08:38 13.06.2019
6455 Clouds 24 1012 83 10000 2.1 170 08:19 13.06.2019
6456 Clouds 24 1012 83 10000 2.1 170 07:39 13.06.2019
6457 Clouds 25 1011 73 10000 3.1 190 07:19 13.06.2019
6458 Clouds 25 1011 73 10000 3.1 190 06:40 13.06.2019
6459 Clouds 26 1011 74 10000 3.6 190 06:21 13.06.2019
6460 Clouds 26 1011 74 10000 3.6 190 05:39 13.06.2019
6461 Clouds 26 1011 74 10000 4.1 180 05:19 13.06.2019
6462 Clouds 26 1011 74 10000 3.6 180 03:50 13.06.2019
6463 Clouds 25 1013 78 10000 2.1 180 01:59 13.06.2019
6464 Clouds 26 1014 78 10000 3.1 220 00:36 13.06.2019
6465 Clouds 25 1014 83 10000 2.6 240 23:38 12.06.2019
6466 Clouds 25 1014 83 10000 2.6 240 23:38 12.06.2019
6467 Clouds 23 1013 88 10000 1.08 199.847 23:19 12.06.2019
6468 Clouds 23 1013 88 10000 1.08 199.847 22:41 12.06.2019
6469 Clouds 23 1013 88 10000 1.08 199.847 22:41 12.06.2019
6470 Clouds 22 1013 94 10000 1.08 199.847 22:21 12.06.2019
6471 Clouds 22 1013 94 10000 1.08 199.847 21:46 12.06.2019
6472 Clouds 22 1013 94 10000 0.59 278.584 21:28 12.06.2019
6473 Clouds 22 1012 94 10000 0.59 278.584 20:49 12.06.2019
6474 Clouds 22 1012 94 10000 0.59 278.584 20:30 12.06.2019
6475 Clouds 22 1012 94 10000 2.1 240 19:58 12.06.2019
6476 Clouds 22 1012 94 10000 2.1 240 19:39 12.06.2019
6477 Clouds 22 1012 94 10000 2.1 240 19:21 12.06.2019
6478 Clouds 22 1012 94 10000 2.1 240 18:48 12.06.2019
6479 Clouds 22 1012 94 10000 2.1 240 18:28 12.06.2019
6480 Clouds 22 1012 100 10000 0.61 286.151 17:48 12.06.2019
6481 Clouds 22 1012 100 10000 0.61 286.151 17:23 12.06.2019
6482 Clouds 23 1013 94 10000 0.61 286.151 16:57 12.06.2019
6483 Clouds 23 1013 94 10000 0.61 286.151 16:37 12.06.2019
6484 Clouds 22 1013 100 10000 1.5 300 16:19 12.06.2019
6485 Clouds 22 1013 100 10000 1.5 300 15:46 12.06.2019
6486 Clouds 22 1013 100 10000 1.5 300 15:25 12.06.2019
6487 Clouds 22 1013 100 10000 0.42 289.508 14:36 12.06.2019
6488 Clouds 22 1013 94 10000 0.42 289.508 14:18 12.06.2019
6489 Clouds 22 1013 94 10000 0.42 289.508 13:41 12.06.2019
6490 Clouds 23 1013 94 10000 2.1 190 13:20 12.06.2019
6491 Clouds 23 1013 94 10000 2.1 190 12:56 12.06.2019
6492 Clouds 23 1013 94 10000 2.1 190 12:37 12.06.2019
6493 -273 0 0 0 0 0 12:18 12.06.2019
6494 Rain 23 1013 94 10000 1.5 210 11:43 12.06.2019
6495 Rain 23 1013 94 10000 1.5 210 11:43 12.06.2019
6496 Rain 23 1013 94 10000 1.5 210 11:25 12.06.2019
6497 Clouds 24 1013 88 10000 1 0 10:46 12.06.2019
6498 Clouds 24 1013 88 10000 1 0 10:21 12.06.2019
6499 Clouds 24 1012 88 10000 1 0 09:43 12.06.2019
6500 Clouds 24 1012 88 10000 1 0 09:23 12.06.2019
6501 Clouds 24 1011 88 10000 1 0 08:46 12.06.2019
6502 Clouds 25 1011 83 10000 2.6 200 08:20 12.06.2019
6503 Clouds 25 1011 83 10000 2.6 200 07:37 12.06.2019
6504 Clouds 25 1011 83 10000 2.6 180 06:41 12.06.2019
6505 Clouds 26 1011 83 10000 1.33 187.29 05:27 12.06.2019
6506 Clouds 26 1012 78 10000 2.1 200 03:41 12.06.2019
6507 Clouds 25 1014 83 10000 1.44 195.052 00:54 12.06.2019
6508 Clouds 25 1014 83 10000 1.44 195.052 00:35 12.06.2019
6509 Clouds 23 1014 94 10000 1 0 23:44 11.06.2019
6510 Clouds 23 1014 94 10000 1 0 23:26 11.06.2019
6511 Clouds 21 1013 100 10000 1.5 300 22:43 11.06.2019
6512 Clouds 20 1013 100 10000 1.5 300 22:18 11.06.2019
6513 Clouds 20 1013 100 10000 1.5 300 21:56 11.06.2019
6514 Clouds 20 1013 100 10000 1.5 300 21:37 11.06.2019
6515 Clouds 20 1012 100 10000 0.41 274.729 21:19 11.06.2019
6516 Clouds 20 1012 100 10000 0.41 274.729 20:46 11.06.2019
6517 Clouds 21 1012 94 10000 0.41 274.729 20:23 11.06.2019
6518 Clouds 21 1012 94 10000 0.41 274.729 19:52 11.06.2019
6519 Clouds 21 1012 94 10000 0.41 274.729 19:29 11.06.2019
6520 Clouds 21 1012 100 10000 2.1 280 18:54 11.06.2019
6521 Clouds 21 1012 100 10000 1.5 360 18:21 11.06.2019
6522 Clouds 21 1012 100 10000 1.5 360 18:20 11.06.2019
6523 Clouds 21 1012 100 10000 1.5 360 17:41 11.06.2019
6524 Clouds 22 1012 100 10000 2.1 340 17:20 11.06.2019
6525 Clouds 22 1012 100 10000 2.1 340 16:44 11.06.2019
6526 Clouds 22 1013 100 10000 2.1 300 16:24 11.06.2019
6527 Clouds 22 1013 100 10000 2.1 300 15:44 11.06.2019
6528 Clouds 22 1013 100 10000 2.1 300 15:25 11.06.2019
6529 Clouds 22 1013 100 10000 2.6 300 14:58 11.06.2019
6530 Clouds 22 1013 100 10000 2.6 300 14:39 11.06.2019
6531 Clouds 22 1013 100 10000 1.5 360 14:19 11.06.2019
6532 Clouds 22 1013 100 10000 1.5 360 13:43 11.06.2019
6533 Clouds 22 1014 100 10000 2.1 320 13:21 11.06.2019
6534 Clouds 22 1014 100 10000 2.1 320 12:42 11.06.2019
6535 Clouds 22 1014 100 10000 2.1 320 12:22 11.06.2019
6536 Clouds 22 1014 100 10000 2.1 310 11:56 11.06.2019
6537 Clouds 22 1014 100 10000 2.1 310 11:33 11.06.2019
6538 Clouds 22 1013 94 10000 1.5 300 10:51 11.06.2019
6539 Clouds 22 1013 94 10000 1.5 300 10:27 11.06.2019
6540 Clouds 22 1013 94 10000 0.5 359.307 09:52 11.06.2019
6541 Clouds 22 1013 94 10000 0.5 359.307 09:28 11.06.2019
6542 Clouds 22 1013 94 10000 0.28 111.229 08:59 11.06.2019
6543 Clouds 22 1013 94 10000 0.28 111.229 08:40 11.06.2019
6544 Rain 22 1013 94 10000 1.5 60 08:20 11.06.2019
6545 Rain 22 1013 94 10000 1.5 60 07:34 11.06.2019
6546 Clouds 22 1012 94 10000 1 0 06:53 11.06.2019
6547 Rain 22 1012 100 5000 5.7 210 05:21 11.06.2019
6548 Rain 25 1011 94 10000 3.6 240 04:38 11.06.2019
6549 Clouds 26 1013 83 10000 2.6 220 02:26 11.06.2019
6550 Clouds 26 1013 83 10000 1.09 243.694 00:52 11.06.2019
6551 Clouds 26 1013 83 10000 0.81 260.734 00:26 11.06.2019
6552 Clouds 24 1013 94 10000 3.1 260 23:45 10.06.2019
6553 Clouds 23 1012 100 10000 1.5 290 23:21 10.06.2019
6554 Clouds 23 1012 100 10000 1.5 290 22:45 10.06.2019
6555 Clouds 23 1012 100 10000 1.5 290 22:26 10.06.2019
6556 Rain 23 1011 100 10000 2.6 270 21:56 10.06.2019
6557 Rain 23 1011 100 10000 2.6 270 21:38 10.06.2019
6558 Clouds 23 1009 100 10000 1.5 240 21:19 10.06.2019
6559 Clouds 23 1009 100 10000 1.5 240 20:41 10.06.2019
6560 Clouds 23 1011 100 10000 1 0 20:21 10.06.2019
6561 Clouds 23 1011 100 10000 1 0 19:44 10.06.2019
6562 Clouds 23 1009 100 10000 4.6 60 19:22 10.06.2019
6563 Clouds 23 1009 100 10000 4.6 60 18:56 10.06.2019
6564 Clouds 23 1009 100 10000 4.6 60 18:38 10.06.2019
6565 Clouds 23 1011 100 10000 1.5 360 18:19 10.06.2019
6566 Clouds 23 1011 100 10000 1.5 360 17:43 10.06.2019
6567 Clouds 23 1011 100 10000 1.5 360 17:24 10.06.2019
6568 Clouds 23 1011 100 10000 1.5 360 17:24 10.06.2019
6569 Rain 24 1012 94 10000 2.1 300 16:49 10.06.2019
6570 Rain 24 1012 94 10000 2.1 300 16:30 10.06.2019
6571 Rain 24 1012 94 10000 1 0 15:57 10.06.2019
6572 Rain 24 1012 94 10000 1 0 15:38 10.06.2019
6573 Rain 24 1013 94 10000 2.1 350 15:20 10.06.2019
6574 Rain 24 1013 94 10000 2.1 350 14:41 10.06.2019
6575 Clouds 23 1014 100 10000 1 280 14:23 10.06.2019
6576 Clouds 23 1014 100 10000 1 280 13:46 10.06.2019
6577 Clouds 23 1014 100 10000 1 280 13:26 10.06.2019
6578 Clouds 23 1014 100 10000 1.42 33.969 12:53 10.06.2019
6579 Clouds 23 1014 100 10000 1.48 41.444 12:30 10.06.2019
6580 Clouds 23 1015 100 10000 1.48 41.444 11:54 10.06.2019
6581 Clouds 23 1015 100 10000 1.48 41.444 11:30 10.06.2019
6582 Clouds 23 1014 94 10000 2.1 80 10:59 10.06.2019
6583 Clouds 23 1014 94 10000 2.1 80 10:40 10.06.2019
6584 Clouds 23 1014 100 10000 1.48 41.444 10:18 10.06.2019
6585 Clouds 23 1014 100 10000 1.48 41.444 09:50 10.06.2019
6586 Clouds 23 1014 100 10000 1.48 41.444 09:29 10.06.2019
6587 Clouds 23 1014 100 10000 1.52 56.111 09:29 10.06.2019
6588 Rain 24 1014 94 10000 1 180 08:48 10.06.2019
6589 Rain 24 1014 94 10000 1 180 08:26 10.06.2019
6590 Clouds 25 1013 83 10000 2.6 90 07:40 10.06.2019
6591 Clouds 27 1013 69 10000 4.1 90 04:42 10.06.2019
6592 Clouds 26 1015 78 10000 4.1 70 02:29 10.06.2019
6593 Rain 24 1016 88 10000 4.1 40 01:32 10.06.2019
6594 Clouds 23 1016 88 10000 1.5 260 00:59 10.06.2019
6595 Clouds 23 1016 88 10000 1.5 260 00:36 10.06.2019
6596 Rain 23 1017 94 10000 1 0 23:46 09.06.2019
6597 Clouds 22 1016 94 10000 2.1 220 23:21 09.06.2019
6598 Clouds 22 1016 94 10000 2.1 220 22:45 09.06.2019
6599 Clouds 22 1016 94 10000 2.1 220 22:26 09.06.2019
6600 Clouds 21 1016 94 10000 1 0 21:47 09.06.2019
6601 Clouds 21 1016 94 10000 1 0 21:28 09.06.2019
6602 Clouds 21 1015 94 10000 2.1 60 20:58 09.06.2019
6603 Clouds 21 1015 94 10000 2.1 60 20:40 09.06.2019
6604 Rain 21 1015 94 10000 3.6 80 20:21 09.06.2019
6605 Rain 21 1015 94 10000 3.6 80 19:42 09.06.2019
6606 Clouds 21 1014 94 10000 1 0 19:18 09.06.2019
6607 Clouds 21 1014 94 10000 1 0 18:43 09.06.2019
6608 Clouds 21 1014 94 10000 1 0 18:24 09.06.2019
6609 Clouds 21 1015 94 10000 1.5 170 17:50 09.06.2019
6610 Clouds 21 1015 94 10000 1.5 170 17:30 09.06.2019
6611 Clouds 21 1015 94 10000 2.1 190 16:58 09.06.2019
6612 Clouds 21 1015 94 10000 2.1 190 16:58 09.06.2019
6613 Clouds 21 1015 94 10000 2.1 190 16:39 09.06.2019
6614 Clouds 21 1016 94 10000 1 0 16:20 09.06.2019
6615 Clouds 21 1016 94 10000 1 0 15:48 09.06.2019
6616 Clouds 21 1016 94 10000 1 0 15:28 09.06.2019
6617 Rain 21 1016 94 10000 1.5 160 14:48 09.06.2019
6618 Rain 21 1016 94 10000 1.5 160 14:29 09.06.2019
6619 Clouds 22 1017 78 10000 1.5 180 13:56 09.06.2019
6620 Clouds 22 1017 78 10000 1.5 180 13:37 09.06.2019
6621 Rain 22 1016 78 10000 2.6 100 12:46 09.06.2019
6622 Rain 22 1016 78 10000 2.6 100 12:27 09.06.2019
6623 Clouds 22 1016 83 10000 1.5 120 11:48 09.06.2019
6624 Clouds 22 1016 83 10000 1.5 120 11:29 09.06.2019
6625 Clouds 23 1016 73 10000 1.15 67.169 10:47 09.06.2019
6626 Clouds 23 1016 73 10000 1.15 67.169 10:47 09.06.2019
6627 Clouds 23 1016 73 10000 1.15 67.169 10:26 09.06.2019
6628 Clouds 23 1015 73 10000 1.5 170 09:56 09.06.2019
6629 Clouds 23 1015 73 10000 1.5 170 09:37 09.06.2019
6630 Clouds 23 1014 73 10000 1.5 170 09:18 09.06.2019
6631 Clouds 23 1014 73 10000 1.5 170 08:42 09.06.2019
6632 Clouds 24 1014 64 10000 2.1 150 07:50 09.06.2019
6633 Clouds 25 1013 61 10000 2.6 170 06:33 09.06.2019
6634 Clouds 25 1013 57 10000 3.1 150 05:47 09.06.2019
6635 Clouds 26 1014 50 10000 3.1 160 02:55 09.06.2019
6636 Clouds 26 1015 54 10000 2.6 170 01:36 09.06.2019
6637 Clouds 26 1015 54 10000 2.6 170 01:36 09.06.2019
6638 Clouds 26 1015 54 10000 2.6 170 01:36 09.06.2019
6639 Clouds 25 1015 65 10000 1.5 300 01:18 09.06.2019